<?xml version="1.0" encoding="UTF-8" standalone="no" ?>
<gpx xmlns="http://www.topografix.com/GPX/1/1" xmlns:xsi="http://www.w3.org/2001/XMLSchema-instance" xsi:schemaLocation="http://www.topografix.com/GPX/1/1 http://www.topografix.com/GPX/1/1/gpx.xsd" version="1.1" creator="VisuGPX - https://www.visugpx.com">
  <metadata>
    <name>2020 Bretagne </name>
  </metadata>
  <trk>
    <name><![CDATA[20-08-07AM]]></name>
    <trkseg>
      <trkpt lat="48.3716" lon="-3.54419">
        <ele>184.71</ele>
        <time>2020-08-07T08:11:22Z</time>
      </trkpt>
      <trkpt lat="48.37162" lon="-3.54418">
        <ele>184.71</ele>
        <time>2020-08-07T08:11:23Z</time>
      </trkpt>
      <trkpt lat="48.37163" lon="-3.54417">
        <ele>184.71</ele>
        <time>2020-08-07T08:11:41Z</time>
      </trkpt>
      <trkpt lat="48.37164" lon="-3.54415">
        <ele>185.19</ele>
        <time>2020-08-07T08:12:00Z</time>
      </trkpt>
      <trkpt lat="48.37165" lon="-3.54413">
        <ele>185.67</ele>
        <time>2020-08-07T08:12:15Z</time>
      </trkpt>
      <trkpt lat="48.37166" lon="-3.54413">
        <ele>182.31</ele>
        <time>2020-08-07T08:12:31Z</time>
      </trkpt>
      <trkpt lat="48.37166" lon="-3.54413">
        <ele>186.15</ele>
        <time>2020-08-07T08:12:32Z</time>
      </trkpt>
      <trkpt lat="48.37165" lon="-3.54414">
        <ele>181.83</ele>
        <time>2020-08-07T08:12:37Z</time>
      </trkpt>
      <trkpt lat="48.37165" lon="-3.54414">
        <ele>187.11</ele>
        <time>2020-08-07T08:12:38Z</time>
      </trkpt>
      <trkpt lat="48.37165" lon="-3.54415">
        <ele>186.63</ele>
        <time>2020-08-07T08:12:57Z</time>
      </trkpt>
      <trkpt lat="48.37165" lon="-3.54415">
        <ele>182.31</ele>
        <time>2020-08-07T08:13:00Z</time>
      </trkpt>
      <trkpt lat="48.37165" lon="-3.54415">
        <ele>190</ele>
        <time>2020-08-07T08:13:01Z</time>
      </trkpt>
      <trkpt lat="48.37164" lon="-3.54416">
        <ele>180.38</ele>
        <time>2020-08-07T08:13:02Z</time>
      </trkpt>
      <trkpt lat="48.37164" lon="-3.54416">
        <ele>189.52</ele>
        <time>2020-08-07T08:13:03Z</time>
      </trkpt>
      <trkpt lat="48.37162" lon="-3.54415">
        <ele>185.67</ele>
        <time>2020-08-07T08:13:05Z</time>
      </trkpt>
      <trkpt lat="48.37161" lon="-3.54416">
        <ele>186.15</ele>
        <time>2020-08-07T08:13:06Z</time>
      </trkpt>
      <trkpt lat="48.37157" lon="-3.54415">
        <ele>187.11</ele>
        <time>2020-08-07T08:13:11Z</time>
      </trkpt>
      <trkpt lat="48.3715" lon="-3.54411">
        <ele>187.11</ele>
        <time>2020-08-07T08:13:23Z</time>
      </trkpt>
      <trkpt lat="48.37147" lon="-3.54409">
        <ele>188.08</ele>
        <time>2020-08-07T08:13:28Z</time>
      </trkpt>
      <trkpt lat="48.37146" lon="-3.54409">
        <ele>187.59</ele>
        <time>2020-08-07T08:13:30Z</time>
      </trkpt>
      <trkpt lat="48.37143" lon="-3.54405">
        <ele>188.08</ele>
        <time>2020-08-07T08:13:37Z</time>
      </trkpt>
      <trkpt lat="48.37137" lon="-3.54391">
        <ele>189.04</ele>
        <time>2020-08-07T08:13:51Z</time>
      </trkpt>
      <trkpt lat="48.37137" lon="-3.54384">
        <ele>190</ele>
        <time>2020-08-07T08:14:01Z</time>
      </trkpt>
      <trkpt lat="48.37139" lon="-3.54381">
        <ele>189.52</ele>
        <time>2020-08-07T08:14:04Z</time>
      </trkpt>
      <trkpt lat="48.37143" lon="-3.54368">
        <ele>190.96</ele>
        <time>2020-08-07T08:14:15Z</time>
      </trkpt>
      <trkpt lat="48.37147" lon="-3.54349">
        <ele>191.92</ele>
        <time>2020-08-07T08:14:30Z</time>
      </trkpt>
      <trkpt lat="48.37155" lon="-3.54335">
        <ele>192.4</ele>
        <time>2020-08-07T08:14:44Z</time>
      </trkpt>
      <trkpt lat="48.37166" lon="-3.54316">
        <ele>192.88</ele>
        <time>2020-08-07T08:15:01Z</time>
      </trkpt>
      <trkpt lat="48.37168" lon="-3.54312">
        <ele>193.36</ele>
        <time>2020-08-07T08:15:04Z</time>
      </trkpt>
      <trkpt lat="48.37169" lon="-3.54307">
        <ele>192.88</ele>
        <time>2020-08-07T08:15:07Z</time>
      </trkpt>
      <trkpt lat="48.37175" lon="-3.54292">
        <ele>192.88</ele>
        <time>2020-08-07T08:15:20Z</time>
      </trkpt>
      <trkpt lat="48.37175" lon="-3.54289">
        <ele>193.84</ele>
        <time>2020-08-07T08:15:22Z</time>
      </trkpt>
      <trkpt lat="48.37178" lon="-3.54282">
        <ele>192.88</ele>
        <time>2020-08-07T08:15:28Z</time>
      </trkpt>
      <trkpt lat="48.3718" lon="-3.54278">
        <ele>192.88</ele>
        <time>2020-08-07T08:15:32Z</time>
      </trkpt>
      <trkpt lat="48.37184" lon="-3.54269">
        <ele>192.88</ele>
        <time>2020-08-07T08:15:46Z</time>
      </trkpt>
      <trkpt lat="48.3719" lon="-3.54262">
        <ele>192.88</ele>
        <time>2020-08-07T08:15:58Z</time>
      </trkpt>
      <trkpt lat="48.37193" lon="-3.54254">
        <ele>193.36</ele>
        <time>2020-08-07T08:16:13Z</time>
      </trkpt>
      <trkpt lat="48.37192" lon="-3.54251">
        <ele>193.36</ele>
        <time>2020-08-07T08:16:27Z</time>
      </trkpt>
      <trkpt lat="48.37193" lon="-3.54247">
        <ele>193.84</ele>
        <time>2020-08-07T08:16:41Z</time>
      </trkpt>
      <trkpt lat="48.37193" lon="-3.54244">
        <ele>193.84</ele>
        <time>2020-08-07T08:16:43Z</time>
      </trkpt>
      <trkpt lat="48.3719" lon="-3.5423">
        <ele>194.8</ele>
        <time>2020-08-07T08:16:57Z</time>
      </trkpt>
      <trkpt lat="48.37188" lon="-3.54225">
        <ele>196.25</ele>
        <time>2020-08-07T08:17:13Z</time>
      </trkpt>
      <trkpt lat="48.37183" lon="-3.54212">
        <ele>196.73</ele>
        <time>2020-08-07T08:17:27Z</time>
      </trkpt>
      <trkpt lat="48.37182" lon="-3.5421">
        <ele>197.21</ele>
        <time>2020-08-07T08:17:40Z</time>
      </trkpt>
      <trkpt lat="48.37182" lon="-3.54203">
        <ele>197.21</ele>
        <time>2020-08-07T08:17:53Z</time>
      </trkpt>
      <trkpt lat="48.3718" lon="-3.54187">
        <ele>198.17</ele>
        <time>2020-08-07T08:18:07Z</time>
      </trkpt>
      <trkpt lat="48.37176" lon="-3.54178">
        <ele>198.17</ele>
        <time>2020-08-07T08:18:20Z</time>
      </trkpt>
      <trkpt lat="48.37173" lon="-3.54177">
        <ele>199.13</ele>
        <time>2020-08-07T08:18:49Z</time>
      </trkpt>
      <trkpt lat="48.37171" lon="-3.54176">
        <ele>199.61</ele>
        <time>2020-08-07T08:19:08Z</time>
      </trkpt>
      <trkpt lat="48.37171" lon="-3.54175">
        <ele>200.09</ele>
        <time>2020-08-07T08:19:34Z</time>
      </trkpt>
      <trkpt lat="48.37171" lon="-3.54174">
        <ele>200.57</ele>
        <time>2020-08-07T08:19:54Z</time>
      </trkpt>
      <trkpt lat="48.37169" lon="-3.54168">
        <ele>201.05</ele>
        <time>2020-08-07T08:20:17Z</time>
      </trkpt>
      <trkpt lat="48.37166" lon="-3.54156">
        <ele>201.53</ele>
        <time>2020-08-07T08:20:30Z</time>
      </trkpt>
      <trkpt lat="48.37166" lon="-3.54148">
        <ele>201.53</ele>
        <time>2020-08-07T08:20:46Z</time>
      </trkpt>
      <trkpt lat="48.37166" lon="-3.54145">
        <ele>202.01</ele>
        <time>2020-08-07T08:21:06Z</time>
      </trkpt>
      <trkpt lat="48.37165" lon="-3.54143">
        <ele>202.49</ele>
        <time>2020-08-07T08:21:23Z</time>
      </trkpt>
      <trkpt lat="48.37164" lon="-3.54143">
        <ele>202.49</ele>
        <time>2020-08-07T08:21:38Z</time>
      </trkpt>
      <trkpt lat="48.37163" lon="-3.54144">
        <ele>202.98</ele>
        <time>2020-08-07T08:21:53Z</time>
      </trkpt>
      <trkpt lat="48.37161" lon="-3.54155">
        <ele>202.98</ele>
        <time>2020-08-07T08:22:08Z</time>
      </trkpt>
      <trkpt lat="48.3716" lon="-3.54157">
        <ele>203.94</ele>
        <time>2020-08-07T08:22:21Z</time>
      </trkpt>
      <trkpt lat="48.3716" lon="-3.5416">
        <ele>204.42</ele>
        <time>2020-08-07T08:22:35Z</time>
      </trkpt>
      <trkpt lat="48.37156" lon="-3.54152">
        <ele>206.34</ele>
        <time>2020-08-07T08:22:50Z</time>
      </trkpt>
      <trkpt lat="48.37151" lon="-3.54144">
        <ele>207.3</ele>
        <time>2020-08-07T08:23:05Z</time>
      </trkpt>
      <trkpt lat="48.37151" lon="-3.54137">
        <ele>208.26</ele>
        <time>2020-08-07T08:23:19Z</time>
      </trkpt>
      <trkpt lat="48.37152" lon="-3.54128">
        <ele>208.26</ele>
        <time>2020-08-07T08:23:34Z</time>
      </trkpt>
      <trkpt lat="48.37152" lon="-3.54124">
        <ele>208.74</ele>
        <time>2020-08-07T08:23:49Z</time>
      </trkpt>
      <trkpt lat="48.37153" lon="-3.54119">
        <ele>208.74</ele>
        <time>2020-08-07T08:24:04Z</time>
      </trkpt>
      <trkpt lat="48.37155" lon="-3.54115">
        <ele>208.26</ele>
        <time>2020-08-07T08:24:17Z</time>
      </trkpt>
      <trkpt lat="48.37156" lon="-3.54114">
        <ele>209.22</ele>
        <time>2020-08-07T08:24:39Z</time>
      </trkpt>
      <trkpt lat="48.37157" lon="-3.54113">
        <ele>209.22</ele>
        <time>2020-08-07T08:25:10Z</time>
      </trkpt>
      <trkpt lat="48.37157" lon="-3.54107">
        <ele>209.22</ele>
        <time>2020-08-07T08:25:28Z</time>
      </trkpt>
      <trkpt lat="48.37157" lon="-3.54104">
        <ele>209.22</ele>
        <time>2020-08-07T08:25:40Z</time>
      </trkpt>
      <trkpt lat="48.37159" lon="-3.54103">
        <ele>209.7</ele>
        <time>2020-08-07T08:25:59Z</time>
      </trkpt>
      <trkpt lat="48.37158" lon="-3.54102">
        <ele>210.19</ele>
        <time>2020-08-07T08:26:11Z</time>
      </trkpt>
      <trkpt lat="48.37158" lon="-3.54103">
        <ele>210.67</ele>
        <time>2020-08-07T08:26:30Z</time>
      </trkpt>
      <trkpt lat="48.3716" lon="-3.54103">
        <ele>210.67</ele>
        <time>2020-08-07T08:26:45Z</time>
      </trkpt>
      <trkpt lat="48.37159" lon="-3.54104">
        <ele>210.67</ele>
        <time>2020-08-07T08:27:02Z</time>
      </trkpt>
      <trkpt lat="48.37159" lon="-3.54099">
        <ele>210.67</ele>
        <time>2020-08-07T08:27:06Z</time>
      </trkpt>
      <trkpt lat="48.37161" lon="-3.54082">
        <ele>210.19</ele>
        <time>2020-08-07T08:27:19Z</time>
      </trkpt>
      <trkpt lat="48.37162" lon="-3.54068">
        <ele>209.7</ele>
        <time>2020-08-07T08:27:27Z</time>
      </trkpt>
      <trkpt lat="48.3716" lon="-3.54043">
        <ele>207.78</ele>
        <time>2020-08-07T08:27:43Z</time>
      </trkpt>
      <trkpt lat="48.3716" lon="-3.54039">
        <ele>207.78</ele>
        <time>2020-08-07T08:27:45Z</time>
      </trkpt>
      <trkpt lat="48.37159" lon="-3.54033">
        <ele>206.82</ele>
        <time>2020-08-07T08:27:49Z</time>
      </trkpt>
      <trkpt lat="48.3716" lon="-3.54012">
        <ele>205.38</ele>
        <time>2020-08-07T08:28:03Z</time>
      </trkpt>
      <trkpt lat="48.37159" lon="-3.53999">
        <ele>203.94</ele>
        <time>2020-08-07T08:28:11Z</time>
      </trkpt>
      <trkpt lat="48.37154" lon="-3.53977">
        <ele>203.46</ele>
        <time>2020-08-07T08:28:24Z</time>
      </trkpt>
      <trkpt lat="48.37152" lon="-3.5395">
        <ele>202.01</ele>
        <time>2020-08-07T08:28:41Z</time>
      </trkpt>
      <trkpt lat="48.37153" lon="-3.53935">
        <ele>202.01</ele>
        <time>2020-08-07T08:28:55Z</time>
      </trkpt>
      <trkpt lat="48.37154" lon="-3.53934">
        <ele>202.01</ele>
        <time>2020-08-07T08:29:15Z</time>
      </trkpt>
      <trkpt lat="48.37153" lon="-3.53933">
        <ele>202.01</ele>
        <time>2020-08-07T08:29:35Z</time>
      </trkpt>
      <trkpt lat="48.37154" lon="-3.53919">
        <ele>201.53</ele>
        <time>2020-08-07T08:29:49Z</time>
      </trkpt>
      <trkpt lat="48.37154" lon="-3.53908">
        <ele>201.05</ele>
        <time>2020-08-07T08:30:02Z</time>
      </trkpt>
      <trkpt lat="48.37153" lon="-3.53906">
        <ele>200.09</ele>
        <time>2020-08-07T08:30:08Z</time>
      </trkpt>
      <trkpt lat="48.37153" lon="-3.53901">
        <ele>200.09</ele>
        <time>2020-08-07T08:30:11Z</time>
      </trkpt>
      <trkpt lat="48.37154" lon="-3.53891">
        <ele>199.61</ele>
        <time>2020-08-07T08:30:18Z</time>
      </trkpt>
      <trkpt lat="48.37154" lon="-3.53885">
        <ele>198.65</ele>
        <time>2020-08-07T08:30:22Z</time>
      </trkpt>
      <trkpt lat="48.37157" lon="-3.53868">
        <ele>197.21</ele>
        <time>2020-08-07T08:30:39Z</time>
      </trkpt>
      <trkpt lat="48.3716" lon="-3.53852">
        <ele>195.28</ele>
        <time>2020-08-07T08:30:54Z</time>
      </trkpt>
      <trkpt lat="48.37162" lon="-3.5384">
        <ele>193.84</ele>
        <time>2020-08-07T08:31:06Z</time>
      </trkpt>
      <trkpt lat="48.37168" lon="-3.53834">
        <ele>193.36</ele>
        <time>2020-08-07T08:31:14Z</time>
      </trkpt>
      <trkpt lat="48.37171" lon="-3.53832">
        <ele>192.88</ele>
        <time>2020-08-07T08:31:18Z</time>
      </trkpt>
      <trkpt lat="48.37178" lon="-3.53824">
        <ele>193.36</ele>
        <time>2020-08-07T08:31:31Z</time>
      </trkpt>
      <trkpt lat="48.37181" lon="-3.53818">
        <ele>193.36</ele>
        <time>2020-08-07T08:31:45Z</time>
      </trkpt>
      <trkpt lat="48.37183" lon="-3.53814">
        <ele>192.88</ele>
        <time>2020-08-07T08:32:01Z</time>
      </trkpt>
      <trkpt lat="48.37184" lon="-3.5381">
        <ele>191.92</ele>
        <time>2020-08-07T08:32:14Z</time>
      </trkpt>
      <trkpt lat="48.37184" lon="-3.5381">
        <ele>192.4</ele>
        <time>2020-08-07T08:32:18Z</time>
      </trkpt>
      <trkpt lat="48.37186" lon="-3.53796">
        <ele>191.44</ele>
        <time>2020-08-07T08:32:33Z</time>
      </trkpt>
      <trkpt lat="48.37185" lon="-3.53798">
        <ele>191.92</ele>
        <time>2020-08-07T08:33:02Z</time>
      </trkpt>
      <trkpt lat="48.37187" lon="-3.53793">
        <ele>191.92</ele>
        <time>2020-08-07T08:33:19Z</time>
      </trkpt>
      <trkpt lat="48.37188" lon="-3.53791">
        <ele>191.44</ele>
        <time>2020-08-07T08:33:35Z</time>
      </trkpt>
      <trkpt lat="48.37189" lon="-3.53786">
        <ele>191.92</ele>
        <time>2020-08-07T08:33:53Z</time>
      </trkpt>
      <trkpt lat="48.37189" lon="-3.53782">
        <ele>190.96</ele>
        <time>2020-08-07T08:34:12Z</time>
      </trkpt>
      <trkpt lat="48.37191" lon="-3.53772">
        <ele>191.44</ele>
        <time>2020-08-07T08:34:31Z</time>
      </trkpt>
      <trkpt lat="48.37193" lon="-3.53767">
        <ele>191.44</ele>
        <time>2020-08-07T08:35:04Z</time>
      </trkpt>
      <trkpt lat="48.37193" lon="-3.53765">
        <ele>191.44</ele>
        <time>2020-08-07T08:35:25Z</time>
      </trkpt>
      <trkpt lat="48.37193" lon="-3.53765">
        <ele>191.92</ele>
        <time>2020-08-07T08:35:57Z</time>
      </trkpt>
      <trkpt lat="48.37193" lon="-3.53763">
        <ele>192.4</ele>
        <time>2020-08-07T08:36:20Z</time>
      </trkpt>
      <trkpt lat="48.37192" lon="-3.5376">
        <ele>192.4</ele>
        <time>2020-08-07T08:36:39Z</time>
      </trkpt>
      <trkpt lat="48.37189" lon="-3.5376">
        <ele>192.4</ele>
        <time>2020-08-07T08:37:00Z</time>
      </trkpt>
      <trkpt lat="48.37188" lon="-3.53759">
        <ele>193.36</ele>
        <time>2020-08-07T08:37:22Z</time>
      </trkpt>
      <trkpt lat="48.37188" lon="-3.53759">
        <ele>193.36</ele>
        <time>2020-08-07T08:37:47Z</time>
      </trkpt>
      <trkpt lat="48.37188" lon="-3.53759">
        <ele>193.36</ele>
        <time>2020-08-07T08:38:05Z</time>
      </trkpt>
      <trkpt lat="48.37189" lon="-3.5376">
        <ele>193.36</ele>
        <time>2020-08-07T08:38:28Z</time>
      </trkpt>
      <trkpt lat="48.3719" lon="-3.53761">
        <ele>193.84</ele>
        <time>2020-08-07T08:38:45Z</time>
      </trkpt>
      <trkpt lat="48.37192" lon="-3.53763">
        <ele>194.32</ele>
        <time>2020-08-07T08:39:10Z</time>
      </trkpt>
      <trkpt lat="48.37195" lon="-3.53767">
        <ele>194.32</ele>
        <time>2020-08-07T08:39:32Z</time>
      </trkpt>
      <trkpt lat="48.37195" lon="-3.53768">
        <ele>194.8</ele>
        <time>2020-08-07T08:39:56Z</time>
      </trkpt>
      <trkpt lat="48.37196" lon="-3.5377">
        <ele>195.28</ele>
        <time>2020-08-07T08:40:23Z</time>
      </trkpt>
      <trkpt lat="48.37196" lon="-3.53771">
        <ele>194.8</ele>
        <time>2020-08-07T08:40:46Z</time>
      </trkpt>
      <trkpt lat="48.37195" lon="-3.53772">
        <ele>194.8</ele>
        <time>2020-08-07T08:41:10Z</time>
      </trkpt>
      <trkpt lat="48.37195" lon="-3.53772">
        <ele>195.28</ele>
        <time>2020-08-07T08:41:34Z</time>
      </trkpt>
      <trkpt lat="48.37195" lon="-3.53774">
        <ele>195.77</ele>
        <time>2020-08-07T08:42:07Z</time>
      </trkpt>
      <trkpt lat="48.37195" lon="-3.53775">
        <ele>196.25</ele>
        <time>2020-08-07T08:42:30Z</time>
      </trkpt>
      <trkpt lat="48.37195" lon="-3.53776">
        <ele>196.25</ele>
        <time>2020-08-07T08:42:52Z</time>
      </trkpt>
      <trkpt lat="48.37192" lon="-3.53778">
        <ele>196.25</ele>
        <time>2020-08-07T08:43:07Z</time>
      </trkpt>
      <trkpt lat="48.37186" lon="-3.53789">
        <ele>197.21</ele>
        <time>2020-08-07T08:43:22Z</time>
      </trkpt>
      <trkpt lat="48.37184" lon="-3.53783">
        <ele>196.73</ele>
        <time>2020-08-07T08:43:28Z</time>
      </trkpt>
      <trkpt lat="48.37182" lon="-3.53767">
        <ele>196.25</ele>
        <time>2020-08-07T08:43:39Z</time>
      </trkpt>
      <trkpt lat="48.37181" lon="-3.53756">
        <ele>194.32</ele>
        <time>2020-08-07T08:43:54Z</time>
      </trkpt>
      <trkpt lat="48.37183" lon="-3.53748">
        <ele>193.84</ele>
        <time>2020-08-07T08:44:11Z</time>
      </trkpt>
      <trkpt lat="48.37183" lon="-3.53746">
        <ele>194.32</ele>
        <time>2020-08-07T08:44:30Z</time>
      </trkpt>
      <trkpt lat="48.37182" lon="-3.53744">
        <ele>194.32</ele>
        <time>2020-08-07T08:44:44Z</time>
      </trkpt>
      <trkpt lat="48.37187" lon="-3.53725">
        <ele>192.4</ele>
        <time>2020-08-07T08:44:58Z</time>
      </trkpt>
      <trkpt lat="48.37186" lon="-3.53712">
        <ele>191.44</ele>
        <time>2020-08-07T08:45:13Z</time>
      </trkpt>
      <trkpt lat="48.37184" lon="-3.5371">
        <ele>190.48</ele>
        <time>2020-08-07T08:45:28Z</time>
      </trkpt>
      <trkpt lat="48.37184" lon="-3.53711">
        <ele>191.44</ele>
        <time>2020-08-07T08:45:44Z</time>
      </trkpt>
      <trkpt lat="48.37184" lon="-3.53711">
        <ele>191.44</ele>
        <time>2020-08-07T08:45:59Z</time>
      </trkpt>
      <trkpt lat="48.37183" lon="-3.53711">
        <ele>191.44</ele>
        <time>2020-08-07T08:46:16Z</time>
      </trkpt>
      <trkpt lat="48.37184" lon="-3.53712">
        <ele>191.44</ele>
        <time>2020-08-07T08:46:40Z</time>
      </trkpt>
      <trkpt lat="48.37185" lon="-3.53714">
        <ele>192.88</ele>
        <time>2020-08-07T08:46:55Z</time>
      </trkpt>
      <trkpt lat="48.37189" lon="-3.5372">
        <ele>193.84</ele>
        <time>2020-08-07T08:47:11Z</time>
      </trkpt>
      <trkpt lat="48.37194" lon="-3.53724">
        <ele>194.8</ele>
        <time>2020-08-07T08:47:23Z</time>
      </trkpt>
      <trkpt lat="48.372" lon="-3.5373">
        <ele>195.77</ele>
        <time>2020-08-07T08:47:35Z</time>
      </trkpt>
      <trkpt lat="48.37204" lon="-3.53734">
        <ele>196.25</ele>
        <time>2020-08-07T08:47:45Z</time>
      </trkpt>
      <trkpt lat="48.37205" lon="-3.5374">
        <ele>196.73</ele>
        <time>2020-08-07T08:47:55Z</time>
      </trkpt>
      <trkpt lat="48.37205" lon="-3.53748">
        <ele>197.69</ele>
        <time>2020-08-07T08:48:06Z</time>
      </trkpt>
      <trkpt lat="48.37204" lon="-3.53751">
        <ele>197.69</ele>
        <time>2020-08-07T08:48:13Z</time>
      </trkpt>
      <trkpt lat="48.37203" lon="-3.53753">
        <ele>198.17</ele>
        <time>2020-08-07T08:48:15Z</time>
      </trkpt>
      <trkpt lat="48.37203" lon="-3.53756">
        <ele>198.65</ele>
        <time>2020-08-07T08:48:17Z</time>
      </trkpt>
      <trkpt lat="48.37203" lon="-3.53763">
        <ele>198.65</ele>
        <time>2020-08-07T08:48:30Z</time>
      </trkpt>
      <trkpt lat="48.37204" lon="-3.53766">
        <ele>199.13</ele>
        <time>2020-08-07T08:48:44Z</time>
      </trkpt>
      <trkpt lat="48.37204" lon="-3.53768">
        <ele>199.13</ele>
        <time>2020-08-07T08:48:58Z</time>
      </trkpt>
      <trkpt lat="48.37202" lon="-3.53778">
        <ele>200.09</ele>
        <time>2020-08-07T08:49:11Z</time>
      </trkpt>
      <trkpt lat="48.372" lon="-3.53788">
        <ele>199.61</ele>
        <time>2020-08-07T08:49:24Z</time>
      </trkpt>
      <trkpt lat="48.37196" lon="-3.53797">
        <ele>200.57</ele>
        <time>2020-08-07T08:49:37Z</time>
      </trkpt>
      <trkpt lat="48.37189" lon="-3.53804">
        <ele>201.53</ele>
        <time>2020-08-07T08:49:49Z</time>
      </trkpt>
      <trkpt lat="48.37187" lon="-3.53808">
        <ele>201.53</ele>
        <time>2020-08-07T08:50:02Z</time>
      </trkpt>
      <trkpt lat="48.37185" lon="-3.53813">
        <ele>201.53</ele>
        <time>2020-08-07T08:50:22Z</time>
      </trkpt>
      <trkpt lat="48.37182" lon="-3.53821">
        <ele>202.01</ele>
        <time>2020-08-07T08:50:35Z</time>
      </trkpt>
      <trkpt lat="48.3718" lon="-3.53823">
        <ele>202.49</ele>
        <time>2020-08-07T08:50:39Z</time>
      </trkpt>
      <trkpt lat="48.37179" lon="-3.53827">
        <ele>202.49</ele>
        <time>2020-08-07T08:50:56Z</time>
      </trkpt>
      <trkpt lat="48.37172" lon="-3.53828">
        <ele>202.49</ele>
        <time>2020-08-07T08:51:10Z</time>
      </trkpt>
      <trkpt lat="48.37172" lon="-3.53828">
        <ele>202.49</ele>
        <time>2020-08-07T08:51:11Z</time>
      </trkpt>
      <trkpt lat="48.37167" lon="-3.53833">
        <ele>202.98</ele>
        <time>2020-08-07T08:51:17Z</time>
      </trkpt>
      <trkpt lat="48.37158" lon="-3.5384">
        <ele>204.9</ele>
        <time>2020-08-07T08:51:30Z</time>
      </trkpt>
      <trkpt lat="48.37151" lon="-3.53851">
        <ele>205.86</ele>
        <time>2020-08-07T08:51:43Z</time>
      </trkpt>
      <trkpt lat="48.3715" lon="-3.53863">
        <ele>207.3</ele>
        <time>2020-08-07T08:51:55Z</time>
      </trkpt>
      <trkpt lat="48.37149" lon="-3.53875">
        <ele>208.74</ele>
        <time>2020-08-07T08:52:09Z</time>
      </trkpt>
      <trkpt lat="48.37147" lon="-3.53886">
        <ele>210.67</ele>
        <time>2020-08-07T08:52:22Z</time>
      </trkpt>
      <trkpt lat="48.37144" lon="-3.53899">
        <ele>213.55</ele>
        <time>2020-08-07T08:52:39Z</time>
      </trkpt>
      <trkpt lat="48.37139" lon="-3.53906">
        <ele>214.51</ele>
        <time>2020-08-07T08:52:52Z</time>
      </trkpt>
      <trkpt lat="48.3714" lon="-3.53907">
        <ele>214.99</ele>
        <time>2020-08-07T08:53:08Z</time>
      </trkpt>
      <trkpt lat="48.37137" lon="-3.53913">
        <ele>215.95</ele>
        <time>2020-08-07T08:53:23Z</time>
      </trkpt>
      <trkpt lat="48.37131" lon="-3.53922">
        <ele>217.88</ele>
        <time>2020-08-07T08:53:37Z</time>
      </trkpt>
      <trkpt lat="48.37127" lon="-3.53931">
        <ele>219.8</ele>
        <time>2020-08-07T08:53:50Z</time>
      </trkpt>
      <trkpt lat="48.37125" lon="-3.53936">
        <ele>219.8</ele>
        <time>2020-08-07T08:54:02Z</time>
      </trkpt>
      <trkpt lat="48.37125" lon="-3.53938">
        <ele>220.28</ele>
        <time>2020-08-07T08:54:04Z</time>
      </trkpt>
      <trkpt lat="48.37121" lon="-3.53949">
        <ele>222.68</ele>
        <time>2020-08-07T08:54:18Z</time>
      </trkpt>
      <trkpt lat="48.37116" lon="-3.53964">
        <ele>224.12</ele>
        <time>2020-08-07T08:54:33Z</time>
      </trkpt>
      <trkpt lat="48.37112" lon="-3.53973">
        <ele>225.57</ele>
        <time>2020-08-07T08:54:45Z</time>
      </trkpt>
      <trkpt lat="48.37109" lon="-3.53988">
        <ele>227.49</ele>
        <time>2020-08-07T08:54:59Z</time>
      </trkpt>
      <trkpt lat="48.37107" lon="-3.53997">
        <ele>227.97</ele>
        <time>2020-08-07T08:55:11Z</time>
      </trkpt>
      <trkpt lat="48.371" lon="-3.54008">
        <ele>229.41</ele>
        <time>2020-08-07T08:55:23Z</time>
      </trkpt>
      <trkpt lat="48.37096" lon="-3.54013">
        <ele>229.41</ele>
        <time>2020-08-07T08:55:35Z</time>
      </trkpt>
      <trkpt lat="48.37096" lon="-3.54016">
        <ele>229.89</ele>
        <time>2020-08-07T08:55:51Z</time>
      </trkpt>
      <trkpt lat="48.37094" lon="-3.54016">
        <ele>229.89</ele>
        <time>2020-08-07T08:56:04Z</time>
      </trkpt>
      <trkpt lat="48.37095" lon="-3.54023">
        <ele>230.37</ele>
        <time>2020-08-07T08:56:23Z</time>
      </trkpt>
      <trkpt lat="48.37096" lon="-3.54026">
        <ele>230.85</ele>
        <time>2020-08-07T08:56:35Z</time>
      </trkpt>
      <trkpt lat="48.37096" lon="-3.54024">
        <ele>230.37</ele>
        <time>2020-08-07T08:56:57Z</time>
      </trkpt>
      <trkpt lat="48.37092" lon="-3.54023">
        <ele>230.85</ele>
        <time>2020-08-07T08:57:07Z</time>
      </trkpt>
      <trkpt lat="48.37085" lon="-3.54034">
        <ele>231.81</ele>
        <time>2020-08-07T08:57:23Z</time>
      </trkpt>
      <trkpt lat="48.37085" lon="-3.5404">
        <ele>234.22</ele>
        <time>2020-08-07T08:57:37Z</time>
      </trkpt>
      <trkpt lat="48.37082" lon="-3.54042">
        <ele>234.7</ele>
        <time>2020-08-07T08:57:49Z</time>
      </trkpt>
      <trkpt lat="48.37076" lon="-3.54047">
        <ele>234.7</ele>
        <time>2020-08-07T08:58:03Z</time>
      </trkpt>
      <trkpt lat="48.37073" lon="-3.54052">
        <ele>234.7</ele>
        <time>2020-08-07T08:58:22Z</time>
      </trkpt>
      <trkpt lat="48.37073" lon="-3.54057">
        <ele>234.7</ele>
        <time>2020-08-07T08:58:37Z</time>
      </trkpt>
      <trkpt lat="48.37073" lon="-3.54065">
        <ele>235.66</ele>
        <time>2020-08-07T08:58:51Z</time>
      </trkpt>
      <trkpt lat="48.37074" lon="-3.54065">
        <ele>235.18</ele>
        <time>2020-08-07T08:59:03Z</time>
      </trkpt>
      <trkpt lat="48.37074" lon="-3.54066">
        <ele>235.18</ele>
        <time>2020-08-07T08:59:25Z</time>
      </trkpt>
      <trkpt lat="48.37078" lon="-3.54071">
        <ele>235.18</ele>
        <time>2020-08-07T08:59:37Z</time>
      </trkpt>
      <trkpt lat="48.37081" lon="-3.54073">
        <ele>235.66</ele>
        <time>2020-08-07T08:59:59Z</time>
      </trkpt>
      <trkpt lat="48.37083" lon="-3.54072">
        <ele>235.66</ele>
        <time>2020-08-07T09:00:14Z</time>
      </trkpt>
      <trkpt lat="48.37085" lon="-3.54071">
        <ele>235.66</ele>
        <time>2020-08-07T09:00:41Z</time>
      </trkpt>
      <trkpt lat="48.37085" lon="-3.54072">
        <ele>236.14</ele>
        <time>2020-08-07T09:01:02Z</time>
      </trkpt>
      <trkpt lat="48.37086" lon="-3.54072">
        <ele>236.14</ele>
        <time>2020-08-07T09:01:24Z</time>
      </trkpt>
      <trkpt lat="48.37087" lon="-3.54072">
        <ele>236.62</ele>
        <time>2020-08-07T09:01:49Z</time>
      </trkpt>
      <trkpt lat="48.37088" lon="-3.5407">
        <ele>235.66</ele>
        <time>2020-08-07T09:02:02Z</time>
      </trkpt>
      <trkpt lat="48.3709" lon="-3.54061">
        <ele>235.66</ele>
        <time>2020-08-07T09:02:14Z</time>
      </trkpt>
      <trkpt lat="48.3709" lon="-3.54049">
        <ele>235.66</ele>
        <time>2020-08-07T09:02:28Z</time>
      </trkpt>
      <trkpt lat="48.37087" lon="-3.54041">
        <ele>234.22</ele>
        <time>2020-08-07T09:02:43Z</time>
      </trkpt>
      <trkpt lat="48.37087" lon="-3.54029">
        <ele>232.3</ele>
        <time>2020-08-07T09:02:56Z</time>
      </trkpt>
      <trkpt lat="48.37085" lon="-3.54023">
        <ele>232.3</ele>
        <time>2020-08-07T09:03:09Z</time>
      </trkpt>
      <trkpt lat="48.37077" lon="-3.5402">
        <ele>232.3</ele>
        <time>2020-08-07T09:03:21Z</time>
      </trkpt>
      <trkpt lat="48.37072" lon="-3.54021">
        <ele>231.81</ele>
        <time>2020-08-07T09:03:32Z</time>
      </trkpt>
      <trkpt lat="48.37064" lon="-3.54026">
        <ele>231.33</ele>
        <time>2020-08-07T09:03:44Z</time>
      </trkpt>
      <trkpt lat="48.37056" lon="-3.54028">
        <ele>230.37</ele>
        <time>2020-08-07T09:03:58Z</time>
      </trkpt>
      <trkpt lat="48.37051" lon="-3.54028">
        <ele>229.89</ele>
        <time>2020-08-07T09:04:10Z</time>
      </trkpt>
      <trkpt lat="48.37046" lon="-3.54027">
        <ele>229.41</ele>
        <time>2020-08-07T09:04:24Z</time>
      </trkpt>
      <trkpt lat="48.37044" lon="-3.54026">
        <ele>229.89</ele>
        <time>2020-08-07T09:04:36Z</time>
      </trkpt>
      <trkpt lat="48.37046" lon="-3.54029">
        <ele>229.89</ele>
        <time>2020-08-07T09:04:50Z</time>
      </trkpt>
      <trkpt lat="48.37046" lon="-3.5403">
        <ele>230.37</ele>
        <time>2020-08-07T09:05:05Z</time>
      </trkpt>
      <trkpt lat="48.37047" lon="-3.54031">
        <ele>230.37</ele>
        <time>2020-08-07T09:05:27Z</time>
      </trkpt>
      <trkpt lat="48.37044" lon="-3.5403">
        <ele>229.89</ele>
        <time>2020-08-07T09:05:44Z</time>
      </trkpt>
      <trkpt lat="48.37042" lon="-3.54024">
        <ele>229.41</ele>
        <time>2020-08-07T09:05:55Z</time>
      </trkpt>
      <trkpt lat="48.37041" lon="-3.54023">
        <ele>229.89</ele>
        <time>2020-08-07T09:05:56Z</time>
      </trkpt>
      <trkpt lat="48.37039" lon="-3.54023">
        <ele>229.41</ele>
        <time>2020-08-07T09:05:58Z</time>
      </trkpt>
      <trkpt lat="48.37033" lon="-3.5402">
        <ele>228.93</ele>
        <time>2020-08-07T09:06:13Z</time>
      </trkpt>
      <trkpt lat="48.37028" lon="-3.54015">
        <ele>228.45</ele>
        <time>2020-08-07T09:06:25Z</time>
      </trkpt>
      <trkpt lat="48.37016" lon="-3.5401">
        <ele>227.01</ele>
        <time>2020-08-07T09:06:41Z</time>
      </trkpt>
      <trkpt lat="48.37007" lon="-3.54004">
        <ele>226.05</ele>
        <time>2020-08-07T09:06:54Z</time>
      </trkpt>
      <trkpt lat="48.37005" lon="-3.53998">
        <ele>226.53</ele>
        <time>2020-08-07T09:07:08Z</time>
      </trkpt>
      <trkpt lat="48.37005" lon="-3.53997">
        <ele>226.05</ele>
        <time>2020-08-07T09:07:23Z</time>
      </trkpt>
      <trkpt lat="48.37001" lon="-3.53994">
        <ele>226.05</ele>
        <time>2020-08-07T09:07:35Z</time>
      </trkpt>
      <trkpt lat="48.37" lon="-3.53978">
        <ele>225.09</ele>
        <time>2020-08-07T09:07:50Z</time>
      </trkpt>
      <trkpt lat="48.36999" lon="-3.53969">
        <ele>224.12</ele>
        <time>2020-08-07T09:08:04Z</time>
      </trkpt>
      <trkpt lat="48.36999" lon="-3.53969">
        <ele>224.12</ele>
        <time>2020-08-07T09:08:15Z</time>
      </trkpt>
      <trkpt lat="48.37" lon="-3.53966">
        <ele>224.61</ele>
        <time>2020-08-07T09:08:29Z</time>
      </trkpt>
      <trkpt lat="48.37001" lon="-3.53964">
        <ele>224.61</ele>
        <time>2020-08-07T09:08:40Z</time>
      </trkpt>
      <trkpt lat="48.36999" lon="-3.53964">
        <ele>224.12</ele>
        <time>2020-08-07T09:08:53Z</time>
      </trkpt>
      <trkpt lat="48.36999" lon="-3.53963">
        <ele>223.64</ele>
        <time>2020-08-07T09:09:06Z</time>
      </trkpt>
      <trkpt lat="48.36995" lon="-3.53956">
        <ele>222.68</ele>
        <time>2020-08-07T09:09:12Z</time>
      </trkpt>
      <trkpt lat="48.36991" lon="-3.53945">
        <ele>221.72</ele>
        <time>2020-08-07T09:09:21Z</time>
      </trkpt>
      <trkpt lat="48.36984" lon="-3.53939">
        <ele>220.28</ele>
        <time>2020-08-07T09:09:34Z</time>
      </trkpt>
      <trkpt lat="48.36982" lon="-3.53935">
        <ele>220.76</ele>
        <time>2020-08-07T09:09:45Z</time>
      </trkpt>
      <trkpt lat="48.36979" lon="-3.53926">
        <ele>219.32</ele>
        <time>2020-08-07T09:09:57Z</time>
      </trkpt>
      <trkpt lat="48.36972" lon="-3.5391">
        <ele>217.4</ele>
        <time>2020-08-07T09:10:11Z</time>
      </trkpt>
      <trkpt lat="48.3697" lon="-3.53905">
        <ele>216.91</ele>
        <time>2020-08-07T09:10:25Z</time>
      </trkpt>
      <trkpt lat="48.36968" lon="-3.53898">
        <ele>215.95</ele>
        <time>2020-08-07T09:10:40Z</time>
      </trkpt>
      <trkpt lat="48.36965" lon="-3.53893">
        <ele>215.47</ele>
        <time>2020-08-07T09:10:52Z</time>
      </trkpt>
      <trkpt lat="48.36959" lon="-3.5388">
        <ele>214.03</ele>
        <time>2020-08-07T09:11:06Z</time>
      </trkpt>
      <trkpt lat="48.36952" lon="-3.53868">
        <ele>212.59</ele>
        <time>2020-08-07T09:11:21Z</time>
      </trkpt>
      <trkpt lat="48.36947" lon="-3.53855">
        <ele>211.63</ele>
        <time>2020-08-07T09:11:38Z</time>
      </trkpt>
      <trkpt lat="48.36944" lon="-3.53845">
        <ele>209.7</ele>
        <time>2020-08-07T09:11:53Z</time>
      </trkpt>
      <trkpt lat="48.36944" lon="-3.53841">
        <ele>209.7</ele>
        <time>2020-08-07T09:12:15Z</time>
      </trkpt>
      <trkpt lat="48.36944" lon="-3.53839">
        <ele>209.7</ele>
        <time>2020-08-07T09:12:31Z</time>
      </trkpt>
      <trkpt lat="48.36941" lon="-3.53842">
        <ele>209.7</ele>
        <time>2020-08-07T09:12:44Z</time>
      </trkpt>
      <trkpt lat="48.36939" lon="-3.53846">
        <ele>209.7</ele>
        <time>2020-08-07T09:12:50Z</time>
      </trkpt>
      <trkpt lat="48.36928" lon="-3.53868">
        <ele>210.19</ele>
        <time>2020-08-07T09:13:07Z</time>
      </trkpt>
      <trkpt lat="48.36926" lon="-3.53873">
        <ele>210.67</ele>
        <time>2020-08-07T09:13:11Z</time>
      </trkpt>
      <trkpt lat="48.36926" lon="-3.53876">
        <ele>210.67</ele>
        <time>2020-08-07T09:13:13Z</time>
      </trkpt>
      <trkpt lat="48.36923" lon="-3.53892">
        <ele>212.11</ele>
        <time>2020-08-07T09:13:27Z</time>
      </trkpt>
      <trkpt lat="48.36921" lon="-3.53903">
        <ele>212.11</ele>
        <time>2020-08-07T09:13:41Z</time>
      </trkpt>
      <trkpt lat="48.36919" lon="-3.53917">
        <ele>213.07</ele>
        <time>2020-08-07T09:13:55Z</time>
      </trkpt>
      <trkpt lat="48.36917" lon="-3.53932">
        <ele>212.59</ele>
        <time>2020-08-07T09:14:08Z</time>
      </trkpt>
      <trkpt lat="48.36916" lon="-3.53945">
        <ele>213.07</ele>
        <time>2020-08-07T09:14:21Z</time>
      </trkpt>
      <trkpt lat="48.36917" lon="-3.53952">
        <ele>213.55</ele>
        <time>2020-08-07T09:14:35Z</time>
      </trkpt>
      <trkpt lat="48.36918" lon="-3.53955">
        <ele>213.55</ele>
        <time>2020-08-07T09:14:50Z</time>
      </trkpt>
      <trkpt lat="48.36918" lon="-3.53957">
        <ele>213.55</ele>
        <time>2020-08-07T09:15:13Z</time>
      </trkpt>
      <trkpt lat="48.36916" lon="-3.53967">
        <ele>213.55</ele>
        <time>2020-08-07T09:15:34Z</time>
      </trkpt>
      <trkpt lat="48.36915" lon="-3.53969">
        <ele>213.55</ele>
        <time>2020-08-07T09:15:53Z</time>
      </trkpt>
      <trkpt lat="48.36914" lon="-3.53969">
        <ele>214.03</ele>
        <time>2020-08-07T09:16:19Z</time>
      </trkpt>
      <trkpt lat="48.36914" lon="-3.5397">
        <ele>214.03</ele>
        <time>2020-08-07T09:16:42Z</time>
      </trkpt>
      <trkpt lat="48.36914" lon="-3.53971">
        <ele>214.51</ele>
        <time>2020-08-07T09:16:59Z</time>
      </trkpt>
      <trkpt lat="48.36914" lon="-3.53972">
        <ele>213.55</ele>
        <time>2020-08-07T09:17:16Z</time>
      </trkpt>
      <trkpt lat="48.3691" lon="-3.53973">
        <ele>213.07</ele>
        <time>2020-08-07T09:17:26Z</time>
      </trkpt>
      <trkpt lat="48.36908" lon="-3.53981">
        <ele>213.07</ele>
        <time>2020-08-07T09:17:41Z</time>
      </trkpt>
      <trkpt lat="48.36907" lon="-3.53986">
        <ele>213.07</ele>
        <time>2020-08-07T09:18:01Z</time>
      </trkpt>
      <trkpt lat="48.36904" lon="-3.53991">
        <ele>212.59</ele>
        <time>2020-08-07T09:18:15Z</time>
      </trkpt>
      <trkpt lat="48.36903" lon="-3.53993">
        <ele>213.07</ele>
        <time>2020-08-07T09:18:36Z</time>
      </trkpt>
      <trkpt lat="48.36902" lon="-3.53996">
        <ele>213.07</ele>
        <time>2020-08-07T09:18:55Z</time>
      </trkpt>
      <trkpt lat="48.36898" lon="-3.54007">
        <ele>212.11</ele>
        <time>2020-08-07T09:19:09Z</time>
      </trkpt>
      <trkpt lat="48.36893" lon="-3.5402">
        <ele>211.63</ele>
        <time>2020-08-07T09:19:24Z</time>
      </trkpt>
      <trkpt lat="48.3689" lon="-3.54025">
        <ele>212.11</ele>
        <time>2020-08-07T09:19:45Z</time>
      </trkpt>
      <trkpt lat="48.36889" lon="-3.54027">
        <ele>211.63</ele>
        <time>2020-08-07T09:19:58Z</time>
      </trkpt>
      <trkpt lat="48.36887" lon="-3.54034">
        <ele>211.15</ele>
        <time>2020-08-07T09:20:12Z</time>
      </trkpt>
      <trkpt lat="48.36879" lon="-3.54056">
        <ele>211.15</ele>
        <time>2020-08-07T09:20:28Z</time>
      </trkpt>
      <trkpt lat="48.36875" lon="-3.54071">
        <ele>210.67</ele>
        <time>2020-08-07T09:20:44Z</time>
      </trkpt>
      <trkpt lat="48.36871" lon="-3.54082">
        <ele>211.15</ele>
        <time>2020-08-07T09:21:06Z</time>
      </trkpt>
      <trkpt lat="48.3687" lon="-3.54089">
        <ele>210.67</ele>
        <time>2020-08-07T09:21:20Z</time>
      </trkpt>
      <trkpt lat="48.36869" lon="-3.54091">
        <ele>210.67</ele>
        <time>2020-08-07T09:21:37Z</time>
      </trkpt>
      <trkpt lat="48.36865" lon="-3.54105">
        <ele>210.19</ele>
        <time>2020-08-07T09:21:52Z</time>
      </trkpt>
      <trkpt lat="48.36861" lon="-3.54118">
        <ele>209.22</ele>
        <time>2020-08-07T09:22:03Z</time>
      </trkpt>
      <trkpt lat="48.36858" lon="-3.54137">
        <ele>209.7</ele>
        <time>2020-08-07T09:22:16Z</time>
      </trkpt>
      <trkpt lat="48.36859" lon="-3.54144">
        <ele>210.19</ele>
        <time>2020-08-07T09:22:27Z</time>
      </trkpt>
      <trkpt lat="48.36869" lon="-3.54153">
        <ele>211.15</ele>
        <time>2020-08-07T09:22:41Z</time>
      </trkpt>
      <trkpt lat="48.36872" lon="-3.54162">
        <ele>211.63</ele>
        <time>2020-08-07T09:22:56Z</time>
      </trkpt>
      <trkpt lat="48.36872" lon="-3.54161">
        <ele>212.11</ele>
        <time>2020-08-07T09:23:18Z</time>
      </trkpt>
      <trkpt lat="48.36875" lon="-3.54158">
        <ele>212.11</ele>
        <time>2020-08-07T09:23:30Z</time>
      </trkpt>
      <trkpt lat="48.36877" lon="-3.54156">
        <ele>213.07</ele>
        <time>2020-08-07T09:23:43Z</time>
      </trkpt>
      <trkpt lat="48.36879" lon="-3.54153">
        <ele>212.59</ele>
        <time>2020-08-07T09:24:00Z</time>
      </trkpt>
      <trkpt lat="48.36881" lon="-3.5415">
        <ele>213.55</ele>
        <time>2020-08-07T09:24:15Z</time>
      </trkpt>
      <trkpt lat="48.36882" lon="-3.54142">
        <ele>213.07</ele>
        <time>2020-08-07T09:24:32Z</time>
      </trkpt>
      <trkpt lat="48.36889" lon="-3.54131">
        <ele>214.03</ele>
        <time>2020-08-07T09:24:46Z</time>
      </trkpt>
      <trkpt lat="48.36892" lon="-3.54122">
        <ele>214.03</ele>
        <time>2020-08-07T09:25:00Z</time>
      </trkpt>
      <trkpt lat="48.36891" lon="-3.54118">
        <ele>214.03</ele>
        <time>2020-08-07T09:25:12Z</time>
      </trkpt>
      <trkpt lat="48.36892" lon="-3.54115">
        <ele>214.03</ele>
        <time>2020-08-07T09:25:19Z</time>
      </trkpt>
      <trkpt lat="48.36897" lon="-3.54103">
        <ele>214.51</ele>
        <time>2020-08-07T09:25:33Z</time>
      </trkpt>
      <trkpt lat="48.36902" lon="-3.54089">
        <ele>214.99</ele>
        <time>2020-08-07T09:25:48Z</time>
      </trkpt>
      <trkpt lat="48.36902" lon="-3.54081">
        <ele>214.99</ele>
        <time>2020-08-07T09:26:02Z</time>
      </trkpt>
      <trkpt lat="48.36906" lon="-3.54082">
        <ele>215.95</ele>
        <time>2020-08-07T09:26:16Z</time>
      </trkpt>
      <trkpt lat="48.36909" lon="-3.54075">
        <ele>216.43</ele>
        <time>2020-08-07T09:26:27Z</time>
      </trkpt>
      <trkpt lat="48.36914" lon="-3.5406">
        <ele>216.43</ele>
        <time>2020-08-07T09:26:41Z</time>
      </trkpt>
      <trkpt lat="48.36921" lon="-3.54051">
        <ele>216.91</ele>
        <time>2020-08-07T09:26:56Z</time>
      </trkpt>
      <trkpt lat="48.36929" lon="-3.54048">
        <ele>218.36</ele>
        <time>2020-08-07T09:27:09Z</time>
      </trkpt>
      <trkpt lat="48.36936" lon="-3.54048">
        <ele>218.84</ele>
        <time>2020-08-07T09:27:21Z</time>
      </trkpt>
      <trkpt lat="48.36943" lon="-3.54044">
        <ele>219.8</ele>
        <time>2020-08-07T09:27:35Z</time>
      </trkpt>
      <trkpt lat="48.36948" lon="-3.54037">
        <ele>219.8</ele>
        <time>2020-08-07T09:27:48Z</time>
      </trkpt>
      <trkpt lat="48.3695" lon="-3.54031">
        <ele>220.76</ele>
        <time>2020-08-07T09:28:01Z</time>
      </trkpt>
      <trkpt lat="48.36956" lon="-3.54019">
        <ele>220.76</ele>
        <time>2020-08-07T09:28:16Z</time>
      </trkpt>
      <trkpt lat="48.36958" lon="-3.54016">
        <ele>220.76</ele>
        <time>2020-08-07T09:28:31Z</time>
      </trkpt>
      <trkpt lat="48.36963" lon="-3.5401">
        <ele>221.72</ele>
        <time>2020-08-07T09:28:45Z</time>
      </trkpt>
      <trkpt lat="48.36965" lon="-3.54008">
        <ele>222.2</ele>
        <time>2020-08-07T09:29:00Z</time>
      </trkpt>
      <trkpt lat="48.36966" lon="-3.54004">
        <ele>221.72</ele>
        <time>2020-08-07T09:29:17Z</time>
      </trkpt>
      <trkpt lat="48.36964" lon="-3.54">
        <ele>221.72</ele>
        <time>2020-08-07T09:29:34Z</time>
      </trkpt>
      <trkpt lat="48.36966" lon="-3.5401">
        <ele>222.2</ele>
        <time>2020-08-07T09:29:49Z</time>
      </trkpt>
      <trkpt lat="48.36968" lon="-3.54015">
        <ele>222.68</ele>
        <time>2020-08-07T09:30:02Z</time>
      </trkpt>
      <trkpt lat="48.3697" lon="-3.54018">
        <ele>223.16</ele>
        <time>2020-08-07T09:30:15Z</time>
      </trkpt>
      <trkpt lat="48.3697" lon="-3.54023">
        <ele>223.64</ele>
        <time>2020-08-07T09:30:34Z</time>
      </trkpt>
      <trkpt lat="48.36967" lon="-3.54033">
        <ele>223.16</ele>
        <time>2020-08-07T09:30:47Z</time>
      </trkpt>
      <trkpt lat="48.3696" lon="-3.54043">
        <ele>222.68</ele>
        <time>2020-08-07T09:31:00Z</time>
      </trkpt>
      <trkpt lat="48.36956" lon="-3.54053">
        <ele>222.2</ele>
        <time>2020-08-07T09:31:15Z</time>
      </trkpt>
      <trkpt lat="48.36953" lon="-3.54057">
        <ele>221.72</ele>
        <time>2020-08-07T09:31:32Z</time>
      </trkpt>
      <trkpt lat="48.36949" lon="-3.54067">
        <ele>221.24</ele>
        <time>2020-08-07T09:31:44Z</time>
      </trkpt>
      <trkpt lat="48.36944" lon="-3.54074">
        <ele>220.28</ele>
        <time>2020-08-07T09:31:59Z</time>
      </trkpt>
      <trkpt lat="48.36942" lon="-3.54078">
        <ele>219.8</ele>
        <time>2020-08-07T09:32:14Z</time>
      </trkpt>
      <trkpt lat="48.36939" lon="-3.54083">
        <ele>219.32</ele>
        <time>2020-08-07T09:32:25Z</time>
      </trkpt>
      <trkpt lat="48.36937" lon="-3.54088">
        <ele>219.32</ele>
        <time>2020-08-07T09:32:44Z</time>
      </trkpt>
      <trkpt lat="48.36937" lon="-3.54095">
        <ele>219.8</ele>
        <time>2020-08-07T09:32:57Z</time>
      </trkpt>
      <trkpt lat="48.36937" lon="-3.54103">
        <ele>219.32</ele>
        <time>2020-08-07T09:33:09Z</time>
      </trkpt>
      <trkpt lat="48.36938" lon="-3.54107">
        <ele>220.28</ele>
        <time>2020-08-07T09:33:25Z</time>
      </trkpt>
      <trkpt lat="48.36939" lon="-3.54117">
        <ele>219.8</ele>
        <time>2020-08-07T09:33:40Z</time>
      </trkpt>
      <trkpt lat="48.36932" lon="-3.54123">
        <ele>218.36</ele>
        <time>2020-08-07T09:33:55Z</time>
      </trkpt>
      <trkpt lat="48.36925" lon="-3.54129">
        <ele>217.88</ele>
        <time>2020-08-07T09:34:10Z</time>
      </trkpt>
      <trkpt lat="48.36924" lon="-3.54144">
        <ele>217.88</ele>
        <time>2020-08-07T09:34:25Z</time>
      </trkpt>
      <trkpt lat="48.36929" lon="-3.54148">
        <ele>217.88</ele>
        <time>2020-08-07T09:34:37Z</time>
      </trkpt>
      <trkpt lat="48.3693" lon="-3.54147">
        <ele>217.88</ele>
        <time>2020-08-07T09:34:54Z</time>
      </trkpt>
      <trkpt lat="48.36928" lon="-3.54154">
        <ele>217.88</ele>
        <time>2020-08-07T09:35:08Z</time>
      </trkpt>
      <trkpt lat="48.36923" lon="-3.54162">
        <ele>217.88</ele>
        <time>2020-08-07T09:35:20Z</time>
      </trkpt>
      <trkpt lat="48.36918" lon="-3.54171">
        <ele>216.91</ele>
        <time>2020-08-07T09:35:34Z</time>
      </trkpt>
      <trkpt lat="48.36913" lon="-3.54176">
        <ele>216.43</ele>
        <time>2020-08-07T09:35:47Z</time>
      </trkpt>
      <trkpt lat="48.36909" lon="-3.54193">
        <ele>215.95</ele>
        <time>2020-08-07T09:36:04Z</time>
      </trkpt>
      <trkpt lat="48.36911" lon="-3.54202">
        <ele>215.95</ele>
        <time>2020-08-07T09:36:19Z</time>
      </trkpt>
      <trkpt lat="48.36917" lon="-3.54206">
        <ele>216.43</ele>
        <time>2020-08-07T09:36:38Z</time>
      </trkpt>
      <trkpt lat="48.36919" lon="-3.54205">
        <ele>216.91</ele>
        <time>2020-08-07T09:36:56Z</time>
      </trkpt>
      <trkpt lat="48.3692" lon="-3.54205">
        <ele>216.91</ele>
        <time>2020-08-07T09:37:12Z</time>
      </trkpt>
      <trkpt lat="48.36921" lon="-3.54205">
        <ele>216.91</ele>
        <time>2020-08-07T09:37:15Z</time>
      </trkpt>
      <trkpt lat="48.36931" lon="-3.54212">
        <ele>218.36</ele>
        <time>2020-08-07T09:37:30Z</time>
      </trkpt>
      <trkpt lat="48.36933" lon="-3.54215">
        <ele>218.36</ele>
        <time>2020-08-07T09:37:44Z</time>
      </trkpt>
      <trkpt lat="48.36934" lon="-3.54219">
        <ele>219.32</ele>
        <time>2020-08-07T09:37:58Z</time>
      </trkpt>
      <trkpt lat="48.36929" lon="-3.54226">
        <ele>218.84</ele>
        <time>2020-08-07T09:38:13Z</time>
      </trkpt>
      <trkpt lat="48.36929" lon="-3.54226">
        <ele>218.36</ele>
        <time>2020-08-07T09:38:41Z</time>
      </trkpt>
      <trkpt lat="48.36934" lon="-3.54221">
        <ele>218.84</ele>
        <time>2020-08-07T09:38:53Z</time>
      </trkpt>
      <trkpt lat="48.3694" lon="-3.54212">
        <ele>219.8</ele>
        <time>2020-08-07T09:39:07Z</time>
      </trkpt>
      <trkpt lat="48.36942" lon="-3.54202">
        <ele>220.28</ele>
        <time>2020-08-07T09:39:19Z</time>
      </trkpt>
      <trkpt lat="48.36944" lon="-3.54187">
        <ele>220.76</ele>
        <time>2020-08-07T09:39:34Z</time>
      </trkpt>
      <trkpt lat="48.36944" lon="-3.54173">
        <ele>220.76</ele>
        <time>2020-08-07T09:39:48Z</time>
      </trkpt>
      <trkpt lat="48.36944" lon="-3.54173">
        <ele>220.76</ele>
        <time>2020-08-07T09:40:06Z</time>
      </trkpt>
      <trkpt lat="48.36942" lon="-3.54167">
        <ele>220.76</ele>
        <time>2020-08-07T09:40:19Z</time>
      </trkpt>
      <trkpt lat="48.36944" lon="-3.54163">
        <ele>220.76</ele>
        <time>2020-08-07T09:40:43Z</time>
      </trkpt>
      <trkpt lat="48.36945" lon="-3.54165">
        <ele>221.24</ele>
        <time>2020-08-07T09:41:02Z</time>
      </trkpt>
      <trkpt lat="48.36945" lon="-3.54162">
        <ele>221.24</ele>
        <time>2020-08-07T09:41:19Z</time>
      </trkpt>
      <trkpt lat="48.36945" lon="-3.54158">
        <ele>221.24</ele>
        <time>2020-08-07T09:41:25Z</time>
      </trkpt>
      <trkpt lat="48.36942" lon="-3.54142">
        <ele>220.76</ele>
        <time>2020-08-07T09:41:39Z</time>
      </trkpt>
      <trkpt lat="48.36946" lon="-3.54134">
        <ele>221.72</ele>
        <time>2020-08-07T09:41:54Z</time>
      </trkpt>
      <trkpt lat="48.36948" lon="-3.5413">
        <ele>221.72</ele>
        <time>2020-08-07T09:41:59Z</time>
      </trkpt>
      <trkpt lat="48.3695" lon="-3.54126">
        <ele>220.28</ele>
        <time>2020-08-07T09:42:08Z</time>
      </trkpt>
      <trkpt lat="48.3695" lon="-3.54125">
        <ele>221.72</ele>
        <time>2020-08-07T09:42:24Z</time>
      </trkpt>
      <trkpt lat="48.36953" lon="-3.54118">
        <ele>222.68</ele>
        <time>2020-08-07T09:42:38Z</time>
      </trkpt>
      <trkpt lat="48.36955" lon="-3.54108">
        <ele>222.68</ele>
        <time>2020-08-07T09:42:56Z</time>
      </trkpt>
      <trkpt lat="48.36958" lon="-3.54101">
        <ele>223.16</ele>
        <time>2020-08-07T09:43:05Z</time>
      </trkpt>
      <trkpt lat="48.36962" lon="-3.54087">
        <ele>223.64</ele>
        <time>2020-08-07T09:43:18Z</time>
      </trkpt>
      <trkpt lat="48.36965" lon="-3.54081">
        <ele>224.12</ele>
        <time>2020-08-07T09:43:33Z</time>
      </trkpt>
      <trkpt lat="48.36968" lon="-3.54073">
        <ele>224.12</ele>
        <time>2020-08-07T09:43:42Z</time>
      </trkpt>
      <trkpt lat="48.36976" lon="-3.54059">
        <ele>225.09</ele>
        <time>2020-08-07T09:43:56Z</time>
      </trkpt>
      <trkpt lat="48.3698" lon="-3.54049">
        <ele>225.09</ele>
        <time>2020-08-07T09:44:09Z</time>
      </trkpt>
      <trkpt lat="48.36981" lon="-3.54048">
        <ele>225.57</ele>
        <time>2020-08-07T09:44:11Z</time>
      </trkpt>
      <trkpt lat="48.36986" lon="-3.54038">
        <ele>226.53</ele>
        <time>2020-08-07T09:44:25Z</time>
      </trkpt>
      <trkpt lat="48.36988" lon="-3.54031">
        <ele>226.05</ele>
        <time>2020-08-07T09:44:39Z</time>
      </trkpt>
      <trkpt lat="48.36991" lon="-3.54036">
        <ele>227.01</ele>
        <time>2020-08-07T09:44:52Z</time>
      </trkpt>
      <trkpt lat="48.36995" lon="-3.54039">
        <ele>227.49</ele>
        <time>2020-08-07T09:45:04Z</time>
      </trkpt>
      <trkpt lat="48.36996" lon="-3.54037">
        <ele>227.49</ele>
        <time>2020-08-07T09:45:20Z</time>
      </trkpt>
      <trkpt lat="48.36996" lon="-3.54038">
        <ele>227.49</ele>
        <time>2020-08-07T09:45:36Z</time>
      </trkpt>
      <trkpt lat="48.36993" lon="-3.54047">
        <ele>227.01</ele>
        <time>2020-08-07T09:45:44Z</time>
      </trkpt>
      <trkpt lat="48.36991" lon="-3.54065">
        <ele>227.49</ele>
        <time>2020-08-07T09:46:00Z</time>
      </trkpt>
      <trkpt lat="48.36988" lon="-3.54073">
        <ele>227.97</ele>
        <time>2020-08-07T09:46:12Z</time>
      </trkpt>
      <trkpt lat="48.36988" lon="-3.54078">
        <ele>227.49</ele>
        <time>2020-08-07T09:46:15Z</time>
      </trkpt>
      <trkpt lat="48.36987" lon="-3.54082">
        <ele>227.49</ele>
        <time>2020-08-07T09:46:18Z</time>
      </trkpt>
      <trkpt lat="48.36985" lon="-3.54089">
        <ele>227.01</ele>
        <time>2020-08-07T09:46:24Z</time>
      </trkpt>
      <trkpt lat="48.36982" lon="-3.54106">
        <ele>227.01</ele>
        <time>2020-08-07T09:46:37Z</time>
      </trkpt>
      <trkpt lat="48.36979" lon="-3.54122">
        <ele>226.53</ele>
        <time>2020-08-07T09:46:50Z</time>
      </trkpt>
      <trkpt lat="48.36981" lon="-3.54129">
        <ele>226.05</ele>
        <time>2020-08-07T09:47:02Z</time>
      </trkpt>
      <trkpt lat="48.36979" lon="-3.54147">
        <ele>226.05</ele>
        <time>2020-08-07T09:47:18Z</time>
      </trkpt>
      <trkpt lat="48.36979" lon="-3.54153">
        <ele>225.57</ele>
        <time>2020-08-07T09:47:34Z</time>
      </trkpt>
      <trkpt lat="48.36977" lon="-3.54159">
        <ele>225.57</ele>
        <time>2020-08-07T09:47:46Z</time>
      </trkpt>
      <trkpt lat="48.36976" lon="-3.54164">
        <ele>225.57</ele>
        <time>2020-08-07T09:47:59Z</time>
      </trkpt>
      <trkpt lat="48.36975" lon="-3.54179">
        <ele>224.61</ele>
        <time>2020-08-07T09:48:12Z</time>
      </trkpt>
      <trkpt lat="48.36972" lon="-3.54187">
        <ele>224.61</ele>
        <time>2020-08-07T09:48:23Z</time>
      </trkpt>
      <trkpt lat="48.36969" lon="-3.54191">
        <ele>224.61</ele>
        <time>2020-08-07T09:48:34Z</time>
      </trkpt>
      <trkpt lat="48.36968" lon="-3.542">
        <ele>224.12</ele>
        <time>2020-08-07T09:48:50Z</time>
      </trkpt>
      <trkpt lat="48.36965" lon="-3.54213">
        <ele>223.64</ele>
        <time>2020-08-07T09:49:03Z</time>
      </trkpt>
      <trkpt lat="48.36965" lon="-3.54222">
        <ele>223.64</ele>
        <time>2020-08-07T09:49:12Z</time>
      </trkpt>
      <trkpt lat="48.36966" lon="-3.54234">
        <ele>223.16</ele>
        <time>2020-08-07T09:49:24Z</time>
      </trkpt>
      <trkpt lat="48.36966" lon="-3.54242">
        <ele>223.16</ele>
        <time>2020-08-07T09:49:36Z</time>
      </trkpt>
      <trkpt lat="48.36967" lon="-3.54244">
        <ele>223.16</ele>
        <time>2020-08-07T09:50:02Z</time>
      </trkpt>
      <trkpt lat="48.36967" lon="-3.54244">
        <ele>223.16</ele>
        <time>2020-08-07T09:50:23Z</time>
      </trkpt>
      <trkpt lat="48.36971" lon="-3.54245">
        <ele>223.64</ele>
        <time>2020-08-07T09:50:40Z</time>
      </trkpt>
      <trkpt lat="48.36977" lon="-3.5424">
        <ele>225.09</ele>
        <time>2020-08-07T09:50:53Z</time>
      </trkpt>
      <trkpt lat="48.36979" lon="-3.54233">
        <ele>225.09</ele>
        <time>2020-08-07T09:50:59Z</time>
      </trkpt>
      <trkpt lat="48.36984" lon="-3.54221">
        <ele>226.05</ele>
        <time>2020-08-07T09:51:12Z</time>
      </trkpt>
      <trkpt lat="48.3699" lon="-3.54212">
        <ele>226.53</ele>
        <time>2020-08-07T09:51:26Z</time>
      </trkpt>
      <trkpt lat="48.36991" lon="-3.54212">
        <ele>227.01</ele>
        <time>2020-08-07T09:51:44Z</time>
      </trkpt>
      <trkpt lat="48.36995" lon="-3.54203">
        <ele>227.97</ele>
        <time>2020-08-07T09:51:57Z</time>
      </trkpt>
      <trkpt lat="48.36998" lon="-3.54197">
        <ele>228.45</ele>
        <time>2020-08-07T09:52:12Z</time>
      </trkpt>
      <trkpt lat="48.37002" lon="-3.54185">
        <ele>228.93</ele>
        <time>2020-08-07T09:52:25Z</time>
      </trkpt>
      <trkpt lat="48.37003" lon="-3.54175">
        <ele>229.41</ele>
        <time>2020-08-07T09:52:37Z</time>
      </trkpt>
      <trkpt lat="48.37004" lon="-3.54166">
        <ele>228.93</ele>
        <time>2020-08-07T09:52:49Z</time>
      </trkpt>
      <trkpt lat="48.37004" lon="-3.54162">
        <ele>229.89</ele>
        <time>2020-08-07T09:52:55Z</time>
      </trkpt>
      <trkpt lat="48.37002" lon="-3.54149">
        <ele>229.41</ele>
        <time>2020-08-07T09:53:09Z</time>
      </trkpt>
      <trkpt lat="48.37003" lon="-3.54143">
        <ele>230.37</ele>
        <time>2020-08-07T09:53:20Z</time>
      </trkpt>
      <trkpt lat="48.37006" lon="-3.54136">
        <ele>230.37</ele>
        <time>2020-08-07T09:53:33Z</time>
      </trkpt>
      <trkpt lat="48.37009" lon="-3.54131">
        <ele>230.85</ele>
        <time>2020-08-07T09:53:46Z</time>
      </trkpt>
      <trkpt lat="48.3701" lon="-3.54127">
        <ele>230.37</ele>
        <time>2020-08-07T09:54:09Z</time>
      </trkpt>
      <trkpt lat="48.3701" lon="-3.54114">
        <ele>230.85</ele>
        <time>2020-08-07T09:54:23Z</time>
      </trkpt>
      <trkpt lat="48.37013" lon="-3.54106">
        <ele>230.85</ele>
        <time>2020-08-07T09:54:34Z</time>
      </trkpt>
      <trkpt lat="48.37019" lon="-3.54097">
        <ele>231.33</ele>
        <time>2020-08-07T09:54:48Z</time>
      </trkpt>
      <trkpt lat="48.37023" lon="-3.54095">
        <ele>231.81</ele>
        <time>2020-08-07T09:55:05Z</time>
      </trkpt>
      <trkpt lat="48.3703" lon="-3.54088">
        <ele>232.78</ele>
        <time>2020-08-07T09:55:19Z</time>
      </trkpt>
      <trkpt lat="48.37037" lon="-3.54088">
        <ele>233.74</ele>
        <time>2020-08-07T09:55:31Z</time>
      </trkpt>
      <trkpt lat="48.3704" lon="-3.54095">
        <ele>234.22</ele>
        <time>2020-08-07T09:55:43Z</time>
      </trkpt>
      <trkpt lat="48.37039" lon="-3.54108">
        <ele>233.26</ele>
        <time>2020-08-07T09:55:55Z</time>
      </trkpt>
      <trkpt lat="48.37039" lon="-3.54115">
        <ele>233.74</ele>
        <time>2020-08-07T09:56:00Z</time>
      </trkpt>
      <trkpt lat="48.37041" lon="-3.54124">
        <ele>234.22</ele>
        <time>2020-08-07T09:56:12Z</time>
      </trkpt>
      <trkpt lat="48.37044" lon="-3.54128">
        <ele>234.22</ele>
        <time>2020-08-07T09:56:25Z</time>
      </trkpt>
      <trkpt lat="48.37044" lon="-3.54133">
        <ele>234.22</ele>
        <time>2020-08-07T09:56:38Z</time>
      </trkpt>
      <trkpt lat="48.37045" lon="-3.54143">
        <ele>234.22</ele>
        <time>2020-08-07T09:56:50Z</time>
      </trkpt>
      <trkpt lat="48.37046" lon="-3.54157">
        <ele>233.74</ele>
        <time>2020-08-07T09:57:04Z</time>
      </trkpt>
      <trkpt lat="48.37046" lon="-3.5416">
        <ele>233.74</ele>
        <time>2020-08-07T09:57:22Z</time>
      </trkpt>
      <trkpt lat="48.37046" lon="-3.54169">
        <ele>233.26</ele>
        <time>2020-08-07T09:57:35Z</time>
      </trkpt>
      <trkpt lat="48.37048" lon="-3.54177">
        <ele>232.78</ele>
        <time>2020-08-07T09:57:48Z</time>
      </trkpt>
      <trkpt lat="48.37048" lon="-3.54192">
        <ele>232.78</ele>
        <time>2020-08-07T09:58:01Z</time>
      </trkpt>
      <trkpt lat="48.37047" lon="-3.54196">
        <ele>232.3</ele>
        <time>2020-08-07T09:58:13Z</time>
      </trkpt>
      <trkpt lat="48.37047" lon="-3.54201">
        <ele>232.3</ele>
        <time>2020-08-07T09:58:26Z</time>
      </trkpt>
      <trkpt lat="48.37047" lon="-3.54211">
        <ele>231.81</ele>
        <time>2020-08-07T09:58:38Z</time>
      </trkpt>
      <trkpt lat="48.37046" lon="-3.54214">
        <ele>231.33</ele>
        <time>2020-08-07T09:58:51Z</time>
      </trkpt>
      <trkpt lat="48.3704" lon="-3.54228">
        <ele>230.85</ele>
        <time>2020-08-07T09:59:04Z</time>
      </trkpt>
      <trkpt lat="48.37038" lon="-3.54232">
        <ele>230.85</ele>
        <time>2020-08-07T09:59:15Z</time>
      </trkpt>
      <trkpt lat="48.37036" lon="-3.5424">
        <ele>230.37</ele>
        <time>2020-08-07T09:59:26Z</time>
      </trkpt>
      <trkpt lat="48.37028" lon="-3.54247">
        <ele>229.41</ele>
        <time>2020-08-07T09:59:39Z</time>
      </trkpt>
      <trkpt lat="48.37025" lon="-3.54251">
        <ele>229.41</ele>
        <time>2020-08-07T09:59:45Z</time>
      </trkpt>
      <trkpt lat="48.37016" lon="-3.54257">
        <ele>228.45</ele>
        <time>2020-08-07T09:59:59Z</time>
      </trkpt>
      <trkpt lat="48.37008" lon="-3.54263">
        <ele>227.49</ele>
        <time>2020-08-07T10:00:11Z</time>
      </trkpt>
      <trkpt lat="48.37003" lon="-3.54271">
        <ele>227.49</ele>
        <time>2020-08-07T10:00:23Z</time>
      </trkpt>
      <trkpt lat="48.37007" lon="-3.5427">
        <ele>227.49</ele>
        <time>2020-08-07T10:00:41Z</time>
      </trkpt>
      <trkpt lat="48.37011" lon="-3.54268">
        <ele>227.49</ele>
        <time>2020-08-07T10:00:58Z</time>
      </trkpt>
      <trkpt lat="48.37021" lon="-3.5427">
        <ele>227.97</ele>
        <time>2020-08-07T10:01:11Z</time>
      </trkpt>
      <trkpt lat="48.3703" lon="-3.54269">
        <ele>228.93</ele>
        <time>2020-08-07T10:01:24Z</time>
      </trkpt>
      <trkpt lat="48.37035" lon="-3.54261">
        <ele>228.93</ele>
        <time>2020-08-07T10:01:37Z</time>
      </trkpt>
      <trkpt lat="48.37039" lon="-3.54255">
        <ele>229.89</ele>
        <time>2020-08-07T10:01:50Z</time>
      </trkpt>
      <trkpt lat="48.37043" lon="-3.54251">
        <ele>230.37</ele>
        <time>2020-08-07T10:01:56Z</time>
      </trkpt>
      <trkpt lat="48.37046" lon="-3.54248">
        <ele>230.85</ele>
        <time>2020-08-07T10:02:00Z</time>
      </trkpt>
      <trkpt lat="48.37053" lon="-3.54241">
        <ele>231.33</ele>
        <time>2020-08-07T10:02:13Z</time>
      </trkpt>
      <trkpt lat="48.37061" lon="-3.54233">
        <ele>232.3</ele>
        <time>2020-08-07T10:02:26Z</time>
      </trkpt>
      <trkpt lat="48.37065" lon="-3.54221">
        <ele>232.78</ele>
        <time>2020-08-07T10:02:39Z</time>
      </trkpt>
      <trkpt lat="48.37069" lon="-3.54211">
        <ele>233.74</ele>
        <time>2020-08-07T10:02:51Z</time>
      </trkpt>
      <trkpt lat="48.37073" lon="-3.54202">
        <ele>233.74</ele>
        <time>2020-08-07T10:03:04Z</time>
      </trkpt>
      <trkpt lat="48.37075" lon="-3.54198">
        <ele>234.22</ele>
        <time>2020-08-07T10:03:19Z</time>
      </trkpt>
      <trkpt lat="48.37077" lon="-3.54191">
        <ele>235.18</ele>
        <time>2020-08-07T10:03:34Z</time>
      </trkpt>
      <trkpt lat="48.3708" lon="-3.54176">
        <ele>235.18</ele>
        <time>2020-08-07T10:03:48Z</time>
      </trkpt>
      <trkpt lat="48.37083" lon="-3.54167">
        <ele>235.66</ele>
        <time>2020-08-07T10:04:01Z</time>
      </trkpt>
      <trkpt lat="48.37085" lon="-3.54165">
        <ele>236.14</ele>
        <time>2020-08-07T10:04:22Z</time>
      </trkpt>
      <trkpt lat="48.37089" lon="-3.54163">
        <ele>235.66</ele>
        <time>2020-08-07T10:04:34Z</time>
      </trkpt>
      <trkpt lat="48.3709" lon="-3.54153">
        <ele>236.14</ele>
        <time>2020-08-07T10:04:47Z</time>
      </trkpt>
      <trkpt lat="48.37085" lon="-3.54137">
        <ele>236.62</ele>
        <time>2020-08-07T10:05:00Z</time>
      </trkpt>
      <trkpt lat="48.37078" lon="-3.54135">
        <ele>236.62</ele>
        <time>2020-08-07T10:05:12Z</time>
      </trkpt>
      <trkpt lat="48.37079" lon="-3.54131">
        <ele>236.62</ele>
        <time>2020-08-07T10:05:23Z</time>
      </trkpt>
      <trkpt lat="48.3708" lon="-3.54125">
        <ele>236.62</ele>
        <time>2020-08-07T10:05:35Z</time>
      </trkpt>
      <trkpt lat="48.37084" lon="-3.54125">
        <ele>236.62</ele>
        <time>2020-08-07T10:05:50Z</time>
      </trkpt>
      <trkpt lat="48.37085" lon="-3.54122">
        <ele>236.62</ele>
        <time>2020-08-07T10:06:01Z</time>
      </trkpt>
      <trkpt lat="48.37088" lon="-3.54126">
        <ele>236.62</ele>
        <time>2020-08-07T10:06:16Z</time>
      </trkpt>
      <trkpt lat="48.37096" lon="-3.54134">
        <ele>237.1</ele>
        <time>2020-08-07T10:06:28Z</time>
      </trkpt>
      <trkpt lat="48.37101" lon="-3.54141">
        <ele>237.1</ele>
        <time>2020-08-07T10:06:39Z</time>
      </trkpt>
      <trkpt lat="48.37102" lon="-3.54148">
        <ele>236.62</ele>
        <time>2020-08-07T10:06:53Z</time>
      </trkpt>
      <trkpt lat="48.371" lon="-3.54162">
        <ele>237.1</ele>
        <time>2020-08-07T10:07:07Z</time>
      </trkpt>
      <trkpt lat="48.37095" lon="-3.54172">
        <ele>236.62</ele>
        <time>2020-08-07T10:07:20Z</time>
      </trkpt>
      <trkpt lat="48.37095" lon="-3.54184">
        <ele>236.14</ele>
        <time>2020-08-07T10:07:34Z</time>
      </trkpt>
      <trkpt lat="48.37096" lon="-3.54196">
        <ele>236.14</ele>
        <time>2020-08-07T10:07:46Z</time>
      </trkpt>
      <trkpt lat="48.37097" lon="-3.542">
        <ele>235.18</ele>
        <time>2020-08-07T10:07:56Z</time>
      </trkpt>
      <trkpt lat="48.37097" lon="-3.54205">
        <ele>235.18</ele>
        <time>2020-08-07T10:08:11Z</time>
      </trkpt>
      <trkpt lat="48.37099" lon="-3.54211">
        <ele>234.22</ele>
        <time>2020-08-07T10:08:24Z</time>
      </trkpt>
      <trkpt lat="48.371" lon="-3.54217">
        <ele>234.7</ele>
        <time>2020-08-07T10:08:38Z</time>
      </trkpt>
      <trkpt lat="48.37101" lon="-3.54218">
        <ele>234.7</ele>
        <time>2020-08-07T10:08:54Z</time>
      </trkpt>
      <trkpt lat="48.37103" lon="-3.54221">
        <ele>234.7</ele>
        <time>2020-08-07T10:09:09Z</time>
      </trkpt>
      <trkpt lat="48.37107" lon="-3.54229">
        <ele>233.74</ele>
        <time>2020-08-07T10:09:21Z</time>
      </trkpt>
      <trkpt lat="48.37112" lon="-3.5424">
        <ele>233.26</ele>
        <time>2020-08-07T10:09:34Z</time>
      </trkpt>
      <trkpt lat="48.37113" lon="-3.54243">
        <ele>233.26</ele>
        <time>2020-08-07T10:09:48Z</time>
      </trkpt>
      <trkpt lat="48.37122" lon="-3.54233">
        <ele>233.26</ele>
        <time>2020-08-07T10:10:04Z</time>
      </trkpt>
      <trkpt lat="48.37124" lon="-3.54222">
        <ele>233.74</ele>
        <time>2020-08-07T10:10:17Z</time>
      </trkpt>
      <trkpt lat="48.37124" lon="-3.54216">
        <ele>233.26</ele>
        <time>2020-08-07T10:10:31Z</time>
      </trkpt>
      <trkpt lat="48.3712" lon="-3.54224">
        <ele>233.74</ele>
        <time>2020-08-07T10:10:43Z</time>
      </trkpt>
      <trkpt lat="48.37117" lon="-3.54227">
        <ele>233.74</ele>
        <time>2020-08-07T10:10:58Z</time>
      </trkpt>
      <trkpt lat="48.37114" lon="-3.54225">
        <ele>234.22</ele>
        <time>2020-08-07T10:11:10Z</time>
      </trkpt>
      <trkpt lat="48.37116" lon="-3.54228">
        <ele>233.74</ele>
        <time>2020-08-07T10:11:24Z</time>
      </trkpt>
      <trkpt lat="48.37126" lon="-3.54239">
        <ele>232.3</ele>
        <time>2020-08-07T10:11:39Z</time>
      </trkpt>
      <trkpt lat="48.37131" lon="-3.54245">
        <ele>231.33</ele>
        <time>2020-08-07T10:11:50Z</time>
      </trkpt>
      <trkpt lat="48.37138" lon="-3.54243">
        <ele>230.85</ele>
        <time>2020-08-07T10:12:04Z</time>
      </trkpt>
      <trkpt lat="48.3714" lon="-3.54232">
        <ele>231.81</ele>
        <time>2020-08-07T10:12:17Z</time>
      </trkpt>
      <trkpt lat="48.37139" lon="-3.54215">
        <ele>232.3</ele>
        <time>2020-08-07T10:12:31Z</time>
      </trkpt>
      <trkpt lat="48.37138" lon="-3.54205">
        <ele>232.78</ele>
        <time>2020-08-07T10:12:42Z</time>
      </trkpt>
      <trkpt lat="48.37139" lon="-3.54191">
        <ele>232.3</ele>
        <time>2020-08-07T10:12:54Z</time>
      </trkpt>
      <trkpt lat="48.37144" lon="-3.54173">
        <ele>232.3</ele>
        <time>2020-08-07T10:13:07Z</time>
      </trkpt>
      <trkpt lat="48.37147" lon="-3.54159">
        <ele>231.81</ele>
        <time>2020-08-07T10:13:22Z</time>
      </trkpt>
      <trkpt lat="48.3715" lon="-3.54162">
        <ele>230.85</ele>
        <time>2020-08-07T10:13:34Z</time>
      </trkpt>
      <trkpt lat="48.37158" lon="-3.54162">
        <ele>229.41</ele>
        <time>2020-08-07T10:13:45Z</time>
      </trkpt>
      <trkpt lat="48.3716" lon="-3.54161">
        <ele>229.89</ele>
        <time>2020-08-07T10:14:00Z</time>
      </trkpt>
      <trkpt lat="48.3716" lon="-3.54162">
        <ele>228.93</ele>
        <time>2020-08-07T10:14:14Z</time>
      </trkpt>
      <trkpt lat="48.37161" lon="-3.54164">
        <ele>229.41</ele>
        <time>2020-08-07T10:14:33Z</time>
      </trkpt>
      <trkpt lat="48.37162" lon="-3.54165">
        <ele>229.41</ele>
        <time>2020-08-07T10:14:46Z</time>
      </trkpt>
      <trkpt lat="48.37163" lon="-3.54166">
        <ele>229.41</ele>
        <time>2020-08-07T10:15:16Z</time>
      </trkpt>
      <trkpt lat="48.37168" lon="-3.54172">
        <ele>228.93</ele>
        <time>2020-08-07T10:15:34Z</time>
      </trkpt>
      <trkpt lat="48.37172" lon="-3.54182">
        <ele>228.93</ele>
        <time>2020-08-07T10:15:48Z</time>
      </trkpt>
      <trkpt lat="48.37174" lon="-3.54185">
        <ele>228.93</ele>
        <time>2020-08-07T10:16:14Z</time>
      </trkpt>
      <trkpt lat="48.37175" lon="-3.54184">
        <ele>228.45</ele>
        <time>2020-08-07T10:16:35Z</time>
      </trkpt>
      <trkpt lat="48.37175" lon="-3.54182">
        <ele>229.41</ele>
        <time>2020-08-07T10:16:47Z</time>
      </trkpt>
      <trkpt lat="48.37176" lon="-3.54183">
        <ele>229.41</ele>
        <time>2020-08-07T10:17:10Z</time>
      </trkpt>
      <trkpt lat="48.37175" lon="-3.54186">
        <ele>229.89</ele>
        <time>2020-08-07T10:17:35Z</time>
      </trkpt>
      <trkpt lat="48.37176" lon="-3.54189">
        <ele>230.37</ele>
        <time>2020-08-07T10:17:46Z</time>
      </trkpt>
      <trkpt lat="48.37173" lon="-3.54192">
        <ele>227.01</ele>
        <time>2020-08-07T10:17:53Z</time>
      </trkpt>
      <trkpt lat="48.37173" lon="-3.54192">
        <ele>230.37</ele>
        <time>2020-08-07T10:17:54Z</time>
      </trkpt>
      <trkpt lat="48.3717" lon="-3.54198">
        <ele>230.37</ele>
        <time>2020-08-07T10:18:04Z</time>
      </trkpt>
      <trkpt lat="48.37169" lon="-3.542">
        <ele>230.37</ele>
        <time>2020-08-07T10:18:23Z</time>
      </trkpt>
      <trkpt lat="48.37172" lon="-3.54203">
        <ele>229.89</ele>
        <time>2020-08-07T10:18:40Z</time>
      </trkpt>
      <trkpt lat="48.37172" lon="-3.54204">
        <ele>230.37</ele>
        <time>2020-08-07T10:18:59Z</time>
      </trkpt>
      <trkpt lat="48.37166" lon="-3.54197">
        <ele>230.37</ele>
        <time>2020-08-07T10:19:20Z</time>
      </trkpt>
      <trkpt lat="48.37168" lon="-3.54199">
        <ele>230.37</ele>
        <time>2020-08-07T10:19:38Z</time>
      </trkpt>
      <trkpt lat="48.37161" lon="-3.54225">
        <ele>229.89</ele>
        <time>2020-08-07T10:20:00Z</time>
      </trkpt>
      <trkpt lat="48.37157" lon="-3.54203">
        <ele>230.37</ele>
        <time>2020-08-07T10:20:32Z</time>
      </trkpt>
      <trkpt lat="48.3716" lon="-3.54187">
        <ele>230.37</ele>
        <time>2020-08-07T10:20:51Z</time>
      </trkpt>
      <trkpt lat="48.37156" lon="-3.54178">
        <ele>230.37</ele>
        <time>2020-08-07T10:21:10Z</time>
      </trkpt>
      <trkpt lat="48.37153" lon="-3.54169">
        <ele>230.37</ele>
        <time>2020-08-07T10:21:33Z</time>
      </trkpt>
      <trkpt lat="48.37155" lon="-3.54174">
        <ele>230.37</ele>
        <time>2020-08-07T10:21:39Z</time>
      </trkpt>
      <trkpt lat="48.37159" lon="-3.54184">
        <ele>230.37</ele>
        <time>2020-08-07T10:21:43Z</time>
      </trkpt>
      <trkpt lat="48.37165" lon="-3.54208">
        <ele>229.89</ele>
        <time>2020-08-07T10:22:02Z</time>
      </trkpt>
      <trkpt lat="48.37179" lon="-3.54208">
        <ele>230.37</ele>
        <time>2020-08-07T10:22:21Z</time>
      </trkpt>
    </trkseg>
  </trk>
  <trk>
    <name><![CDATA[20-08-07PM]]></name>
    <trkseg>
      <trkpt lat="48.36706" lon="-3.74655">
        <ele>187.59</ele>
        <time>2020-08-07T11:54:22Z</time>
      </trkpt>
      <trkpt lat="48.36701" lon="-3.74659">
        <ele>188.56</ele>
        <time>2020-08-07T11:54:28Z</time>
      </trkpt>
      <trkpt lat="48.36699" lon="-3.74656">
        <ele>185.19</ele>
        <time>2020-08-07T11:54:39Z</time>
      </trkpt>
      <trkpt lat="48.36699" lon="-3.74656">
        <ele>184.71</ele>
        <time>2020-08-07T11:54:40Z</time>
      </trkpt>
      <trkpt lat="48.36701" lon="-3.74657">
        <ele>177.5</ele>
        <time>2020-08-07T11:54:42Z</time>
      </trkpt>
      <trkpt lat="48.36702" lon="-3.74658">
        <ele>185.19</ele>
        <time>2020-08-07T11:54:43Z</time>
      </trkpt>
      <trkpt lat="48.36702" lon="-3.74659">
        <ele>168.85</ele>
        <time>2020-08-07T11:54:45Z</time>
      </trkpt>
      <trkpt lat="48.36702" lon="-3.7466">
        <ele>185.19</ele>
        <time>2020-08-07T11:54:46Z</time>
      </trkpt>
      <trkpt lat="48.36702" lon="-3.7466">
        <ele>181.83</ele>
        <time>2020-08-07T11:54:47Z</time>
      </trkpt>
      <trkpt lat="48.36702" lon="-3.74661">
        <ele>185.19</ele>
        <time>2020-08-07T11:54:49Z</time>
      </trkpt>
      <trkpt lat="48.36702" lon="-3.74661">
        <ele>180.87</ele>
        <time>2020-08-07T11:54:50Z</time>
      </trkpt>
      <trkpt lat="48.36708" lon="-3.74659">
        <ele>181.83</ele>
        <time>2020-08-07T11:54:58Z</time>
      </trkpt>
      <trkpt lat="48.36714" lon="-3.74653">
        <ele>182.31</ele>
        <time>2020-08-07T11:55:12Z</time>
      </trkpt>
      <trkpt lat="48.36719" lon="-3.7465">
        <ele>181.83</ele>
        <time>2020-08-07T11:55:21Z</time>
      </trkpt>
      <trkpt lat="48.36735" lon="-3.7465">
        <ele>179.42</ele>
        <time>2020-08-07T11:55:36Z</time>
      </trkpt>
      <trkpt lat="48.36745" lon="-3.74655">
        <ele>177.02</ele>
        <time>2020-08-07T11:55:49Z</time>
      </trkpt>
      <trkpt lat="48.36754" lon="-3.7466">
        <ele>175.58</ele>
        <time>2020-08-07T11:56:02Z</time>
      </trkpt>
      <trkpt lat="48.36754" lon="-3.74664">
        <ele>174.14</ele>
        <time>2020-08-07T11:56:17Z</time>
      </trkpt>
      <trkpt lat="48.36756" lon="-3.74663">
        <ele>174.14</ele>
        <time>2020-08-07T11:56:22Z</time>
      </trkpt>
      <trkpt lat="48.36759" lon="-3.74655">
        <ele>174.14</ele>
        <time>2020-08-07T11:56:28Z</time>
      </trkpt>
      <trkpt lat="48.36769" lon="-3.74646">
        <ele>174.14</ele>
        <time>2020-08-07T11:56:41Z</time>
      </trkpt>
      <trkpt lat="48.36767" lon="-3.74642">
        <ele>174.14</ele>
        <time>2020-08-07T11:56:53Z</time>
      </trkpt>
      <trkpt lat="48.36767" lon="-3.74641">
        <ele>174.14</ele>
        <time>2020-08-07T11:56:56Z</time>
      </trkpt>
      <trkpt lat="48.36769" lon="-3.74645">
        <ele>174.62</ele>
        <time>2020-08-07T11:57:06Z</time>
      </trkpt>
      <trkpt lat="48.36769" lon="-3.74654">
        <ele>173.66</ele>
        <time>2020-08-07T11:57:16Z</time>
      </trkpt>
      <trkpt lat="48.36772" lon="-3.74666">
        <ele>171.73</ele>
        <time>2020-08-07T11:57:28Z</time>
      </trkpt>
      <trkpt lat="48.36777" lon="-3.74683">
        <ele>170.77</ele>
        <time>2020-08-07T11:57:40Z</time>
      </trkpt>
      <trkpt lat="48.3678" lon="-3.74695">
        <ele>171.25</ele>
        <time>2020-08-07T11:57:51Z</time>
      </trkpt>
      <trkpt lat="48.36785" lon="-3.74698">
        <ele>170.77</ele>
        <time>2020-08-07T11:58:05Z</time>
      </trkpt>
      <trkpt lat="48.36789" lon="-3.747">
        <ele>168.85</ele>
        <time>2020-08-07T11:58:10Z</time>
      </trkpt>
      <trkpt lat="48.36799" lon="-3.74713">
        <ele>168.85</ele>
        <time>2020-08-07T11:58:23Z</time>
      </trkpt>
      <trkpt lat="48.36801" lon="-3.74716">
        <ele>168.85</ele>
        <time>2020-08-07T11:58:26Z</time>
      </trkpt>
      <trkpt lat="48.36809" lon="-3.74743">
        <ele>169.33</ele>
        <time>2020-08-07T11:58:39Z</time>
      </trkpt>
      <trkpt lat="48.36814" lon="-3.74769">
        <ele>171.25</ele>
        <time>2020-08-07T11:58:55Z</time>
      </trkpt>
      <trkpt lat="48.36814" lon="-3.74783">
        <ele>171.73</ele>
        <time>2020-08-07T11:59:07Z</time>
      </trkpt>
      <trkpt lat="48.36817" lon="-3.74787">
        <ele>171.25</ele>
        <time>2020-08-07T11:59:12Z</time>
      </trkpt>
      <trkpt lat="48.36821" lon="-3.74809">
        <ele>171.73</ele>
        <time>2020-08-07T11:59:25Z</time>
      </trkpt>
      <trkpt lat="48.36825" lon="-3.74819">
        <ele>172.21</ele>
        <time>2020-08-07T11:59:33Z</time>
      </trkpt>
      <trkpt lat="48.36826" lon="-3.7482">
        <ele>172.21</ele>
        <time>2020-08-07T11:59:36Z</time>
      </trkpt>
      <trkpt lat="48.36832" lon="-3.74819">
        <ele>171.25</ele>
        <time>2020-08-07T11:59:43Z</time>
      </trkpt>
      <trkpt lat="48.3684" lon="-3.74825">
        <ele>171.73</ele>
        <time>2020-08-07T11:59:52Z</time>
      </trkpt>
      <trkpt lat="48.36843" lon="-3.74826">
        <ele>171.73</ele>
        <time>2020-08-07T12:00:03Z</time>
      </trkpt>
      <trkpt lat="48.36844" lon="-3.74825">
        <ele>171.25</ele>
        <time>2020-08-07T12:00:24Z</time>
      </trkpt>
      <trkpt lat="48.36844" lon="-3.74825">
        <ele>171.73</ele>
        <time>2020-08-07T12:00:42Z</time>
      </trkpt>
      <trkpt lat="48.36843" lon="-3.74825">
        <ele>171.73</ele>
        <time>2020-08-07T12:01:03Z</time>
      </trkpt>
      <trkpt lat="48.36842" lon="-3.74824">
        <ele>171.25</ele>
        <time>2020-08-07T12:01:31Z</time>
      </trkpt>
      <trkpt lat="48.36841" lon="-3.74825">
        <ele>171.25</ele>
        <time>2020-08-07T12:01:49Z</time>
      </trkpt>
      <trkpt lat="48.36844" lon="-3.74824">
        <ele>171.73</ele>
        <time>2020-08-07T12:02:00Z</time>
      </trkpt>
      <trkpt lat="48.36848" lon="-3.74827">
        <ele>170.29</ele>
        <time>2020-08-07T12:02:11Z</time>
      </trkpt>
      <trkpt lat="48.36855" lon="-3.74832">
        <ele>172.21</ele>
        <time>2020-08-07T12:02:23Z</time>
      </trkpt>
      <trkpt lat="48.36857" lon="-3.74829">
        <ele>173.17</ele>
        <time>2020-08-07T12:02:33Z</time>
      </trkpt>
      <trkpt lat="48.36859" lon="-3.74826">
        <ele>176.06</ele>
        <time>2020-08-07T12:02:46Z</time>
      </trkpt>
      <trkpt lat="48.36862" lon="-3.74823">
        <ele>177.02</ele>
        <time>2020-08-07T12:02:58Z</time>
      </trkpt>
      <trkpt lat="48.36866" lon="-3.74822">
        <ele>178.94</ele>
        <time>2020-08-07T12:03:09Z</time>
      </trkpt>
      <trkpt lat="48.36872" lon="-3.74829">
        <ele>181.35</ele>
        <time>2020-08-07T12:03:21Z</time>
      </trkpt>
      <trkpt lat="48.36873" lon="-3.74839">
        <ele>181.35</ele>
        <time>2020-08-07T12:03:32Z</time>
      </trkpt>
      <trkpt lat="48.36871" lon="-3.74843">
        <ele>181.35</ele>
        <time>2020-08-07T12:03:45Z</time>
      </trkpt>
      <trkpt lat="48.36872" lon="-3.74846">
        <ele>181.35</ele>
        <time>2020-08-07T12:04:07Z</time>
      </trkpt>
      <trkpt lat="48.36874" lon="-3.74848">
        <ele>182.31</ele>
        <time>2020-08-07T12:04:20Z</time>
      </trkpt>
      <trkpt lat="48.36874" lon="-3.7485">
        <ele>182.31</ele>
        <time>2020-08-07T12:04:51Z</time>
      </trkpt>
      <trkpt lat="48.36874" lon="-3.7485">
        <ele>182.79</ele>
        <time>2020-08-07T12:04:59Z</time>
      </trkpt>
      <trkpt lat="48.36875" lon="-3.74848">
        <ele>184.23</ele>
        <time>2020-08-07T12:05:12Z</time>
      </trkpt>
      <trkpt lat="48.36876" lon="-3.74844">
        <ele>183.27</ele>
        <time>2020-08-07T12:05:27Z</time>
      </trkpt>
      <trkpt lat="48.36876" lon="-3.74841">
        <ele>183.27</ele>
        <time>2020-08-07T12:05:48Z</time>
      </trkpt>
      <trkpt lat="48.36876" lon="-3.74838">
        <ele>182.79</ele>
        <time>2020-08-07T12:06:05Z</time>
      </trkpt>
      <trkpt lat="48.36879" lon="-3.74835">
        <ele>184.23</ele>
        <time>2020-08-07T12:06:21Z</time>
      </trkpt>
      <trkpt lat="48.3688" lon="-3.74829">
        <ele>183.75</ele>
        <time>2020-08-07T12:06:34Z</time>
      </trkpt>
      <trkpt lat="48.36883" lon="-3.74817">
        <ele>183.27</ele>
        <time>2020-08-07T12:06:46Z</time>
      </trkpt>
      <trkpt lat="48.36896" lon="-3.74805">
        <ele>182.79</ele>
        <time>2020-08-07T12:06:53Z</time>
      </trkpt>
      <trkpt lat="48.36892" lon="-3.74813">
        <ele>184.71</ele>
        <time>2020-08-07T12:07:06Z</time>
      </trkpt>
      <trkpt lat="48.36889" lon="-3.74819">
        <ele>184.23</ele>
        <time>2020-08-07T12:07:21Z</time>
      </trkpt>
      <trkpt lat="48.36886" lon="-3.74823">
        <ele>183.75</ele>
        <time>2020-08-07T12:07:34Z</time>
      </trkpt>
      <trkpt lat="48.36884" lon="-3.74825">
        <ele>183.27</ele>
        <time>2020-08-07T12:07:47Z</time>
      </trkpt>
      <trkpt lat="48.36883" lon="-3.74824">
        <ele>183.75</ele>
        <time>2020-08-07T12:08:00Z</time>
      </trkpt>
      <trkpt lat="48.3688" lon="-3.74827">
        <ele>182.79</ele>
        <time>2020-08-07T12:08:18Z</time>
      </trkpt>
      <trkpt lat="48.36879" lon="-3.74828">
        <ele>182.79</ele>
        <time>2020-08-07T12:08:39Z</time>
      </trkpt>
      <trkpt lat="48.36879" lon="-3.7483">
        <ele>182.31</ele>
        <time>2020-08-07T12:08:58Z</time>
      </trkpt>
      <trkpt lat="48.36875" lon="-3.7484">
        <ele>182.31</ele>
        <time>2020-08-07T12:09:10Z</time>
      </trkpt>
      <trkpt lat="48.36873" lon="-3.74848">
        <ele>181.35</ele>
        <time>2020-08-07T12:09:23Z</time>
      </trkpt>
      <trkpt lat="48.36873" lon="-3.74852">
        <ele>180.87</ele>
        <time>2020-08-07T12:09:41Z</time>
      </trkpt>
      <trkpt lat="48.36873" lon="-3.74857">
        <ele>178.94</ele>
        <time>2020-08-07T12:09:52Z</time>
      </trkpt>
      <trkpt lat="48.36871" lon="-3.74861">
        <ele>177.5</ele>
        <time>2020-08-07T12:10:06Z</time>
      </trkpt>
      <trkpt lat="48.36868" lon="-3.74867">
        <ele>175.58</ele>
        <time>2020-08-07T12:10:21Z</time>
      </trkpt>
      <trkpt lat="48.36864" lon="-3.74875">
        <ele>173.17</ele>
        <time>2020-08-07T12:10:37Z</time>
      </trkpt>
      <trkpt lat="48.36858" lon="-3.7488">
        <ele>172.21</ele>
        <time>2020-08-07T12:10:50Z</time>
      </trkpt>
      <trkpt lat="48.36847" lon="-3.74886">
        <ele>173.17</ele>
        <time>2020-08-07T12:11:02Z</time>
      </trkpt>
      <trkpt lat="48.36841" lon="-3.74881">
        <ele>173.17</ele>
        <time>2020-08-07T12:11:08Z</time>
      </trkpt>
      <trkpt lat="48.36837" lon="-3.74871">
        <ele>173.17</ele>
        <time>2020-08-07T12:11:18Z</time>
      </trkpt>
      <trkpt lat="48.36836" lon="-3.74868">
        <ele>173.17</ele>
        <time>2020-08-07T12:11:20Z</time>
      </trkpt>
      <trkpt lat="48.36834" lon="-3.7486">
        <ele>173.17</ele>
        <time>2020-08-07T12:11:25Z</time>
      </trkpt>
      <trkpt lat="48.36831" lon="-3.74851">
        <ele>172.69</ele>
        <time>2020-08-07T12:11:32Z</time>
      </trkpt>
      <trkpt lat="48.3683" lon="-3.74849">
        <ele>172.69</ele>
        <time>2020-08-07T12:11:34Z</time>
      </trkpt>
      <trkpt lat="48.36827" lon="-3.74837">
        <ele>173.66</ele>
        <time>2020-08-07T12:11:44Z</time>
      </trkpt>
      <trkpt lat="48.36826" lon="-3.74829">
        <ele>172.69</ele>
        <time>2020-08-07T12:11:50Z</time>
      </trkpt>
      <trkpt lat="48.36825" lon="-3.74827">
        <ele>173.17</ele>
        <time>2020-08-07T12:11:52Z</time>
      </trkpt>
      <trkpt lat="48.36824" lon="-3.74823">
        <ele>173.17</ele>
        <time>2020-08-07T12:11:56Z</time>
      </trkpt>
      <trkpt lat="48.3682" lon="-3.74806">
        <ele>172.21</ele>
        <time>2020-08-07T12:12:11Z</time>
      </trkpt>
      <trkpt lat="48.36816" lon="-3.74792">
        <ele>172.69</ele>
        <time>2020-08-07T12:12:25Z</time>
      </trkpt>
      <trkpt lat="48.36814" lon="-3.74787">
        <ele>172.21</ele>
        <time>2020-08-07T12:12:28Z</time>
      </trkpt>
      <trkpt lat="48.36807" lon="-3.74779">
        <ele>172.21</ele>
        <time>2020-08-07T12:12:38Z</time>
      </trkpt>
      <trkpt lat="48.36805" lon="-3.74773">
        <ele>171.73</ele>
        <time>2020-08-07T12:12:42Z</time>
      </trkpt>
      <trkpt lat="48.36802" lon="-3.74762">
        <ele>170.77</ele>
        <time>2020-08-07T12:12:50Z</time>
      </trkpt>
      <trkpt lat="48.36801" lon="-3.74758">
        <ele>170.29</ele>
        <time>2020-08-07T12:12:53Z</time>
      </trkpt>
      <trkpt lat="48.36798" lon="-3.74737">
        <ele>170.29</ele>
        <time>2020-08-07T12:13:10Z</time>
      </trkpt>
      <trkpt lat="48.36799" lon="-3.74729">
        <ele>169.81</ele>
        <time>2020-08-07T12:13:16Z</time>
      </trkpt>
      <trkpt lat="48.36798" lon="-3.74717">
        <ele>168.85</ele>
        <time>2020-08-07T12:13:27Z</time>
      </trkpt>
      <trkpt lat="48.36798" lon="-3.747">
        <ele>168.37</ele>
        <time>2020-08-07T12:13:40Z</time>
      </trkpt>
      <trkpt lat="48.36796" lon="-3.7469">
        <ele>168.37</ele>
        <time>2020-08-07T12:13:49Z</time>
      </trkpt>
      <trkpt lat="48.36797" lon="-3.74677">
        <ele>168.37</ele>
        <time>2020-08-07T12:13:57Z</time>
      </trkpt>
      <trkpt lat="48.36797" lon="-3.74655">
        <ele>167.89</ele>
        <time>2020-08-07T12:14:06Z</time>
      </trkpt>
      <trkpt lat="48.36798" lon="-3.74637">
        <ele>168.37</ele>
        <time>2020-08-07T12:14:20Z</time>
      </trkpt>
      <trkpt lat="48.36795" lon="-3.7463">
        <ele>167.89</ele>
        <time>2020-08-07T12:14:25Z</time>
      </trkpt>
      <trkpt lat="48.36789" lon="-3.74619">
        <ele>168.37</ele>
        <time>2020-08-07T12:14:33Z</time>
      </trkpt>
      <trkpt lat="48.36785" lon="-3.74604">
        <ele>167.89</ele>
        <time>2020-08-07T12:14:47Z</time>
      </trkpt>
      <trkpt lat="48.36781" lon="-3.74592">
        <ele>167.41</ele>
        <time>2020-08-07T12:15:00Z</time>
      </trkpt>
      <trkpt lat="48.36774" lon="-3.7458">
        <ele>166.45</ele>
        <time>2020-08-07T12:15:14Z</time>
      </trkpt>
      <trkpt lat="48.3677" lon="-3.74569">
        <ele>165.96</ele>
        <time>2020-08-07T12:15:27Z</time>
      </trkpt>
      <trkpt lat="48.36771" lon="-3.74548">
        <ele>166.45</ele>
        <time>2020-08-07T12:15:39Z</time>
      </trkpt>
      <trkpt lat="48.3677" lon="-3.74539">
        <ele>166.45</ele>
        <time>2020-08-07T12:15:51Z</time>
      </trkpt>
      <trkpt lat="48.36766" lon="-3.74536">
        <ele>167.41</ele>
        <time>2020-08-07T12:16:03Z</time>
      </trkpt>
      <trkpt lat="48.36755" lon="-3.7453">
        <ele>169.33</ele>
        <time>2020-08-07T12:16:15Z</time>
      </trkpt>
      <trkpt lat="48.36751" lon="-3.74524">
        <ele>170.29</ele>
        <time>2020-08-07T12:16:29Z</time>
      </trkpt>
      <trkpt lat="48.36749" lon="-3.74522">
        <ele>170.29</ele>
        <time>2020-08-07T12:16:43Z</time>
      </trkpt>
      <trkpt lat="48.36748" lon="-3.74522">
        <ele>170.77</ele>
        <time>2020-08-07T12:17:07Z</time>
      </trkpt>
      <trkpt lat="48.36742" lon="-3.74519">
        <ele>171.73</ele>
        <time>2020-08-07T12:17:31Z</time>
      </trkpt>
      <trkpt lat="48.36736" lon="-3.74508">
        <ele>171.25</ele>
        <time>2020-08-07T12:17:44Z</time>
      </trkpt>
      <trkpt lat="48.36734" lon="-3.74504">
        <ele>171.25</ele>
        <time>2020-08-07T12:17:57Z</time>
      </trkpt>
      <trkpt lat="48.36732" lon="-3.74503">
        <ele>171.25</ele>
        <time>2020-08-07T12:18:11Z</time>
      </trkpt>
      <trkpt lat="48.36731" lon="-3.74502">
        <ele>172.69</ele>
        <time>2020-08-07T12:18:31Z</time>
      </trkpt>
      <trkpt lat="48.36726" lon="-3.74503">
        <ele>174.62</ele>
        <time>2020-08-07T12:18:43Z</time>
      </trkpt>
      <trkpt lat="48.36723" lon="-3.74507">
        <ele>175.58</ele>
        <time>2020-08-07T12:18:54Z</time>
      </trkpt>
      <trkpt lat="48.3672" lon="-3.7452">
        <ele>178.46</ele>
        <time>2020-08-07T12:19:08Z</time>
      </trkpt>
      <trkpt lat="48.3672" lon="-3.74527">
        <ele>179.42</ele>
        <time>2020-08-07T12:19:21Z</time>
      </trkpt>
      <trkpt lat="48.36721" lon="-3.74529">
        <ele>179.42</ele>
        <time>2020-08-07T12:19:47Z</time>
      </trkpt>
      <trkpt lat="48.36721" lon="-3.74528">
        <ele>179.9</ele>
        <time>2020-08-07T12:19:57Z</time>
      </trkpt>
      <trkpt lat="48.3672" lon="-3.74529">
        <ele>179.42</ele>
        <time>2020-08-07T12:20:15Z</time>
      </trkpt>
      <trkpt lat="48.3672" lon="-3.7453">
        <ele>180.38</ele>
        <time>2020-08-07T12:20:27Z</time>
      </trkpt>
      <trkpt lat="48.36724" lon="-3.74535">
        <ele>179.9</ele>
        <time>2020-08-07T12:20:38Z</time>
      </trkpt>
      <trkpt lat="48.36726" lon="-3.74539">
        <ele>179.9</ele>
        <time>2020-08-07T12:20:52Z</time>
      </trkpt>
      <trkpt lat="48.36727" lon="-3.7454">
        <ele>179.9</ele>
        <time>2020-08-07T12:21:23Z</time>
      </trkpt>
      <trkpt lat="48.36726" lon="-3.74541">
        <ele>180.38</ele>
        <time>2020-08-07T12:21:44Z</time>
      </trkpt>
      <trkpt lat="48.36721" lon="-3.74532">
        <ele>179.42</ele>
        <time>2020-08-07T12:21:57Z</time>
      </trkpt>
      <trkpt lat="48.36716" lon="-3.74521">
        <ele>177.5</ele>
        <time>2020-08-07T12:22:09Z</time>
      </trkpt>
      <trkpt lat="48.36717" lon="-3.7451">
        <ele>175.1</ele>
        <time>2020-08-07T12:22:21Z</time>
      </trkpt>
      <trkpt lat="48.36718" lon="-3.74508">
        <ele>174.14</ele>
        <time>2020-08-07T12:22:24Z</time>
      </trkpt>
      <trkpt lat="48.36725" lon="-3.74506">
        <ele>171.73</ele>
        <time>2020-08-07T12:22:37Z</time>
      </trkpt>
      <trkpt lat="48.36733" lon="-3.74514">
        <ele>172.21</ele>
        <time>2020-08-07T12:22:50Z</time>
      </trkpt>
      <trkpt lat="48.36734" lon="-3.74518">
        <ele>173.17</ele>
        <time>2020-08-07T12:22:55Z</time>
      </trkpt>
      <trkpt lat="48.36732" lon="-3.74522">
        <ele>174.62</ele>
        <time>2020-08-07T12:23:07Z</time>
      </trkpt>
      <trkpt lat="48.36732" lon="-3.74523">
        <ele>174.14</ele>
        <time>2020-08-07T12:23:24Z</time>
      </trkpt>
      <trkpt lat="48.36733" lon="-3.74527">
        <ele>174.62</ele>
        <time>2020-08-07T12:23:52Z</time>
      </trkpt>
      <trkpt lat="48.36731" lon="-3.74528">
        <ele>174.14</ele>
        <time>2020-08-07T12:24:27Z</time>
      </trkpt>
      <trkpt lat="48.36729" lon="-3.74528">
        <ele>174.14</ele>
        <time>2020-08-07T12:24:53Z</time>
      </trkpt>
      <trkpt lat="48.36732" lon="-3.74527">
        <ele>174.62</ele>
        <time>2020-08-07T12:25:23Z</time>
      </trkpt>
      <trkpt lat="48.36731" lon="-3.74526">
        <ele>174.62</ele>
        <time>2020-08-07T12:25:51Z</time>
      </trkpt>
      <trkpt lat="48.3673" lon="-3.74523">
        <ele>174.14</ele>
        <time>2020-08-07T12:26:04Z</time>
      </trkpt>
      <trkpt lat="48.36732" lon="-3.74515">
        <ele>172.21</ele>
        <time>2020-08-07T12:26:15Z</time>
      </trkpt>
      <trkpt lat="48.36733" lon="-3.74513">
        <ele>172.21</ele>
        <time>2020-08-07T12:26:26Z</time>
      </trkpt>
      <trkpt lat="48.36739" lon="-3.74515">
        <ele>171.25</ele>
        <time>2020-08-07T12:26:37Z</time>
      </trkpt>
      <trkpt lat="48.36745" lon="-3.74516">
        <ele>168.85</ele>
        <time>2020-08-07T12:26:48Z</time>
      </trkpt>
      <trkpt lat="48.36749" lon="-3.74516">
        <ele>166.93</ele>
        <time>2020-08-07T12:27:00Z</time>
      </trkpt>
      <trkpt lat="48.36752" lon="-3.7451">
        <ele>165.48</ele>
        <time>2020-08-07T12:27:14Z</time>
      </trkpt>
      <trkpt lat="48.36753" lon="-3.74504">
        <ele>165</ele>
        <time>2020-08-07T12:27:26Z</time>
      </trkpt>
      <trkpt lat="48.3675" lon="-3.74495">
        <ele>164.04</ele>
        <time>2020-08-07T12:27:40Z</time>
      </trkpt>
      <trkpt lat="48.36749" lon="-3.74489">
        <ele>164.04</ele>
        <time>2020-08-07T12:27:46Z</time>
      </trkpt>
      <trkpt lat="48.36743" lon="-3.74477">
        <ele>163.08</ele>
        <time>2020-08-07T12:27:57Z</time>
      </trkpt>
      <trkpt lat="48.36739" lon="-3.74469">
        <ele>162.6</ele>
        <time>2020-08-07T12:28:07Z</time>
      </trkpt>
      <trkpt lat="48.36736" lon="-3.74464">
        <ele>162.12</ele>
        <time>2020-08-07T12:28:12Z</time>
      </trkpt>
      <trkpt lat="48.36735" lon="-3.7446">
        <ele>162.12</ele>
        <time>2020-08-07T12:28:15Z</time>
      </trkpt>
      <trkpt lat="48.36733" lon="-3.74454">
        <ele>161.64</ele>
        <time>2020-08-07T12:28:19Z</time>
      </trkpt>
      <trkpt lat="48.36726" lon="-3.74445">
        <ele>161.64</ele>
        <time>2020-08-07T12:28:31Z</time>
      </trkpt>
      <trkpt lat="48.36725" lon="-3.74445">
        <ele>161.64</ele>
        <time>2020-08-07T12:28:32Z</time>
      </trkpt>
      <trkpt lat="48.36723" lon="-3.74439">
        <ele>161.64</ele>
        <time>2020-08-07T12:28:36Z</time>
      </trkpt>
      <trkpt lat="48.36724" lon="-3.74433">
        <ele>161.16</ele>
        <time>2020-08-07T12:28:47Z</time>
      </trkpt>
      <trkpt lat="48.3672" lon="-3.74432">
        <ele>160.68</ele>
        <time>2020-08-07T12:28:52Z</time>
      </trkpt>
      <trkpt lat="48.36711" lon="-3.74425">
        <ele>161.16</ele>
        <time>2020-08-07T12:29:06Z</time>
      </trkpt>
      <trkpt lat="48.36706" lon="-3.74424">
        <ele>160.68</ele>
        <time>2020-08-07T12:29:16Z</time>
      </trkpt>
      <trkpt lat="48.36701" lon="-3.74433">
        <ele>161.64</ele>
        <time>2020-08-07T12:29:28Z</time>
      </trkpt>
      <trkpt lat="48.36699" lon="-3.74438">
        <ele>161.64</ele>
        <time>2020-08-07T12:29:41Z</time>
      </trkpt>
      <trkpt lat="48.36691" lon="-3.7444">
        <ele>160.2</ele>
        <time>2020-08-07T12:29:54Z</time>
      </trkpt>
      <trkpt lat="48.3669" lon="-3.74438">
        <ele>160.68</ele>
        <time>2020-08-07T12:30:06Z</time>
      </trkpt>
      <trkpt lat="48.36688" lon="-3.74437">
        <ele>160.68</ele>
        <time>2020-08-07T12:30:19Z</time>
      </trkpt>
      <trkpt lat="48.36686" lon="-3.74437">
        <ele>159.72</ele>
        <time>2020-08-07T12:30:40Z</time>
      </trkpt>
      <trkpt lat="48.36684" lon="-3.74438">
        <ele>157.79</ele>
        <time>2020-08-07T12:30:57Z</time>
      </trkpt>
      <trkpt lat="48.36676" lon="-3.7443">
        <ele>156.83</ele>
        <time>2020-08-07T12:31:12Z</time>
      </trkpt>
      <trkpt lat="48.36676" lon="-3.74427">
        <ele>156.83</ele>
        <time>2020-08-07T12:31:15Z</time>
      </trkpt>
      <trkpt lat="48.36674" lon="-3.74424">
        <ele>156.83</ele>
        <time>2020-08-07T12:31:18Z</time>
      </trkpt>
      <trkpt lat="48.3667" lon="-3.74421">
        <ele>156.35</ele>
        <time>2020-08-07T12:31:23Z</time>
      </trkpt>
      <trkpt lat="48.36667" lon="-3.74422">
        <ele>156.35</ele>
        <time>2020-08-07T12:31:36Z</time>
      </trkpt>
      <trkpt lat="48.36666" lon="-3.74419">
        <ele>157.31</ele>
        <time>2020-08-07T12:31:50Z</time>
      </trkpt>
      <trkpt lat="48.36666" lon="-3.74416">
        <ele>157.79</ele>
        <time>2020-08-07T12:32:05Z</time>
      </trkpt>
      <trkpt lat="48.36665" lon="-3.74414">
        <ele>158.27</ele>
        <time>2020-08-07T12:32:17Z</time>
      </trkpt>
      <trkpt lat="48.36664" lon="-3.74414">
        <ele>159.24</ele>
        <time>2020-08-07T12:32:29Z</time>
      </trkpt>
      <trkpt lat="48.36663" lon="-3.74413">
        <ele>160.2</ele>
        <time>2020-08-07T12:32:40Z</time>
      </trkpt>
      <trkpt lat="48.36662" lon="-3.7441">
        <ele>161.16</ele>
        <time>2020-08-07T12:33:03Z</time>
      </trkpt>
      <trkpt lat="48.36662" lon="-3.74409">
        <ele>160.68</ele>
        <time>2020-08-07T12:33:28Z</time>
      </trkpt>
      <trkpt lat="48.36662" lon="-3.74409">
        <ele>160.68</ele>
        <time>2020-08-07T12:33:44Z</time>
      </trkpt>
      <trkpt lat="48.36662" lon="-3.74408">
        <ele>160.68</ele>
        <time>2020-08-07T12:34:11Z</time>
      </trkpt>
      <trkpt lat="48.36662" lon="-3.74407">
        <ele>161.16</ele>
        <time>2020-08-07T12:34:38Z</time>
      </trkpt>
      <trkpt lat="48.36661" lon="-3.74406">
        <ele>161.16</ele>
        <time>2020-08-07T12:34:59Z</time>
      </trkpt>
      <trkpt lat="48.3666" lon="-3.74406">
        <ele>161.16</ele>
        <time>2020-08-07T12:35:25Z</time>
      </trkpt>
      <trkpt lat="48.36661" lon="-3.74406">
        <ele>161.64</ele>
        <time>2020-08-07T12:35:52Z</time>
      </trkpt>
      <trkpt lat="48.3666" lon="-3.74405">
        <ele>161.16</ele>
        <time>2020-08-07T12:36:17Z</time>
      </trkpt>
      <trkpt lat="48.3666" lon="-3.74405">
        <ele>161.16</ele>
        <time>2020-08-07T12:36:40Z</time>
      </trkpt>
      <trkpt lat="48.3666" lon="-3.74404">
        <ele>161.16</ele>
        <time>2020-08-07T12:37:02Z</time>
      </trkpt>
      <trkpt lat="48.3666" lon="-3.74404">
        <ele>161.16</ele>
        <time>2020-08-07T12:37:21Z</time>
      </trkpt>
      <trkpt lat="48.3666" lon="-3.74404">
        <ele>160.68</ele>
        <time>2020-08-07T12:37:36Z</time>
      </trkpt>
      <trkpt lat="48.36658" lon="-3.74402">
        <ele>162.12</ele>
        <time>2020-08-07T12:37:45Z</time>
      </trkpt>
      <trkpt lat="48.36659" lon="-3.74401">
        <ele>161.64</ele>
        <time>2020-08-07T12:37:49Z</time>
      </trkpt>
      <trkpt lat="48.36662" lon="-3.74399">
        <ele>163.08</ele>
        <time>2020-08-07T12:38:01Z</time>
      </trkpt>
      <trkpt lat="48.36663" lon="-3.74399">
        <ele>163.08</ele>
        <time>2020-08-07T12:38:15Z</time>
      </trkpt>
      <trkpt lat="48.36662" lon="-3.74401">
        <ele>162.6</ele>
        <time>2020-08-07T12:38:18Z</time>
      </trkpt>
      <trkpt lat="48.3666" lon="-3.74402">
        <ele>162.6</ele>
        <time>2020-08-07T12:38:31Z</time>
      </trkpt>
      <trkpt lat="48.3666" lon="-3.74401">
        <ele>162.6</ele>
        <time>2020-08-07T12:38:52Z</time>
      </trkpt>
      <trkpt lat="48.36661" lon="-3.74399">
        <ele>162.6</ele>
        <time>2020-08-07T12:39:22Z</time>
      </trkpt>
      <trkpt lat="48.3666" lon="-3.74399">
        <ele>162.12</ele>
        <time>2020-08-07T12:39:30Z</time>
      </trkpt>
      <trkpt lat="48.36659" lon="-3.74398">
        <ele>161.64</ele>
        <time>2020-08-07T12:39:46Z</time>
      </trkpt>
      <trkpt lat="48.3666" lon="-3.74398">
        <ele>162.6</ele>
        <time>2020-08-07T12:39:57Z</time>
      </trkpt>
      <trkpt lat="48.3666" lon="-3.74396">
        <ele>162.12</ele>
        <time>2020-08-07T12:40:21Z</time>
      </trkpt>
      <trkpt lat="48.3666" lon="-3.74394">
        <ele>162.6</ele>
        <time>2020-08-07T12:40:37Z</time>
      </trkpt>
      <trkpt lat="48.36664" lon="-3.74392">
        <ele>163.56</ele>
        <time>2020-08-07T12:40:49Z</time>
      </trkpt>
      <trkpt lat="48.36665" lon="-3.74392">
        <ele>163.08</ele>
        <time>2020-08-07T12:41:10Z</time>
      </trkpt>
      <trkpt lat="48.36664" lon="-3.74391">
        <ele>163.56</ele>
        <time>2020-08-07T12:41:25Z</time>
      </trkpt>
      <trkpt lat="48.36664" lon="-3.7439">
        <ele>163.08</ele>
        <time>2020-08-07T12:41:31Z</time>
      </trkpt>
      <trkpt lat="48.36666" lon="-3.74382">
        <ele>163.08</ele>
        <time>2020-08-07T12:41:42Z</time>
      </trkpt>
      <trkpt lat="48.36666" lon="-3.74377">
        <ele>163.08</ele>
        <time>2020-08-07T12:42:03Z</time>
      </trkpt>
      <trkpt lat="48.36665" lon="-3.74377">
        <ele>162.6</ele>
        <time>2020-08-07T12:42:15Z</time>
      </trkpt>
      <trkpt lat="48.36665" lon="-3.74377">
        <ele>161.64</ele>
        <time>2020-08-07T12:42:31Z</time>
      </trkpt>
      <trkpt lat="48.36661" lon="-3.74375">
        <ele>160.2</ele>
        <time>2020-08-07T12:42:43Z</time>
      </trkpt>
      <trkpt lat="48.36658" lon="-3.74372">
        <ele>160.2</ele>
        <time>2020-08-07T12:42:48Z</time>
      </trkpt>
      <trkpt lat="48.3665" lon="-3.74362">
        <ele>159.24</ele>
        <time>2020-08-07T12:43:02Z</time>
      </trkpt>
      <trkpt lat="48.36644" lon="-3.74361">
        <ele>158.27</ele>
        <time>2020-08-07T12:43:13Z</time>
      </trkpt>
      <trkpt lat="48.36641" lon="-3.74355">
        <ele>158.27</ele>
        <time>2020-08-07T12:43:25Z</time>
      </trkpt>
      <trkpt lat="48.36635" lon="-3.74348">
        <ele>157.79</ele>
        <time>2020-08-07T12:43:35Z</time>
      </trkpt>
      <trkpt lat="48.36622" lon="-3.74336">
        <ele>156.35</ele>
        <time>2020-08-07T12:43:49Z</time>
      </trkpt>
      <trkpt lat="48.36611" lon="-3.74332">
        <ele>154.43</ele>
        <time>2020-08-07T12:44:00Z</time>
      </trkpt>
      <trkpt lat="48.36606" lon="-3.74329">
        <ele>153.95</ele>
        <time>2020-08-07T12:44:10Z</time>
      </trkpt>
      <trkpt lat="48.36603" lon="-3.74319">
        <ele>153.47</ele>
        <time>2020-08-07T12:44:20Z</time>
      </trkpt>
      <trkpt lat="48.366" lon="-3.74314">
        <ele>152.99</ele>
        <time>2020-08-07T12:44:33Z</time>
      </trkpt>
      <trkpt lat="48.36591" lon="-3.74301">
        <ele>152.03</ele>
        <time>2020-08-07T12:44:45Z</time>
      </trkpt>
      <trkpt lat="48.36588" lon="-3.74298">
        <ele>152.03</ele>
        <time>2020-08-07T12:44:49Z</time>
      </trkpt>
      <trkpt lat="48.36578" lon="-3.74292">
        <ele>152.03</ele>
        <time>2020-08-07T12:44:59Z</time>
      </trkpt>
      <trkpt lat="48.36575" lon="-3.74288">
        <ele>151.54</ele>
        <time>2020-08-07T12:45:15Z</time>
      </trkpt>
      <trkpt lat="48.36575" lon="-3.74286">
        <ele>152.03</ele>
        <time>2020-08-07T12:45:16Z</time>
      </trkpt>
      <trkpt lat="48.36576" lon="-3.74277">
        <ele>152.51</ele>
        <time>2020-08-07T12:45:29Z</time>
      </trkpt>
      <trkpt lat="48.36576" lon="-3.74263">
        <ele>152.99</ele>
        <time>2020-08-07T12:45:41Z</time>
      </trkpt>
      <trkpt lat="48.36575" lon="-3.7425">
        <ele>153.95</ele>
        <time>2020-08-07T12:45:54Z</time>
      </trkpt>
      <trkpt lat="48.36576" lon="-3.74246">
        <ele>153.95</ele>
        <time>2020-08-07T12:46:06Z</time>
      </trkpt>
      <trkpt lat="48.36575" lon="-3.74236">
        <ele>154.91</ele>
        <time>2020-08-07T12:46:16Z</time>
      </trkpt>
      <trkpt lat="48.36574" lon="-3.74228">
        <ele>155.39</ele>
        <time>2020-08-07T12:46:32Z</time>
      </trkpt>
      <trkpt lat="48.36573" lon="-3.74219">
        <ele>156.35</ele>
        <time>2020-08-07T12:46:44Z</time>
      </trkpt>
      <trkpt lat="48.36574" lon="-3.74208">
        <ele>156.83</ele>
        <time>2020-08-07T12:46:58Z</time>
      </trkpt>
      <trkpt lat="48.36575" lon="-3.74198">
        <ele>157.79</ele>
        <time>2020-08-07T12:47:10Z</time>
      </trkpt>
      <trkpt lat="48.36575" lon="-3.74182">
        <ele>157.79</ele>
        <time>2020-08-07T12:47:21Z</time>
      </trkpt>
      <trkpt lat="48.36575" lon="-3.74166">
        <ele>158.75</ele>
        <time>2020-08-07T12:47:36Z</time>
      </trkpt>
      <trkpt lat="48.36577" lon="-3.74153">
        <ele>158.75</ele>
        <time>2020-08-07T12:47:50Z</time>
      </trkpt>
      <trkpt lat="48.36577" lon="-3.7414">
        <ele>159.24</ele>
        <time>2020-08-07T12:48:00Z</time>
      </trkpt>
      <trkpt lat="48.36577" lon="-3.74128">
        <ele>159.72</ele>
        <time>2020-08-07T12:48:13Z</time>
      </trkpt>
      <trkpt lat="48.36576" lon="-3.74108">
        <ele>160.2</ele>
        <time>2020-08-07T12:48:27Z</time>
      </trkpt>
      <trkpt lat="48.36581" lon="-3.741">
        <ele>160.2</ele>
        <time>2020-08-07T12:48:37Z</time>
      </trkpt>
      <trkpt lat="48.36578" lon="-3.74097">
        <ele>161.64</ele>
        <time>2020-08-07T12:48:52Z</time>
      </trkpt>
      <trkpt lat="48.36578" lon="-3.74085">
        <ele>161.64</ele>
        <time>2020-08-07T12:48:59Z</time>
      </trkpt>
      <trkpt lat="48.36579" lon="-3.7407">
        <ele>162.12</ele>
        <time>2020-08-07T12:49:11Z</time>
      </trkpt>
      <trkpt lat="48.36579" lon="-3.74069">
        <ele>161.64</ele>
        <time>2020-08-07T12:49:12Z</time>
      </trkpt>
      <trkpt lat="48.36581" lon="-3.74047">
        <ele>162.12</ele>
        <time>2020-08-07T12:49:24Z</time>
      </trkpt>
      <trkpt lat="48.36581" lon="-3.74032">
        <ele>161.64</ele>
        <time>2020-08-07T12:49:34Z</time>
      </trkpt>
      <trkpt lat="48.36583" lon="-3.74019">
        <ele>161.64</ele>
        <time>2020-08-07T12:49:44Z</time>
      </trkpt>
      <trkpt lat="48.3658" lon="-3.74007">
        <ele>160.68</ele>
        <time>2020-08-07T12:49:56Z</time>
      </trkpt>
      <trkpt lat="48.36581" lon="-3.73997">
        <ele>160.68</ele>
        <time>2020-08-07T12:50:06Z</time>
      </trkpt>
      <trkpt lat="48.3658" lon="-3.73987">
        <ele>159.72</ele>
        <time>2020-08-07T12:50:16Z</time>
      </trkpt>
      <trkpt lat="48.3658" lon="-3.73971">
        <ele>159.24</ele>
        <time>2020-08-07T12:50:30Z</time>
      </trkpt>
      <trkpt lat="48.36581" lon="-3.7397">
        <ele>159.72</ele>
        <time>2020-08-07T12:50:31Z</time>
      </trkpt>
      <trkpt lat="48.36578" lon="-3.73957">
        <ele>158.75</ele>
        <time>2020-08-07T12:50:44Z</time>
      </trkpt>
      <trkpt lat="48.36579" lon="-3.73941">
        <ele>157.31</ele>
        <time>2020-08-07T12:50:54Z</time>
      </trkpt>
      <trkpt lat="48.3658" lon="-3.73934">
        <ele>157.31</ele>
        <time>2020-08-07T12:51:01Z</time>
      </trkpt>
      <trkpt lat="48.36583" lon="-3.73911">
        <ele>156.83</ele>
        <time>2020-08-07T12:51:14Z</time>
      </trkpt>
      <trkpt lat="48.36593" lon="-3.73878">
        <ele>156.35</ele>
        <time>2020-08-07T12:51:26Z</time>
      </trkpt>
      <trkpt lat="48.36596" lon="-3.7386">
        <ele>156.35</ele>
        <time>2020-08-07T12:51:39Z</time>
      </trkpt>
      <trkpt lat="48.36595" lon="-3.7385">
        <ele>155.39</ele>
        <time>2020-08-07T12:51:51Z</time>
      </trkpt>
      <trkpt lat="48.36593" lon="-3.73842">
        <ele>154.91</ele>
        <time>2020-08-07T12:51:59Z</time>
      </trkpt>
      <trkpt lat="48.36592" lon="-3.73831">
        <ele>155.39</ele>
        <time>2020-08-07T12:52:10Z</time>
      </trkpt>
      <trkpt lat="48.3659" lon="-3.73809">
        <ele>154.43</ele>
        <time>2020-08-07T12:52:24Z</time>
      </trkpt>
      <trkpt lat="48.36587" lon="-3.73799">
        <ele>153.95</ele>
        <time>2020-08-07T12:52:31Z</time>
      </trkpt>
      <trkpt lat="48.36587" lon="-3.73795">
        <ele>153.95</ele>
        <time>2020-08-07T12:52:34Z</time>
      </trkpt>
      <trkpt lat="48.36583" lon="-3.73776">
        <ele>152.99</ele>
        <time>2020-08-07T12:52:48Z</time>
      </trkpt>
      <trkpt lat="48.36583" lon="-3.73766">
        <ele>152.99</ele>
        <time>2020-08-07T12:52:57Z</time>
      </trkpt>
      <trkpt lat="48.36582" lon="-3.73761">
        <ele>152.99</ele>
        <time>2020-08-07T12:53:00Z</time>
      </trkpt>
      <trkpt lat="48.36585" lon="-3.73746">
        <ele>152.51</ele>
        <time>2020-08-07T12:53:14Z</time>
      </trkpt>
      <trkpt lat="48.36586" lon="-3.73742">
        <ele>152.51</ele>
        <time>2020-08-07T12:53:47Z</time>
      </trkpt>
      <trkpt lat="48.36585" lon="-3.73739">
        <ele>152.51</ele>
        <time>2020-08-07T12:54:15Z</time>
      </trkpt>
      <trkpt lat="48.36585" lon="-3.73742">
        <ele>152.51</ele>
        <time>2020-08-07T12:54:49Z</time>
      </trkpt>
      <trkpt lat="48.36587" lon="-3.7374">
        <ele>152.03</ele>
        <time>2020-08-07T12:55:17Z</time>
      </trkpt>
      <trkpt lat="48.36588" lon="-3.7374">
        <ele>152.03</ele>
        <time>2020-08-07T12:55:44Z</time>
      </trkpt>
      <trkpt lat="48.36588" lon="-3.73738">
        <ele>151.06</ele>
        <time>2020-08-07T12:56:18Z</time>
      </trkpt>
      <trkpt lat="48.36588" lon="-3.73738">
        <ele>154.43</ele>
        <time>2020-08-07T12:56:23Z</time>
      </trkpt>
      <trkpt lat="48.36589" lon="-3.73738">
        <ele>148.66</ele>
        <time>2020-08-07T12:56:30Z</time>
      </trkpt>
      <trkpt lat="48.36589" lon="-3.73738">
        <ele>153.95</ele>
        <time>2020-08-07T12:56:31Z</time>
      </trkpt>
      <trkpt lat="48.36589" lon="-3.7374">
        <ele>152.03</ele>
        <time>2020-08-07T12:56:56Z</time>
      </trkpt>
      <trkpt lat="48.36588" lon="-3.73741">
        <ele>151.54</ele>
        <time>2020-08-07T12:57:19Z</time>
      </trkpt>
      <trkpt lat="48.36588" lon="-3.73742">
        <ele>152.03</ele>
        <time>2020-08-07T12:57:37Z</time>
      </trkpt>
      <trkpt lat="48.36589" lon="-3.73743">
        <ele>151.54</ele>
        <time>2020-08-07T12:58:00Z</time>
      </trkpt>
      <trkpt lat="48.36589" lon="-3.73744">
        <ele>152.03</ele>
        <time>2020-08-07T12:58:14Z</time>
      </trkpt>
      <trkpt lat="48.36593" lon="-3.73741">
        <ele>152.03</ele>
        <time>2020-08-07T12:58:26Z</time>
      </trkpt>
      <trkpt lat="48.36595" lon="-3.73734">
        <ele>151.54</ele>
        <time>2020-08-07T12:58:37Z</time>
      </trkpt>
      <trkpt lat="48.36596" lon="-3.73731">
        <ele>151.54</ele>
        <time>2020-08-07T12:58:43Z</time>
      </trkpt>
      <trkpt lat="48.36597" lon="-3.7372">
        <ele>151.54</ele>
        <time>2020-08-07T12:58:55Z</time>
      </trkpt>
      <trkpt lat="48.36604" lon="-3.73698">
        <ele>151.54</ele>
        <time>2020-08-07T12:59:08Z</time>
      </trkpt>
      <trkpt lat="48.36605" lon="-3.73682">
        <ele>152.03</ele>
        <time>2020-08-07T12:59:19Z</time>
      </trkpt>
      <trkpt lat="48.36608" lon="-3.73665">
        <ele>152.03</ele>
        <time>2020-08-07T12:59:30Z</time>
      </trkpt>
      <trkpt lat="48.36606" lon="-3.73644">
        <ele>152.99</ele>
        <time>2020-08-07T12:59:44Z</time>
      </trkpt>
      <trkpt lat="48.36607" lon="-3.7363">
        <ele>154.43</ele>
        <time>2020-08-07T12:59:58Z</time>
      </trkpt>
      <trkpt lat="48.36607" lon="-3.73627">
        <ele>154.43</ele>
        <time>2020-08-07T13:00:12Z</time>
      </trkpt>
      <trkpt lat="48.36606" lon="-3.73629">
        <ele>154.43</ele>
        <time>2020-08-07T13:00:23Z</time>
      </trkpt>
      <trkpt lat="48.36605" lon="-3.73628">
        <ele>153.95</ele>
        <time>2020-08-07T13:00:28Z</time>
      </trkpt>
      <trkpt lat="48.36602" lon="-3.73635">
        <ele>153.47</ele>
        <time>2020-08-07T13:00:40Z</time>
      </trkpt>
      <trkpt lat="48.36606" lon="-3.7364">
        <ele>152.51</ele>
        <time>2020-08-07T13:00:53Z</time>
      </trkpt>
      <trkpt lat="48.36606" lon="-3.73647">
        <ele>152.51</ele>
        <time>2020-08-07T13:00:59Z</time>
      </trkpt>
      <trkpt lat="48.36608" lon="-3.73661">
        <ele>152.51</ele>
        <time>2020-08-07T13:01:13Z</time>
      </trkpt>
      <trkpt lat="48.36607" lon="-3.73668">
        <ele>152.51</ele>
        <time>2020-08-07T13:01:25Z</time>
      </trkpt>
      <trkpt lat="48.36602" lon="-3.73676">
        <ele>152.51</ele>
        <time>2020-08-07T13:01:40Z</time>
      </trkpt>
      <trkpt lat="48.36599" lon="-3.73682">
        <ele>152.99</ele>
        <time>2020-08-07T13:01:44Z</time>
      </trkpt>
      <trkpt lat="48.36597" lon="-3.73699">
        <ele>152.51</ele>
        <time>2020-08-07T13:01:55Z</time>
      </trkpt>
      <trkpt lat="48.36595" lon="-3.7371">
        <ele>152.99</ele>
        <time>2020-08-07T13:02:07Z</time>
      </trkpt>
      <trkpt lat="48.3659" lon="-3.73717">
        <ele>153.47</ele>
        <time>2020-08-07T13:02:18Z</time>
      </trkpt>
      <trkpt lat="48.36593" lon="-3.73738">
        <ele>152.99</ele>
        <time>2020-08-07T13:02:32Z</time>
      </trkpt>
      <trkpt lat="48.36589" lon="-3.73739">
        <ele>152.51</ele>
        <time>2020-08-07T13:02:38Z</time>
      </trkpt>
      <trkpt lat="48.36583" lon="-3.73747">
        <ele>152.99</ele>
        <time>2020-08-07T13:02:49Z</time>
      </trkpt>
      <trkpt lat="48.36582" lon="-3.73748">
        <ele>153.47</ele>
        <time>2020-08-07T13:02:54Z</time>
      </trkpt>
      <trkpt lat="48.36579" lon="-3.73746">
        <ele>152.99</ele>
        <time>2020-08-07T13:03:04Z</time>
      </trkpt>
      <trkpt lat="48.36577" lon="-3.7374">
        <ele>152.99</ele>
        <time>2020-08-07T13:03:17Z</time>
      </trkpt>
      <trkpt lat="48.36571" lon="-3.73738">
        <ele>152.99</ele>
        <time>2020-08-07T13:03:36Z</time>
      </trkpt>
      <trkpt lat="48.36568" lon="-3.7374">
        <ele>152.99</ele>
        <time>2020-08-07T13:03:47Z</time>
      </trkpt>
      <trkpt lat="48.36567" lon="-3.73741">
        <ele>154.43</ele>
        <time>2020-08-07T13:04:01Z</time>
      </trkpt>
      <trkpt lat="48.36563" lon="-3.73747">
        <ele>156.35</ele>
        <time>2020-08-07T13:04:14Z</time>
      </trkpt>
      <trkpt lat="48.36563" lon="-3.73759">
        <ele>156.35</ele>
        <time>2020-08-07T13:04:26Z</time>
      </trkpt>
      <trkpt lat="48.36561" lon="-3.73777">
        <ele>156.35</ele>
        <time>2020-08-07T13:04:37Z</time>
      </trkpt>
      <trkpt lat="48.36554" lon="-3.73793">
        <ele>156.35</ele>
        <time>2020-08-07T13:04:48Z</time>
      </trkpt>
      <trkpt lat="48.36551" lon="-3.73811">
        <ele>156.83</ele>
        <time>2020-08-07T13:04:58Z</time>
      </trkpt>
      <trkpt lat="48.36549" lon="-3.73831">
        <ele>157.31</ele>
        <time>2020-08-07T13:05:08Z</time>
      </trkpt>
      <trkpt lat="48.36541" lon="-3.73849">
        <ele>157.79</ele>
        <time>2020-08-07T13:05:22Z</time>
      </trkpt>
      <trkpt lat="48.36542" lon="-3.73881">
        <ele>159.24</ele>
        <time>2020-08-07T13:05:36Z</time>
      </trkpt>
      <trkpt lat="48.36536" lon="-3.73897">
        <ele>159.72</ele>
        <time>2020-08-07T13:05:50Z</time>
      </trkpt>
      <trkpt lat="48.36526" lon="-3.73911">
        <ele>158.75</ele>
        <time>2020-08-07T13:06:06Z</time>
      </trkpt>
      <trkpt lat="48.3652" lon="-3.73935">
        <ele>158.75</ele>
        <time>2020-08-07T13:06:20Z</time>
      </trkpt>
      <trkpt lat="48.36521" lon="-3.73969">
        <ele>159.24</ele>
        <time>2020-08-07T13:06:37Z</time>
      </trkpt>
      <trkpt lat="48.36518" lon="-3.73981">
        <ele>159.24</ele>
        <time>2020-08-07T13:06:49Z</time>
      </trkpt>
      <trkpt lat="48.36517" lon="-3.73992">
        <ele>159.72</ele>
        <time>2020-08-07T13:06:59Z</time>
      </trkpt>
      <trkpt lat="48.36514" lon="-3.74002">
        <ele>159.72</ele>
        <time>2020-08-07T13:07:12Z</time>
      </trkpt>
      <trkpt lat="48.36515" lon="-3.74017">
        <ele>159.72</ele>
        <time>2020-08-07T13:07:25Z</time>
      </trkpt>
      <trkpt lat="48.36518" lon="-3.74033">
        <ele>160.68</ele>
        <time>2020-08-07T13:07:38Z</time>
      </trkpt>
      <trkpt lat="48.36515" lon="-3.74052">
        <ele>160.68</ele>
        <time>2020-08-07T13:07:49Z</time>
      </trkpt>
      <trkpt lat="48.36519" lon="-3.74075">
        <ele>160.68</ele>
        <time>2020-08-07T13:08:02Z</time>
      </trkpt>
      <trkpt lat="48.36518" lon="-3.74094">
        <ele>161.16</ele>
        <time>2020-08-07T13:08:14Z</time>
      </trkpt>
      <trkpt lat="48.36519" lon="-3.74102">
        <ele>161.64</ele>
        <time>2020-08-07T13:08:26Z</time>
      </trkpt>
      <trkpt lat="48.3652" lon="-3.74099">
        <ele>161.16</ele>
        <time>2020-08-07T13:08:41Z</time>
      </trkpt>
      <trkpt lat="48.36528" lon="-3.74113">
        <ele>161.64</ele>
        <time>2020-08-07T13:08:46Z</time>
      </trkpt>
      <trkpt lat="48.36527" lon="-3.74106">
        <ele>161.64</ele>
        <time>2020-08-07T13:08:59Z</time>
      </trkpt>
      <trkpt lat="48.36524" lon="-3.74102">
        <ele>161.64</ele>
        <time>2020-08-07T13:09:10Z</time>
      </trkpt>
      <trkpt lat="48.36524" lon="-3.74089">
        <ele>161.16</ele>
        <time>2020-08-07T13:09:23Z</time>
      </trkpt>
      <trkpt lat="48.36527" lon="-3.74084">
        <ele>160.68</ele>
        <time>2020-08-07T13:09:39Z</time>
      </trkpt>
      <trkpt lat="48.36528" lon="-3.74077">
        <ele>159.24</ele>
        <time>2020-08-07T13:09:53Z</time>
      </trkpt>
      <trkpt lat="48.36533" lon="-3.74076">
        <ele>159.24</ele>
        <time>2020-08-07T13:09:57Z</time>
      </trkpt>
      <trkpt lat="48.36548" lon="-3.74075">
        <ele>158.27</ele>
        <time>2020-08-07T13:10:11Z</time>
      </trkpt>
      <trkpt lat="48.36554" lon="-3.74076">
        <ele>157.31</ele>
        <time>2020-08-07T13:10:27Z</time>
      </trkpt>
      <trkpt lat="48.36558" lon="-3.74078">
        <ele>157.79</ele>
        <time>2020-08-07T13:10:40Z</time>
      </trkpt>
      <trkpt lat="48.36558" lon="-3.7408">
        <ele>157.79</ele>
        <time>2020-08-07T13:10:53Z</time>
      </trkpt>
      <trkpt lat="48.36558" lon="-3.74083">
        <ele>157.79</ele>
        <time>2020-08-07T13:11:07Z</time>
      </trkpt>
      <trkpt lat="48.36559" lon="-3.74082">
        <ele>157.31</ele>
        <time>2020-08-07T13:11:18Z</time>
      </trkpt>
      <trkpt lat="48.36559" lon="-3.74082">
        <ele>158.27</ele>
        <time>2020-08-07T13:11:28Z</time>
      </trkpt>
      <trkpt lat="48.36559" lon="-3.74082">
        <ele>157.79</ele>
        <time>2020-08-07T13:11:34Z</time>
      </trkpt>
      <trkpt lat="48.36558" lon="-3.74081">
        <ele>158.27</ele>
        <time>2020-08-07T13:11:46Z</time>
      </trkpt>
      <trkpt lat="48.36558" lon="-3.74082">
        <ele>157.79</ele>
        <time>2020-08-07T13:12:06Z</time>
      </trkpt>
      <trkpt lat="48.36559" lon="-3.74082">
        <ele>158.75</ele>
        <time>2020-08-07T13:12:28Z</time>
      </trkpt>
      <trkpt lat="48.3656" lon="-3.74083">
        <ele>158.27</ele>
        <time>2020-08-07T13:12:33Z</time>
      </trkpt>
      <trkpt lat="48.3656" lon="-3.74085">
        <ele>158.27</ele>
        <time>2020-08-07T13:12:45Z</time>
      </trkpt>
      <trkpt lat="48.36558" lon="-3.74097">
        <ele>158.75</ele>
        <time>2020-08-07T13:12:59Z</time>
      </trkpt>
      <trkpt lat="48.36558" lon="-3.74103">
        <ele>158.75</ele>
        <time>2020-08-07T13:13:10Z</time>
      </trkpt>
      <trkpt lat="48.36561" lon="-3.74112">
        <ele>158.75</ele>
        <time>2020-08-07T13:13:28Z</time>
      </trkpt>
      <trkpt lat="48.36562" lon="-3.74126">
        <ele>158.75</ele>
        <time>2020-08-07T13:13:42Z</time>
      </trkpt>
      <trkpt lat="48.36565" lon="-3.74129">
        <ele>160.68</ele>
        <time>2020-08-07T13:14:01Z</time>
      </trkpt>
      <trkpt lat="48.36566" lon="-3.7413">
        <ele>161.16</ele>
        <time>2020-08-07T13:14:04Z</time>
      </trkpt>
      <trkpt lat="48.3657" lon="-3.74134">
        <ele>164.04</ele>
        <time>2020-08-07T13:14:17Z</time>
      </trkpt>
      <trkpt lat="48.36571" lon="-3.74135">
        <ele>166.45</ele>
        <time>2020-08-07T13:14:29Z</time>
      </trkpt>
      <trkpt lat="48.36573" lon="-3.74145">
        <ele>167.41</ele>
        <time>2020-08-07T13:14:41Z</time>
      </trkpt>
      <trkpt lat="48.3657" lon="-3.7416">
        <ele>166.93</ele>
        <time>2020-08-07T13:14:52Z</time>
      </trkpt>
      <trkpt lat="48.36571" lon="-3.74171">
        <ele>166.45</ele>
        <time>2020-08-07T13:15:03Z</time>
      </trkpt>
      <trkpt lat="48.36572" lon="-3.74185">
        <ele>165</ele>
        <time>2020-08-07T13:15:14Z</time>
      </trkpt>
      <trkpt lat="48.36572" lon="-3.742">
        <ele>164.04</ele>
        <time>2020-08-07T13:15:24Z</time>
      </trkpt>
      <trkpt lat="48.36571" lon="-3.74216">
        <ele>163.56</ele>
        <time>2020-08-07T13:15:35Z</time>
      </trkpt>
      <trkpt lat="48.3657" lon="-3.74222">
        <ele>163.08</ele>
        <time>2020-08-07T13:15:38Z</time>
      </trkpt>
      <trkpt lat="48.36568" lon="-3.74244">
        <ele>162.12</ele>
        <time>2020-08-07T13:15:50Z</time>
      </trkpt>
      <trkpt lat="48.36568" lon="-3.74252">
        <ele>161.16</ele>
        <time>2020-08-07T13:15:57Z</time>
      </trkpt>
      <trkpt lat="48.36566" lon="-3.74271">
        <ele>161.16</ele>
        <time>2020-08-07T13:16:07Z</time>
      </trkpt>
      <trkpt lat="48.36567" lon="-3.7428">
        <ele>161.64</ele>
        <time>2020-08-07T13:16:13Z</time>
      </trkpt>
      <trkpt lat="48.36577" lon="-3.74294">
        <ele>162.12</ele>
        <time>2020-08-07T13:16:25Z</time>
      </trkpt>
      <trkpt lat="48.36583" lon="-3.74298">
        <ele>163.08</ele>
        <time>2020-08-07T13:16:33Z</time>
      </trkpt>
      <trkpt lat="48.3659" lon="-3.74313">
        <ele>164.52</ele>
        <time>2020-08-07T13:16:48Z</time>
      </trkpt>
      <trkpt lat="48.36597" lon="-3.74316">
        <ele>165.48</ele>
        <time>2020-08-07T13:16:58Z</time>
      </trkpt>
      <trkpt lat="48.36599" lon="-3.74317">
        <ele>165.96</ele>
        <time>2020-08-07T13:17:02Z</time>
      </trkpt>
      <trkpt lat="48.36605" lon="-3.74329">
        <ele>167.41</ele>
        <time>2020-08-07T13:17:14Z</time>
      </trkpt>
      <trkpt lat="48.36612" lon="-3.74334">
        <ele>167.89</ele>
        <time>2020-08-07T13:17:24Z</time>
      </trkpt>
      <trkpt lat="48.36619" lon="-3.74339">
        <ele>168.37</ele>
        <time>2020-08-07T13:17:33Z</time>
      </trkpt>
      <trkpt lat="48.36625" lon="-3.74341">
        <ele>168.85</ele>
        <time>2020-08-07T13:17:38Z</time>
      </trkpt>
      <trkpt lat="48.36636" lon="-3.74347">
        <ele>169.33</ele>
        <time>2020-08-07T13:17:51Z</time>
      </trkpt>
      <trkpt lat="48.3664" lon="-3.74352">
        <ele>169.81</ele>
        <time>2020-08-07T13:18:01Z</time>
      </trkpt>
      <trkpt lat="48.36646" lon="-3.74362">
        <ele>171.73</ele>
        <time>2020-08-07T13:18:13Z</time>
      </trkpt>
      <trkpt lat="48.36662" lon="-3.74383">
        <ele>173.66</ele>
        <time>2020-08-07T13:18:26Z</time>
      </trkpt>
      <trkpt lat="48.36666" lon="-3.74382">
        <ele>173.17</ele>
        <time>2020-08-07T13:18:40Z</time>
      </trkpt>
      <trkpt lat="48.36668" lon="-3.74384">
        <ele>172.69</ele>
        <time>2020-08-07T13:19:00Z</time>
      </trkpt>
      <trkpt lat="48.36671" lon="-3.7439">
        <ele>171.25</ele>
        <time>2020-08-07T13:19:08Z</time>
      </trkpt>
      <trkpt lat="48.36675" lon="-3.744">
        <ele>171.73</ele>
        <time>2020-08-07T13:19:21Z</time>
      </trkpt>
      <trkpt lat="48.36675" lon="-3.74413">
        <ele>172.69</ele>
        <time>2020-08-07T13:19:34Z</time>
      </trkpt>
      <trkpt lat="48.36677" lon="-3.74423">
        <ele>174.14</ele>
        <time>2020-08-07T13:19:44Z</time>
      </trkpt>
      <trkpt lat="48.36679" lon="-3.74424">
        <ele>175.1</ele>
        <time>2020-08-07T13:19:56Z</time>
      </trkpt>
      <trkpt lat="48.36674" lon="-3.74426">
        <ele>175.58</ele>
        <time>2020-08-07T13:20:09Z</time>
      </trkpt>
      <trkpt lat="48.36674" lon="-3.74426">
        <ele>175.58</ele>
        <time>2020-08-07T13:20:27Z</time>
      </trkpt>
      <trkpt lat="48.36674" lon="-3.74428">
        <ele>176.06</ele>
        <time>2020-08-07T13:20:47Z</time>
      </trkpt>
      <trkpt lat="48.36672" lon="-3.74432">
        <ele>176.54</ele>
        <time>2020-08-07T13:20:54Z</time>
      </trkpt>
      <trkpt lat="48.36671" lon="-3.74447">
        <ele>177.02</ele>
        <time>2020-08-07T13:21:06Z</time>
      </trkpt>
      <trkpt lat="48.36671" lon="-3.74452">
        <ele>176.54</ele>
        <time>2020-08-07T13:21:09Z</time>
      </trkpt>
      <trkpt lat="48.36672" lon="-3.74457">
        <ele>176.54</ele>
        <time>2020-08-07T13:21:12Z</time>
      </trkpt>
      <trkpt lat="48.36673" lon="-3.74469">
        <ele>177.02</ele>
        <time>2020-08-07T13:21:23Z</time>
      </trkpt>
      <trkpt lat="48.36672" lon="-3.74479">
        <ele>177.02</ele>
        <time>2020-08-07T13:21:40Z</time>
      </trkpt>
      <trkpt lat="48.36674" lon="-3.74494">
        <ele>177.5</ele>
        <time>2020-08-07T13:21:51Z</time>
      </trkpt>
      <trkpt lat="48.36674" lon="-3.7451">
        <ele>178.94</ele>
        <time>2020-08-07T13:22:03Z</time>
      </trkpt>
      <trkpt lat="48.36672" lon="-3.74515">
        <ele>179.42</ele>
        <time>2020-08-07T13:22:07Z</time>
      </trkpt>
      <trkpt lat="48.36669" lon="-3.74526">
        <ele>179.9</ele>
        <time>2020-08-07T13:22:19Z</time>
      </trkpt>
      <trkpt lat="48.36668" lon="-3.74533">
        <ele>180.87</ele>
        <time>2020-08-07T13:22:29Z</time>
      </trkpt>
      <trkpt lat="48.36666" lon="-3.7455">
        <ele>181.35</ele>
        <time>2020-08-07T13:22:45Z</time>
      </trkpt>
      <trkpt lat="48.36665" lon="-3.74566">
        <ele>182.79</ele>
        <time>2020-08-07T13:22:57Z</time>
      </trkpt>
      <trkpt lat="48.36668" lon="-3.74572">
        <ele>182.79</ele>
        <time>2020-08-07T13:23:10Z</time>
      </trkpt>
      <trkpt lat="48.36669" lon="-3.74581">
        <ele>183.75</ele>
        <time>2020-08-07T13:23:21Z</time>
      </trkpt>
      <trkpt lat="48.36667" lon="-3.74586">
        <ele>184.71</ele>
        <time>2020-08-07T13:23:33Z</time>
      </trkpt>
      <trkpt lat="48.36662" lon="-3.74588">
        <ele>185.19</ele>
        <time>2020-08-07T13:23:43Z</time>
      </trkpt>
      <trkpt lat="48.36652" lon="-3.7459">
        <ele>185.67</ele>
        <time>2020-08-07T13:23:55Z</time>
      </trkpt>
      <trkpt lat="48.36647" lon="-3.74592">
        <ele>184.71</ele>
        <time>2020-08-07T13:24:06Z</time>
      </trkpt>
      <trkpt lat="48.36642" lon="-3.74587">
        <ele>184.23</ele>
        <time>2020-08-07T13:24:18Z</time>
      </trkpt>
      <trkpt lat="48.36642" lon="-3.74581">
        <ele>182.31</ele>
        <time>2020-08-07T13:24:29Z</time>
      </trkpt>
      <trkpt lat="48.36635" lon="-3.7458">
        <ele>181.83</ele>
        <time>2020-08-07T13:24:39Z</time>
      </trkpt>
      <trkpt lat="48.36629" lon="-3.74579">
        <ele>182.79</ele>
        <time>2020-08-07T13:24:51Z</time>
      </trkpt>
      <trkpt lat="48.36625" lon="-3.74573">
        <ele>183.27</ele>
        <time>2020-08-07T13:25:11Z</time>
      </trkpt>
      <trkpt lat="48.36626" lon="-3.74571">
        <ele>182.79</ele>
        <time>2020-08-07T13:25:30Z</time>
      </trkpt>
      <trkpt lat="48.36625" lon="-3.74572">
        <ele>182.79</ele>
        <time>2020-08-07T13:25:46Z</time>
      </trkpt>
      <trkpt lat="48.36625" lon="-3.74571">
        <ele>184.23</ele>
        <time>2020-08-07T13:26:08Z</time>
      </trkpt>
      <trkpt lat="48.36625" lon="-3.74567">
        <ele>183.75</ele>
        <time>2020-08-07T13:26:20Z</time>
      </trkpt>
      <trkpt lat="48.36625" lon="-3.74568">
        <ele>184.71</ele>
        <time>2020-08-07T13:26:31Z</time>
      </trkpt>
      <trkpt lat="48.36621" lon="-3.74572">
        <ele>185.67</ele>
        <time>2020-08-07T13:26:43Z</time>
      </trkpt>
      <trkpt lat="48.36617" lon="-3.74579">
        <ele>185.67</ele>
        <time>2020-08-07T13:26:55Z</time>
      </trkpt>
      <trkpt lat="48.36613" lon="-3.74577">
        <ele>185.67</ele>
        <time>2020-08-07T13:27:14Z</time>
      </trkpt>
      <trkpt lat="48.36612" lon="-3.74575">
        <ele>185.67</ele>
        <time>2020-08-07T13:27:41Z</time>
      </trkpt>
      <trkpt lat="48.36608" lon="-3.74576">
        <ele>186.63</ele>
        <time>2020-08-07T13:28:06Z</time>
      </trkpt>
      <trkpt lat="48.36602" lon="-3.74578">
        <ele>187.59</ele>
        <time>2020-08-07T13:28:18Z</time>
      </trkpt>
      <trkpt lat="48.366" lon="-3.74589">
        <ele>187.11</ele>
        <time>2020-08-07T13:28:30Z</time>
      </trkpt>
      <trkpt lat="48.36595" lon="-3.74593">
        <ele>185.19</ele>
        <time>2020-08-07T13:28:46Z</time>
      </trkpt>
      <trkpt lat="48.36585" lon="-3.74605">
        <ele>185.67</ele>
        <time>2020-08-07T13:28:59Z</time>
      </trkpt>
      <trkpt lat="48.36579" lon="-3.74611">
        <ele>184.71</ele>
        <time>2020-08-07T13:29:16Z</time>
      </trkpt>
      <trkpt lat="48.36575" lon="-3.74623">
        <ele>185.67</ele>
        <time>2020-08-07T13:29:30Z</time>
      </trkpt>
      <trkpt lat="48.36565" lon="-3.74628">
        <ele>186.15</ele>
        <time>2020-08-07T13:29:42Z</time>
      </trkpt>
      <trkpt lat="48.36557" lon="-3.74633">
        <ele>185.19</ele>
        <time>2020-08-07T13:29:52Z</time>
      </trkpt>
      <trkpt lat="48.36557" lon="-3.74633">
        <ele>184.71</ele>
        <time>2020-08-07T13:30:11Z</time>
      </trkpt>
      <trkpt lat="48.36557" lon="-3.74633">
        <ele>185.19</ele>
        <time>2020-08-07T13:30:39Z</time>
      </trkpt>
      <trkpt lat="48.36561" lon="-3.74637">
        <ele>186.63</ele>
        <time>2020-08-07T13:30:57Z</time>
      </trkpt>
      <trkpt lat="48.36561" lon="-3.74634">
        <ele>185.19</ele>
        <time>2020-08-07T13:31:12Z</time>
      </trkpt>
      <trkpt lat="48.36557" lon="-3.74632">
        <ele>184.71</ele>
        <time>2020-08-07T13:31:26Z</time>
      </trkpt>
      <trkpt lat="48.36554" lon="-3.7463">
        <ele>183.75</ele>
        <time>2020-08-07T13:31:44Z</time>
      </trkpt>
      <trkpt lat="48.36553" lon="-3.7463">
        <ele>183.75</ele>
        <time>2020-08-07T13:31:50Z</time>
      </trkpt>
      <trkpt lat="48.36546" lon="-3.74629">
        <ele>184.23</ele>
        <time>2020-08-07T13:31:57Z</time>
      </trkpt>
      <trkpt lat="48.36544" lon="-3.74629">
        <ele>184.23</ele>
        <time>2020-08-07T13:32:00Z</time>
      </trkpt>
      <trkpt lat="48.36535" lon="-3.74634">
        <ele>184.71</ele>
        <time>2020-08-07T13:32:13Z</time>
      </trkpt>
      <trkpt lat="48.36535" lon="-3.74635">
        <ele>184.71</ele>
        <time>2020-08-07T13:32:26Z</time>
      </trkpt>
      <trkpt lat="48.36533" lon="-3.74636">
        <ele>184.71</ele>
        <time>2020-08-07T13:32:29Z</time>
      </trkpt>
      <trkpt lat="48.36525" lon="-3.74637">
        <ele>185.67</ele>
        <time>2020-08-07T13:32:41Z</time>
      </trkpt>
      <trkpt lat="48.36515" lon="-3.74636">
        <ele>185.67</ele>
        <time>2020-08-07T13:32:52Z</time>
      </trkpt>
      <trkpt lat="48.36515" lon="-3.74637">
        <ele>185.67</ele>
        <time>2020-08-07T13:33:05Z</time>
      </trkpt>
      <trkpt lat="48.36515" lon="-3.74636">
        <ele>186.15</ele>
        <time>2020-08-07T13:33:30Z</time>
      </trkpt>
      <trkpt lat="48.36515" lon="-3.74637">
        <ele>185.67</ele>
        <time>2020-08-07T13:34:02Z</time>
      </trkpt>
      <trkpt lat="48.36517" lon="-3.74639">
        <ele>186.15</ele>
        <time>2020-08-07T13:34:12Z</time>
      </trkpt>
      <trkpt lat="48.36518" lon="-3.74635">
        <ele>185.67</ele>
        <time>2020-08-07T13:34:23Z</time>
      </trkpt>
      <trkpt lat="48.36518" lon="-3.74632">
        <ele>186.15</ele>
        <time>2020-08-07T13:34:35Z</time>
      </trkpt>
      <trkpt lat="48.36518" lon="-3.74631">
        <ele>186.15</ele>
        <time>2020-08-07T13:34:36Z</time>
      </trkpt>
      <trkpt lat="48.36522" lon="-3.7463">
        <ele>185.19</ele>
        <time>2020-08-07T13:34:43Z</time>
      </trkpt>
      <trkpt lat="48.36529" lon="-3.74633">
        <ele>184.71</ele>
        <time>2020-08-07T13:34:52Z</time>
      </trkpt>
      <trkpt lat="48.36531" lon="-3.74632">
        <ele>184.23</ele>
        <time>2020-08-07T13:34:54Z</time>
      </trkpt>
      <trkpt lat="48.36543" lon="-3.74635">
        <ele>183.75</ele>
        <time>2020-08-07T13:35:07Z</time>
      </trkpt>
      <trkpt lat="48.36546" lon="-3.74635">
        <ele>183.75</ele>
        <time>2020-08-07T13:35:14Z</time>
      </trkpt>
      <trkpt lat="48.36552" lon="-3.74636">
        <ele>184.23</ele>
        <time>2020-08-07T13:35:28Z</time>
      </trkpt>
      <trkpt lat="48.36557" lon="-3.74633">
        <ele>184.71</ele>
        <time>2020-08-07T13:35:46Z</time>
      </trkpt>
      <trkpt lat="48.36563" lon="-3.74632">
        <ele>183.75</ele>
        <time>2020-08-07T13:35:57Z</time>
      </trkpt>
      <trkpt lat="48.3657" lon="-3.74629">
        <ele>182.79</ele>
        <time>2020-08-07T13:36:07Z</time>
      </trkpt>
      <trkpt lat="48.36576" lon="-3.7462">
        <ele>183.27</ele>
        <time>2020-08-07T13:36:21Z</time>
      </trkpt>
      <trkpt lat="48.3658" lon="-3.74609">
        <ele>183.75</ele>
        <time>2020-08-07T13:36:34Z</time>
      </trkpt>
      <trkpt lat="48.36585" lon="-3.746">
        <ele>184.71</ele>
        <time>2020-08-07T13:36:43Z</time>
      </trkpt>
      <trkpt lat="48.36596" lon="-3.74597">
        <ele>185.19</ele>
        <time>2020-08-07T13:36:54Z</time>
      </trkpt>
      <trkpt lat="48.36596" lon="-3.74598">
        <ele>185.19</ele>
        <time>2020-08-07T13:37:05Z</time>
      </trkpt>
      <trkpt lat="48.36602" lon="-3.74597">
        <ele>183.75</ele>
        <time>2020-08-07T13:37:25Z</time>
      </trkpt>
      <trkpt lat="48.36602" lon="-3.74596">
        <ele>183.75</ele>
        <time>2020-08-07T13:37:28Z</time>
      </trkpt>
      <trkpt lat="48.3661" lon="-3.74582">
        <ele>183.27</ele>
        <time>2020-08-07T13:37:40Z</time>
      </trkpt>
      <trkpt lat="48.36611" lon="-3.7458">
        <ele>183.75</ele>
        <time>2020-08-07T13:37:51Z</time>
      </trkpt>
      <trkpt lat="48.36613" lon="-3.74577">
        <ele>183.27</ele>
        <time>2020-08-07T13:38:07Z</time>
      </trkpt>
      <trkpt lat="48.36613" lon="-3.74574">
        <ele>182.31</ele>
        <time>2020-08-07T13:38:20Z</time>
      </trkpt>
      <trkpt lat="48.36615" lon="-3.74574">
        <ele>181.35</ele>
        <time>2020-08-07T13:38:33Z</time>
      </trkpt>
      <trkpt lat="48.3662" lon="-3.74573">
        <ele>179.42</ele>
        <time>2020-08-07T13:38:48Z</time>
      </trkpt>
      <trkpt lat="48.36626" lon="-3.74577">
        <ele>178.46</ele>
        <time>2020-08-07T13:39:01Z</time>
      </trkpt>
      <trkpt lat="48.36631" lon="-3.7458">
        <ele>180.38</ele>
        <time>2020-08-07T13:39:13Z</time>
      </trkpt>
      <trkpt lat="48.36635" lon="-3.74585">
        <ele>180.87</ele>
        <time>2020-08-07T13:39:24Z</time>
      </trkpt>
      <trkpt lat="48.3664" lon="-3.74591">
        <ele>181.35</ele>
        <time>2020-08-07T13:39:34Z</time>
      </trkpt>
      <trkpt lat="48.36648" lon="-3.74596">
        <ele>181.35</ele>
        <time>2020-08-07T13:39:46Z</time>
      </trkpt>
      <trkpt lat="48.36652" lon="-3.746">
        <ele>181.83</ele>
        <time>2020-08-07T13:39:57Z</time>
      </trkpt>
      <trkpt lat="48.36654" lon="-3.74602">
        <ele>184.71</ele>
        <time>2020-08-07T13:40:14Z</time>
      </trkpt>
      <trkpt lat="48.3666" lon="-3.74609">
        <ele>185.67</ele>
        <time>2020-08-07T13:40:26Z</time>
      </trkpt>
      <trkpt lat="48.3667" lon="-3.74616">
        <ele>188.56</ele>
        <time>2020-08-07T13:40:41Z</time>
      </trkpt>
      <trkpt lat="48.36679" lon="-3.74624">
        <ele>189.52</ele>
        <time>2020-08-07T13:40:54Z</time>
      </trkpt>
      <trkpt lat="48.36685" lon="-3.74632">
        <ele>190.96</ele>
        <time>2020-08-07T13:41:07Z</time>
      </trkpt>
      <trkpt lat="48.36692" lon="-3.74639">
        <ele>192.4</ele>
        <time>2020-08-07T13:41:18Z</time>
      </trkpt>
      <trkpt lat="48.36695" lon="-3.74644">
        <ele>193.84</ele>
        <time>2020-08-07T13:41:30Z</time>
      </trkpt>
      <trkpt lat="48.36698" lon="-3.74656">
        <ele>194.32</ele>
        <time>2020-08-07T13:41:43Z</time>
      </trkpt>
      <trkpt lat="48.36698" lon="-3.74658">
        <ele>194.32</ele>
        <time>2020-08-07T13:41:45Z</time>
      </trkpt>
      <trkpt lat="48.36692" lon="-3.74658">
        <ele>194.32</ele>
        <time>2020-08-07T13:41:57Z</time>
      </trkpt>
      <trkpt lat="48.36692" lon="-3.74658">
        <ele>193.84</ele>
        <time>2020-08-07T13:41:58Z</time>
      </trkpt>
      <trkpt lat="48.36687" lon="-3.74659">
        <ele>193.84</ele>
        <time>2020-08-07T13:42:09Z</time>
      </trkpt>
      <trkpt lat="48.36686" lon="-3.74662">
        <ele>193.84</ele>
        <time>2020-08-07T13:42:35Z</time>
      </trkpt>
      <trkpt lat="48.36686" lon="-3.74662">
        <ele>193.36</ele>
        <time>2020-08-07T13:42:42Z</time>
      </trkpt>
    </trkseg>
  </trk>
  <trk>
    <name><![CDATA[20-08-08]]></name>
    <trkseg>
      <trkpt lat="47.83619" lon="-2.98341">
        <ele>73.2</ele>
        <time>2020-08-08T08:39:02Z</time>
      </trkpt>
      <trkpt lat="47.83619" lon="-2.98341">
        <ele>73.2</ele>
        <time>2020-08-08T08:39:03Z</time>
      </trkpt>
      <trkpt lat="47.8362" lon="-2.98352">
        <ele>72.24</ele>
        <time>2020-08-08T08:39:31Z</time>
      </trkpt>
      <trkpt lat="47.83619" lon="-2.98354">
        <ele>69.35</ele>
        <time>2020-08-08T08:39:34Z</time>
      </trkpt>
      <trkpt lat="47.83619" lon="-2.98354">
        <ele>74.64</ele>
        <time>2020-08-08T08:39:35Z</time>
      </trkpt>
      <trkpt lat="47.83619" lon="-2.9836">
        <ele>73.2</ele>
        <time>2020-08-08T08:39:41Z</time>
      </trkpt>
      <trkpt lat="47.83621" lon="-2.98362">
        <ele>77.52</ele>
        <time>2020-08-08T08:39:44Z</time>
      </trkpt>
      <trkpt lat="47.8362" lon="-2.98363">
        <ele>81.37</ele>
        <time>2020-08-08T08:39:47Z</time>
      </trkpt>
      <trkpt lat="47.8362" lon="-2.98365">
        <ele>84.73</ele>
        <time>2020-08-08T08:39:50Z</time>
      </trkpt>
      <trkpt lat="47.83621" lon="-2.98366">
        <ele>88.58</ele>
        <time>2020-08-08T08:39:53Z</time>
      </trkpt>
      <trkpt lat="47.83622" lon="-2.98367">
        <ele>92.9</ele>
        <time>2020-08-08T08:39:57Z</time>
      </trkpt>
      <trkpt lat="47.83621" lon="-2.98369">
        <ele>95.79</ele>
        <time>2020-08-08T08:40:00Z</time>
      </trkpt>
      <trkpt lat="47.83615" lon="-2.98369">
        <ele>99.15</ele>
        <time>2020-08-08T08:40:05Z</time>
      </trkpt>
      <trkpt lat="47.83614" lon="-2.98373">
        <ele>102.52</ele>
        <time>2020-08-08T08:40:10Z</time>
      </trkpt>
      <trkpt lat="47.83615" lon="-2.98374">
        <ele>103</ele>
        <time>2020-08-08T08:40:11Z</time>
      </trkpt>
      <trkpt lat="47.83611" lon="-2.98381">
        <ele>106.36</ele>
        <time>2020-08-08T08:40:17Z</time>
      </trkpt>
      <trkpt lat="47.83603" lon="-2.9837">
        <ele>108.77</ele>
        <time>2020-08-08T08:40:31Z</time>
      </trkpt>
      <trkpt lat="47.83594" lon="-2.98353">
        <ele>110.69</ele>
        <time>2020-08-08T08:40:48Z</time>
      </trkpt>
      <trkpt lat="47.83586" lon="-2.98342">
        <ele>111.65</ele>
        <time>2020-08-08T08:41:01Z</time>
      </trkpt>
      <trkpt lat="47.83578" lon="-2.98333">
        <ele>113.09</ele>
        <time>2020-08-08T08:41:13Z</time>
      </trkpt>
      <trkpt lat="47.83576" lon="-2.9833">
        <ele>113.09</ele>
        <time>2020-08-08T08:41:15Z</time>
      </trkpt>
      <trkpt lat="47.8357" lon="-2.98309">
        <ele>113.09</ele>
        <time>2020-08-08T08:41:30Z</time>
      </trkpt>
      <trkpt lat="47.83562" lon="-2.98294">
        <ele>113.57</ele>
        <time>2020-08-08T08:41:43Z</time>
      </trkpt>
      <trkpt lat="47.8356" lon="-2.98287">
        <ele>113.57</ele>
        <time>2020-08-08T08:41:47Z</time>
      </trkpt>
      <trkpt lat="47.83546" lon="-2.98262">
        <ele>113.09</ele>
        <time>2020-08-08T08:42:02Z</time>
      </trkpt>
      <trkpt lat="47.83541" lon="-2.98245">
        <ele>114.53</ele>
        <time>2020-08-08T08:42:17Z</time>
      </trkpt>
      <trkpt lat="47.83529" lon="-2.98221">
        <ele>114.53</ele>
        <time>2020-08-08T08:42:33Z</time>
      </trkpt>
      <trkpt lat="47.83529" lon="-2.98219">
        <ele>114.05</ele>
        <time>2020-08-08T08:42:34Z</time>
      </trkpt>
      <trkpt lat="47.83528" lon="-2.98216">
        <ele>114.05</ele>
        <time>2020-08-08T08:42:36Z</time>
      </trkpt>
      <trkpt lat="47.83519" lon="-2.98195">
        <ele>114.05</ele>
        <time>2020-08-08T08:42:52Z</time>
      </trkpt>
      <trkpt lat="47.83511" lon="-2.98176">
        <ele>114.05</ele>
        <time>2020-08-08T08:43:03Z</time>
      </trkpt>
      <trkpt lat="47.83503" lon="-2.98164">
        <ele>114.05</ele>
        <time>2020-08-08T08:43:11Z</time>
      </trkpt>
      <trkpt lat="47.83494" lon="-2.98147">
        <ele>114.05</ele>
        <time>2020-08-08T08:43:23Z</time>
      </trkpt>
      <trkpt lat="47.83487" lon="-2.98131">
        <ele>114.05</ele>
        <time>2020-08-08T08:43:34Z</time>
      </trkpt>
      <trkpt lat="47.83485" lon="-2.98126">
        <ele>114.53</ele>
        <time>2020-08-08T08:43:37Z</time>
      </trkpt>
      <trkpt lat="47.8348" lon="-2.98118">
        <ele>115.01</ele>
        <time>2020-08-08T08:43:42Z</time>
      </trkpt>
      <trkpt lat="47.83472" lon="-2.981">
        <ele>115.01</ele>
        <time>2020-08-08T08:43:52Z</time>
      </trkpt>
      <trkpt lat="47.83471" lon="-2.98095">
        <ele>115.01</ele>
        <time>2020-08-08T08:43:55Z</time>
      </trkpt>
      <trkpt lat="47.83461" lon="-2.98073">
        <ele>115.5</ele>
        <time>2020-08-08T08:44:09Z</time>
      </trkpt>
      <trkpt lat="47.83459" lon="-2.98071">
        <ele>115.5</ele>
        <time>2020-08-08T08:44:11Z</time>
      </trkpt>
      <trkpt lat="47.8345" lon="-2.98054">
        <ele>115.98</ele>
        <time>2020-08-08T08:44:25Z</time>
      </trkpt>
      <trkpt lat="47.83447" lon="-2.98051">
        <ele>115.5</ele>
        <time>2020-08-08T08:44:32Z</time>
      </trkpt>
      <trkpt lat="47.83446" lon="-2.9805">
        <ele>115.5</ele>
        <time>2020-08-08T08:44:34Z</time>
      </trkpt>
      <trkpt lat="47.83444" lon="-2.98041">
        <ele>115.98</ele>
        <time>2020-08-08T08:44:40Z</time>
      </trkpt>
      <trkpt lat="47.83443" lon="-2.98038">
        <ele>115.98</ele>
        <time>2020-08-08T08:44:42Z</time>
      </trkpt>
      <trkpt lat="47.83438" lon="-2.98017">
        <ele>116.46</ele>
        <time>2020-08-08T08:44:56Z</time>
      </trkpt>
      <trkpt lat="47.83433" lon="-2.97999">
        <ele>115.98</ele>
        <time>2020-08-08T08:45:10Z</time>
      </trkpt>
      <trkpt lat="47.83428" lon="-2.97981">
        <ele>116.46</ele>
        <time>2020-08-08T08:45:23Z</time>
      </trkpt>
      <trkpt lat="47.83428" lon="-2.97979">
        <ele>116.46</ele>
        <time>2020-08-08T08:45:24Z</time>
      </trkpt>
      <trkpt lat="47.83421" lon="-2.97959">
        <ele>116.46</ele>
        <time>2020-08-08T08:45:39Z</time>
      </trkpt>
      <trkpt lat="47.83417" lon="-2.97943">
        <ele>116.46</ele>
        <time>2020-08-08T08:45:50Z</time>
      </trkpt>
      <trkpt lat="47.83409" lon="-2.97945">
        <ele>116.46</ele>
        <time>2020-08-08T08:46:03Z</time>
      </trkpt>
      <trkpt lat="47.83397" lon="-2.97946">
        <ele>116.46</ele>
        <time>2020-08-08T08:46:18Z</time>
      </trkpt>
      <trkpt lat="47.8339" lon="-2.97946">
        <ele>116.46</ele>
        <time>2020-08-08T08:46:30Z</time>
      </trkpt>
      <trkpt lat="47.83383" lon="-2.9794">
        <ele>115.98</ele>
        <time>2020-08-08T08:46:41Z</time>
      </trkpt>
      <trkpt lat="47.83365" lon="-2.97933">
        <ele>115.98</ele>
        <time>2020-08-08T08:46:53Z</time>
      </trkpt>
      <trkpt lat="47.83362" lon="-2.97934">
        <ele>115.5</ele>
        <time>2020-08-08T08:47:14Z</time>
      </trkpt>
      <trkpt lat="47.83354" lon="-2.97939">
        <ele>115.98</ele>
        <time>2020-08-08T08:47:30Z</time>
      </trkpt>
      <trkpt lat="47.83341" lon="-2.97941">
        <ele>115.01</ele>
        <time>2020-08-08T08:47:45Z</time>
      </trkpt>
      <trkpt lat="47.83329" lon="-2.97956">
        <ele>115.01</ele>
        <time>2020-08-08T08:47:59Z</time>
      </trkpt>
      <trkpt lat="47.83315" lon="-2.97966">
        <ele>115.5</ele>
        <time>2020-08-08T08:48:18Z</time>
      </trkpt>
      <trkpt lat="47.83296" lon="-2.97969">
        <ele>115.01</ele>
        <time>2020-08-08T08:48:34Z</time>
      </trkpt>
      <trkpt lat="47.83275" lon="-2.97959">
        <ele>114.05</ele>
        <time>2020-08-08T08:48:52Z</time>
      </trkpt>
      <trkpt lat="47.83271" lon="-2.97947">
        <ele>114.05</ele>
        <time>2020-08-08T08:49:06Z</time>
      </trkpt>
      <trkpt lat="47.8327" lon="-2.97942">
        <ele>114.53</ele>
        <time>2020-08-08T08:49:22Z</time>
      </trkpt>
      <trkpt lat="47.83269" lon="-2.97943">
        <ele>114.05</ele>
        <time>2020-08-08T08:49:37Z</time>
      </trkpt>
      <trkpt lat="47.83258" lon="-2.97939">
        <ele>113.57</ele>
        <time>2020-08-08T08:49:51Z</time>
      </trkpt>
      <trkpt lat="47.83252" lon="-2.97933">
        <ele>113.09</ele>
        <time>2020-08-08T08:50:03Z</time>
      </trkpt>
      <trkpt lat="47.83245" lon="-2.97927">
        <ele>113.09</ele>
        <time>2020-08-08T08:50:11Z</time>
      </trkpt>
      <trkpt lat="47.83234" lon="-2.9791">
        <ele>112.61</ele>
        <time>2020-08-08T08:50:23Z</time>
      </trkpt>
      <trkpt lat="47.83232" lon="-2.97908">
        <ele>112.61</ele>
        <time>2020-08-08T08:50:24Z</time>
      </trkpt>
      <trkpt lat="47.83227" lon="-2.97903">
        <ele>112.61</ele>
        <time>2020-08-08T08:50:27Z</time>
      </trkpt>
      <trkpt lat="47.83214" lon="-2.97897">
        <ele>111.65</ele>
        <time>2020-08-08T08:50:36Z</time>
      </trkpt>
      <trkpt lat="47.83206" lon="-2.97887">
        <ele>111.65</ele>
        <time>2020-08-08T08:50:45Z</time>
      </trkpt>
      <trkpt lat="47.8319" lon="-2.97868">
        <ele>111.65</ele>
        <time>2020-08-08T08:51:01Z</time>
      </trkpt>
      <trkpt lat="47.83185" lon="-2.97866">
        <ele>112.13</ele>
        <time>2020-08-08T08:51:05Z</time>
      </trkpt>
      <trkpt lat="47.83177" lon="-2.97861">
        <ele>112.61</ele>
        <time>2020-08-08T08:51:15Z</time>
      </trkpt>
      <trkpt lat="47.83163" lon="-2.9785">
        <ele>112.13</ele>
        <time>2020-08-08T08:51:31Z</time>
      </trkpt>
      <trkpt lat="47.83156" lon="-2.97835">
        <ele>112.61</ele>
        <time>2020-08-08T08:51:45Z</time>
      </trkpt>
      <trkpt lat="47.83163" lon="-2.97813">
        <ele>113.09</ele>
        <time>2020-08-08T08:51:57Z</time>
      </trkpt>
      <trkpt lat="47.83161" lon="-2.97811">
        <ele>113.09</ele>
        <time>2020-08-08T08:52:02Z</time>
      </trkpt>
      <trkpt lat="47.83145" lon="-2.97797">
        <ele>113.09</ele>
        <time>2020-08-08T08:52:17Z</time>
      </trkpt>
      <trkpt lat="47.83136" lon="-2.97788">
        <ele>113.09</ele>
        <time>2020-08-08T08:52:28Z</time>
      </trkpt>
      <trkpt lat="47.83129" lon="-2.97781">
        <ele>114.05</ele>
        <time>2020-08-08T08:52:35Z</time>
      </trkpt>
      <trkpt lat="47.83115" lon="-2.97765">
        <ele>114.05</ele>
        <time>2020-08-08T08:52:50Z</time>
      </trkpt>
      <trkpt lat="47.83097" lon="-2.9775">
        <ele>114.53</ele>
        <time>2020-08-08T08:53:04Z</time>
      </trkpt>
      <trkpt lat="47.83085" lon="-2.97737">
        <ele>115.5</ele>
        <time>2020-08-08T08:53:19Z</time>
      </trkpt>
      <trkpt lat="47.83072" lon="-2.97724">
        <ele>115.98</ele>
        <time>2020-08-08T08:53:34Z</time>
      </trkpt>
      <trkpt lat="47.83071" lon="-2.97723">
        <ele>115.98</ele>
        <time>2020-08-08T08:53:35Z</time>
      </trkpt>
      <trkpt lat="47.83067" lon="-2.97722">
        <ele>116.46</ele>
        <time>2020-08-08T08:53:39Z</time>
      </trkpt>
      <trkpt lat="47.83052" lon="-2.97702">
        <ele>117.42</ele>
        <time>2020-08-08T08:53:58Z</time>
      </trkpt>
      <trkpt lat="47.83044" lon="-2.97687">
        <ele>118.38</ele>
        <time>2020-08-08T08:54:12Z</time>
      </trkpt>
      <trkpt lat="47.83029" lon="-2.97674">
        <ele>118.86</ele>
        <time>2020-08-08T08:54:27Z</time>
      </trkpt>
      <trkpt lat="47.83012" lon="-2.97656">
        <ele>121.26</ele>
        <time>2020-08-08T08:54:45Z</time>
      </trkpt>
      <trkpt lat="47.82993" lon="-2.97644">
        <ele>122.71</ele>
        <time>2020-08-08T08:54:58Z</time>
      </trkpt>
      <trkpt lat="47.82992" lon="-2.97643">
        <ele>122.71</ele>
        <time>2020-08-08T08:55:00Z</time>
      </trkpt>
      <trkpt lat="47.82984" lon="-2.97629">
        <ele>124.15</ele>
        <time>2020-08-08T08:55:17Z</time>
      </trkpt>
      <trkpt lat="47.82973" lon="-2.97616">
        <ele>125.11</ele>
        <time>2020-08-08T08:55:30Z</time>
      </trkpt>
      <trkpt lat="47.82965" lon="-2.97599">
        <ele>125.11</ele>
        <time>2020-08-08T08:55:45Z</time>
      </trkpt>
      <trkpt lat="47.82952" lon="-2.97587">
        <ele>125.59</ele>
        <time>2020-08-08T08:55:59Z</time>
      </trkpt>
      <trkpt lat="47.82945" lon="-2.97579">
        <ele>126.07</ele>
        <time>2020-08-08T08:56:06Z</time>
      </trkpt>
      <trkpt lat="47.82933" lon="-2.97564">
        <ele>126.55</ele>
        <time>2020-08-08T08:56:21Z</time>
      </trkpt>
      <trkpt lat="47.82925" lon="-2.97553">
        <ele>126.55</ele>
        <time>2020-08-08T08:56:35Z</time>
      </trkpt>
      <trkpt lat="47.82913" lon="-2.97538">
        <ele>126.55</ele>
        <time>2020-08-08T08:56:52Z</time>
      </trkpt>
      <trkpt lat="47.82895" lon="-2.97522">
        <ele>126.55</ele>
        <time>2020-08-08T08:57:13Z</time>
      </trkpt>
      <trkpt lat="47.82892" lon="-2.97516">
        <ele>126.55</ele>
        <time>2020-08-08T08:57:18Z</time>
      </trkpt>
      <trkpt lat="47.82878" lon="-2.97508">
        <ele>126.07</ele>
        <time>2020-08-08T08:57:27Z</time>
      </trkpt>
      <trkpt lat="47.82864" lon="-2.97498">
        <ele>126.07</ele>
        <time>2020-08-08T08:57:40Z</time>
      </trkpt>
      <trkpt lat="47.8286" lon="-2.97494">
        <ele>125.59</ele>
        <time>2020-08-08T08:57:45Z</time>
      </trkpt>
      <trkpt lat="47.82849" lon="-2.9748">
        <ele>125.59</ele>
        <time>2020-08-08T08:58:01Z</time>
      </trkpt>
      <trkpt lat="47.82843" lon="-2.97474">
        <ele>125.59</ele>
        <time>2020-08-08T08:58:09Z</time>
      </trkpt>
      <trkpt lat="47.82824" lon="-2.97458">
        <ele>124.63</ele>
        <time>2020-08-08T08:58:27Z</time>
      </trkpt>
      <trkpt lat="47.82824" lon="-2.97453">
        <ele>124.15</ele>
        <time>2020-08-08T08:58:28Z</time>
      </trkpt>
      <trkpt lat="47.82814" lon="-2.97434">
        <ele>124.15</ele>
        <time>2020-08-08T08:58:42Z</time>
      </trkpt>
      <trkpt lat="47.828" lon="-2.97421">
        <ele>124.63</ele>
        <time>2020-08-08T08:58:56Z</time>
      </trkpt>
      <trkpt lat="47.82782" lon="-2.97406">
        <ele>125.59</ele>
        <time>2020-08-08T08:59:11Z</time>
      </trkpt>
      <trkpt lat="47.82772" lon="-2.97393">
        <ele>126.55</ele>
        <time>2020-08-08T08:59:24Z</time>
      </trkpt>
      <trkpt lat="47.82767" lon="-2.97384">
        <ele>127.03</ele>
        <time>2020-08-08T08:59:36Z</time>
      </trkpt>
      <trkpt lat="47.82753" lon="-2.97368">
        <ele>127.03</ele>
        <time>2020-08-08T08:59:53Z</time>
      </trkpt>
      <trkpt lat="47.82744" lon="-2.97355">
        <ele>127.03</ele>
        <time>2020-08-08T09:00:07Z</time>
      </trkpt>
      <trkpt lat="47.82741" lon="-2.97351">
        <ele>127.51</ele>
        <time>2020-08-08T09:00:10Z</time>
      </trkpt>
      <trkpt lat="47.82738" lon="-2.97345">
        <ele>127.03</ele>
        <time>2020-08-08T09:00:13Z</time>
      </trkpt>
      <trkpt lat="47.82726" lon="-2.97334">
        <ele>126.55</ele>
        <time>2020-08-08T09:00:24Z</time>
      </trkpt>
      <trkpt lat="47.82716" lon="-2.97322">
        <ele>126.55</ele>
        <time>2020-08-08T09:00:40Z</time>
      </trkpt>
      <trkpt lat="47.82701" lon="-2.97307">
        <ele>126.55</ele>
        <time>2020-08-08T09:00:54Z</time>
      </trkpt>
      <trkpt lat="47.82696" lon="-2.97302">
        <ele>127.03</ele>
        <time>2020-08-08T09:00:58Z</time>
      </trkpt>
      <trkpt lat="47.82689" lon="-2.9727">
        <ele>127.51</ele>
        <time>2020-08-08T09:01:09Z</time>
      </trkpt>
      <trkpt lat="47.82686" lon="-2.97274">
        <ele>127.03</ele>
        <time>2020-08-08T09:01:16Z</time>
      </trkpt>
      <trkpt lat="47.82672" lon="-2.97283">
        <ele>126.07</ele>
        <time>2020-08-08T09:01:31Z</time>
      </trkpt>
      <trkpt lat="47.8266" lon="-2.97291">
        <ele>125.11</ele>
        <time>2020-08-08T09:01:46Z</time>
      </trkpt>
      <trkpt lat="47.82652" lon="-2.97305">
        <ele>124.63</ele>
        <time>2020-08-08T09:01:59Z</time>
      </trkpt>
      <trkpt lat="47.82644" lon="-2.97312">
        <ele>123.67</ele>
        <time>2020-08-08T09:02:06Z</time>
      </trkpt>
      <trkpt lat="47.82623" lon="-2.97329">
        <ele>121.74</ele>
        <time>2020-08-08T09:02:25Z</time>
      </trkpt>
      <trkpt lat="47.82609" lon="-2.97342">
        <ele>121.26</ele>
        <time>2020-08-08T09:02:39Z</time>
      </trkpt>
      <trkpt lat="47.82597" lon="-2.97357">
        <ele>119.82</ele>
        <time>2020-08-08T09:02:54Z</time>
      </trkpt>
      <trkpt lat="47.82588" lon="-2.97363">
        <ele>119.82</ele>
        <time>2020-08-08T09:03:03Z</time>
      </trkpt>
      <trkpt lat="47.82575" lon="-2.97377">
        <ele>118.38</ele>
        <time>2020-08-08T09:03:19Z</time>
      </trkpt>
      <trkpt lat="47.8257" lon="-2.9738">
        <ele>117.9</ele>
        <time>2020-08-08T09:03:25Z</time>
      </trkpt>
      <trkpt lat="47.82551" lon="-2.97403">
        <ele>115.98</ele>
        <time>2020-08-08T09:03:42Z</time>
      </trkpt>
      <trkpt lat="47.82548" lon="-2.97408">
        <ele>115.98</ele>
        <time>2020-08-08T09:03:47Z</time>
      </trkpt>
      <trkpt lat="47.82541" lon="-2.97426">
        <ele>115.01</ele>
        <time>2020-08-08T09:04:01Z</time>
      </trkpt>
      <trkpt lat="47.82534" lon="-2.97427">
        <ele>115.5</ele>
        <time>2020-08-08T09:04:13Z</time>
      </trkpt>
      <trkpt lat="47.82529" lon="-2.97426">
        <ele>115.01</ele>
        <time>2020-08-08T09:04:18Z</time>
      </trkpt>
      <trkpt lat="47.82516" lon="-2.97432">
        <ele>114.05</ele>
        <time>2020-08-08T09:04:32Z</time>
      </trkpt>
      <trkpt lat="47.82498" lon="-2.97424">
        <ele>114.05</ele>
        <time>2020-08-08T09:04:50Z</time>
      </trkpt>
      <trkpt lat="47.82486" lon="-2.97422">
        <ele>114.05</ele>
        <time>2020-08-08T09:04:58Z</time>
      </trkpt>
      <trkpt lat="47.82473" lon="-2.9742">
        <ele>114.05</ele>
        <time>2020-08-08T09:05:10Z</time>
      </trkpt>
      <trkpt lat="47.82466" lon="-2.97414">
        <ele>114.05</ele>
        <time>2020-08-08T09:05:18Z</time>
      </trkpt>
      <trkpt lat="47.82455" lon="-2.97401">
        <ele>113.57</ele>
        <time>2020-08-08T09:05:34Z</time>
      </trkpt>
      <trkpt lat="47.82442" lon="-2.97385">
        <ele>113.57</ele>
        <time>2020-08-08T09:05:47Z</time>
      </trkpt>
      <trkpt lat="47.82422" lon="-2.97377">
        <ele>112.61</ele>
        <time>2020-08-08T09:06:04Z</time>
      </trkpt>
      <trkpt lat="47.82413" lon="-2.97375">
        <ele>112.13</ele>
        <time>2020-08-08T09:06:18Z</time>
      </trkpt>
      <trkpt lat="47.824" lon="-2.97367">
        <ele>110.69</ele>
        <time>2020-08-08T09:06:35Z</time>
      </trkpt>
      <trkpt lat="47.82386" lon="-2.97358">
        <ele>110.21</ele>
        <time>2020-08-08T09:06:49Z</time>
      </trkpt>
      <trkpt lat="47.8238" lon="-2.97357">
        <ele>110.21</ele>
        <time>2020-08-08T09:06:55Z</time>
      </trkpt>
      <trkpt lat="47.82376" lon="-2.97357">
        <ele>109.73</ele>
        <time>2020-08-08T09:06:57Z</time>
      </trkpt>
      <trkpt lat="47.82363" lon="-2.97352">
        <ele>109.25</ele>
        <time>2020-08-08T09:07:12Z</time>
      </trkpt>
      <trkpt lat="47.82349" lon="-2.97344">
        <ele>108.77</ele>
        <time>2020-08-08T09:07:23Z</time>
      </trkpt>
      <trkpt lat="47.82331" lon="-2.97333">
        <ele>106.84</ele>
        <time>2020-08-08T09:07:39Z</time>
      </trkpt>
      <trkpt lat="47.8232" lon="-2.97326">
        <ele>106.36</ele>
        <time>2020-08-08T09:07:54Z</time>
      </trkpt>
      <trkpt lat="47.82315" lon="-2.97322">
        <ele>105.88</ele>
        <time>2020-08-08T09:07:59Z</time>
      </trkpt>
      <trkpt lat="47.82302" lon="-2.97315">
        <ele>104.92</ele>
        <time>2020-08-08T09:08:14Z</time>
      </trkpt>
      <trkpt lat="47.82294" lon="-2.97303">
        <ele>103.96</ele>
        <time>2020-08-08T09:08:27Z</time>
      </trkpt>
      <trkpt lat="47.82279" lon="-2.97298">
        <ele>103</ele>
        <time>2020-08-08T09:08:37Z</time>
      </trkpt>
      <trkpt lat="47.82249" lon="-2.97287">
        <ele>101.56</ele>
        <time>2020-08-08T09:08:58Z</time>
      </trkpt>
      <trkpt lat="47.82246" lon="-2.97287">
        <ele>101.08</ele>
        <time>2020-08-08T09:09:00Z</time>
      </trkpt>
      <trkpt lat="47.82209" lon="-2.97297">
        <ele>99.63</ele>
        <time>2020-08-08T09:09:23Z</time>
      </trkpt>
      <trkpt lat="47.82191" lon="-2.97253">
        <ele>99.15</ele>
        <time>2020-08-08T09:09:45Z</time>
      </trkpt>
      <trkpt lat="47.82193" lon="-2.97233">
        <ele>98.67</ele>
        <time>2020-08-08T09:09:56Z</time>
      </trkpt>
      <trkpt lat="47.82186" lon="-2.97223">
        <ele>98.67</ele>
        <time>2020-08-08T09:10:10Z</time>
      </trkpt>
      <trkpt lat="47.82184" lon="-2.9722">
        <ele>97.71</ele>
        <time>2020-08-08T09:10:26Z</time>
      </trkpt>
      <trkpt lat="47.82165" lon="-2.97213">
        <ele>98.19</ele>
        <time>2020-08-08T09:10:42Z</time>
      </trkpt>
      <trkpt lat="47.82135" lon="-2.97203">
        <ele>97.71</ele>
        <time>2020-08-08T09:11:02Z</time>
      </trkpt>
      <trkpt lat="47.8212" lon="-2.97198">
        <ele>97.23</ele>
        <time>2020-08-08T09:11:17Z</time>
      </trkpt>
      <trkpt lat="47.82106" lon="-2.97195">
        <ele>97.23</ele>
        <time>2020-08-08T09:11:29Z</time>
      </trkpt>
      <trkpt lat="47.82096" lon="-2.97193">
        <ele>98.67</ele>
        <time>2020-08-08T09:11:43Z</time>
      </trkpt>
      <trkpt lat="47.82078" lon="-2.97167">
        <ele>98.67</ele>
        <time>2020-08-08T09:12:05Z</time>
      </trkpt>
      <trkpt lat="47.82061" lon="-2.9714">
        <ele>97.71</ele>
        <time>2020-08-08T09:12:25Z</time>
      </trkpt>
      <trkpt lat="47.82051" lon="-2.97131">
        <ele>97.71</ele>
        <time>2020-08-08T09:12:36Z</time>
      </trkpt>
      <trkpt lat="47.82048" lon="-2.9713">
        <ele>97.71</ele>
        <time>2020-08-08T09:12:38Z</time>
      </trkpt>
      <trkpt lat="47.82032" lon="-2.97118">
        <ele>97.23</ele>
        <time>2020-08-08T09:12:54Z</time>
      </trkpt>
      <trkpt lat="47.82028" lon="-2.97118">
        <ele>97.23</ele>
        <time>2020-08-08T09:12:56Z</time>
      </trkpt>
      <trkpt lat="47.82006" lon="-2.97123">
        <ele>97.71</ele>
        <time>2020-08-08T09:13:16Z</time>
      </trkpt>
      <trkpt lat="47.81994" lon="-2.97113">
        <ele>97.23</ele>
        <time>2020-08-08T09:13:30Z</time>
      </trkpt>
      <trkpt lat="47.81987" lon="-2.9711">
        <ele>96.75</ele>
        <time>2020-08-08T09:13:35Z</time>
      </trkpt>
      <trkpt lat="47.81982" lon="-2.97104">
        <ele>97.23</ele>
        <time>2020-08-08T09:13:36Z</time>
      </trkpt>
      <trkpt lat="47.81978" lon="-2.97086">
        <ele>97.23</ele>
        <time>2020-08-08T09:13:39Z</time>
      </trkpt>
      <trkpt lat="47.81975" lon="-2.97069">
        <ele>96.27</ele>
        <time>2020-08-08T09:13:50Z</time>
      </trkpt>
      <trkpt lat="47.81969" lon="-2.97051">
        <ele>96.27</ele>
        <time>2020-08-08T09:14:01Z</time>
      </trkpt>
      <trkpt lat="47.81954" lon="-2.97048">
        <ele>96.27</ele>
        <time>2020-08-08T09:14:18Z</time>
      </trkpt>
      <trkpt lat="47.81934" lon="-2.97046">
        <ele>95.79</ele>
        <time>2020-08-08T09:14:40Z</time>
      </trkpt>
      <trkpt lat="47.81919" lon="-2.9704">
        <ele>96.75</ele>
        <time>2020-08-08T09:15:01Z</time>
      </trkpt>
      <trkpt lat="47.81917" lon="-2.97039">
        <ele>97.23</ele>
        <time>2020-08-08T09:15:02Z</time>
      </trkpt>
      <trkpt lat="47.81913" lon="-2.97021">
        <ele>97.71</ele>
        <time>2020-08-08T09:15:12Z</time>
      </trkpt>
      <trkpt lat="47.819" lon="-2.9699">
        <ele>99.15</ele>
        <time>2020-08-08T09:15:32Z</time>
      </trkpt>
      <trkpt lat="47.8188" lon="-2.96965">
        <ele>100.6</ele>
        <time>2020-08-08T09:15:53Z</time>
      </trkpt>
      <trkpt lat="47.81871" lon="-2.96949">
        <ele>102.52</ele>
        <time>2020-08-08T09:16:14Z</time>
      </trkpt>
      <trkpt lat="47.81857" lon="-2.96926">
        <ele>103.96</ele>
        <time>2020-08-08T09:16:34Z</time>
      </trkpt>
      <trkpt lat="47.81856" lon="-2.96905">
        <ele>104.92</ele>
        <time>2020-08-08T09:16:48Z</time>
      </trkpt>
      <trkpt lat="47.81846" lon="-2.96879">
        <ele>106.84</ele>
        <time>2020-08-08T09:17:09Z</time>
      </trkpt>
      <trkpt lat="47.81837" lon="-2.96872">
        <ele>107.32</ele>
        <time>2020-08-08T09:17:26Z</time>
      </trkpt>
      <trkpt lat="47.81825" lon="-2.9687">
        <ele>108.77</ele>
        <time>2020-08-08T09:17:42Z</time>
      </trkpt>
      <trkpt lat="47.81824" lon="-2.96859">
        <ele>109.25</ele>
        <time>2020-08-08T09:17:56Z</time>
      </trkpt>
      <trkpt lat="47.81819" lon="-2.96852">
        <ele>110.21</ele>
        <time>2020-08-08T09:18:14Z</time>
      </trkpt>
      <trkpt lat="47.81816" lon="-2.96819">
        <ele>112.13</ele>
        <time>2020-08-08T09:18:33Z</time>
      </trkpt>
      <trkpt lat="47.81815" lon="-2.96817">
        <ele>112.13</ele>
        <time>2020-08-08T09:18:45Z</time>
      </trkpt>
      <trkpt lat="47.81817" lon="-2.96805">
        <ele>112.61</ele>
        <time>2020-08-08T09:18:59Z</time>
      </trkpt>
      <trkpt lat="47.81817" lon="-2.96796">
        <ele>113.57</ele>
        <time>2020-08-08T09:19:12Z</time>
      </trkpt>
      <trkpt lat="47.81835" lon="-2.96737">
        <ele>114.05</ele>
        <time>2020-08-08T09:19:29Z</time>
      </trkpt>
      <trkpt lat="47.81844" lon="-2.96736">
        <ele>115.01</ele>
        <time>2020-08-08T09:19:42Z</time>
      </trkpt>
      <trkpt lat="47.8185" lon="-2.96754">
        <ele>117.42</ele>
        <time>2020-08-08T09:20:01Z</time>
      </trkpt>
      <trkpt lat="47.81855" lon="-2.9677">
        <ele>117.42</ele>
        <time>2020-08-08T09:20:17Z</time>
      </trkpt>
      <trkpt lat="47.81853" lon="-2.96776">
        <ele>117.42</ele>
        <time>2020-08-08T09:20:37Z</time>
      </trkpt>
      <trkpt lat="47.81854" lon="-2.96779">
        <ele>117.42</ele>
        <time>2020-08-08T09:21:05Z</time>
      </trkpt>
      <trkpt lat="47.81855" lon="-2.96782">
        <ele>117.42</ele>
        <time>2020-08-08T09:21:26Z</time>
      </trkpt>
      <trkpt lat="47.81858" lon="-2.9679">
        <ele>117.9</ele>
        <time>2020-08-08T09:21:53Z</time>
      </trkpt>
      <trkpt lat="47.8186" lon="-2.96804">
        <ele>117.9</ele>
        <time>2020-08-08T09:22:13Z</time>
      </trkpt>
      <trkpt lat="47.81865" lon="-2.96809">
        <ele>117.9</ele>
        <time>2020-08-08T09:22:37Z</time>
      </trkpt>
      <trkpt lat="47.81866" lon="-2.96806">
        <ele>117.42</ele>
        <time>2020-08-08T09:22:55Z</time>
      </trkpt>
      <trkpt lat="47.81866" lon="-2.96807">
        <ele>117.42</ele>
        <time>2020-08-08T09:23:18Z</time>
      </trkpt>
      <trkpt lat="47.81865" lon="-2.96808">
        <ele>116.94</ele>
        <time>2020-08-08T09:23:37Z</time>
      </trkpt>
      <trkpt lat="47.81867" lon="-2.96812">
        <ele>118.86</ele>
        <time>2020-08-08T09:23:53Z</time>
      </trkpt>
      <trkpt lat="47.81868" lon="-2.96814">
        <ele>118.86</ele>
        <time>2020-08-08T09:24:05Z</time>
      </trkpt>
      <trkpt lat="47.81873" lon="-2.9682">
        <ele>116.46</ele>
        <time>2020-08-08T09:24:24Z</time>
      </trkpt>
      <trkpt lat="47.81872" lon="-2.96829">
        <ele>113.57</ele>
        <time>2020-08-08T09:24:40Z</time>
      </trkpt>
      <trkpt lat="47.81869" lon="-2.96842">
        <ele>111.65</ele>
        <time>2020-08-08T09:24:58Z</time>
      </trkpt>
      <trkpt lat="47.81865" lon="-2.96844">
        <ele>109.73</ele>
        <time>2020-08-08T09:25:13Z</time>
      </trkpt>
      <trkpt lat="47.81849" lon="-2.9685">
        <ele>108.77</ele>
        <time>2020-08-08T09:25:35Z</time>
      </trkpt>
      <trkpt lat="47.8184" lon="-2.96867">
        <ele>108.77</ele>
        <time>2020-08-08T09:25:50Z</time>
      </trkpt>
      <trkpt lat="47.81836" lon="-2.96872">
        <ele>108.77</ele>
        <time>2020-08-08T09:26:24Z</time>
      </trkpt>
      <trkpt lat="47.81833" lon="-2.96868">
        <ele>108.29</ele>
        <time>2020-08-08T09:26:57Z</time>
      </trkpt>
      <trkpt lat="47.81833" lon="-2.96862">
        <ele>106.84</ele>
        <time>2020-08-08T09:27:14Z</time>
      </trkpt>
      <trkpt lat="47.81836" lon="-2.96872">
        <ele>106.84</ele>
        <time>2020-08-08T09:27:27Z</time>
      </trkpt>
      <trkpt lat="47.81842" lon="-2.96887">
        <ele>105.88</ele>
        <time>2020-08-08T09:27:42Z</time>
      </trkpt>
      <trkpt lat="47.8185" lon="-2.96899">
        <ele>104.44</ele>
        <time>2020-08-08T09:27:56Z</time>
      </trkpt>
      <trkpt lat="47.8186" lon="-2.96921">
        <ele>103.48</ele>
        <time>2020-08-08T09:28:12Z</time>
      </trkpt>
      <trkpt lat="47.81862" lon="-2.96931">
        <ele>102.04</ele>
        <time>2020-08-08T09:28:27Z</time>
      </trkpt>
      <trkpt lat="47.81863" lon="-2.96939">
        <ele>101.56</ele>
        <time>2020-08-08T09:28:37Z</time>
      </trkpt>
      <trkpt lat="47.81878" lon="-2.96961">
        <ele>100.6</ele>
        <time>2020-08-08T09:28:54Z</time>
      </trkpt>
      <trkpt lat="47.81879" lon="-2.96962">
        <ele>100.6</ele>
        <time>2020-08-08T09:28:55Z</time>
      </trkpt>
      <trkpt lat="47.81881" lon="-2.96965">
        <ele>100.6</ele>
        <time>2020-08-08T09:28:57Z</time>
      </trkpt>
      <trkpt lat="47.8189" lon="-2.96986">
        <ele>99.15</ele>
        <time>2020-08-08T09:29:14Z</time>
      </trkpt>
      <trkpt lat="47.81896" lon="-2.96999">
        <ele>98.67</ele>
        <time>2020-08-08T09:29:24Z</time>
      </trkpt>
      <trkpt lat="47.81913" lon="-2.97023">
        <ele>98.67</ele>
        <time>2020-08-08T09:29:46Z</time>
      </trkpt>
      <trkpt lat="47.81913" lon="-2.97029">
        <ele>98.19</ele>
        <time>2020-08-08T09:29:51Z</time>
      </trkpt>
      <trkpt lat="47.81915" lon="-2.97033">
        <ele>98.67</ele>
        <time>2020-08-08T09:29:53Z</time>
      </trkpt>
      <trkpt lat="47.81919" lon="-2.97054">
        <ele>98.19</ele>
        <time>2020-08-08T09:30:08Z</time>
      </trkpt>
      <trkpt lat="47.81926" lon="-2.97076">
        <ele>99.15</ele>
        <time>2020-08-08T09:30:21Z</time>
      </trkpt>
      <trkpt lat="47.81933" lon="-2.97096">
        <ele>99.15</ele>
        <time>2020-08-08T09:30:33Z</time>
      </trkpt>
      <trkpt lat="47.81942" lon="-2.97123">
        <ele>100.6</ele>
        <time>2020-08-08T09:30:52Z</time>
      </trkpt>
      <trkpt lat="47.81948" lon="-2.9715">
        <ele>101.56</ele>
        <time>2020-08-08T09:31:09Z</time>
      </trkpt>
      <trkpt lat="47.81964" lon="-2.9717">
        <ele>103</ele>
        <time>2020-08-08T09:31:29Z</time>
      </trkpt>
      <trkpt lat="47.81966" lon="-2.97176">
        <ele>103.48</ele>
        <time>2020-08-08T09:31:32Z</time>
      </trkpt>
      <trkpt lat="47.81978" lon="-2.97196">
        <ele>104.44</ele>
        <time>2020-08-08T09:31:49Z</time>
      </trkpt>
      <trkpt lat="47.81992" lon="-2.97213">
        <ele>105.4</ele>
        <time>2020-08-08T09:32:04Z</time>
      </trkpt>
      <trkpt lat="47.82005" lon="-2.9723">
        <ele>105.4</ele>
        <time>2020-08-08T09:32:21Z</time>
      </trkpt>
      <trkpt lat="47.82018" lon="-2.97246">
        <ele>107.81</ele>
        <time>2020-08-08T09:32:39Z</time>
      </trkpt>
      <trkpt lat="47.8202" lon="-2.97248">
        <ele>107.81</ele>
        <time>2020-08-08T09:32:42Z</time>
      </trkpt>
      <trkpt lat="47.82028" lon="-2.97256">
        <ele>108.29</ele>
        <time>2020-08-08T09:32:55Z</time>
      </trkpt>
      <trkpt lat="47.82036" lon="-2.97265">
        <ele>109.73</ele>
        <time>2020-08-08T09:33:08Z</time>
      </trkpt>
      <trkpt lat="47.82043" lon="-2.97276">
        <ele>110.69</ele>
        <time>2020-08-08T09:33:22Z</time>
      </trkpt>
      <trkpt lat="47.82054" lon="-2.97297">
        <ele>112.13</ele>
        <time>2020-08-08T09:33:40Z</time>
      </trkpt>
      <trkpt lat="47.82055" lon="-2.97304">
        <ele>112.61</ele>
        <time>2020-08-08T09:33:45Z</time>
      </trkpt>
      <trkpt lat="47.82058" lon="-2.97322">
        <ele>113.09</ele>
        <time>2020-08-08T09:33:58Z</time>
      </trkpt>
      <trkpt lat="47.8206" lon="-2.97337">
        <ele>114.53</ele>
        <time>2020-08-08T09:34:09Z</time>
      </trkpt>
      <trkpt lat="47.82058" lon="-2.97347">
        <ele>115.01</ele>
        <time>2020-08-08T09:34:16Z</time>
      </trkpt>
      <trkpt lat="47.82057" lon="-2.97349">
        <ele>115.5</ele>
        <time>2020-08-08T09:34:18Z</time>
      </trkpt>
      <trkpt lat="47.82053" lon="-2.97373">
        <ele>116.94</ele>
        <time>2020-08-08T09:34:34Z</time>
      </trkpt>
      <trkpt lat="47.82055" lon="-2.97393">
        <ele>117.9</ele>
        <time>2020-08-08T09:34:47Z</time>
      </trkpt>
      <trkpt lat="47.82051" lon="-2.97407">
        <ele>118.38</ele>
        <time>2020-08-08T09:34:58Z</time>
      </trkpt>
      <trkpt lat="47.82051" lon="-2.97421">
        <ele>119.34</ele>
        <time>2020-08-08T09:35:08Z</time>
      </trkpt>
      <trkpt lat="47.8205" lon="-2.97435">
        <ele>120.3</ele>
        <time>2020-08-08T09:35:19Z</time>
      </trkpt>
      <trkpt lat="47.82052" lon="-2.97466">
        <ele>121.74</ele>
        <time>2020-08-08T09:35:39Z</time>
      </trkpt>
      <trkpt lat="47.82055" lon="-2.97483">
        <ele>123.19</ele>
        <time>2020-08-08T09:35:50Z</time>
      </trkpt>
      <trkpt lat="47.82057" lon="-2.9749">
        <ele>123.19</ele>
        <time>2020-08-08T09:35:56Z</time>
      </trkpt>
      <trkpt lat="47.82061" lon="-2.97513">
        <ele>124.15</ele>
        <time>2020-08-08T09:36:11Z</time>
      </trkpt>
      <trkpt lat="47.82062" lon="-2.97521">
        <ele>124.15</ele>
        <time>2020-08-08T09:36:16Z</time>
      </trkpt>
      <trkpt lat="47.82063" lon="-2.97523">
        <ele>124.15</ele>
        <time>2020-08-08T09:36:18Z</time>
      </trkpt>
      <trkpt lat="47.82064" lon="-2.97527">
        <ele>124.63</ele>
        <time>2020-08-08T09:36:20Z</time>
      </trkpt>
      <trkpt lat="47.82071" lon="-2.97558">
        <ele>125.11</ele>
        <time>2020-08-08T09:36:41Z</time>
      </trkpt>
      <trkpt lat="47.82074" lon="-2.97566">
        <ele>125.59</ele>
        <time>2020-08-08T09:36:45Z</time>
      </trkpt>
      <trkpt lat="47.82078" lon="-2.97583">
        <ele>124.63</ele>
        <time>2020-08-08T09:36:58Z</time>
      </trkpt>
      <trkpt lat="47.82082" lon="-2.97597">
        <ele>124.63</ele>
        <time>2020-08-08T09:37:13Z</time>
      </trkpt>
      <trkpt lat="47.82087" lon="-2.97615">
        <ele>123.67</ele>
        <time>2020-08-08T09:37:26Z</time>
      </trkpt>
      <trkpt lat="47.82096" lon="-2.97622">
        <ele>123.19</ele>
        <time>2020-08-08T09:37:42Z</time>
      </trkpt>
      <trkpt lat="47.82099" lon="-2.9763">
        <ele>122.71</ele>
        <time>2020-08-08T09:37:55Z</time>
      </trkpt>
      <trkpt lat="47.82101" lon="-2.97632">
        <ele>122.22</ele>
        <time>2020-08-08T09:37:57Z</time>
      </trkpt>
      <trkpt lat="47.82108" lon="-2.97652">
        <ele>122.71</ele>
        <time>2020-08-08T09:38:12Z</time>
      </trkpt>
      <trkpt lat="47.82117" lon="-2.97662">
        <ele>123.19</ele>
        <time>2020-08-08T09:38:25Z</time>
      </trkpt>
      <trkpt lat="47.82117" lon="-2.97665">
        <ele>122.71</ele>
        <time>2020-08-08T09:38:37Z</time>
      </trkpt>
      <trkpt lat="47.82123" lon="-2.97665">
        <ele>122.71</ele>
        <time>2020-08-08T09:38:43Z</time>
      </trkpt>
      <trkpt lat="47.82139" lon="-2.97661">
        <ele>124.15</ele>
        <time>2020-08-08T09:39:03Z</time>
      </trkpt>
      <trkpt lat="47.82155" lon="-2.97658">
        <ele>125.59</ele>
        <time>2020-08-08T09:39:15Z</time>
      </trkpt>
      <trkpt lat="47.82167" lon="-2.97655">
        <ele>125.59</ele>
        <time>2020-08-08T09:39:27Z</time>
      </trkpt>
      <trkpt lat="47.8218" lon="-2.9765">
        <ele>125.59</ele>
        <time>2020-08-08T09:39:40Z</time>
      </trkpt>
      <trkpt lat="47.82198" lon="-2.97634">
        <ele>126.07</ele>
        <time>2020-08-08T09:39:59Z</time>
      </trkpt>
      <trkpt lat="47.82215" lon="-2.97627">
        <ele>126.07</ele>
        <time>2020-08-08T09:40:15Z</time>
      </trkpt>
      <trkpt lat="47.82217" lon="-2.97628">
        <ele>126.07</ele>
        <time>2020-08-08T09:40:17Z</time>
      </trkpt>
      <trkpt lat="47.82228" lon="-2.97624">
        <ele>126.07</ele>
        <time>2020-08-08T09:40:31Z</time>
      </trkpt>
      <trkpt lat="47.8224" lon="-2.97618">
        <ele>127.51</ele>
        <time>2020-08-08T09:40:45Z</time>
      </trkpt>
      <trkpt lat="47.82262" lon="-2.97605">
        <ele>128.47</ele>
        <time>2020-08-08T09:41:02Z</time>
      </trkpt>
      <trkpt lat="47.82281" lon="-2.9759">
        <ele>129.43</ele>
        <time>2020-08-08T09:41:25Z</time>
      </trkpt>
      <trkpt lat="47.82288" lon="-2.97586">
        <ele>129.92</ele>
        <time>2020-08-08T09:41:30Z</time>
      </trkpt>
      <trkpt lat="47.82301" lon="-2.97572">
        <ele>130.4</ele>
        <time>2020-08-08T09:41:46Z</time>
      </trkpt>
      <trkpt lat="47.82306" lon="-2.97569">
        <ele>130.4</ele>
        <time>2020-08-08T09:41:49Z</time>
      </trkpt>
      <trkpt lat="47.82324" lon="-2.97564">
        <ele>129.43</ele>
        <time>2020-08-08T09:42:06Z</time>
      </trkpt>
      <trkpt lat="47.82336" lon="-2.97553">
        <ele>128.95</ele>
        <time>2020-08-08T09:42:22Z</time>
      </trkpt>
      <trkpt lat="47.82365" lon="-2.9755">
        <ele>127.51</ele>
        <time>2020-08-08T09:42:41Z</time>
      </trkpt>
      <trkpt lat="47.82381" lon="-2.97537">
        <ele>125.59</ele>
        <time>2020-08-08T09:43:01Z</time>
      </trkpt>
      <trkpt lat="47.82402" lon="-2.97521">
        <ele>124.15</ele>
        <time>2020-08-08T09:43:18Z</time>
      </trkpt>
      <trkpt lat="47.82422" lon="-2.97517">
        <ele>122.71</ele>
        <time>2020-08-08T09:43:35Z</time>
      </trkpt>
      <trkpt lat="47.82435" lon="-2.97521">
        <ele>121.26</ele>
        <time>2020-08-08T09:43:48Z</time>
      </trkpt>
      <trkpt lat="47.82438" lon="-2.97522">
        <ele>121.26</ele>
        <time>2020-08-08T09:43:51Z</time>
      </trkpt>
      <trkpt lat="47.82449" lon="-2.9753">
        <ele>120.3</ele>
        <time>2020-08-08T09:44:05Z</time>
      </trkpt>
      <trkpt lat="47.8246" lon="-2.97536">
        <ele>119.82</ele>
        <time>2020-08-08T09:44:13Z</time>
      </trkpt>
      <trkpt lat="47.82471" lon="-2.97537">
        <ele>118.86</ele>
        <time>2020-08-08T09:44:24Z</time>
      </trkpt>
      <trkpt lat="47.82472" lon="-2.97538">
        <ele>118.86</ele>
        <time>2020-08-08T09:44:25Z</time>
      </trkpt>
      <trkpt lat="47.82483" lon="-2.97541">
        <ele>118.86</ele>
        <time>2020-08-08T09:44:38Z</time>
      </trkpt>
      <trkpt lat="47.82492" lon="-2.97538">
        <ele>118.86</ele>
        <time>2020-08-08T09:44:48Z</time>
      </trkpt>
      <trkpt lat="47.82509" lon="-2.97529">
        <ele>119.34</ele>
        <time>2020-08-08T09:45:04Z</time>
      </trkpt>
      <trkpt lat="47.82525" lon="-2.97512">
        <ele>120.78</ele>
        <time>2020-08-08T09:45:27Z</time>
      </trkpt>
      <trkpt lat="47.82526" lon="-2.9749">
        <ele>122.71</ele>
        <time>2020-08-08T09:45:45Z</time>
      </trkpt>
      <trkpt lat="47.82526" lon="-2.97469">
        <ele>123.67</ele>
        <time>2020-08-08T09:46:03Z</time>
      </trkpt>
      <trkpt lat="47.82531" lon="-2.97446">
        <ele>124.63</ele>
        <time>2020-08-08T09:46:19Z</time>
      </trkpt>
      <trkpt lat="47.82538" lon="-2.97431">
        <ele>126.07</ele>
        <time>2020-08-08T09:46:37Z</time>
      </trkpt>
      <trkpt lat="47.82558" lon="-2.97405">
        <ele>127.99</ele>
        <time>2020-08-08T09:46:56Z</time>
      </trkpt>
      <trkpt lat="47.8257" lon="-2.97386">
        <ele>128.95</ele>
        <time>2020-08-08T09:47:11Z</time>
      </trkpt>
      <trkpt lat="47.82572" lon="-2.97381">
        <ele>129.43</ele>
        <time>2020-08-08T09:47:15Z</time>
      </trkpt>
      <trkpt lat="47.82582" lon="-2.97368">
        <ele>130.88</ele>
        <time>2020-08-08T09:47:30Z</time>
      </trkpt>
      <trkpt lat="47.82591" lon="-2.9736">
        <ele>131.36</ele>
        <time>2020-08-08T09:47:43Z</time>
      </trkpt>
      <trkpt lat="47.82595" lon="-2.97356">
        <ele>132.8</ele>
        <time>2020-08-08T09:47:51Z</time>
      </trkpt>
      <trkpt lat="47.826" lon="-2.9735">
        <ele>133.76</ele>
        <time>2020-08-08T09:48:03Z</time>
      </trkpt>
      <trkpt lat="47.8261" lon="-2.97342">
        <ele>134.24</ele>
        <time>2020-08-08T09:48:14Z</time>
      </trkpt>
      <trkpt lat="47.82624" lon="-2.97323">
        <ele>135.68</ele>
        <time>2020-08-08T09:48:28Z</time>
      </trkpt>
      <trkpt lat="47.82625" lon="-2.97323">
        <ele>135.68</ele>
        <time>2020-08-08T09:48:29Z</time>
      </trkpt>
      <trkpt lat="47.82632" lon="-2.97314">
        <ele>136.64</ele>
        <time>2020-08-08T09:48:42Z</time>
      </trkpt>
      <trkpt lat="47.82637" lon="-2.97311">
        <ele>138.09</ele>
        <time>2020-08-08T09:48:56Z</time>
      </trkpt>
      <trkpt lat="47.82661" lon="-2.97274">
        <ele>139.05</ele>
        <time>2020-08-08T09:49:10Z</time>
      </trkpt>
      <trkpt lat="47.82671" lon="-2.9727">
        <ele>138.57</ele>
        <time>2020-08-08T09:49:16Z</time>
      </trkpt>
      <trkpt lat="47.82676" lon="-2.9728">
        <ele>138.09</ele>
        <time>2020-08-08T09:49:27Z</time>
      </trkpt>
      <trkpt lat="47.82678" lon="-2.97284">
        <ele>138.09</ele>
        <time>2020-08-08T09:49:31Z</time>
      </trkpt>
      <trkpt lat="47.82687" lon="-2.9729">
        <ele>138.57</ele>
        <time>2020-08-08T09:49:41Z</time>
      </trkpt>
      <trkpt lat="47.82698" lon="-2.97301">
        <ele>139.53</ele>
        <time>2020-08-08T09:49:56Z</time>
      </trkpt>
      <trkpt lat="47.82708" lon="-2.97312">
        <ele>140.01</ele>
        <time>2020-08-08T09:50:11Z</time>
      </trkpt>
      <trkpt lat="47.82726" lon="-2.97333">
        <ele>140.01</ele>
        <time>2020-08-08T09:50:28Z</time>
      </trkpt>
      <trkpt lat="47.8274" lon="-2.97351">
        <ele>139.53</ele>
        <time>2020-08-08T09:50:46Z</time>
      </trkpt>
      <trkpt lat="47.82749" lon="-2.97357">
        <ele>139.53</ele>
        <time>2020-08-08T09:50:54Z</time>
      </trkpt>
      <trkpt lat="47.82762" lon="-2.9738">
        <ele>139.05</ele>
        <time>2020-08-08T09:51:11Z</time>
      </trkpt>
      <trkpt lat="47.82778" lon="-2.97398">
        <ele>138.09</ele>
        <time>2020-08-08T09:51:27Z</time>
      </trkpt>
      <trkpt lat="47.8278" lon="-2.97405">
        <ele>138.57</ele>
        <time>2020-08-08T09:51:31Z</time>
      </trkpt>
      <trkpt lat="47.82794" lon="-2.9742">
        <ele>138.57</ele>
        <time>2020-08-08T09:51:46Z</time>
      </trkpt>
      <trkpt lat="47.82805" lon="-2.97422">
        <ele>139.05</ele>
        <time>2020-08-08T09:51:59Z</time>
      </trkpt>
      <trkpt lat="47.82816" lon="-2.97442">
        <ele>139.53</ele>
        <time>2020-08-08T09:52:14Z</time>
      </trkpt>
      <trkpt lat="47.82828" lon="-2.97455">
        <ele>139.53</ele>
        <time>2020-08-08T09:52:27Z</time>
      </trkpt>
      <trkpt lat="47.8284" lon="-2.97472">
        <ele>140.01</ele>
        <time>2020-08-08T09:52:41Z</time>
      </trkpt>
      <trkpt lat="47.8285" lon="-2.97483">
        <ele>140.01</ele>
        <time>2020-08-08T09:52:56Z</time>
      </trkpt>
      <trkpt lat="47.82859" lon="-2.97494">
        <ele>140.01</ele>
        <time>2020-08-08T09:53:08Z</time>
      </trkpt>
      <trkpt lat="47.82865" lon="-2.97504">
        <ele>140.97</ele>
        <time>2020-08-08T09:53:19Z</time>
      </trkpt>
      <trkpt lat="47.82871" lon="-2.9751">
        <ele>140.49</ele>
        <time>2020-08-08T09:53:26Z</time>
      </trkpt>
      <trkpt lat="47.82896" lon="-2.9753">
        <ele>140.49</ele>
        <time>2020-08-08T09:53:43Z</time>
      </trkpt>
      <trkpt lat="47.82908" lon="-2.97539">
        <ele>140.01</ele>
        <time>2020-08-08T09:53:53Z</time>
      </trkpt>
      <trkpt lat="47.82911" lon="-2.97543">
        <ele>140.49</ele>
        <time>2020-08-08T09:53:56Z</time>
      </trkpt>
      <trkpt lat="47.82922" lon="-2.97554">
        <ele>140.49</ele>
        <time>2020-08-08T09:54:09Z</time>
      </trkpt>
      <trkpt lat="47.82925" lon="-2.97557">
        <ele>140.49</ele>
        <time>2020-08-08T09:54:14Z</time>
      </trkpt>
      <trkpt lat="47.82928" lon="-2.97561">
        <ele>140.49</ele>
        <time>2020-08-08T09:54:18Z</time>
      </trkpt>
      <trkpt lat="47.82932" lon="-2.97565">
        <ele>140.01</ele>
        <time>2020-08-08T09:54:22Z</time>
      </trkpt>
      <trkpt lat="47.82939" lon="-2.97575">
        <ele>139.53</ele>
        <time>2020-08-08T09:54:31Z</time>
      </trkpt>
      <trkpt lat="47.82948" lon="-2.97586">
        <ele>138.57</ele>
        <time>2020-08-08T09:54:47Z</time>
      </trkpt>
      <trkpt lat="47.82948" lon="-2.97586">
        <ele>138.09</ele>
        <time>2020-08-08T09:54:48Z</time>
      </trkpt>
      <trkpt lat="47.82953" lon="-2.97593">
        <ele>138.09</ele>
        <time>2020-08-08T09:54:56Z</time>
      </trkpt>
      <trkpt lat="47.82963" lon="-2.97601">
        <ele>137.13</ele>
        <time>2020-08-08T09:55:11Z</time>
      </trkpt>
      <trkpt lat="47.82972" lon="-2.97612">
        <ele>136.16</ele>
        <time>2020-08-08T09:55:22Z</time>
      </trkpt>
      <trkpt lat="47.82975" lon="-2.97615">
        <ele>135.68</ele>
        <time>2020-08-08T09:55:25Z</time>
      </trkpt>
      <trkpt lat="47.82986" lon="-2.97626">
        <ele>135.68</ele>
        <time>2020-08-08T09:55:39Z</time>
      </trkpt>
      <trkpt lat="47.82998" lon="-2.97639">
        <ele>134.24</ele>
        <time>2020-08-08T09:55:53Z</time>
      </trkpt>
      <trkpt lat="47.8301" lon="-2.97651">
        <ele>133.76</ele>
        <time>2020-08-08T09:56:06Z</time>
      </trkpt>
      <trkpt lat="47.83021" lon="-2.97663">
        <ele>132.8</ele>
        <time>2020-08-08T09:56:16Z</time>
      </trkpt>
      <trkpt lat="47.83039" lon="-2.97684">
        <ele>132.8</ele>
        <time>2020-08-08T09:56:32Z</time>
      </trkpt>
      <trkpt lat="47.83047" lon="-2.97692">
        <ele>132.32</ele>
        <time>2020-08-08T09:56:41Z</time>
      </trkpt>
      <trkpt lat="47.8305" lon="-2.97697">
        <ele>132.32</ele>
        <time>2020-08-08T09:56:45Z</time>
      </trkpt>
      <trkpt lat="47.83061" lon="-2.97706">
        <ele>132.32</ele>
        <time>2020-08-08T09:56:57Z</time>
      </trkpt>
      <trkpt lat="47.83067" lon="-2.97713">
        <ele>132.32</ele>
        <time>2020-08-08T09:57:04Z</time>
      </trkpt>
      <trkpt lat="47.83077" lon="-2.97721">
        <ele>131.84</ele>
        <time>2020-08-08T09:57:17Z</time>
      </trkpt>
      <trkpt lat="47.8309" lon="-2.97741">
        <ele>131.84</ele>
        <time>2020-08-08T09:57:29Z</time>
      </trkpt>
      <trkpt lat="47.83097" lon="-2.97756">
        <ele>131.36</ele>
        <time>2020-08-08T09:57:41Z</time>
      </trkpt>
      <trkpt lat="47.83099" lon="-2.97757">
        <ele>131.36</ele>
        <time>2020-08-08T09:57:43Z</time>
      </trkpt>
      <trkpt lat="47.83111" lon="-2.97768">
        <ele>131.36</ele>
        <time>2020-08-08T09:57:55Z</time>
      </trkpt>
      <trkpt lat="47.83112" lon="-2.97769">
        <ele>131.36</ele>
        <time>2020-08-08T09:57:56Z</time>
      </trkpt>
      <trkpt lat="47.83117" lon="-2.97777">
        <ele>131.36</ele>
        <time>2020-08-08T09:58:01Z</time>
      </trkpt>
      <trkpt lat="47.83121" lon="-2.97783">
        <ele>131.36</ele>
        <time>2020-08-08T09:58:06Z</time>
      </trkpt>
      <trkpt lat="47.83138" lon="-2.97795">
        <ele>131.36</ele>
        <time>2020-08-08T09:58:23Z</time>
      </trkpt>
      <trkpt lat="47.83148" lon="-2.97807">
        <ele>131.84</ele>
        <time>2020-08-08T09:58:36Z</time>
      </trkpt>
      <trkpt lat="47.83154" lon="-2.97809">
        <ele>131.84</ele>
        <time>2020-08-08T09:58:40Z</time>
      </trkpt>
      <trkpt lat="47.83157" lon="-2.97811">
        <ele>131.84</ele>
        <time>2020-08-08T09:58:43Z</time>
      </trkpt>
      <trkpt lat="47.83168" lon="-2.97826">
        <ele>132.32</ele>
        <time>2020-08-08T09:58:56Z</time>
      </trkpt>
      <trkpt lat="47.83177" lon="-2.97829">
        <ele>131.84</ele>
        <time>2020-08-08T09:59:10Z</time>
      </trkpt>
      <trkpt lat="47.83177" lon="-2.97829">
        <ele>132.32</ele>
        <time>2020-08-08T09:59:11Z</time>
      </trkpt>
      <trkpt lat="47.8318" lon="-2.97839">
        <ele>132.32</ele>
        <time>2020-08-08T09:59:24Z</time>
      </trkpt>
      <trkpt lat="47.83189" lon="-2.97851">
        <ele>132.8</ele>
        <time>2020-08-08T09:59:36Z</time>
      </trkpt>
      <trkpt lat="47.83193" lon="-2.97855">
        <ele>132.8</ele>
        <time>2020-08-08T09:59:41Z</time>
      </trkpt>
      <trkpt lat="47.83199" lon="-2.97869">
        <ele>132.8</ele>
        <time>2020-08-08T09:59:56Z</time>
      </trkpt>
      <trkpt lat="47.83205" lon="-2.9788">
        <ele>133.28</ele>
        <time>2020-08-08T10:00:08Z</time>
      </trkpt>
      <trkpt lat="47.83215" lon="-2.979">
        <ele>133.76</ele>
        <time>2020-08-08T10:00:31Z</time>
      </trkpt>
      <trkpt lat="47.83215" lon="-2.97898">
        <ele>133.76</ele>
        <time>2020-08-08T10:00:49Z</time>
      </trkpt>
      <trkpt lat="47.83212" lon="-2.979">
        <ele>133.76</ele>
        <time>2020-08-08T10:01:06Z</time>
      </trkpt>
      <trkpt lat="47.83221" lon="-2.97902">
        <ele>134.24</ele>
        <time>2020-08-08T10:01:24Z</time>
      </trkpt>
      <trkpt lat="47.83234" lon="-2.97908">
        <ele>134.24</ele>
        <time>2020-08-08T10:01:38Z</time>
      </trkpt>
      <trkpt lat="47.83234" lon="-2.9791">
        <ele>134.24</ele>
        <time>2020-08-08T10:01:39Z</time>
      </trkpt>
      <trkpt lat="47.83242" lon="-2.97919">
        <ele>135.68</ele>
        <time>2020-08-08T10:01:52Z</time>
      </trkpt>
      <trkpt lat="47.83247" lon="-2.97924">
        <ele>135.68</ele>
        <time>2020-08-08T10:02:04Z</time>
      </trkpt>
      <trkpt lat="47.83258" lon="-2.97935">
        <ele>136.16</ele>
        <time>2020-08-08T10:02:15Z</time>
      </trkpt>
      <trkpt lat="47.83265" lon="-2.97943">
        <ele>136.64</ele>
        <time>2020-08-08T10:02:27Z</time>
      </trkpt>
      <trkpt lat="47.83272" lon="-2.97949">
        <ele>136.64</ele>
        <time>2020-08-08T10:02:39Z</time>
      </trkpt>
      <trkpt lat="47.83282" lon="-2.97955">
        <ele>136.64</ele>
        <time>2020-08-08T10:02:52Z</time>
      </trkpt>
      <trkpt lat="47.83288" lon="-2.9796">
        <ele>136.16</ele>
        <time>2020-08-08T10:03:06Z</time>
      </trkpt>
      <trkpt lat="47.83305" lon="-2.97963">
        <ele>137.13</ele>
        <time>2020-08-08T10:03:23Z</time>
      </trkpt>
      <trkpt lat="47.83312" lon="-2.97963">
        <ele>136.16</ele>
        <time>2020-08-08T10:03:38Z</time>
      </trkpt>
      <trkpt lat="47.83322" lon="-2.97949">
        <ele>137.61</ele>
        <time>2020-08-08T10:03:51Z</time>
      </trkpt>
      <trkpt lat="47.83334" lon="-2.97937">
        <ele>137.61</ele>
        <time>2020-08-08T10:04:06Z</time>
      </trkpt>
      <trkpt lat="47.83335" lon="-2.97936">
        <ele>137.61</ele>
        <time>2020-08-08T10:04:07Z</time>
      </trkpt>
      <trkpt lat="47.83357" lon="-2.97926">
        <ele>137.61</ele>
        <time>2020-08-08T10:04:24Z</time>
      </trkpt>
      <trkpt lat="47.83366" lon="-2.97931">
        <ele>137.61</ele>
        <time>2020-08-08T10:04:37Z</time>
      </trkpt>
      <trkpt lat="47.83375" lon="-2.97935">
        <ele>138.09</ele>
        <time>2020-08-08T10:04:53Z</time>
      </trkpt>
      <trkpt lat="47.83389" lon="-2.97929">
        <ele>137.61</ele>
        <time>2020-08-08T10:05:02Z</time>
      </trkpt>
      <trkpt lat="47.83399" lon="-2.97939">
        <ele>137.61</ele>
        <time>2020-08-08T10:05:15Z</time>
      </trkpt>
      <trkpt lat="47.83408" lon="-2.97959">
        <ele>138.09</ele>
        <time>2020-08-08T10:05:28Z</time>
      </trkpt>
      <trkpt lat="47.83418" lon="-2.97979">
        <ele>137.13</ele>
        <time>2020-08-08T10:05:42Z</time>
      </trkpt>
      <trkpt lat="47.8342" lon="-2.97981">
        <ele>137.61</ele>
        <time>2020-08-08T10:05:44Z</time>
      </trkpt>
      <trkpt lat="47.83423" lon="-2.9799">
        <ele>137.13</ele>
        <time>2020-08-08T10:05:50Z</time>
      </trkpt>
      <trkpt lat="47.83431" lon="-2.98017">
        <ele>136.64</ele>
        <time>2020-08-08T10:06:05Z</time>
      </trkpt>
      <trkpt lat="47.83435" lon="-2.98032">
        <ele>136.64</ele>
        <time>2020-08-08T10:06:15Z</time>
      </trkpt>
      <trkpt lat="47.83439" lon="-2.98051">
        <ele>136.16</ele>
        <time>2020-08-08T10:06:28Z</time>
      </trkpt>
      <trkpt lat="47.83441" lon="-2.98054">
        <ele>136.16</ele>
        <time>2020-08-08T10:06:30Z</time>
      </trkpt>
      <trkpt lat="47.83446" lon="-2.98069">
        <ele>135.68</ele>
        <time>2020-08-08T10:06:40Z</time>
      </trkpt>
      <trkpt lat="47.83447" lon="-2.98073">
        <ele>136.16</ele>
        <time>2020-08-08T10:06:43Z</time>
      </trkpt>
      <trkpt lat="47.83455" lon="-2.98093">
        <ele>135.2</ele>
        <time>2020-08-08T10:06:56Z</time>
      </trkpt>
      <trkpt lat="47.83459" lon="-2.98104">
        <ele>134.72</ele>
        <time>2020-08-08T10:07:04Z</time>
      </trkpt>
      <trkpt lat="47.83462" lon="-2.98113">
        <ele>134.72</ele>
        <time>2020-08-08T10:07:10Z</time>
      </trkpt>
      <trkpt lat="47.83464" lon="-2.98116">
        <ele>134.72</ele>
        <time>2020-08-08T10:07:12Z</time>
      </trkpt>
      <trkpt lat="47.83465" lon="-2.98119">
        <ele>134.72</ele>
        <time>2020-08-08T10:07:14Z</time>
      </trkpt>
      <trkpt lat="47.83471" lon="-2.98129">
        <ele>134.24</ele>
        <time>2020-08-08T10:07:21Z</time>
      </trkpt>
      <trkpt lat="47.83472" lon="-2.98131">
        <ele>134.24</ele>
        <time>2020-08-08T10:07:23Z</time>
      </trkpt>
      <trkpt lat="47.83474" lon="-2.98135">
        <ele>134.24</ele>
        <time>2020-08-08T10:07:26Z</time>
      </trkpt>
      <trkpt lat="47.83481" lon="-2.98149">
        <ele>134.24</ele>
        <time>2020-08-08T10:07:36Z</time>
      </trkpt>
      <trkpt lat="47.83489" lon="-2.9817">
        <ele>134.24</ele>
        <time>2020-08-08T10:07:51Z</time>
      </trkpt>
      <trkpt lat="47.83489" lon="-2.9817">
        <ele>133.76</ele>
        <time>2020-08-08T10:07:52Z</time>
      </trkpt>
      <trkpt lat="47.83491" lon="-2.98177">
        <ele>134.24</ele>
        <time>2020-08-08T10:07:56Z</time>
      </trkpt>
      <trkpt lat="47.835" lon="-2.98194">
        <ele>133.76</ele>
        <time>2020-08-08T10:08:08Z</time>
      </trkpt>
      <trkpt lat="47.83507" lon="-2.9821">
        <ele>133.76</ele>
        <time>2020-08-08T10:08:20Z</time>
      </trkpt>
      <trkpt lat="47.83512" lon="-2.9822">
        <ele>133.76</ele>
        <time>2020-08-08T10:08:29Z</time>
      </trkpt>
      <trkpt lat="47.8352" lon="-2.98235">
        <ele>133.28</ele>
        <time>2020-08-08T10:08:41Z</time>
      </trkpt>
      <trkpt lat="47.83523" lon="-2.9824">
        <ele>133.28</ele>
        <time>2020-08-08T10:08:46Z</time>
      </trkpt>
      <trkpt lat="47.83524" lon="-2.98242">
        <ele>133.28</ele>
        <time>2020-08-08T10:08:48Z</time>
      </trkpt>
      <trkpt lat="47.83531" lon="-2.98257">
        <ele>132.8</ele>
        <time>2020-08-08T10:09:00Z</time>
      </trkpt>
      <trkpt lat="47.83533" lon="-2.98261">
        <ele>132.8</ele>
        <time>2020-08-08T10:09:04Z</time>
      </trkpt>
      <trkpt lat="47.83543" lon="-2.98279">
        <ele>131.84</ele>
        <time>2020-08-08T10:09:18Z</time>
      </trkpt>
      <trkpt lat="47.83546" lon="-2.98283">
        <ele>131.84</ele>
        <time>2020-08-08T10:09:22Z</time>
      </trkpt>
      <trkpt lat="47.83548" lon="-2.98287">
        <ele>131.84</ele>
        <time>2020-08-08T10:09:26Z</time>
      </trkpt>
      <trkpt lat="47.83553" lon="-2.98296">
        <ele>131.36</ele>
        <time>2020-08-08T10:09:34Z</time>
      </trkpt>
      <trkpt lat="47.83556" lon="-2.98304">
        <ele>131.36</ele>
        <time>2020-08-08T10:09:45Z</time>
      </trkpt>
      <trkpt lat="47.83561" lon="-2.98313">
        <ele>131.36</ele>
        <time>2020-08-08T10:09:53Z</time>
      </trkpt>
      <trkpt lat="47.83563" lon="-2.98315">
        <ele>131.36</ele>
        <time>2020-08-08T10:09:55Z</time>
      </trkpt>
      <trkpt lat="47.83572" lon="-2.98333">
        <ele>130.88</ele>
        <time>2020-08-08T10:10:08Z</time>
      </trkpt>
      <trkpt lat="47.83576" lon="-2.98343">
        <ele>130.88</ele>
        <time>2020-08-08T10:10:16Z</time>
      </trkpt>
      <trkpt lat="47.83578" lon="-2.98347">
        <ele>130.88</ele>
        <time>2020-08-08T10:10:21Z</time>
      </trkpt>
      <trkpt lat="47.83581" lon="-2.98355">
        <ele>130.88</ele>
        <time>2020-08-08T10:10:27Z</time>
      </trkpt>
      <trkpt lat="47.83585" lon="-2.98364">
        <ele>130.88</ele>
        <time>2020-08-08T10:10:37Z</time>
      </trkpt>
      <trkpt lat="47.83587" lon="-2.98366">
        <ele>131.36</ele>
        <time>2020-08-08T10:10:39Z</time>
      </trkpt>
      <trkpt lat="47.83589" lon="-2.98368">
        <ele>130.88</ele>
        <time>2020-08-08T10:10:42Z</time>
      </trkpt>
      <trkpt lat="47.83595" lon="-2.98373">
        <ele>130.88</ele>
        <time>2020-08-08T10:10:48Z</time>
      </trkpt>
      <trkpt lat="47.83598" lon="-2.98374">
        <ele>130.4</ele>
        <time>2020-08-08T10:10:51Z</time>
      </trkpt>
      <trkpt lat="47.83608" lon="-2.9838">
        <ele>129.92</ele>
        <time>2020-08-08T10:11:05Z</time>
      </trkpt>
      <trkpt lat="47.8361" lon="-2.98377">
        <ele>129.43</ele>
        <time>2020-08-08T10:11:19Z</time>
      </trkpt>
      <trkpt lat="47.8361" lon="-2.98376">
        <ele>129.43</ele>
        <time>2020-08-08T10:11:20Z</time>
      </trkpt>
      <trkpt lat="47.83609" lon="-2.98369">
        <ele>128.95</ele>
        <time>2020-08-08T10:11:27Z</time>
      </trkpt>
      <trkpt lat="47.83609" lon="-2.98363">
        <ele>128.95</ele>
        <time>2020-08-08T10:11:42Z</time>
      </trkpt>
      <trkpt lat="47.83606" lon="-2.98364">
        <ele>129.43</ele>
        <time>2020-08-08T10:11:55Z</time>
      </trkpt>
      <trkpt lat="47.83606" lon="-2.98364">
        <ele>128.95</ele>
        <time>2020-08-08T10:12:10Z</time>
      </trkpt>
      <trkpt lat="47.83606" lon="-2.98364">
        <ele>128.47</ele>
        <time>2020-08-08T10:12:27Z</time>
      </trkpt>
      <trkpt lat="47.83606" lon="-2.98364">
        <ele>128.47</ele>
        <time>2020-08-08T10:12:28Z</time>
      </trkpt>
    </trkseg>
  </trk>
  <trk>
    <name><![CDATA[20-08-09]]></name>
    <trkseg>
      <trkpt lat="47.67147" lon="-3.19891">
        <ele>39.07</ele>
        <time>2020-08-09T07:39:16Z</time>
      </trkpt>
      <trkpt lat="47.67159" lon="-3.19894">
        <ele>16.96</ele>
        <time>2020-08-09T07:39:30Z</time>
      </trkpt>
      <trkpt lat="47.67164" lon="-3.19893">
        <ele>16.96</ele>
        <time>2020-08-09T07:39:54Z</time>
      </trkpt>
      <trkpt lat="47.67165" lon="-3.19897">
        <ele>15.52</ele>
        <time>2020-08-09T07:40:04Z</time>
      </trkpt>
      <trkpt lat="47.67167" lon="-3.19899">
        <ele>14.08</ele>
        <time>2020-08-09T07:40:08Z</time>
      </trkpt>
      <trkpt lat="47.67171" lon="-3.19904">
        <ele>11.67</ele>
        <time>2020-08-09T07:40:14Z</time>
      </trkpt>
      <trkpt lat="47.67174" lon="-3.19907">
        <ele>10.71</ele>
        <time>2020-08-09T07:40:19Z</time>
      </trkpt>
      <trkpt lat="47.6718" lon="-3.19915">
        <ele>10.23</ele>
        <time>2020-08-09T07:40:25Z</time>
      </trkpt>
      <trkpt lat="47.67187" lon="-3.19927">
        <ele>10.23</ele>
        <time>2020-08-09T07:40:34Z</time>
      </trkpt>
      <trkpt lat="47.67198" lon="-3.19936">
        <ele>10.23</ele>
        <time>2020-08-09T07:40:46Z</time>
      </trkpt>
      <trkpt lat="47.67204" lon="-3.19941">
        <ele>9.75</ele>
        <time>2020-08-09T07:40:54Z</time>
      </trkpt>
      <trkpt lat="47.67212" lon="-3.19949">
        <ele>9.27</ele>
        <time>2020-08-09T07:41:09Z</time>
      </trkpt>
      <trkpt lat="47.67212" lon="-3.19951">
        <ele>9.27</ele>
        <time>2020-08-09T07:41:29Z</time>
      </trkpt>
      <trkpt lat="47.67214" lon="-3.19953">
        <ele>9.75</ele>
        <time>2020-08-09T07:42:02Z</time>
      </trkpt>
      <trkpt lat="47.67214" lon="-3.19954">
        <ele>9.27</ele>
        <time>2020-08-09T07:42:25Z</time>
      </trkpt>
      <trkpt lat="47.67214" lon="-3.19954">
        <ele>9.75</ele>
        <time>2020-08-09T07:42:29Z</time>
      </trkpt>
      <trkpt lat="47.67213" lon="-3.19953">
        <ele>9.75</ele>
        <time>2020-08-09T07:42:39Z</time>
      </trkpt>
      <trkpt lat="47.67214" lon="-3.19953">
        <ele>9.75</ele>
        <time>2020-08-09T07:42:54Z</time>
      </trkpt>
      <trkpt lat="47.67216" lon="-3.19952">
        <ele>9.75</ele>
        <time>2020-08-09T07:43:21Z</time>
      </trkpt>
      <trkpt lat="47.67217" lon="-3.19953">
        <ele>9.27</ele>
        <time>2020-08-09T07:43:44Z</time>
      </trkpt>
      <trkpt lat="47.67218" lon="-3.19952">
        <ele>9.75</ele>
        <time>2020-08-09T07:44:04Z</time>
      </trkpt>
      <trkpt lat="47.67218" lon="-3.19952">
        <ele>9.75</ele>
        <time>2020-08-09T07:44:21Z</time>
      </trkpt>
      <trkpt lat="47.67219" lon="-3.19952">
        <ele>9.27</ele>
        <time>2020-08-09T07:44:44Z</time>
      </trkpt>
      <trkpt lat="47.67219" lon="-3.19952">
        <ele>9.75</ele>
        <time>2020-08-09T07:45:04Z</time>
      </trkpt>
      <trkpt lat="47.67219" lon="-3.19952">
        <ele>10.23</ele>
        <time>2020-08-09T07:45:30Z</time>
      </trkpt>
      <trkpt lat="47.67219" lon="-3.19952">
        <ele>10.71</ele>
        <time>2020-08-09T07:45:50Z</time>
      </trkpt>
      <trkpt lat="47.67219" lon="-3.19952">
        <ele>9.75</ele>
        <time>2020-08-09T07:46:10Z</time>
      </trkpt>
      <trkpt lat="47.67219" lon="-3.19953">
        <ele>10.23</ele>
        <time>2020-08-09T07:46:35Z</time>
      </trkpt>
      <trkpt lat="47.67219" lon="-3.19952">
        <ele>10.23</ele>
        <time>2020-08-09T07:46:57Z</time>
      </trkpt>
      <trkpt lat="47.67219" lon="-3.19952">
        <ele>10.23</ele>
        <time>2020-08-09T07:47:22Z</time>
      </trkpt>
      <trkpt lat="47.67219" lon="-3.19952">
        <ele>10.23</ele>
        <time>2020-08-09T07:47:39Z</time>
      </trkpt>
      <trkpt lat="47.67218" lon="-3.19952">
        <ele>10.23</ele>
        <time>2020-08-09T07:48:00Z</time>
      </trkpt>
      <trkpt lat="47.67218" lon="-3.1995">
        <ele>10.23</ele>
        <time>2020-08-09T07:48:15Z</time>
      </trkpt>
      <trkpt lat="47.67217" lon="-3.1995">
        <ele>10.71</ele>
        <time>2020-08-09T07:48:35Z</time>
      </trkpt>
      <trkpt lat="47.67216" lon="-3.19951">
        <ele>10.23</ele>
        <time>2020-08-09T07:48:45Z</time>
      </trkpt>
      <trkpt lat="47.6721" lon="-3.19949">
        <ele>10.23</ele>
        <time>2020-08-09T07:48:52Z</time>
      </trkpt>
      <trkpt lat="47.67203" lon="-3.19941">
        <ele>11.67</ele>
        <time>2020-08-09T07:49:01Z</time>
      </trkpt>
      <trkpt lat="47.67198" lon="-3.19938">
        <ele>11.19</ele>
        <time>2020-08-09T07:49:06Z</time>
      </trkpt>
      <trkpt lat="47.67195" lon="-3.19935">
        <ele>11.19</ele>
        <time>2020-08-09T07:49:10Z</time>
      </trkpt>
      <trkpt lat="47.67194" lon="-3.19933">
        <ele>11.67</ele>
        <time>2020-08-09T07:49:12Z</time>
      </trkpt>
      <trkpt lat="47.67178" lon="-3.19919">
        <ele>12.15</ele>
        <time>2020-08-09T07:49:28Z</time>
      </trkpt>
      <trkpt lat="47.67171" lon="-3.19918">
        <ele>11.67</ele>
        <time>2020-08-09T07:49:37Z</time>
      </trkpt>
      <trkpt lat="47.67169" lon="-3.19918">
        <ele>11.67</ele>
        <time>2020-08-09T07:49:39Z</time>
      </trkpt>
      <trkpt lat="47.67162" lon="-3.19915">
        <ele>12.63</ele>
        <time>2020-08-09T07:49:47Z</time>
      </trkpt>
      <trkpt lat="47.67155" lon="-3.1991">
        <ele>12.15</ele>
        <time>2020-08-09T07:49:55Z</time>
      </trkpt>
      <trkpt lat="47.67153" lon="-3.19907">
        <ele>12.15</ele>
        <time>2020-08-09T07:49:58Z</time>
      </trkpt>
      <trkpt lat="47.67153" lon="-3.19899">
        <ele>12.63</ele>
        <time>2020-08-09T07:50:07Z</time>
      </trkpt>
      <trkpt lat="47.67149" lon="-3.1989">
        <ele>12.15</ele>
        <time>2020-08-09T07:50:22Z</time>
      </trkpt>
      <trkpt lat="47.67147" lon="-3.19895">
        <ele>10.71</ele>
        <time>2020-08-09T07:50:34Z</time>
      </trkpt>
      <trkpt lat="47.67141" lon="-3.19903">
        <ele>10.23</ele>
        <time>2020-08-09T07:50:44Z</time>
      </trkpt>
      <trkpt lat="47.67138" lon="-3.19907">
        <ele>9.75</ele>
        <time>2020-08-09T07:50:47Z</time>
      </trkpt>
      <trkpt lat="47.67131" lon="-3.19921">
        <ele>8.79</ele>
        <time>2020-08-09T07:51:02Z</time>
      </trkpt>
      <trkpt lat="47.67126" lon="-3.19928">
        <ele>7.35</ele>
        <time>2020-08-09T07:51:17Z</time>
      </trkpt>
      <trkpt lat="47.67119" lon="-3.19936">
        <ele>6.39</ele>
        <time>2020-08-09T07:51:28Z</time>
      </trkpt>
      <trkpt lat="47.67111" lon="-3.19943">
        <ele>7.83</ele>
        <time>2020-08-09T07:51:41Z</time>
      </trkpt>
      <trkpt lat="47.67088" lon="-3.19953">
        <ele>8.79</ele>
        <time>2020-08-09T07:51:53Z</time>
      </trkpt>
      <trkpt lat="47.67081" lon="-3.19961">
        <ele>9.27</ele>
        <time>2020-08-09T07:52:04Z</time>
      </trkpt>
      <trkpt lat="47.67076" lon="-3.19967">
        <ele>10.23</ele>
        <time>2020-08-09T07:52:15Z</time>
      </trkpt>
      <trkpt lat="47.67085" lon="-3.19981">
        <ele>11.19</ele>
        <time>2020-08-09T07:52:27Z</time>
      </trkpt>
      <trkpt lat="47.67086" lon="-3.19982">
        <ele>11.67</ele>
        <time>2020-08-09T07:52:28Z</time>
      </trkpt>
      <trkpt lat="47.67091" lon="-3.1999">
        <ele>11.19</ele>
        <time>2020-08-09T07:52:33Z</time>
      </trkpt>
      <trkpt lat="47.67103" lon="-3.20014">
        <ele>11.19</ele>
        <time>2020-08-09T07:52:45Z</time>
      </trkpt>
      <trkpt lat="47.67117" lon="-3.20035">
        <ele>10.71</ele>
        <time>2020-08-09T07:53:02Z</time>
      </trkpt>
      <trkpt lat="47.67124" lon="-3.20043">
        <ele>11.19</ele>
        <time>2020-08-09T07:53:10Z</time>
      </trkpt>
      <trkpt lat="47.6713" lon="-3.20054">
        <ele>12.15</ele>
        <time>2020-08-09T07:53:20Z</time>
      </trkpt>
      <trkpt lat="47.67146" lon="-3.20068">
        <ele>13.12</ele>
        <time>2020-08-09T07:53:35Z</time>
      </trkpt>
      <trkpt lat="47.67153" lon="-3.20076">
        <ele>12.63</ele>
        <time>2020-08-09T07:53:43Z</time>
      </trkpt>
      <trkpt lat="47.67157" lon="-3.2008">
        <ele>12.63</ele>
        <time>2020-08-09T07:53:47Z</time>
      </trkpt>
      <trkpt lat="47.67167" lon="-3.20092">
        <ele>11.67</ele>
        <time>2020-08-09T07:54:00Z</time>
      </trkpt>
      <trkpt lat="47.67168" lon="-3.20097">
        <ele>11.67</ele>
        <time>2020-08-09T07:54:03Z</time>
      </trkpt>
      <trkpt lat="47.6717" lon="-3.20108">
        <ele>11.67</ele>
        <time>2020-08-09T07:54:16Z</time>
      </trkpt>
      <trkpt lat="47.67171" lon="-3.2011">
        <ele>11.67</ele>
        <time>2020-08-09T07:54:23Z</time>
      </trkpt>
      <trkpt lat="47.6717" lon="-3.2012">
        <ele>12.15</ele>
        <time>2020-08-09T07:54:34Z</time>
      </trkpt>
      <trkpt lat="47.67173" lon="-3.20137">
        <ele>11.19</ele>
        <time>2020-08-09T07:54:46Z</time>
      </trkpt>
      <trkpt lat="47.67175" lon="-3.20152">
        <ele>10.71</ele>
        <time>2020-08-09T07:54:58Z</time>
      </trkpt>
      <trkpt lat="47.67177" lon="-3.20165">
        <ele>9.75</ele>
        <time>2020-08-09T07:55:10Z</time>
      </trkpt>
      <trkpt lat="47.67177" lon="-3.20176">
        <ele>9.27</ele>
        <time>2020-08-09T07:55:22Z</time>
      </trkpt>
      <trkpt lat="47.67178" lon="-3.20184">
        <ele>8.79</ele>
        <time>2020-08-09T07:55:43Z</time>
      </trkpt>
      <trkpt lat="47.67179" lon="-3.20185">
        <ele>8.79</ele>
        <time>2020-08-09T07:55:55Z</time>
      </trkpt>
      <trkpt lat="47.67175" lon="-3.20187">
        <ele>8.79</ele>
        <time>2020-08-09T07:56:01Z</time>
      </trkpt>
      <trkpt lat="47.67171" lon="-3.20186">
        <ele>9.27</ele>
        <time>2020-08-09T07:56:05Z</time>
      </trkpt>
      <trkpt lat="47.67159" lon="-3.20186">
        <ele>9.27</ele>
        <time>2020-08-09T07:56:21Z</time>
      </trkpt>
      <trkpt lat="47.67156" lon="-3.20187">
        <ele>8.79</ele>
        <time>2020-08-09T07:56:26Z</time>
      </trkpt>
      <trkpt lat="47.6714" lon="-3.20178">
        <ele>9.27</ele>
        <time>2020-08-09T07:56:41Z</time>
      </trkpt>
      <trkpt lat="47.67137" lon="-3.20178">
        <ele>8.79</ele>
        <time>2020-08-09T07:56:55Z</time>
      </trkpt>
      <trkpt lat="47.67133" lon="-3.20174">
        <ele>8.79</ele>
        <time>2020-08-09T07:57:09Z</time>
      </trkpt>
      <trkpt lat="47.67124" lon="-3.20173">
        <ele>9.27</ele>
        <time>2020-08-09T07:57:16Z</time>
      </trkpt>
      <trkpt lat="47.67116" lon="-3.20167">
        <ele>8.79</ele>
        <time>2020-08-09T07:57:25Z</time>
      </trkpt>
      <trkpt lat="47.67115" lon="-3.20164">
        <ele>8.31</ele>
        <time>2020-08-09T07:57:28Z</time>
      </trkpt>
      <trkpt lat="47.67104" lon="-3.20147">
        <ele>9.75</ele>
        <time>2020-08-09T07:57:43Z</time>
      </trkpt>
      <trkpt lat="47.67103" lon="-3.20145">
        <ele>9.75</ele>
        <time>2020-08-09T07:57:45Z</time>
      </trkpt>
      <trkpt lat="47.67092" lon="-3.20138">
        <ele>9.75</ele>
        <time>2020-08-09T07:57:57Z</time>
      </trkpt>
      <trkpt lat="47.6709" lon="-3.20137">
        <ele>8.79</ele>
        <time>2020-08-09T07:58:01Z</time>
      </trkpt>
      <trkpt lat="47.67084" lon="-3.20132">
        <ele>9.75</ele>
        <time>2020-08-09T07:58:09Z</time>
      </trkpt>
      <trkpt lat="47.6707" lon="-3.20132">
        <ele>8.79</ele>
        <time>2020-08-09T07:58:24Z</time>
      </trkpt>
      <trkpt lat="47.67065" lon="-3.20138">
        <ele>6.39</ele>
        <time>2020-08-09T07:58:38Z</time>
      </trkpt>
      <trkpt lat="47.67055" lon="-3.20144">
        <ele>5.91</ele>
        <time>2020-08-09T07:58:50Z</time>
      </trkpt>
      <trkpt lat="47.67049" lon="-3.20147">
        <ele>6.39</ele>
        <time>2020-08-09T07:58:56Z</time>
      </trkpt>
      <trkpt lat="47.67032" lon="-3.20145">
        <ele>5.91</ele>
        <time>2020-08-09T07:59:10Z</time>
      </trkpt>
      <trkpt lat="47.67029" lon="-3.20145">
        <ele>6.39</ele>
        <time>2020-08-09T07:59:13Z</time>
      </trkpt>
      <trkpt lat="47.67015" lon="-3.20148">
        <ele>6.39</ele>
        <time>2020-08-09T07:59:27Z</time>
      </trkpt>
      <trkpt lat="47.67013" lon="-3.20147">
        <ele>5.91</ele>
        <time>2020-08-09T07:59:44Z</time>
      </trkpt>
      <trkpt lat="47.67013" lon="-3.20148">
        <ele>5.91</ele>
        <time>2020-08-09T07:59:48Z</time>
      </trkpt>
      <trkpt lat="47.67007" lon="-3.20147">
        <ele>5.91</ele>
        <time>2020-08-09T07:59:52Z</time>
      </trkpt>
      <trkpt lat="47.67" lon="-3.20145">
        <ele>5.91</ele>
        <time>2020-08-09T07:59:59Z</time>
      </trkpt>
      <trkpt lat="47.66994" lon="-3.20157">
        <ele>6.39</ele>
        <time>2020-08-09T08:00:14Z</time>
      </trkpt>
      <trkpt lat="47.66994" lon="-3.20165">
        <ele>6.39</ele>
        <time>2020-08-09T08:00:21Z</time>
      </trkpt>
      <trkpt lat="47.66994" lon="-3.20173">
        <ele>6.39</ele>
        <time>2020-08-09T08:00:27Z</time>
      </trkpt>
      <trkpt lat="47.66993" lon="-3.20182">
        <ele>6.39</ele>
        <time>2020-08-09T08:00:35Z</time>
      </trkpt>
      <trkpt lat="47.66993" lon="-3.20185">
        <ele>6.39</ele>
        <time>2020-08-09T08:00:37Z</time>
      </trkpt>
      <trkpt lat="47.66992" lon="-3.20188">
        <ele>5.91</ele>
        <time>2020-08-09T08:00:41Z</time>
      </trkpt>
      <trkpt lat="47.66991" lon="-3.20194">
        <ele>6.39</ele>
        <time>2020-08-09T08:00:46Z</time>
      </trkpt>
      <trkpt lat="47.66995" lon="-3.20212">
        <ele>6.87</ele>
        <time>2020-08-09T08:00:59Z</time>
      </trkpt>
      <trkpt lat="47.66996" lon="-3.20214">
        <ele>6.39</ele>
        <time>2020-08-09T08:01:03Z</time>
      </trkpt>
      <trkpt lat="47.67003" lon="-3.20233">
        <ele>6.39</ele>
        <time>2020-08-09T08:01:18Z</time>
      </trkpt>
      <trkpt lat="47.67004" lon="-3.20235">
        <ele>7.35</ele>
        <time>2020-08-09T08:01:25Z</time>
      </trkpt>
      <trkpt lat="47.67005" lon="-3.20238">
        <ele>6.87</ele>
        <time>2020-08-09T08:01:27Z</time>
      </trkpt>
      <trkpt lat="47.67005" lon="-3.20245">
        <ele>6.87</ele>
        <time>2020-08-09T08:01:31Z</time>
      </trkpt>
      <trkpt lat="47.67004" lon="-3.20252">
        <ele>6.87</ele>
        <time>2020-08-09T08:01:37Z</time>
      </trkpt>
      <trkpt lat="47.67009" lon="-3.20272">
        <ele>7.35</ele>
        <time>2020-08-09T08:01:50Z</time>
      </trkpt>
      <trkpt lat="47.6701" lon="-3.20281">
        <ele>7.35</ele>
        <time>2020-08-09T08:01:57Z</time>
      </trkpt>
      <trkpt lat="47.67013" lon="-3.2029">
        <ele>6.39</ele>
        <time>2020-08-09T08:02:03Z</time>
      </trkpt>
      <trkpt lat="47.67018" lon="-3.20312">
        <ele>6.39</ele>
        <time>2020-08-09T08:02:16Z</time>
      </trkpt>
      <trkpt lat="47.67019" lon="-3.20315">
        <ele>5.91</ele>
        <time>2020-08-09T08:02:18Z</time>
      </trkpt>
      <trkpt lat="47.67021" lon="-3.20326">
        <ele>5.91</ele>
        <time>2020-08-09T08:02:26Z</time>
      </trkpt>
      <trkpt lat="47.6702" lon="-3.2033">
        <ele>6.39</ele>
        <time>2020-08-09T08:02:29Z</time>
      </trkpt>
      <trkpt lat="47.67022" lon="-3.20335">
        <ele>5.91</ele>
        <time>2020-08-09T08:02:33Z</time>
      </trkpt>
      <trkpt lat="47.67019" lon="-3.2034">
        <ele>5.91</ele>
        <time>2020-08-09T08:02:39Z</time>
      </trkpt>
      <trkpt lat="47.67018" lon="-3.20342">
        <ele>6.39</ele>
        <time>2020-08-09T08:02:46Z</time>
      </trkpt>
      <trkpt lat="47.67" lon="-3.20341">
        <ele>6.39</ele>
        <time>2020-08-09T08:03:02Z</time>
      </trkpt>
      <trkpt lat="47.66984" lon="-3.20339">
        <ele>7.35</ele>
        <time>2020-08-09T08:03:17Z</time>
      </trkpt>
      <trkpt lat="47.66969" lon="-3.20345">
        <ele>6.87</ele>
        <time>2020-08-09T08:03:33Z</time>
      </trkpt>
      <trkpt lat="47.66965" lon="-3.20344">
        <ele>7.35</ele>
        <time>2020-08-09T08:03:38Z</time>
      </trkpt>
      <trkpt lat="47.66956" lon="-3.20353">
        <ele>7.35</ele>
        <time>2020-08-09T08:03:53Z</time>
      </trkpt>
      <trkpt lat="47.66954" lon="-3.20357">
        <ele>7.35</ele>
        <time>2020-08-09T08:03:57Z</time>
      </trkpt>
      <trkpt lat="47.66952" lon="-3.20364">
        <ele>7.35</ele>
        <time>2020-08-09T08:04:08Z</time>
      </trkpt>
      <trkpt lat="47.66949" lon="-3.20373">
        <ele>7.35</ele>
        <time>2020-08-09T08:04:27Z</time>
      </trkpt>
      <trkpt lat="47.66943" lon="-3.20378">
        <ele>7.83</ele>
        <time>2020-08-09T08:04:36Z</time>
      </trkpt>
      <trkpt lat="47.66939" lon="-3.20386">
        <ele>7.83</ele>
        <time>2020-08-09T08:04:46Z</time>
      </trkpt>
      <trkpt lat="47.66937" lon="-3.20391">
        <ele>8.31</ele>
        <time>2020-08-09T08:05:01Z</time>
      </trkpt>
      <trkpt lat="47.66934" lon="-3.204">
        <ele>7.35</ele>
        <time>2020-08-09T08:05:13Z</time>
      </trkpt>
      <trkpt lat="47.66926" lon="-3.20416">
        <ele>7.83</ele>
        <time>2020-08-09T08:05:26Z</time>
      </trkpt>
      <trkpt lat="47.66915" lon="-3.20432">
        <ele>5.91</ele>
        <time>2020-08-09T08:05:42Z</time>
      </trkpt>
      <trkpt lat="47.66907" lon="-3.20443">
        <ele>5.91</ele>
        <time>2020-08-09T08:05:51Z</time>
      </trkpt>
      <trkpt lat="47.66908" lon="-3.20454">
        <ele>5.42</ele>
        <time>2020-08-09T08:05:58Z</time>
      </trkpt>
      <trkpt lat="47.66912" lon="-3.20462">
        <ele>5.91</ele>
        <time>2020-08-09T08:06:09Z</time>
      </trkpt>
      <trkpt lat="47.66917" lon="-3.20471">
        <ele>5.91</ele>
        <time>2020-08-09T08:06:23Z</time>
      </trkpt>
      <trkpt lat="47.66922" lon="-3.20481">
        <ele>6.39</ele>
        <time>2020-08-09T08:06:36Z</time>
      </trkpt>
      <trkpt lat="47.66927" lon="-3.20485">
        <ele>5.91</ele>
        <time>2020-08-09T08:06:41Z</time>
      </trkpt>
      <trkpt lat="47.66938" lon="-3.20501">
        <ele>7.35</ele>
        <time>2020-08-09T08:06:56Z</time>
      </trkpt>
      <trkpt lat="47.66941" lon="-3.20504">
        <ele>7.35</ele>
        <time>2020-08-09T08:07:00Z</time>
      </trkpt>
      <trkpt lat="47.66946" lon="-3.20506">
        <ele>7.83</ele>
        <time>2020-08-09T08:07:04Z</time>
      </trkpt>
      <trkpt lat="47.66961" lon="-3.20506">
        <ele>7.83</ele>
        <time>2020-08-09T08:07:19Z</time>
      </trkpt>
      <trkpt lat="47.66972" lon="-3.20507">
        <ele>8.31</ele>
        <time>2020-08-09T08:07:31Z</time>
      </trkpt>
      <trkpt lat="47.6698" lon="-3.20503">
        <ele>7.83</ele>
        <time>2020-08-09T08:07:41Z</time>
      </trkpt>
      <trkpt lat="47.66983" lon="-3.20503">
        <ele>7.35</ele>
        <time>2020-08-09T08:07:44Z</time>
      </trkpt>
      <trkpt lat="47.66987" lon="-3.20504">
        <ele>7.35</ele>
        <time>2020-08-09T08:07:47Z</time>
      </trkpt>
      <trkpt lat="47.66994" lon="-3.20517">
        <ele>6.87</ele>
        <time>2020-08-09T08:08:03Z</time>
      </trkpt>
      <trkpt lat="47.6699" lon="-3.20524">
        <ele>8.31</ele>
        <time>2020-08-09T08:08:17Z</time>
      </trkpt>
      <trkpt lat="47.6699" lon="-3.20524">
        <ele>8.31</ele>
        <time>2020-08-09T08:08:36Z</time>
      </trkpt>
      <trkpt lat="47.66987" lon="-3.2053">
        <ele>8.31</ele>
        <time>2020-08-09T08:08:56Z</time>
      </trkpt>
      <trkpt lat="47.66985" lon="-3.20533">
        <ele>8.79</ele>
        <time>2020-08-09T08:09:00Z</time>
      </trkpt>
      <trkpt lat="47.66982" lon="-3.20545">
        <ele>9.27</ele>
        <time>2020-08-09T08:09:10Z</time>
      </trkpt>
      <trkpt lat="47.66977" lon="-3.20555">
        <ele>10.23</ele>
        <time>2020-08-09T08:09:19Z</time>
      </trkpt>
      <trkpt lat="47.66975" lon="-3.20568">
        <ele>10.23</ele>
        <time>2020-08-09T08:09:27Z</time>
      </trkpt>
      <trkpt lat="47.66975" lon="-3.20575">
        <ele>10.71</ele>
        <time>2020-08-09T08:09:31Z</time>
      </trkpt>
      <trkpt lat="47.66973" lon="-3.20589">
        <ele>11.19</ele>
        <time>2020-08-09T08:09:40Z</time>
      </trkpt>
      <trkpt lat="47.66975" lon="-3.20596">
        <ele>11.19</ele>
        <time>2020-08-09T08:09:45Z</time>
      </trkpt>
      <trkpt lat="47.66982" lon="-3.2061">
        <ele>11.19</ele>
        <time>2020-08-09T08:09:58Z</time>
      </trkpt>
      <trkpt lat="47.66983" lon="-3.20614">
        <ele>10.71</ele>
        <time>2020-08-09T08:10:20Z</time>
      </trkpt>
      <trkpt lat="47.66984" lon="-3.20615">
        <ele>10.71</ele>
        <time>2020-08-09T08:10:43Z</time>
      </trkpt>
      <trkpt lat="47.66986" lon="-3.20615">
        <ele>10.23</ele>
        <time>2020-08-09T08:10:46Z</time>
      </trkpt>
      <trkpt lat="47.66991" lon="-3.20614">
        <ele>9.75</ele>
        <time>2020-08-09T08:10:52Z</time>
      </trkpt>
      <trkpt lat="47.66993" lon="-3.20615">
        <ele>9.27</ele>
        <time>2020-08-09T08:10:54Z</time>
      </trkpt>
      <trkpt lat="47.67004" lon="-3.20628">
        <ele>8.79</ele>
        <time>2020-08-09T08:11:06Z</time>
      </trkpt>
      <trkpt lat="47.67006" lon="-3.20634">
        <ele>9.27</ele>
        <time>2020-08-09T08:11:10Z</time>
      </trkpt>
      <trkpt lat="47.67007" lon="-3.20637">
        <ele>8.79</ele>
        <time>2020-08-09T08:11:13Z</time>
      </trkpt>
      <trkpt lat="47.67012" lon="-3.2065">
        <ele>10.23</ele>
        <time>2020-08-09T08:11:23Z</time>
      </trkpt>
      <trkpt lat="47.67015" lon="-3.20654">
        <ele>10.71</ele>
        <time>2020-08-09T08:11:37Z</time>
      </trkpt>
      <trkpt lat="47.67015" lon="-3.20654">
        <ele>10.23</ele>
        <time>2020-08-09T08:12:02Z</time>
      </trkpt>
      <trkpt lat="47.67014" lon="-3.20655">
        <ele>9.75</ele>
        <time>2020-08-09T08:12:19Z</time>
      </trkpt>
      <trkpt lat="47.67011" lon="-3.2066">
        <ele>9.27</ele>
        <time>2020-08-09T08:12:27Z</time>
      </trkpt>
      <trkpt lat="47.67005" lon="-3.20667">
        <ele>9.75</ele>
        <time>2020-08-09T08:12:40Z</time>
      </trkpt>
      <trkpt lat="47.67003" lon="-3.20671">
        <ele>9.75</ele>
        <time>2020-08-09T08:12:43Z</time>
      </trkpt>
      <trkpt lat="47.66998" lon="-3.20673">
        <ele>10.71</ele>
        <time>2020-08-09T08:12:51Z</time>
      </trkpt>
      <trkpt lat="47.66989" lon="-3.20673">
        <ele>11.67</ele>
        <time>2020-08-09T08:13:04Z</time>
      </trkpt>
      <trkpt lat="47.66987" lon="-3.20675">
        <ele>12.15</ele>
        <time>2020-08-09T08:13:07Z</time>
      </trkpt>
      <trkpt lat="47.66983" lon="-3.20678">
        <ele>11.67</ele>
        <time>2020-08-09T08:13:12Z</time>
      </trkpt>
      <trkpt lat="47.66973" lon="-3.20692">
        <ele>13.12</ele>
        <time>2020-08-09T08:13:26Z</time>
      </trkpt>
      <trkpt lat="47.66968" lon="-3.2069">
        <ele>14.56</ele>
        <time>2020-08-09T08:13:38Z</time>
      </trkpt>
      <trkpt lat="47.66962" lon="-3.20683">
        <ele>14.08</ele>
        <time>2020-08-09T08:13:50Z</time>
      </trkpt>
      <trkpt lat="47.66961" lon="-3.2068">
        <ele>15.04</ele>
        <time>2020-08-09T08:14:19Z</time>
      </trkpt>
      <trkpt lat="47.66962" lon="-3.20681">
        <ele>15.04</ele>
        <time>2020-08-09T08:14:33Z</time>
      </trkpt>
      <trkpt lat="47.66969" lon="-3.20695">
        <ele>13.12</ele>
        <time>2020-08-09T08:14:51Z</time>
      </trkpt>
      <trkpt lat="47.66969" lon="-3.20709">
        <ele>13.12</ele>
        <time>2020-08-09T08:14:59Z</time>
      </trkpt>
      <trkpt lat="47.66969" lon="-3.20713">
        <ele>13.12</ele>
        <time>2020-08-09T08:15:01Z</time>
      </trkpt>
      <trkpt lat="47.66968" lon="-3.20718">
        <ele>13.6</ele>
        <time>2020-08-09T08:15:04Z</time>
      </trkpt>
      <trkpt lat="47.66971" lon="-3.20733">
        <ele>13.12</ele>
        <time>2020-08-09T08:15:12Z</time>
      </trkpt>
      <trkpt lat="47.66978" lon="-3.20742">
        <ele>12.15</ele>
        <time>2020-08-09T08:15:19Z</time>
      </trkpt>
      <trkpt lat="47.66981" lon="-3.20747">
        <ele>12.15</ele>
        <time>2020-08-09T08:15:22Z</time>
      </trkpt>
      <trkpt lat="47.66984" lon="-3.2075">
        <ele>11.67</ele>
        <time>2020-08-09T08:15:25Z</time>
      </trkpt>
      <trkpt lat="47.66985" lon="-3.20757">
        <ele>11.67</ele>
        <time>2020-08-09T08:15:29Z</time>
      </trkpt>
      <trkpt lat="47.66984" lon="-3.20765">
        <ele>11.67</ele>
        <time>2020-08-09T08:15:34Z</time>
      </trkpt>
      <trkpt lat="47.66984" lon="-3.20777">
        <ele>11.67</ele>
        <time>2020-08-09T08:15:40Z</time>
      </trkpt>
      <trkpt lat="47.66984" lon="-3.20782">
        <ele>12.15</ele>
        <time>2020-08-09T08:15:42Z</time>
      </trkpt>
      <trkpt lat="47.66988" lon="-3.20797">
        <ele>11.67</ele>
        <time>2020-08-09T08:15:49Z</time>
      </trkpt>
      <trkpt lat="47.66992" lon="-3.20827">
        <ele>11.67</ele>
        <time>2020-08-09T08:16:04Z</time>
      </trkpt>
      <trkpt lat="47.66992" lon="-3.20831">
        <ele>11.67</ele>
        <time>2020-08-09T08:16:07Z</time>
      </trkpt>
      <trkpt lat="47.66994" lon="-3.20841">
        <ele>11.67</ele>
        <time>2020-08-09T08:16:20Z</time>
      </trkpt>
      <trkpt lat="47.66996" lon="-3.20845">
        <ele>11.67</ele>
        <time>2020-08-09T08:16:35Z</time>
      </trkpt>
      <trkpt lat="47.66996" lon="-3.20847">
        <ele>11.67</ele>
        <time>2020-08-09T08:16:59Z</time>
      </trkpt>
      <trkpt lat="47.66996" lon="-3.20848">
        <ele>11.67</ele>
        <time>2020-08-09T08:17:25Z</time>
      </trkpt>
      <trkpt lat="47.66996" lon="-3.2085">
        <ele>12.15</ele>
        <time>2020-08-09T08:17:50Z</time>
      </trkpt>
      <trkpt lat="47.66995" lon="-3.2085">
        <ele>11.67</ele>
        <time>2020-08-09T08:18:08Z</time>
      </trkpt>
      <trkpt lat="47.66995" lon="-3.2085">
        <ele>12.15</ele>
        <time>2020-08-09T08:18:10Z</time>
      </trkpt>
      <trkpt lat="47.66986" lon="-3.20846">
        <ele>12.63</ele>
        <time>2020-08-09T08:18:24Z</time>
      </trkpt>
      <trkpt lat="47.66981" lon="-3.20845">
        <ele>13.12</ele>
        <time>2020-08-09T08:18:32Z</time>
      </trkpt>
      <trkpt lat="47.66974" lon="-3.20848">
        <ele>13.12</ele>
        <time>2020-08-09T08:18:41Z</time>
      </trkpt>
      <trkpt lat="47.66963" lon="-3.2085">
        <ele>13.6</ele>
        <time>2020-08-09T08:18:54Z</time>
      </trkpt>
      <trkpt lat="47.66961" lon="-3.20858">
        <ele>13.12</ele>
        <time>2020-08-09T08:19:00Z</time>
      </trkpt>
      <trkpt lat="47.66951" lon="-3.20862">
        <ele>13.6</ele>
        <time>2020-08-09T08:19:13Z</time>
      </trkpt>
      <trkpt lat="47.66944" lon="-3.20866">
        <ele>12.63</ele>
        <time>2020-08-09T08:19:21Z</time>
      </trkpt>
      <trkpt lat="47.66939" lon="-3.20869">
        <ele>12.63</ele>
        <time>2020-08-09T08:19:26Z</time>
      </trkpt>
      <trkpt lat="47.66927" lon="-3.20872">
        <ele>13.12</ele>
        <time>2020-08-09T08:19:39Z</time>
      </trkpt>
      <trkpt lat="47.66923" lon="-3.20875">
        <ele>12.15</ele>
        <time>2020-08-09T08:19:44Z</time>
      </trkpt>
      <trkpt lat="47.66917" lon="-3.20883">
        <ele>11.19</ele>
        <time>2020-08-09T08:19:51Z</time>
      </trkpt>
      <trkpt lat="47.66904" lon="-3.20891">
        <ele>10.71</ele>
        <time>2020-08-09T08:20:05Z</time>
      </trkpt>
      <trkpt lat="47.66894" lon="-3.20892">
        <ele>10.71</ele>
        <time>2020-08-09T08:20:17Z</time>
      </trkpt>
      <trkpt lat="47.66888" lon="-3.20887">
        <ele>10.71</ele>
        <time>2020-08-09T08:20:24Z</time>
      </trkpt>
      <trkpt lat="47.66874" lon="-3.20883">
        <ele>11.19</ele>
        <time>2020-08-09T08:20:39Z</time>
      </trkpt>
      <trkpt lat="47.66865" lon="-3.20881">
        <ele>10.71</ele>
        <time>2020-08-09T08:20:51Z</time>
      </trkpt>
      <trkpt lat="47.66852" lon="-3.20884">
        <ele>10.23</ele>
        <time>2020-08-09T08:21:04Z</time>
      </trkpt>
      <trkpt lat="47.66841" lon="-3.20885">
        <ele>10.23</ele>
        <time>2020-08-09T08:21:15Z</time>
      </trkpt>
      <trkpt lat="47.66826" lon="-3.20883">
        <ele>10.71</ele>
        <time>2020-08-09T08:21:30Z</time>
      </trkpt>
      <trkpt lat="47.66814" lon="-3.20883">
        <ele>10.71</ele>
        <time>2020-08-09T08:21:43Z</time>
      </trkpt>
      <trkpt lat="47.66805" lon="-3.20884">
        <ele>10.71</ele>
        <time>2020-08-09T08:21:55Z</time>
      </trkpt>
      <trkpt lat="47.668" lon="-3.20885">
        <ele>10.71</ele>
        <time>2020-08-09T08:21:59Z</time>
      </trkpt>
      <trkpt lat="47.66785" lon="-3.20892">
        <ele>9.75</ele>
        <time>2020-08-09T08:22:13Z</time>
      </trkpt>
      <trkpt lat="47.66774" lon="-3.20888">
        <ele>10.23</ele>
        <time>2020-08-09T08:22:25Z</time>
      </trkpt>
      <trkpt lat="47.66771" lon="-3.20888">
        <ele>10.71</ele>
        <time>2020-08-09T08:22:28Z</time>
      </trkpt>
      <trkpt lat="47.66757" lon="-3.20883">
        <ele>11.19</ele>
        <time>2020-08-09T08:22:42Z</time>
      </trkpt>
      <trkpt lat="47.66746" lon="-3.20875">
        <ele>11.19</ele>
        <time>2020-08-09T08:22:54Z</time>
      </trkpt>
      <trkpt lat="47.66738" lon="-3.20872">
        <ele>11.67</ele>
        <time>2020-08-09T08:23:06Z</time>
      </trkpt>
      <trkpt lat="47.66727" lon="-3.20869">
        <ele>11.67</ele>
        <time>2020-08-09T08:23:20Z</time>
      </trkpt>
      <trkpt lat="47.66718" lon="-3.20874">
        <ele>11.67</ele>
        <time>2020-08-09T08:23:30Z</time>
      </trkpt>
      <trkpt lat="47.66705" lon="-3.20886">
        <ele>10.71</ele>
        <time>2020-08-09T08:23:44Z</time>
      </trkpt>
      <trkpt lat="47.66695" lon="-3.20895">
        <ele>10.71</ele>
        <time>2020-08-09T08:23:57Z</time>
      </trkpt>
      <trkpt lat="47.66694" lon="-3.20895">
        <ele>10.71</ele>
        <time>2020-08-09T08:24:22Z</time>
      </trkpt>
      <trkpt lat="47.66694" lon="-3.20894">
        <ele>10.71</ele>
        <time>2020-08-09T08:24:45Z</time>
      </trkpt>
      <trkpt lat="47.66693" lon="-3.20893">
        <ele>10.23</ele>
        <time>2020-08-09T08:25:11Z</time>
      </trkpt>
      <trkpt lat="47.66692" lon="-3.20893">
        <ele>10.71</ele>
        <time>2020-08-09T08:25:33Z</time>
      </trkpt>
      <trkpt lat="47.66682" lon="-3.20896">
        <ele>9.75</ele>
        <time>2020-08-09T08:25:48Z</time>
      </trkpt>
      <trkpt lat="47.66677" lon="-3.20901">
        <ele>7.83</ele>
        <time>2020-08-09T08:26:00Z</time>
      </trkpt>
      <trkpt lat="47.66673" lon="-3.20907">
        <ele>7.83</ele>
        <time>2020-08-09T08:26:13Z</time>
      </trkpt>
      <trkpt lat="47.66674" lon="-3.20907">
        <ele>7.83</ele>
        <time>2020-08-09T08:26:23Z</time>
      </trkpt>
      <trkpt lat="47.66676" lon="-3.20909">
        <ele>8.31</ele>
        <time>2020-08-09T08:26:42Z</time>
      </trkpt>
      <trkpt lat="47.66677" lon="-3.2091">
        <ele>7.83</ele>
        <time>2020-08-09T08:27:10Z</time>
      </trkpt>
      <trkpt lat="47.66677" lon="-3.20909">
        <ele>7.83</ele>
        <time>2020-08-09T08:27:32Z</time>
      </trkpt>
      <trkpt lat="47.66677" lon="-3.20909">
        <ele>7.83</ele>
        <time>2020-08-09T08:27:55Z</time>
      </trkpt>
      <trkpt lat="47.66677" lon="-3.20909">
        <ele>7.35</ele>
        <time>2020-08-09T08:28:19Z</time>
      </trkpt>
      <trkpt lat="47.66677" lon="-3.20909">
        <ele>8.31</ele>
        <time>2020-08-09T08:28:41Z</time>
      </trkpt>
      <trkpt lat="47.66677" lon="-3.20909">
        <ele>7.83</ele>
        <time>2020-08-09T08:29:01Z</time>
      </trkpt>
      <trkpt lat="47.66676" lon="-3.20906">
        <ele>7.83</ele>
        <time>2020-08-09T08:29:19Z</time>
      </trkpt>
      <trkpt lat="47.66679" lon="-3.20898">
        <ele>9.75</ele>
        <time>2020-08-09T08:29:31Z</time>
      </trkpt>
      <trkpt lat="47.66677" lon="-3.20895">
        <ele>9.75</ele>
        <time>2020-08-09T08:29:37Z</time>
      </trkpt>
      <trkpt lat="47.66666" lon="-3.20883">
        <ele>9.27</ele>
        <time>2020-08-09T08:29:52Z</time>
      </trkpt>
      <trkpt lat="47.66665" lon="-3.20881">
        <ele>9.75</ele>
        <time>2020-08-09T08:29:54Z</time>
      </trkpt>
      <trkpt lat="47.66658" lon="-3.20862">
        <ele>9.75</ele>
        <time>2020-08-09T08:30:10Z</time>
      </trkpt>
      <trkpt lat="47.66658" lon="-3.20861">
        <ele>9.75</ele>
        <time>2020-08-09T08:30:11Z</time>
      </trkpt>
      <trkpt lat="47.66657" lon="-3.20856">
        <ele>9.75</ele>
        <time>2020-08-09T08:30:15Z</time>
      </trkpt>
      <trkpt lat="47.66656" lon="-3.20837">
        <ele>11.19</ele>
        <time>2020-08-09T08:30:30Z</time>
      </trkpt>
      <trkpt lat="47.66653" lon="-3.20829">
        <ele>10.71</ele>
        <time>2020-08-09T08:30:40Z</time>
      </trkpt>
      <trkpt lat="47.66651" lon="-3.20825">
        <ele>10.23</ele>
        <time>2020-08-09T08:30:56Z</time>
      </trkpt>
      <trkpt lat="47.66651" lon="-3.20824">
        <ele>10.23</ele>
        <time>2020-08-09T08:31:21Z</time>
      </trkpt>
      <trkpt lat="47.66649" lon="-3.20821">
        <ele>10.23</ele>
        <time>2020-08-09T08:31:41Z</time>
      </trkpt>
      <trkpt lat="47.66647" lon="-3.20815">
        <ele>9.75</ele>
        <time>2020-08-09T08:31:54Z</time>
      </trkpt>
      <trkpt lat="47.66647" lon="-3.20815">
        <ele>10.23</ele>
        <time>2020-08-09T08:32:19Z</time>
      </trkpt>
      <trkpt lat="47.66647" lon="-3.20814">
        <ele>10.71</ele>
        <time>2020-08-09T08:32:44Z</time>
      </trkpt>
      <trkpt lat="47.66646" lon="-3.20814">
        <ele>9.75</ele>
        <time>2020-08-09T08:33:10Z</time>
      </trkpt>
      <trkpt lat="47.66646" lon="-3.20812">
        <ele>10.71</ele>
        <time>2020-08-09T08:33:20Z</time>
      </trkpt>
      <trkpt lat="47.66646" lon="-3.20806">
        <ele>9.75</ele>
        <time>2020-08-09T08:33:24Z</time>
      </trkpt>
      <trkpt lat="47.66644" lon="-3.208">
        <ele>9.75</ele>
        <time>2020-08-09T08:33:31Z</time>
      </trkpt>
      <trkpt lat="47.66644" lon="-3.20793">
        <ele>9.75</ele>
        <time>2020-08-09T08:33:48Z</time>
      </trkpt>
      <trkpt lat="47.66643" lon="-3.20789">
        <ele>10.23</ele>
        <time>2020-08-09T08:34:13Z</time>
      </trkpt>
      <trkpt lat="47.66643" lon="-3.20782">
        <ele>10.23</ele>
        <time>2020-08-09T08:34:20Z</time>
      </trkpt>
      <trkpt lat="47.66641" lon="-3.20769">
        <ele>10.23</ele>
        <time>2020-08-09T08:34:30Z</time>
      </trkpt>
      <trkpt lat="47.6664" lon="-3.20762">
        <ele>10.23</ele>
        <time>2020-08-09T08:34:35Z</time>
      </trkpt>
      <trkpt lat="47.66639" lon="-3.20757">
        <ele>9.27</ele>
        <time>2020-08-09T08:34:38Z</time>
      </trkpt>
      <trkpt lat="47.6664" lon="-3.20751">
        <ele>9.75</ele>
        <time>2020-08-09T08:34:42Z</time>
      </trkpt>
      <trkpt lat="47.66641" lon="-3.20746">
        <ele>9.75</ele>
        <time>2020-08-09T08:34:59Z</time>
      </trkpt>
      <trkpt lat="47.66641" lon="-3.20741">
        <ele>9.27</ele>
        <time>2020-08-09T08:35:09Z</time>
      </trkpt>
      <trkpt lat="47.6664" lon="-3.20729">
        <ele>9.27</ele>
        <time>2020-08-09T08:35:18Z</time>
      </trkpt>
      <trkpt lat="47.66641" lon="-3.20719">
        <ele>9.27</ele>
        <time>2020-08-09T08:35:25Z</time>
      </trkpt>
      <trkpt lat="47.66646" lon="-3.20707">
        <ele>9.27</ele>
        <time>2020-08-09T08:35:33Z</time>
      </trkpt>
      <trkpt lat="47.66654" lon="-3.20692">
        <ele>9.75</ele>
        <time>2020-08-09T08:35:46Z</time>
      </trkpt>
      <trkpt lat="47.66661" lon="-3.20688">
        <ele>9.75</ele>
        <time>2020-08-09T08:35:58Z</time>
      </trkpt>
      <trkpt lat="47.66662" lon="-3.20689">
        <ele>9.75</ele>
        <time>2020-08-09T08:36:05Z</time>
      </trkpt>
      <trkpt lat="47.66672" lon="-3.2069">
        <ele>10.71</ele>
        <time>2020-08-09T08:36:15Z</time>
      </trkpt>
      <trkpt lat="47.66684" lon="-3.207">
        <ele>12.63</ele>
        <time>2020-08-09T08:36:29Z</time>
      </trkpt>
      <trkpt lat="47.66684" lon="-3.207">
        <ele>12.15</ele>
        <time>2020-08-09T08:36:30Z</time>
      </trkpt>
      <trkpt lat="47.66687" lon="-3.20703">
        <ele>12.15</ele>
        <time>2020-08-09T08:36:33Z</time>
      </trkpt>
      <trkpt lat="47.66693" lon="-3.20714">
        <ele>12.63</ele>
        <time>2020-08-09T08:36:46Z</time>
      </trkpt>
      <trkpt lat="47.667" lon="-3.20721">
        <ele>12.63</ele>
        <time>2020-08-09T08:36:58Z</time>
      </trkpt>
      <trkpt lat="47.6671" lon="-3.20719">
        <ele>12.63</ele>
        <time>2020-08-09T08:37:13Z</time>
      </trkpt>
      <trkpt lat="47.66717" lon="-3.20716">
        <ele>11.67</ele>
        <time>2020-08-09T08:37:28Z</time>
      </trkpt>
      <trkpt lat="47.66722" lon="-3.20702">
        <ele>11.67</ele>
        <time>2020-08-09T08:37:39Z</time>
      </trkpt>
      <trkpt lat="47.66719" lon="-3.20688">
        <ele>11.19</ele>
        <time>2020-08-09T08:37:53Z</time>
      </trkpt>
      <trkpt lat="47.66711" lon="-3.20671">
        <ele>10.71</ele>
        <time>2020-08-09T08:38:07Z</time>
      </trkpt>
      <trkpt lat="47.66703" lon="-3.2066">
        <ele>10.23</ele>
        <time>2020-08-09T08:38:22Z</time>
      </trkpt>
      <trkpt lat="47.66702" lon="-3.20658">
        <ele>10.23</ele>
        <time>2020-08-09T08:38:24Z</time>
      </trkpt>
      <trkpt lat="47.667" lon="-3.2065">
        <ele>10.23</ele>
        <time>2020-08-09T08:38:35Z</time>
      </trkpt>
      <trkpt lat="47.66694" lon="-3.20641">
        <ele>10.23</ele>
        <time>2020-08-09T08:38:46Z</time>
      </trkpt>
      <trkpt lat="47.6669" lon="-3.20619">
        <ele>9.75</ele>
        <time>2020-08-09T08:39:00Z</time>
      </trkpt>
      <trkpt lat="47.66681" lon="-3.20599">
        <ele>9.75</ele>
        <time>2020-08-09T08:39:14Z</time>
      </trkpt>
      <trkpt lat="47.66674" lon="-3.20582">
        <ele>9.27</ele>
        <time>2020-08-09T08:39:28Z</time>
      </trkpt>
      <trkpt lat="47.66665" lon="-3.20578">
        <ele>8.31</ele>
        <time>2020-08-09T08:39:42Z</time>
      </trkpt>
      <trkpt lat="47.66664" lon="-3.20575">
        <ele>8.31</ele>
        <time>2020-08-09T08:39:58Z</time>
      </trkpt>
      <trkpt lat="47.66658" lon="-3.20563">
        <ele>8.31</ele>
        <time>2020-08-09T08:40:13Z</time>
      </trkpt>
      <trkpt lat="47.66658" lon="-3.2056">
        <ele>8.31</ele>
        <time>2020-08-09T08:40:15Z</time>
      </trkpt>
      <trkpt lat="47.66657" lon="-3.20554">
        <ele>8.79</ele>
        <time>2020-08-09T08:40:20Z</time>
      </trkpt>
      <trkpt lat="47.66662" lon="-3.20544">
        <ele>10.23</ele>
        <time>2020-08-09T08:40:32Z</time>
      </trkpt>
      <trkpt lat="47.66666" lon="-3.20531">
        <ele>9.75</ele>
        <time>2020-08-09T08:40:45Z</time>
      </trkpt>
      <trkpt lat="47.66672" lon="-3.20518">
        <ele>10.23</ele>
        <time>2020-08-09T08:40:57Z</time>
      </trkpt>
      <trkpt lat="47.66677" lon="-3.20502">
        <ele>10.71</ele>
        <time>2020-08-09T08:41:10Z</time>
      </trkpt>
      <trkpt lat="47.66675" lon="-3.20497">
        <ele>11.19</ele>
        <time>2020-08-09T08:41:21Z</time>
      </trkpt>
      <trkpt lat="47.66668" lon="-3.20493">
        <ele>10.71</ele>
        <time>2020-08-09T08:41:34Z</time>
      </trkpt>
      <trkpt lat="47.66664" lon="-3.20482">
        <ele>10.71</ele>
        <time>2020-08-09T08:41:46Z</time>
      </trkpt>
      <trkpt lat="47.6666" lon="-3.20475">
        <ele>10.71</ele>
        <time>2020-08-09T08:41:59Z</time>
      </trkpt>
      <trkpt lat="47.66661" lon="-3.20473">
        <ele>10.71</ele>
        <time>2020-08-09T08:42:24Z</time>
      </trkpt>
      <trkpt lat="47.66661" lon="-3.20472">
        <ele>10.71</ele>
        <time>2020-08-09T08:42:49Z</time>
      </trkpt>
      <trkpt lat="47.6666" lon="-3.20466">
        <ele>11.19</ele>
        <time>2020-08-09T08:43:07Z</time>
      </trkpt>
      <trkpt lat="47.6666" lon="-3.20464">
        <ele>10.71</ele>
        <time>2020-08-09T08:43:19Z</time>
      </trkpt>
      <trkpt lat="47.66659" lon="-3.20462">
        <ele>11.19</ele>
        <time>2020-08-09T08:43:21Z</time>
      </trkpt>
      <trkpt lat="47.66654" lon="-3.20443">
        <ele>11.19</ele>
        <time>2020-08-09T08:43:38Z</time>
      </trkpt>
      <trkpt lat="47.66649" lon="-3.20433">
        <ele>11.19</ele>
        <time>2020-08-09T08:43:58Z</time>
      </trkpt>
      <trkpt lat="47.66647" lon="-3.20431">
        <ele>11.19</ele>
        <time>2020-08-09T08:44:14Z</time>
      </trkpt>
      <trkpt lat="47.66642" lon="-3.20427">
        <ele>11.19</ele>
        <time>2020-08-09T08:44:26Z</time>
      </trkpt>
      <trkpt lat="47.66639" lon="-3.20426">
        <ele>11.19</ele>
        <time>2020-08-09T08:44:47Z</time>
      </trkpt>
      <trkpt lat="47.66638" lon="-3.20425">
        <ele>11.19</ele>
        <time>2020-08-09T08:45:15Z</time>
      </trkpt>
      <trkpt lat="47.66637" lon="-3.20426">
        <ele>11.67</ele>
        <time>2020-08-09T08:45:33Z</time>
      </trkpt>
      <trkpt lat="47.66636" lon="-3.20424">
        <ele>11.67</ele>
        <time>2020-08-09T08:45:57Z</time>
      </trkpt>
      <trkpt lat="47.66635" lon="-3.20419">
        <ele>12.15</ele>
        <time>2020-08-09T08:46:02Z</time>
      </trkpt>
      <trkpt lat="47.66634" lon="-3.20415">
        <ele>12.15</ele>
        <time>2020-08-09T08:46:06Z</time>
      </trkpt>
      <trkpt lat="47.66624" lon="-3.20403">
        <ele>11.67</ele>
        <time>2020-08-09T08:46:22Z</time>
      </trkpt>
      <trkpt lat="47.6662" lon="-3.20393">
        <ele>10.71</ele>
        <time>2020-08-09T08:46:37Z</time>
      </trkpt>
      <trkpt lat="47.66617" lon="-3.20389">
        <ele>10.71</ele>
        <time>2020-08-09T08:46:41Z</time>
      </trkpt>
      <trkpt lat="47.66612" lon="-3.20374">
        <ele>10.71</ele>
        <time>2020-08-09T08:46:55Z</time>
      </trkpt>
      <trkpt lat="47.66617" lon="-3.20366">
        <ele>11.19</ele>
        <time>2020-08-09T08:47:06Z</time>
      </trkpt>
      <trkpt lat="47.66621" lon="-3.20357">
        <ele>12.15</ele>
        <time>2020-08-09T08:47:19Z</time>
      </trkpt>
      <trkpt lat="47.66617" lon="-3.2035">
        <ele>11.67</ele>
        <time>2020-08-09T08:47:32Z</time>
      </trkpt>
      <trkpt lat="47.66611" lon="-3.20342">
        <ele>10.23</ele>
        <time>2020-08-09T08:47:45Z</time>
      </trkpt>
      <trkpt lat="47.66609" lon="-3.20341">
        <ele>10.71</ele>
        <time>2020-08-09T08:47:47Z</time>
      </trkpt>
      <trkpt lat="47.66606" lon="-3.20338">
        <ele>10.23</ele>
        <time>2020-08-09T08:47:50Z</time>
      </trkpt>
      <trkpt lat="47.66602" lon="-3.20333">
        <ele>10.23</ele>
        <time>2020-08-09T08:47:55Z</time>
      </trkpt>
      <trkpt lat="47.66599" lon="-3.20327">
        <ele>9.75</ele>
        <time>2020-08-09T08:48:01Z</time>
      </trkpt>
      <trkpt lat="47.66601" lon="-3.20318">
        <ele>9.75</ele>
        <time>2020-08-09T08:48:13Z</time>
      </trkpt>
      <trkpt lat="47.66602" lon="-3.20318">
        <ele>9.75</ele>
        <time>2020-08-09T08:48:29Z</time>
      </trkpt>
      <trkpt lat="47.66598" lon="-3.20321">
        <ele>9.27</ele>
        <time>2020-08-09T08:48:43Z</time>
      </trkpt>
      <trkpt lat="47.66598" lon="-3.20322">
        <ele>9.75</ele>
        <time>2020-08-09T08:48:58Z</time>
      </trkpt>
      <trkpt lat="47.66599" lon="-3.2032">
        <ele>9.75</ele>
        <time>2020-08-09T08:49:12Z</time>
      </trkpt>
      <trkpt lat="47.66607" lon="-3.20313">
        <ele>10.23</ele>
        <time>2020-08-09T08:49:25Z</time>
      </trkpt>
      <trkpt lat="47.66613" lon="-3.203">
        <ele>10.23</ele>
        <time>2020-08-09T08:49:40Z</time>
      </trkpt>
      <trkpt lat="47.66616" lon="-3.20283">
        <ele>10.23</ele>
        <time>2020-08-09T08:49:53Z</time>
      </trkpt>
      <trkpt lat="47.66618" lon="-3.2027">
        <ele>9.75</ele>
        <time>2020-08-09T08:50:05Z</time>
      </trkpt>
      <trkpt lat="47.66617" lon="-3.2026">
        <ele>9.75</ele>
        <time>2020-08-09T08:50:13Z</time>
      </trkpt>
      <trkpt lat="47.66617" lon="-3.20252">
        <ele>10.23</ele>
        <time>2020-08-09T08:50:18Z</time>
      </trkpt>
      <trkpt lat="47.66618" lon="-3.20248">
        <ele>9.75</ele>
        <time>2020-08-09T08:50:21Z</time>
      </trkpt>
      <trkpt lat="47.66616" lon="-3.20231">
        <ele>9.75</ele>
        <time>2020-08-09T08:50:34Z</time>
      </trkpt>
      <trkpt lat="47.6662" lon="-3.20224">
        <ele>10.23</ele>
        <time>2020-08-09T08:50:49Z</time>
      </trkpt>
      <trkpt lat="47.6662" lon="-3.20223">
        <ele>10.23</ele>
        <time>2020-08-09T08:50:51Z</time>
      </trkpt>
      <trkpt lat="47.66621" lon="-3.20209">
        <ele>9.27</ele>
        <time>2020-08-09T08:51:04Z</time>
      </trkpt>
      <trkpt lat="47.66627" lon="-3.20189">
        <ele>9.75</ele>
        <time>2020-08-09T08:51:16Z</time>
      </trkpt>
      <trkpt lat="47.66623" lon="-3.20166">
        <ele>8.79</ele>
        <time>2020-08-09T08:51:31Z</time>
      </trkpt>
      <trkpt lat="47.66616" lon="-3.20148">
        <ele>8.79</ele>
        <time>2020-08-09T08:51:46Z</time>
      </trkpt>
      <trkpt lat="47.66615" lon="-3.20147">
        <ele>8.31</ele>
        <time>2020-08-09T08:51:47Z</time>
      </trkpt>
      <trkpt lat="47.66608" lon="-3.20133">
        <ele>8.31</ele>
        <time>2020-08-09T08:52:01Z</time>
      </trkpt>
      <trkpt lat="47.66606" lon="-3.20131">
        <ele>8.31</ele>
        <time>2020-08-09T08:52:03Z</time>
      </trkpt>
      <trkpt lat="47.66599" lon="-3.20126">
        <ele>8.79</ele>
        <time>2020-08-09T08:52:10Z</time>
      </trkpt>
      <trkpt lat="47.66582" lon="-3.20126">
        <ele>9.75</ele>
        <time>2020-08-09T08:52:25Z</time>
      </trkpt>
      <trkpt lat="47.66575" lon="-3.20133">
        <ele>10.23</ele>
        <time>2020-08-09T08:52:33Z</time>
      </trkpt>
      <trkpt lat="47.66564" lon="-3.20152">
        <ele>10.23</ele>
        <time>2020-08-09T08:52:48Z</time>
      </trkpt>
      <trkpt lat="47.66558" lon="-3.20163">
        <ele>11.19</ele>
        <time>2020-08-09T08:53:01Z</time>
      </trkpt>
      <trkpt lat="47.66556" lon="-3.20179">
        <ele>11.19</ele>
        <time>2020-08-09T08:53:14Z</time>
      </trkpt>
      <trkpt lat="47.66554" lon="-3.20191">
        <ele>11.19</ele>
        <time>2020-08-09T08:53:26Z</time>
      </trkpt>
      <trkpt lat="47.66549" lon="-3.202">
        <ele>12.15</ele>
        <time>2020-08-09T08:53:40Z</time>
      </trkpt>
      <trkpt lat="47.66544" lon="-3.20211">
        <ele>11.67</ele>
        <time>2020-08-09T08:53:49Z</time>
      </trkpt>
      <trkpt lat="47.66541" lon="-3.20223">
        <ele>11.19</ele>
        <time>2020-08-09T08:53:57Z</time>
      </trkpt>
      <trkpt lat="47.66538" lon="-3.20237">
        <ele>12.15</ele>
        <time>2020-08-09T08:54:05Z</time>
      </trkpt>
      <trkpt lat="47.66536" lon="-3.20247">
        <ele>11.67</ele>
        <time>2020-08-09T08:54:11Z</time>
      </trkpt>
      <trkpt lat="47.66536" lon="-3.20252">
        <ele>12.15</ele>
        <time>2020-08-09T08:54:14Z</time>
      </trkpt>
      <trkpt lat="47.66535" lon="-3.20265">
        <ele>11.67</ele>
        <time>2020-08-09T08:54:21Z</time>
      </trkpt>
      <trkpt lat="47.66535" lon="-3.20271">
        <ele>12.15</ele>
        <time>2020-08-09T08:54:25Z</time>
      </trkpt>
      <trkpt lat="47.66535" lon="-3.20278">
        <ele>11.67</ele>
        <time>2020-08-09T08:54:29Z</time>
      </trkpt>
      <trkpt lat="47.66535" lon="-3.20283">
        <ele>11.67</ele>
        <time>2020-08-09T08:54:32Z</time>
      </trkpt>
      <trkpt lat="47.66531" lon="-3.20303">
        <ele>11.67</ele>
        <time>2020-08-09T08:54:46Z</time>
      </trkpt>
      <trkpt lat="47.66531" lon="-3.20305">
        <ele>11.19</ele>
        <time>2020-08-09T08:54:59Z</time>
      </trkpt>
      <trkpt lat="47.66531" lon="-3.20305">
        <ele>11.19</ele>
        <time>2020-08-09T08:55:35Z</time>
      </trkpt>
      <trkpt lat="47.6653" lon="-3.20306">
        <ele>10.71</ele>
        <time>2020-08-09T08:56:06Z</time>
      </trkpt>
      <trkpt lat="47.6653" lon="-3.20306">
        <ele>11.19</ele>
        <time>2020-08-09T08:56:34Z</time>
      </trkpt>
      <trkpt lat="47.6653" lon="-3.20308">
        <ele>12.15</ele>
        <time>2020-08-09T08:57:08Z</time>
      </trkpt>
      <trkpt lat="47.6653" lon="-3.20308">
        <ele>11.67</ele>
        <time>2020-08-09T08:57:12Z</time>
      </trkpt>
      <trkpt lat="47.6653" lon="-3.20308">
        <ele>11.19</ele>
        <time>2020-08-09T08:57:28Z</time>
      </trkpt>
      <trkpt lat="47.6653" lon="-3.20308">
        <ele>11.19</ele>
        <time>2020-08-09T08:58:03Z</time>
      </trkpt>
      <trkpt lat="47.66529" lon="-3.20307">
        <ele>10.71</ele>
        <time>2020-08-09T08:58:37Z</time>
      </trkpt>
      <trkpt lat="47.66529" lon="-3.20308">
        <ele>11.19</ele>
        <time>2020-08-09T08:59:10Z</time>
      </trkpt>
      <trkpt lat="47.66529" lon="-3.20309">
        <ele>11.19</ele>
        <time>2020-08-09T08:59:47Z</time>
      </trkpt>
      <trkpt lat="47.66529" lon="-3.20309">
        <ele>11.19</ele>
        <time>2020-08-09T09:00:19Z</time>
      </trkpt>
      <trkpt lat="47.66528" lon="-3.20308">
        <ele>11.19</ele>
        <time>2020-08-09T09:00:42Z</time>
      </trkpt>
      <trkpt lat="47.66528" lon="-3.20306">
        <ele>11.19</ele>
        <time>2020-08-09T09:01:19Z</time>
      </trkpt>
      <trkpt lat="47.66528" lon="-3.20306">
        <ele>9.75</ele>
        <time>2020-08-09T09:01:46Z</time>
      </trkpt>
      <trkpt lat="47.66528" lon="-3.20307">
        <ele>11.19</ele>
        <time>2020-08-09T09:02:08Z</time>
      </trkpt>
      <trkpt lat="47.66527" lon="-3.20307">
        <ele>11.67</ele>
        <time>2020-08-09T09:02:23Z</time>
      </trkpt>
      <trkpt lat="47.66527" lon="-3.20307">
        <ele>12.15</ele>
        <time>2020-08-09T09:02:46Z</time>
      </trkpt>
      <trkpt lat="47.66522" lon="-3.20307">
        <ele>13.12</ele>
        <time>2020-08-09T09:02:58Z</time>
      </trkpt>
      <trkpt lat="47.66519" lon="-3.20294">
        <ele>13.12</ele>
        <time>2020-08-09T09:03:12Z</time>
      </trkpt>
      <trkpt lat="47.66516" lon="-3.20282">
        <ele>13.12</ele>
        <time>2020-08-09T09:03:23Z</time>
      </trkpt>
      <trkpt lat="47.66513" lon="-3.20262">
        <ele>12.63</ele>
        <time>2020-08-09T09:03:37Z</time>
      </trkpt>
      <trkpt lat="47.66512" lon="-3.2026">
        <ele>12.63</ele>
        <time>2020-08-09T09:03:38Z</time>
      </trkpt>
      <trkpt lat="47.6651" lon="-3.20254">
        <ele>13.12</ele>
        <time>2020-08-09T09:03:43Z</time>
      </trkpt>
      <trkpt lat="47.66505" lon="-3.2024">
        <ele>12.63</ele>
        <time>2020-08-09T09:03:57Z</time>
      </trkpt>
      <trkpt lat="47.665" lon="-3.2023">
        <ele>13.12</ele>
        <time>2020-08-09T09:04:12Z</time>
      </trkpt>
      <trkpt lat="47.66487" lon="-3.20211">
        <ele>12.15</ele>
        <time>2020-08-09T09:04:28Z</time>
      </trkpt>
      <trkpt lat="47.66474" lon="-3.2021">
        <ele>12.15</ele>
        <time>2020-08-09T09:04:41Z</time>
      </trkpt>
      <trkpt lat="47.66468" lon="-3.20204">
        <ele>11.67</ele>
        <time>2020-08-09T09:04:55Z</time>
      </trkpt>
      <trkpt lat="47.66461" lon="-3.20195">
        <ele>11.67</ele>
        <time>2020-08-09T09:05:07Z</time>
      </trkpt>
      <trkpt lat="47.66458" lon="-3.20176">
        <ele>11.67</ele>
        <time>2020-08-09T09:05:19Z</time>
      </trkpt>
      <trkpt lat="47.66454" lon="-3.20158">
        <ele>11.67</ele>
        <time>2020-08-09T09:05:30Z</time>
      </trkpt>
      <trkpt lat="47.66444" lon="-3.20129">
        <ele>11.19</ele>
        <time>2020-08-09T09:05:49Z</time>
      </trkpt>
      <trkpt lat="47.66438" lon="-3.20129">
        <ele>11.19</ele>
        <time>2020-08-09T09:06:10Z</time>
      </trkpt>
      <trkpt lat="47.6643" lon="-3.20115">
        <ele>10.71</ele>
        <time>2020-08-09T09:06:22Z</time>
      </trkpt>
      <trkpt lat="47.66423" lon="-3.20106">
        <ele>10.23</ele>
        <time>2020-08-09T09:06:31Z</time>
      </trkpt>
      <trkpt lat="47.66423" lon="-3.20099">
        <ele>10.23</ele>
        <time>2020-08-09T09:06:34Z</time>
      </trkpt>
      <trkpt lat="47.66416" lon="-3.20085">
        <ele>9.75</ele>
        <time>2020-08-09T09:06:47Z</time>
      </trkpt>
      <trkpt lat="47.66416" lon="-3.20084">
        <ele>9.75</ele>
        <time>2020-08-09T09:06:48Z</time>
      </trkpt>
      <trkpt lat="47.66414" lon="-3.20067">
        <ele>10.23</ele>
        <time>2020-08-09T09:07:01Z</time>
      </trkpt>
      <trkpt lat="47.6641" lon="-3.20051">
        <ele>10.23</ele>
        <time>2020-08-09T09:07:14Z</time>
      </trkpt>
      <trkpt lat="47.66401" lon="-3.20046">
        <ele>10.23</ele>
        <time>2020-08-09T09:07:26Z</time>
      </trkpt>
      <trkpt lat="47.66404" lon="-3.20027">
        <ele>10.23</ele>
        <time>2020-08-09T09:07:43Z</time>
      </trkpt>
      <trkpt lat="47.66403" lon="-3.20026">
        <ele>9.75</ele>
        <time>2020-08-09T09:08:04Z</time>
      </trkpt>
      <trkpt lat="47.66403" lon="-3.20027">
        <ele>9.75</ele>
        <time>2020-08-09T09:08:27Z</time>
      </trkpt>
      <trkpt lat="47.66403" lon="-3.20028">
        <ele>10.23</ele>
        <time>2020-08-09T09:08:52Z</time>
      </trkpt>
      <trkpt lat="47.66406" lon="-3.20028">
        <ele>9.75</ele>
        <time>2020-08-09T09:09:05Z</time>
      </trkpt>
      <trkpt lat="47.66414" lon="-3.20025">
        <ele>9.75</ele>
        <time>2020-08-09T09:09:20Z</time>
      </trkpt>
      <trkpt lat="47.6642" lon="-3.20028">
        <ele>9.27</ele>
        <time>2020-08-09T09:09:34Z</time>
      </trkpt>
      <trkpt lat="47.66431" lon="-3.2003">
        <ele>9.27</ele>
        <time>2020-08-09T09:09:50Z</time>
      </trkpt>
      <trkpt lat="47.66447" lon="-3.20023">
        <ele>10.23</ele>
        <time>2020-08-09T09:10:04Z</time>
      </trkpt>
      <trkpt lat="47.66456" lon="-3.20012">
        <ele>9.75</ele>
        <time>2020-08-09T09:10:17Z</time>
      </trkpt>
      <trkpt lat="47.6646" lon="-3.20005">
        <ele>9.75</ele>
        <time>2020-08-09T09:10:31Z</time>
      </trkpt>
      <trkpt lat="47.66467" lon="-3.1999">
        <ele>9.75</ele>
        <time>2020-08-09T09:10:42Z</time>
      </trkpt>
      <trkpt lat="47.66485" lon="-3.19961">
        <ele>9.75</ele>
        <time>2020-08-09T09:10:56Z</time>
      </trkpt>
      <trkpt lat="47.66487" lon="-3.19951">
        <ele>9.27</ele>
        <time>2020-08-09T09:11:06Z</time>
      </trkpt>
      <trkpt lat="47.66488" lon="-3.19944">
        <ele>9.27</ele>
        <time>2020-08-09T09:11:09Z</time>
      </trkpt>
      <trkpt lat="47.66484" lon="-3.19933">
        <ele>9.27</ele>
        <time>2020-08-09T09:11:22Z</time>
      </trkpt>
      <trkpt lat="47.66475" lon="-3.19926">
        <ele>9.27</ele>
        <time>2020-08-09T09:11:35Z</time>
      </trkpt>
      <trkpt lat="47.66469" lon="-3.19921">
        <ele>9.75</ele>
        <time>2020-08-09T09:11:47Z</time>
      </trkpt>
      <trkpt lat="47.66453" lon="-3.19912">
        <ele>9.75</ele>
        <time>2020-08-09T09:11:58Z</time>
      </trkpt>
      <trkpt lat="47.66446" lon="-3.19903">
        <ele>9.75</ele>
        <time>2020-08-09T09:12:11Z</time>
      </trkpt>
      <trkpt lat="47.66445" lon="-3.19896">
        <ele>9.27</ele>
        <time>2020-08-09T09:12:30Z</time>
      </trkpt>
      <trkpt lat="47.66443" lon="-3.19897">
        <ele>9.27</ele>
        <time>2020-08-09T09:12:49Z</time>
      </trkpt>
      <trkpt lat="47.66438" lon="-3.19895">
        <ele>10.23</ele>
        <time>2020-08-09T09:13:05Z</time>
      </trkpt>
      <trkpt lat="47.66435" lon="-3.19882">
        <ele>10.23</ele>
        <time>2020-08-09T09:13:21Z</time>
      </trkpt>
      <trkpt lat="47.66424" lon="-3.19869">
        <ele>10.23</ele>
        <time>2020-08-09T09:13:34Z</time>
      </trkpt>
      <trkpt lat="47.66422" lon="-3.19862">
        <ele>10.23</ele>
        <time>2020-08-09T09:13:46Z</time>
      </trkpt>
      <trkpt lat="47.6642" lon="-3.19847">
        <ele>10.23</ele>
        <time>2020-08-09T09:13:56Z</time>
      </trkpt>
      <trkpt lat="47.66422" lon="-3.19828">
        <ele>10.71</ele>
        <time>2020-08-09T09:14:07Z</time>
      </trkpt>
      <trkpt lat="47.66427" lon="-3.19809">
        <ele>11.19</ele>
        <time>2020-08-09T09:14:20Z</time>
      </trkpt>
      <trkpt lat="47.66425" lon="-3.19797">
        <ele>11.19</ele>
        <time>2020-08-09T09:14:30Z</time>
      </trkpt>
      <trkpt lat="47.66422" lon="-3.1979">
        <ele>11.19</ele>
        <time>2020-08-09T09:14:41Z</time>
      </trkpt>
      <trkpt lat="47.6642" lon="-3.19789">
        <ele>10.71</ele>
        <time>2020-08-09T09:14:43Z</time>
      </trkpt>
      <trkpt lat="47.66413" lon="-3.19781">
        <ele>10.71</ele>
        <time>2020-08-09T09:14:51Z</time>
      </trkpt>
      <trkpt lat="47.66409" lon="-3.19765">
        <ele>11.19</ele>
        <time>2020-08-09T09:15:02Z</time>
      </trkpt>
      <trkpt lat="47.66411" lon="-3.19748">
        <ele>11.67</ele>
        <time>2020-08-09T09:15:12Z</time>
      </trkpt>
      <trkpt lat="47.66411" lon="-3.1974">
        <ele>11.67</ele>
        <time>2020-08-09T09:15:20Z</time>
      </trkpt>
      <trkpt lat="47.66411" lon="-3.19728">
        <ele>12.15</ele>
        <time>2020-08-09T09:15:30Z</time>
      </trkpt>
      <trkpt lat="47.66408" lon="-3.19711">
        <ele>12.15</ele>
        <time>2020-08-09T09:15:41Z</time>
      </trkpt>
      <trkpt lat="47.66405" lon="-3.197">
        <ele>12.63</ele>
        <time>2020-08-09T09:15:44Z</time>
      </trkpt>
      <trkpt lat="47.66411" lon="-3.19668">
        <ele>13.12</ele>
        <time>2020-08-09T09:15:58Z</time>
      </trkpt>
      <trkpt lat="47.66409" lon="-3.19659">
        <ele>13.6</ele>
        <time>2020-08-09T09:16:04Z</time>
      </trkpt>
      <trkpt lat="47.66406" lon="-3.19632">
        <ele>13.6</ele>
        <time>2020-08-09T09:16:23Z</time>
      </trkpt>
      <trkpt lat="47.66403" lon="-3.19629">
        <ele>13.6</ele>
        <time>2020-08-09T09:16:28Z</time>
      </trkpt>
      <trkpt lat="47.66391" lon="-3.19614">
        <ele>13.6</ele>
        <time>2020-08-09T09:16:42Z</time>
      </trkpt>
      <trkpt lat="47.66386" lon="-3.19607">
        <ele>13.6</ele>
        <time>2020-08-09T09:16:52Z</time>
      </trkpt>
      <trkpt lat="47.66376" lon="-3.19592">
        <ele>12.63</ele>
        <time>2020-08-09T09:17:06Z</time>
      </trkpt>
      <trkpt lat="47.66364" lon="-3.19577">
        <ele>12.63</ele>
        <time>2020-08-09T09:17:19Z</time>
      </trkpt>
      <trkpt lat="47.66363" lon="-3.19568">
        <ele>12.63</ele>
        <time>2020-08-09T09:17:27Z</time>
      </trkpt>
      <trkpt lat="47.66354" lon="-3.1956">
        <ele>12.63</ele>
        <time>2020-08-09T09:17:41Z</time>
      </trkpt>
      <trkpt lat="47.66341" lon="-3.19539">
        <ele>12.63</ele>
        <time>2020-08-09T09:17:56Z</time>
      </trkpt>
      <trkpt lat="47.66334" lon="-3.19526">
        <ele>12.63</ele>
        <time>2020-08-09T09:18:08Z</time>
      </trkpt>
      <trkpt lat="47.66333" lon="-3.19524">
        <ele>13.12</ele>
        <time>2020-08-09T09:18:10Z</time>
      </trkpt>
      <trkpt lat="47.66329" lon="-3.19521">
        <ele>12.63</ele>
        <time>2020-08-09T09:18:14Z</time>
      </trkpt>
      <trkpt lat="47.66323" lon="-3.19514">
        <ele>12.15</ele>
        <time>2020-08-09T09:18:21Z</time>
      </trkpt>
      <trkpt lat="47.66322" lon="-3.19509">
        <ele>12.15</ele>
        <time>2020-08-09T09:18:25Z</time>
      </trkpt>
      <trkpt lat="47.66322" lon="-3.19507">
        <ele>12.15</ele>
        <time>2020-08-09T09:18:27Z</time>
      </trkpt>
      <trkpt lat="47.66322" lon="-3.19496">
        <ele>13.12</ele>
        <time>2020-08-09T09:18:41Z</time>
      </trkpt>
      <trkpt lat="47.66322" lon="-3.19486">
        <ele>13.12</ele>
        <time>2020-08-09T09:18:48Z</time>
      </trkpt>
      <trkpt lat="47.66325" lon="-3.1947">
        <ele>13.6</ele>
        <time>2020-08-09T09:18:57Z</time>
      </trkpt>
      <trkpt lat="47.66324" lon="-3.19466">
        <ele>13.6</ele>
        <time>2020-08-09T09:19:00Z</time>
      </trkpt>
      <trkpt lat="47.66322" lon="-3.19463">
        <ele>13.12</ele>
        <time>2020-08-09T09:19:02Z</time>
      </trkpt>
      <trkpt lat="47.66321" lon="-3.1946">
        <ele>13.12</ele>
        <time>2020-08-09T09:19:04Z</time>
      </trkpt>
      <trkpt lat="47.66321" lon="-3.19454">
        <ele>13.12</ele>
        <time>2020-08-09T09:19:07Z</time>
      </trkpt>
      <trkpt lat="47.66316" lon="-3.19434">
        <ele>13.12</ele>
        <time>2020-08-09T09:19:20Z</time>
      </trkpt>
      <trkpt lat="47.66312" lon="-3.19416">
        <ele>13.12</ele>
        <time>2020-08-09T09:19:33Z</time>
      </trkpt>
      <trkpt lat="47.6631" lon="-3.19403">
        <ele>13.6</ele>
        <time>2020-08-09T09:19:44Z</time>
      </trkpt>
      <trkpt lat="47.66312" lon="-3.19385">
        <ele>13.6</ele>
        <time>2020-08-09T09:19:58Z</time>
      </trkpt>
      <trkpt lat="47.66315" lon="-3.19372">
        <ele>13.6</ele>
        <time>2020-08-09T09:20:08Z</time>
      </trkpt>
      <trkpt lat="47.66314" lon="-3.1936">
        <ele>14.08</ele>
        <time>2020-08-09T09:20:19Z</time>
      </trkpt>
      <trkpt lat="47.66316" lon="-3.19333">
        <ele>14.08</ele>
        <time>2020-08-09T09:20:36Z</time>
      </trkpt>
      <trkpt lat="47.66316" lon="-3.19319">
        <ele>14.56</ele>
        <time>2020-08-09T09:20:43Z</time>
      </trkpt>
      <trkpt lat="47.66317" lon="-3.19311">
        <ele>14.56</ele>
        <time>2020-08-09T09:20:48Z</time>
      </trkpt>
      <trkpt lat="47.66316" lon="-3.193">
        <ele>14.56</ele>
        <time>2020-08-09T09:20:55Z</time>
      </trkpt>
      <trkpt lat="47.66314" lon="-3.19295">
        <ele>14.56</ele>
        <time>2020-08-09T09:20:58Z</time>
      </trkpt>
      <trkpt lat="47.66315" lon="-3.19286">
        <ele>14.56</ele>
        <time>2020-08-09T09:21:03Z</time>
      </trkpt>
      <trkpt lat="47.66313" lon="-3.19281">
        <ele>14.56</ele>
        <time>2020-08-09T09:21:07Z</time>
      </trkpt>
      <trkpt lat="47.66311" lon="-3.19275">
        <ele>14.56</ele>
        <time>2020-08-09T09:21:11Z</time>
      </trkpt>
      <trkpt lat="47.66309" lon="-3.19263">
        <ele>14.56</ele>
        <time>2020-08-09T09:21:19Z</time>
      </trkpt>
      <trkpt lat="47.66306" lon="-3.19248">
        <ele>13.12</ele>
        <time>2020-08-09T09:21:31Z</time>
      </trkpt>
      <trkpt lat="47.66297" lon="-3.19237">
        <ele>13.12</ele>
        <time>2020-08-09T09:21:43Z</time>
      </trkpt>
      <trkpt lat="47.66294" lon="-3.19228">
        <ele>13.12</ele>
        <time>2020-08-09T09:21:53Z</time>
      </trkpt>
      <trkpt lat="47.66297" lon="-3.19213">
        <ele>13.6</ele>
        <time>2020-08-09T09:22:05Z</time>
      </trkpt>
      <trkpt lat="47.66294" lon="-3.19204">
        <ele>13.6</ele>
        <time>2020-08-09T09:22:17Z</time>
      </trkpt>
      <trkpt lat="47.66289" lon="-3.19197">
        <ele>13.12</ele>
        <time>2020-08-09T09:22:29Z</time>
      </trkpt>
      <trkpt lat="47.66285" lon="-3.19184">
        <ele>12.63</ele>
        <time>2020-08-09T09:22:41Z</time>
      </trkpt>
      <trkpt lat="47.66291" lon="-3.19164">
        <ele>12.63</ele>
        <time>2020-08-09T09:22:53Z</time>
      </trkpt>
      <trkpt lat="47.66295" lon="-3.19153">
        <ele>12.63</ele>
        <time>2020-08-09T09:22:59Z</time>
      </trkpt>
      <trkpt lat="47.66302" lon="-3.19131">
        <ele>12.63</ele>
        <time>2020-08-09T09:23:13Z</time>
      </trkpt>
      <trkpt lat="47.66307" lon="-3.19115">
        <ele>12.63</ele>
        <time>2020-08-09T09:23:24Z</time>
      </trkpt>
      <trkpt lat="47.66308" lon="-3.19114">
        <ele>12.63</ele>
        <time>2020-08-09T09:23:28Z</time>
      </trkpt>
      <trkpt lat="47.66308" lon="-3.19109">
        <ele>12.63</ele>
        <time>2020-08-09T09:23:31Z</time>
      </trkpt>
      <trkpt lat="47.66308" lon="-3.19106">
        <ele>12.63</ele>
        <time>2020-08-09T09:23:33Z</time>
      </trkpt>
      <trkpt lat="47.66307" lon="-3.1909">
        <ele>12.63</ele>
        <time>2020-08-09T09:23:46Z</time>
      </trkpt>
      <trkpt lat="47.66303" lon="-3.19085">
        <ele>13.12</ele>
        <time>2020-08-09T09:24:06Z</time>
      </trkpt>
      <trkpt lat="47.66302" lon="-3.19083">
        <ele>12.63</ele>
        <time>2020-08-09T09:24:26Z</time>
      </trkpt>
      <trkpt lat="47.66302" lon="-3.19083">
        <ele>12.63</ele>
        <time>2020-08-09T09:24:47Z</time>
      </trkpt>
      <trkpt lat="47.66302" lon="-3.19083">
        <ele>12.15</ele>
        <time>2020-08-09T09:25:04Z</time>
      </trkpt>
      <trkpt lat="47.66302" lon="-3.19083">
        <ele>12.15</ele>
        <time>2020-08-09T09:25:18Z</time>
      </trkpt>
      <trkpt lat="47.66302" lon="-3.19091">
        <ele>12.15</ele>
        <time>2020-08-09T09:25:25Z</time>
      </trkpt>
      <trkpt lat="47.66307" lon="-3.1911">
        <ele>12.63</ele>
        <time>2020-08-09T09:25:41Z</time>
      </trkpt>
      <trkpt lat="47.66322" lon="-3.19125">
        <ele>14.08</ele>
        <time>2020-08-09T09:25:58Z</time>
      </trkpt>
      <trkpt lat="47.66329" lon="-3.19132">
        <ele>14.08</ele>
        <time>2020-08-09T09:26:09Z</time>
      </trkpt>
      <trkpt lat="47.66347" lon="-3.19144">
        <ele>14.56</ele>
        <time>2020-08-09T09:26:30Z</time>
      </trkpt>
      <trkpt lat="47.66355" lon="-3.19153">
        <ele>14.56</ele>
        <time>2020-08-09T09:26:45Z</time>
      </trkpt>
      <trkpt lat="47.66364" lon="-3.19161">
        <ele>15.04</ele>
        <time>2020-08-09T09:26:58Z</time>
      </trkpt>
      <trkpt lat="47.6637" lon="-3.19163">
        <ele>14.56</ele>
        <time>2020-08-09T09:27:15Z</time>
      </trkpt>
      <trkpt lat="47.66389" lon="-3.1917">
        <ele>14.56</ele>
        <time>2020-08-09T09:27:34Z</time>
      </trkpt>
      <trkpt lat="47.664" lon="-3.1918">
        <ele>14.56</ele>
        <time>2020-08-09T09:27:50Z</time>
      </trkpt>
      <trkpt lat="47.66402" lon="-3.19184">
        <ele>14.56</ele>
        <time>2020-08-09T09:28:09Z</time>
      </trkpt>
      <trkpt lat="47.66405" lon="-3.19187">
        <ele>13.6</ele>
        <time>2020-08-09T09:28:24Z</time>
      </trkpt>
      <trkpt lat="47.66416" lon="-3.19195">
        <ele>13.6</ele>
        <time>2020-08-09T09:28:36Z</time>
      </trkpt>
      <trkpt lat="47.66434" lon="-3.19202">
        <ele>13.12</ele>
        <time>2020-08-09T09:28:52Z</time>
      </trkpt>
      <trkpt lat="47.66441" lon="-3.19214">
        <ele>13.12</ele>
        <time>2020-08-09T09:29:07Z</time>
      </trkpt>
      <trkpt lat="47.66444" lon="-3.19226">
        <ele>13.12</ele>
        <time>2020-08-09T09:29:23Z</time>
      </trkpt>
      <trkpt lat="47.66445" lon="-3.19227">
        <ele>13.6</ele>
        <time>2020-08-09T09:29:38Z</time>
      </trkpt>
      <trkpt lat="47.66448" lon="-3.19228">
        <ele>13.6</ele>
        <time>2020-08-09T09:29:54Z</time>
      </trkpt>
      <trkpt lat="47.66455" lon="-3.19233">
        <ele>14.08</ele>
        <time>2020-08-09T09:30:07Z</time>
      </trkpt>
      <trkpt lat="47.66465" lon="-3.19245">
        <ele>13.6</ele>
        <time>2020-08-09T09:30:19Z</time>
      </trkpt>
      <trkpt lat="47.66473" lon="-3.19258">
        <ele>14.56</ele>
        <time>2020-08-09T09:30:31Z</time>
      </trkpt>
      <trkpt lat="47.6648" lon="-3.19267">
        <ele>15.04</ele>
        <time>2020-08-09T09:30:42Z</time>
      </trkpt>
      <trkpt lat="47.66485" lon="-3.19273">
        <ele>16</ele>
        <time>2020-08-09T09:30:57Z</time>
      </trkpt>
      <trkpt lat="47.66491" lon="-3.1928">
        <ele>16</ele>
        <time>2020-08-09T09:31:08Z</time>
      </trkpt>
      <trkpt lat="47.665" lon="-3.19284">
        <ele>15.52</ele>
        <time>2020-08-09T09:31:23Z</time>
      </trkpt>
      <trkpt lat="47.66507" lon="-3.19287">
        <ele>16</ele>
        <time>2020-08-09T09:31:34Z</time>
      </trkpt>
      <trkpt lat="47.66516" lon="-3.1929">
        <ele>16</ele>
        <time>2020-08-09T09:31:47Z</time>
      </trkpt>
      <trkpt lat="47.66525" lon="-3.19295">
        <ele>16</ele>
        <time>2020-08-09T09:31:58Z</time>
      </trkpt>
      <trkpt lat="47.66536" lon="-3.19296">
        <ele>16.48</ele>
        <time>2020-08-09T09:32:09Z</time>
      </trkpt>
      <trkpt lat="47.6656" lon="-3.19301">
        <ele>16.96</ele>
        <time>2020-08-09T09:32:23Z</time>
      </trkpt>
      <trkpt lat="47.66582" lon="-3.19306">
        <ele>16.96</ele>
        <time>2020-08-09T09:32:35Z</time>
      </trkpt>
      <trkpt lat="47.66598" lon="-3.19313">
        <ele>17.92</ele>
        <time>2020-08-09T09:32:50Z</time>
      </trkpt>
      <trkpt lat="47.666" lon="-3.19313">
        <ele>17.92</ele>
        <time>2020-08-09T09:32:53Z</time>
      </trkpt>
      <trkpt lat="47.6661" lon="-3.19317">
        <ele>18.4</ele>
        <time>2020-08-09T09:33:04Z</time>
      </trkpt>
      <trkpt lat="47.66612" lon="-3.19318">
        <ele>18.4</ele>
        <time>2020-08-09T09:33:06Z</time>
      </trkpt>
      <trkpt lat="47.66627" lon="-3.19325">
        <ele>18.4</ele>
        <time>2020-08-09T09:33:17Z</time>
      </trkpt>
      <trkpt lat="47.6664" lon="-3.1933">
        <ele>18.4</ele>
        <time>2020-08-09T09:33:27Z</time>
      </trkpt>
      <trkpt lat="47.66647" lon="-3.19326">
        <ele>18.88</ele>
        <time>2020-08-09T09:33:34Z</time>
      </trkpt>
      <trkpt lat="47.66658" lon="-3.19328">
        <ele>18.4</ele>
        <time>2020-08-09T09:33:47Z</time>
      </trkpt>
      <trkpt lat="47.66666" lon="-3.1933">
        <ele>18.88</ele>
        <time>2020-08-09T09:34:01Z</time>
      </trkpt>
      <trkpt lat="47.66675" lon="-3.19329">
        <ele>17.92</ele>
        <time>2020-08-09T09:34:13Z</time>
      </trkpt>
      <trkpt lat="47.66688" lon="-3.19325">
        <ele>17.92</ele>
        <time>2020-08-09T09:34:24Z</time>
      </trkpt>
      <trkpt lat="47.66698" lon="-3.19325">
        <ele>17.92</ele>
        <time>2020-08-09T09:34:31Z</time>
      </trkpt>
      <trkpt lat="47.66713" lon="-3.1932">
        <ele>17.92</ele>
        <time>2020-08-09T09:34:45Z</time>
      </trkpt>
      <trkpt lat="47.66716" lon="-3.19315">
        <ele>17.92</ele>
        <time>2020-08-09T09:34:58Z</time>
      </trkpt>
      <trkpt lat="47.6672" lon="-3.19299">
        <ele>18.4</ele>
        <time>2020-08-09T09:35:10Z</time>
      </trkpt>
      <trkpt lat="47.66719" lon="-3.19297">
        <ele>18.4</ele>
        <time>2020-08-09T09:35:24Z</time>
      </trkpt>
      <trkpt lat="47.66727" lon="-3.19302">
        <ele>18.88</ele>
        <time>2020-08-09T09:35:36Z</time>
      </trkpt>
      <trkpt lat="47.66736" lon="-3.19303">
        <ele>18.88</ele>
        <time>2020-08-09T09:35:49Z</time>
      </trkpt>
      <trkpt lat="47.6674" lon="-3.19302">
        <ele>18.88</ele>
        <time>2020-08-09T09:35:53Z</time>
      </trkpt>
      <trkpt lat="47.66749" lon="-3.19297">
        <ele>19.36</ele>
        <time>2020-08-09T09:36:02Z</time>
      </trkpt>
      <trkpt lat="47.66763" lon="-3.19299">
        <ele>19.84</ele>
        <time>2020-08-09T09:36:16Z</time>
      </trkpt>
      <trkpt lat="47.66773" lon="-3.19311">
        <ele>20.32</ele>
        <time>2020-08-09T09:36:30Z</time>
      </trkpt>
      <trkpt lat="47.66775" lon="-3.19313">
        <ele>20.32</ele>
        <time>2020-08-09T09:36:42Z</time>
      </trkpt>
      <trkpt lat="47.66782" lon="-3.19311">
        <ele>20.32</ele>
        <time>2020-08-09T09:36:57Z</time>
      </trkpt>
      <trkpt lat="47.66784" lon="-3.1931">
        <ele>20.32</ele>
        <time>2020-08-09T09:37:02Z</time>
      </trkpt>
      <trkpt lat="47.66788" lon="-3.1931">
        <ele>20.81</ele>
        <time>2020-08-09T09:37:05Z</time>
      </trkpt>
      <trkpt lat="47.66797" lon="-3.1931">
        <ele>20.81</ele>
        <time>2020-08-09T09:37:11Z</time>
      </trkpt>
      <trkpt lat="47.66804" lon="-3.1931">
        <ele>21.29</ele>
        <time>2020-08-09T09:37:16Z</time>
      </trkpt>
      <trkpt lat="47.66821" lon="-3.19313">
        <ele>21.29</ele>
        <time>2020-08-09T09:37:29Z</time>
      </trkpt>
      <trkpt lat="47.66829" lon="-3.19312">
        <ele>21.29</ele>
        <time>2020-08-09T09:37:35Z</time>
      </trkpt>
      <trkpt lat="47.66833" lon="-3.1931">
        <ele>21.77</ele>
        <time>2020-08-09T09:37:38Z</time>
      </trkpt>
      <trkpt lat="47.66849" lon="-3.19301">
        <ele>22.25</ele>
        <time>2020-08-09T09:37:52Z</time>
      </trkpt>
      <trkpt lat="47.66862" lon="-3.19299">
        <ele>22.73</ele>
        <time>2020-08-09T09:38:06Z</time>
      </trkpt>
      <trkpt lat="47.66865" lon="-3.19295">
        <ele>23.21</ele>
        <time>2020-08-09T09:38:11Z</time>
      </trkpt>
      <trkpt lat="47.6688" lon="-3.19295">
        <ele>23.69</ele>
        <time>2020-08-09T09:38:24Z</time>
      </trkpt>
      <trkpt lat="47.66884" lon="-3.19297">
        <ele>23.69</ele>
        <time>2020-08-09T09:38:28Z</time>
      </trkpt>
      <trkpt lat="47.66898" lon="-3.193">
        <ele>24.17</ele>
        <time>2020-08-09T09:38:40Z</time>
      </trkpt>
      <trkpt lat="47.66904" lon="-3.19302">
        <ele>24.17</ele>
        <time>2020-08-09T09:38:46Z</time>
      </trkpt>
      <trkpt lat="47.66912" lon="-3.19309">
        <ele>24.65</ele>
        <time>2020-08-09T09:38:55Z</time>
      </trkpt>
      <trkpt lat="47.66924" lon="-3.19324">
        <ele>25.61</ele>
        <time>2020-08-09T09:39:08Z</time>
      </trkpt>
      <trkpt lat="47.6694" lon="-3.19336">
        <ele>26.57</ele>
        <time>2020-08-09T09:39:23Z</time>
      </trkpt>
      <trkpt lat="47.66952" lon="-3.19345">
        <ele>26.09</ele>
        <time>2020-08-09T09:39:39Z</time>
      </trkpt>
      <trkpt lat="47.66953" lon="-3.19347">
        <ele>27.53</ele>
        <time>2020-08-09T09:39:46Z</time>
      </trkpt>
      <trkpt lat="47.66965" lon="-3.19365">
        <ele>27.53</ele>
        <time>2020-08-09T09:40:02Z</time>
      </trkpt>
      <trkpt lat="47.66966" lon="-3.19366">
        <ele>27.53</ele>
        <time>2020-08-09T09:40:03Z</time>
      </trkpt>
      <trkpt lat="47.66977" lon="-3.19381">
        <ele>28.5</ele>
        <time>2020-08-09T09:40:19Z</time>
      </trkpt>
      <trkpt lat="47.66983" lon="-3.19388">
        <ele>29.46</ele>
        <time>2020-08-09T09:40:27Z</time>
      </trkpt>
      <trkpt lat="47.66986" lon="-3.19391">
        <ele>29.46</ele>
        <time>2020-08-09T09:40:30Z</time>
      </trkpt>
      <trkpt lat="47.66988" lon="-3.19392">
        <ele>29.46</ele>
        <time>2020-08-09T09:40:32Z</time>
      </trkpt>
      <trkpt lat="47.66994" lon="-3.19402">
        <ele>30.42</ele>
        <time>2020-08-09T09:40:41Z</time>
      </trkpt>
      <trkpt lat="47.67001" lon="-3.1942">
        <ele>30.9</ele>
        <time>2020-08-09T09:40:54Z</time>
      </trkpt>
      <trkpt lat="47.67002" lon="-3.19425">
        <ele>31.38</ele>
        <time>2020-08-09T09:40:58Z</time>
      </trkpt>
      <trkpt lat="47.67008" lon="-3.1944">
        <ele>31.38</ele>
        <time>2020-08-09T09:41:10Z</time>
      </trkpt>
      <trkpt lat="47.67013" lon="-3.19454">
        <ele>30.9</ele>
        <time>2020-08-09T09:41:21Z</time>
      </trkpt>
      <trkpt lat="47.67018" lon="-3.19474">
        <ele>30.9</ele>
        <time>2020-08-09T09:41:35Z</time>
      </trkpt>
      <trkpt lat="47.67019" lon="-3.19476">
        <ele>30.42</ele>
        <time>2020-08-09T09:41:37Z</time>
      </trkpt>
      <trkpt lat="47.67028" lon="-3.19495">
        <ele>30.42</ele>
        <time>2020-08-09T09:41:52Z</time>
      </trkpt>
      <trkpt lat="47.67029" lon="-3.19496">
        <ele>30.9</ele>
        <time>2020-08-09T09:41:53Z</time>
      </trkpt>
      <trkpt lat="47.67032" lon="-3.19502">
        <ele>30.42</ele>
        <time>2020-08-09T09:41:58Z</time>
      </trkpt>
      <trkpt lat="47.67039" lon="-3.19512">
        <ele>30.9</ele>
        <time>2020-08-09T09:42:09Z</time>
      </trkpt>
      <trkpt lat="47.67041" lon="-3.19513">
        <ele>30.9</ele>
        <time>2020-08-09T09:42:11Z</time>
      </trkpt>
      <trkpt lat="47.67048" lon="-3.19516">
        <ele>30.9</ele>
        <time>2020-08-09T09:42:20Z</time>
      </trkpt>
      <trkpt lat="47.67061" lon="-3.1952">
        <ele>30.9</ele>
        <time>2020-08-09T09:42:34Z</time>
      </trkpt>
      <trkpt lat="47.67068" lon="-3.19525">
        <ele>30.9</ele>
        <time>2020-08-09T09:42:43Z</time>
      </trkpt>
      <trkpt lat="47.67076" lon="-3.19538">
        <ele>30.9</ele>
        <time>2020-08-09T09:42:56Z</time>
      </trkpt>
      <trkpt lat="47.67079" lon="-3.19547">
        <ele>30.9</ele>
        <time>2020-08-09T09:43:05Z</time>
      </trkpt>
      <trkpt lat="47.67081" lon="-3.19556">
        <ele>30.42</ele>
        <time>2020-08-09T09:43:12Z</time>
      </trkpt>
      <trkpt lat="47.67075" lon="-3.19567">
        <ele>30.9</ele>
        <time>2020-08-09T09:43:23Z</time>
      </trkpt>
      <trkpt lat="47.67075" lon="-3.19569">
        <ele>30.42</ele>
        <time>2020-08-09T09:43:25Z</time>
      </trkpt>
      <trkpt lat="47.67068" lon="-3.19587">
        <ele>29.94</ele>
        <time>2020-08-09T09:43:39Z</time>
      </trkpt>
      <trkpt lat="47.67065" lon="-3.19593">
        <ele>30.42</ele>
        <time>2020-08-09T09:43:43Z</time>
      </trkpt>
      <trkpt lat="47.67063" lon="-3.19598">
        <ele>29.46</ele>
        <time>2020-08-09T09:43:47Z</time>
      </trkpt>
      <trkpt lat="47.67058" lon="-3.19612">
        <ele>29.46</ele>
        <time>2020-08-09T09:43:57Z</time>
      </trkpt>
      <trkpt lat="47.67051" lon="-3.19628">
        <ele>29.46</ele>
        <time>2020-08-09T09:44:10Z</time>
      </trkpt>
      <trkpt lat="47.67049" lon="-3.19639">
        <ele>28.5</ele>
        <time>2020-08-09T09:44:17Z</time>
      </trkpt>
      <trkpt lat="47.67042" lon="-3.19662">
        <ele>28.02</ele>
        <time>2020-08-09T09:44:33Z</time>
      </trkpt>
      <trkpt lat="47.67033" lon="-3.19685">
        <ele>26.57</ele>
        <time>2020-08-09T09:44:50Z</time>
      </trkpt>
      <trkpt lat="47.67025" lon="-3.19705">
        <ele>25.13</ele>
        <time>2020-08-09T09:45:05Z</time>
      </trkpt>
      <trkpt lat="47.67024" lon="-3.19707">
        <ele>24.65</ele>
        <time>2020-08-09T09:45:07Z</time>
      </trkpt>
      <trkpt lat="47.67012" lon="-3.19732">
        <ele>24.17</ele>
        <time>2020-08-09T09:45:25Z</time>
      </trkpt>
      <trkpt lat="47.67002" lon="-3.19753">
        <ele>23.69</ele>
        <time>2020-08-09T09:45:41Z</time>
      </trkpt>
      <trkpt lat="47.66997" lon="-3.19761">
        <ele>23.21</ele>
        <time>2020-08-09T09:45:48Z</time>
      </trkpt>
      <trkpt lat="47.66996" lon="-3.19765">
        <ele>23.69</ele>
        <time>2020-08-09T09:45:56Z</time>
      </trkpt>
      <trkpt lat="47.66991" lon="-3.19778">
        <ele>23.21</ele>
        <time>2020-08-09T09:46:05Z</time>
      </trkpt>
      <trkpt lat="47.66982" lon="-3.19801">
        <ele>23.21</ele>
        <time>2020-08-09T09:46:22Z</time>
      </trkpt>
      <trkpt lat="47.66981" lon="-3.19805">
        <ele>23.69</ele>
        <time>2020-08-09T09:46:25Z</time>
      </trkpt>
      <trkpt lat="47.66978" lon="-3.1981">
        <ele>23.21</ele>
        <time>2020-08-09T09:46:29Z</time>
      </trkpt>
      <trkpt lat="47.66977" lon="-3.19813">
        <ele>23.69</ele>
        <time>2020-08-09T09:46:31Z</time>
      </trkpt>
      <trkpt lat="47.66973" lon="-3.19823">
        <ele>23.69</ele>
        <time>2020-08-09T09:46:39Z</time>
      </trkpt>
      <trkpt lat="47.66966" lon="-3.19843">
        <ele>24.65</ele>
        <time>2020-08-09T09:46:52Z</time>
      </trkpt>
      <trkpt lat="47.66965" lon="-3.19847">
        <ele>24.65</ele>
        <time>2020-08-09T09:46:55Z</time>
      </trkpt>
      <trkpt lat="47.6696" lon="-3.19865">
        <ele>26.09</ele>
        <time>2020-08-09T09:47:09Z</time>
      </trkpt>
      <trkpt lat="47.6696" lon="-3.19866">
        <ele>26.57</ele>
        <time>2020-08-09T09:47:10Z</time>
      </trkpt>
      <trkpt lat="47.66958" lon="-3.19885">
        <ele>27.05</ele>
        <time>2020-08-09T09:47:22Z</time>
      </trkpt>
      <trkpt lat="47.66957" lon="-3.19894">
        <ele>27.05</ele>
        <time>2020-08-09T09:47:37Z</time>
      </trkpt>
      <trkpt lat="47.66958" lon="-3.19896">
        <ele>27.05</ele>
        <time>2020-08-09T09:47:42Z</time>
      </trkpt>
      <trkpt lat="47.66959" lon="-3.19898">
        <ele>27.05</ele>
        <time>2020-08-09T09:47:44Z</time>
      </trkpt>
      <trkpt lat="47.66965" lon="-3.19905">
        <ele>27.53</ele>
        <time>2020-08-09T09:47:57Z</time>
      </trkpt>
      <trkpt lat="47.6697" lon="-3.19911">
        <ele>27.53</ele>
        <time>2020-08-09T09:48:04Z</time>
      </trkpt>
      <trkpt lat="47.66981" lon="-3.19912">
        <ele>27.05</ele>
        <time>2020-08-09T09:48:16Z</time>
      </trkpt>
      <trkpt lat="47.66985" lon="-3.19914">
        <ele>27.05</ele>
        <time>2020-08-09T09:48:21Z</time>
      </trkpt>
      <trkpt lat="47.66993" lon="-3.19919">
        <ele>27.05</ele>
        <time>2020-08-09T09:48:30Z</time>
      </trkpt>
      <trkpt lat="47.67004" lon="-3.1993">
        <ele>26.57</ele>
        <time>2020-08-09T09:48:44Z</time>
      </trkpt>
      <trkpt lat="47.67017" lon="-3.19939">
        <ele>26.09</ele>
        <time>2020-08-09T09:48:57Z</time>
      </trkpt>
      <trkpt lat="47.67025" lon="-3.19946">
        <ele>25.13</ele>
        <time>2020-08-09T09:49:10Z</time>
      </trkpt>
      <trkpt lat="47.67028" lon="-3.19946">
        <ele>23.69</ele>
        <time>2020-08-09T09:49:22Z</time>
      </trkpt>
      <trkpt lat="47.67034" lon="-3.19942">
        <ele>22.73</ele>
        <time>2020-08-09T09:49:29Z</time>
      </trkpt>
      <trkpt lat="47.67039" lon="-3.19937">
        <ele>21.77</ele>
        <time>2020-08-09T09:49:35Z</time>
      </trkpt>
      <trkpt lat="47.67044" lon="-3.19934">
        <ele>21.29</ele>
        <time>2020-08-09T09:49:42Z</time>
      </trkpt>
      <trkpt lat="47.67054" lon="-3.19923">
        <ele>20.81</ele>
        <time>2020-08-09T09:49:56Z</time>
      </trkpt>
      <trkpt lat="47.67069" lon="-3.19916">
        <ele>20.81</ele>
        <time>2020-08-09T09:50:08Z</time>
      </trkpt>
      <trkpt lat="47.67083" lon="-3.19913">
        <ele>20.32</ele>
        <time>2020-08-09T09:50:23Z</time>
      </trkpt>
      <trkpt lat="47.67088" lon="-3.19899">
        <ele>20.81</ele>
        <time>2020-08-09T09:50:37Z</time>
      </trkpt>
      <trkpt lat="47.67091" lon="-3.19887">
        <ele>21.29</ele>
        <time>2020-08-09T09:50:48Z</time>
      </trkpt>
      <trkpt lat="47.67095" lon="-3.19871">
        <ele>22.73</ele>
        <time>2020-08-09T09:51:03Z</time>
      </trkpt>
      <trkpt lat="47.67097" lon="-3.19869">
        <ele>22.73</ele>
        <time>2020-08-09T09:51:05Z</time>
      </trkpt>
      <trkpt lat="47.67104" lon="-3.19853">
        <ele>24.17</ele>
        <time>2020-08-09T09:51:20Z</time>
      </trkpt>
      <trkpt lat="47.67105" lon="-3.19852">
        <ele>23.69</ele>
        <time>2020-08-09T09:51:22Z</time>
      </trkpt>
      <trkpt lat="47.67109" lon="-3.19844">
        <ele>24.17</ele>
        <time>2020-08-09T09:51:30Z</time>
      </trkpt>
      <trkpt lat="47.6712" lon="-3.19824">
        <ele>25.13</ele>
        <time>2020-08-09T09:51:45Z</time>
      </trkpt>
      <trkpt lat="47.67128" lon="-3.19813">
        <ele>25.61</ele>
        <time>2020-08-09T09:51:58Z</time>
      </trkpt>
      <trkpt lat="47.6713" lon="-3.19809">
        <ele>26.57</ele>
        <time>2020-08-09T09:52:02Z</time>
      </trkpt>
      <trkpt lat="47.67132" lon="-3.19804">
        <ele>26.09</ele>
        <time>2020-08-09T09:52:15Z</time>
      </trkpt>
      <trkpt lat="47.67134" lon="-3.19796">
        <ele>25.61</ele>
        <time>2020-08-09T09:52:26Z</time>
      </trkpt>
      <trkpt lat="47.67142" lon="-3.19782">
        <ele>26.57</ele>
        <time>2020-08-09T09:52:40Z</time>
      </trkpt>
      <trkpt lat="47.67144" lon="-3.1978">
        <ele>26.57</ele>
        <time>2020-08-09T09:52:42Z</time>
      </trkpt>
      <trkpt lat="47.67154" lon="-3.19767">
        <ele>27.05</ele>
        <time>2020-08-09T09:52:56Z</time>
      </trkpt>
      <trkpt lat="47.67157" lon="-3.19764">
        <ele>27.53</ele>
        <time>2020-08-09T09:53:01Z</time>
      </trkpt>
      <trkpt lat="47.67161" lon="-3.19761">
        <ele>27.53</ele>
        <time>2020-08-09T09:53:05Z</time>
      </trkpt>
      <trkpt lat="47.67174" lon="-3.19753">
        <ele>27.53</ele>
        <time>2020-08-09T09:53:18Z</time>
      </trkpt>
      <trkpt lat="47.6718" lon="-3.19749">
        <ele>27.53</ele>
        <time>2020-08-09T09:53:24Z</time>
      </trkpt>
      <trkpt lat="47.67185" lon="-3.19746">
        <ele>27.05</ele>
        <time>2020-08-09T09:53:30Z</time>
      </trkpt>
      <trkpt lat="47.67193" lon="-3.19737">
        <ele>27.05</ele>
        <time>2020-08-09T09:53:39Z</time>
      </trkpt>
      <trkpt lat="47.67201" lon="-3.19731">
        <ele>27.53</ele>
        <time>2020-08-09T09:53:47Z</time>
      </trkpt>
      <trkpt lat="47.67216" lon="-3.19722">
        <ele>27.53</ele>
        <time>2020-08-09T09:54:01Z</time>
      </trkpt>
      <trkpt lat="47.67229" lon="-3.19712">
        <ele>26.57</ele>
        <time>2020-08-09T09:54:15Z</time>
      </trkpt>
      <trkpt lat="47.6723" lon="-3.19712">
        <ele>27.05</ele>
        <time>2020-08-09T09:54:16Z</time>
      </trkpt>
      <trkpt lat="47.67243" lon="-3.19702">
        <ele>26.57</ele>
        <time>2020-08-09T09:54:30Z</time>
      </trkpt>
      <trkpt lat="47.6725" lon="-3.19695">
        <ele>26.57</ele>
        <time>2020-08-09T09:54:38Z</time>
      </trkpt>
      <trkpt lat="47.6726" lon="-3.19686">
        <ele>26.57</ele>
        <time>2020-08-09T09:54:51Z</time>
      </trkpt>
      <trkpt lat="47.67263" lon="-3.19678">
        <ele>25.61</ele>
        <time>2020-08-09T09:55:03Z</time>
      </trkpt>
      <trkpt lat="47.67269" lon="-3.19684">
        <ele>24.65</ele>
        <time>2020-08-09T09:55:14Z</time>
      </trkpt>
      <trkpt lat="47.6727" lon="-3.19685">
        <ele>24.65</ele>
        <time>2020-08-09T09:55:15Z</time>
      </trkpt>
      <trkpt lat="47.67276" lon="-3.19688">
        <ele>24.17</ele>
        <time>2020-08-09T09:55:27Z</time>
      </trkpt>
      <trkpt lat="47.67288" lon="-3.19691">
        <ele>23.21</ele>
        <time>2020-08-09T09:55:42Z</time>
      </trkpt>
      <trkpt lat="47.67294" lon="-3.19699">
        <ele>22.73</ele>
        <time>2020-08-09T09:55:48Z</time>
      </trkpt>
      <trkpt lat="47.67298" lon="-3.19701">
        <ele>22.73</ele>
        <time>2020-08-09T09:55:51Z</time>
      </trkpt>
      <trkpt lat="47.67311" lon="-3.19708">
        <ele>22.25</ele>
        <time>2020-08-09T09:56:06Z</time>
      </trkpt>
      <trkpt lat="47.67312" lon="-3.19709">
        <ele>21.77</ele>
        <time>2020-08-09T09:56:07Z</time>
      </trkpt>
      <trkpt lat="47.67315" lon="-3.19712">
        <ele>22.25</ele>
        <time>2020-08-09T09:56:10Z</time>
      </trkpt>
      <trkpt lat="47.67328" lon="-3.19722">
        <ele>19.84</ele>
        <time>2020-08-09T09:56:27Z</time>
      </trkpt>
      <trkpt lat="47.67332" lon="-3.19727">
        <ele>19.84</ele>
        <time>2020-08-09T09:56:41Z</time>
      </trkpt>
      <trkpt lat="47.67331" lon="-3.19729">
        <ele>19.84</ele>
        <time>2020-08-09T09:56:55Z</time>
      </trkpt>
      <trkpt lat="47.67329" lon="-3.19735">
        <ele>18.88</ele>
        <time>2020-08-09T09:57:13Z</time>
      </trkpt>
      <trkpt lat="47.67328" lon="-3.1974">
        <ele>18.4</ele>
        <time>2020-08-09T09:57:29Z</time>
      </trkpt>
      <trkpt lat="47.67326" lon="-3.19745">
        <ele>18.88</ele>
        <time>2020-08-09T09:57:34Z</time>
      </trkpt>
      <trkpt lat="47.67325" lon="-3.19756">
        <ele>18.4</ele>
        <time>2020-08-09T09:57:44Z</time>
      </trkpt>
      <trkpt lat="47.67327" lon="-3.19759">
        <ele>17.44</ele>
        <time>2020-08-09T09:57:58Z</time>
      </trkpt>
      <trkpt lat="47.67321" lon="-3.19766">
        <ele>17.92</ele>
        <time>2020-08-09T09:58:10Z</time>
      </trkpt>
      <trkpt lat="47.6732" lon="-3.19768">
        <ele>17.44</ele>
        <time>2020-08-09T09:58:26Z</time>
      </trkpt>
      <trkpt lat="47.67319" lon="-3.19768">
        <ele>17.44</ele>
        <time>2020-08-09T09:58:39Z</time>
      </trkpt>
      <trkpt lat="47.67315" lon="-3.19776">
        <ele>16.48</ele>
        <time>2020-08-09T09:58:51Z</time>
      </trkpt>
      <trkpt lat="47.67314" lon="-3.1979">
        <ele>16</ele>
        <time>2020-08-09T09:59:03Z</time>
      </trkpt>
      <trkpt lat="47.67313" lon="-3.1981">
        <ele>16</ele>
        <time>2020-08-09T09:59:17Z</time>
      </trkpt>
      <trkpt lat="47.67309" lon="-3.19823">
        <ele>15.52</ele>
        <time>2020-08-09T09:59:30Z</time>
      </trkpt>
      <trkpt lat="47.67301" lon="-3.19834">
        <ele>16</ele>
        <time>2020-08-09T09:59:44Z</time>
      </trkpt>
      <trkpt lat="47.673" lon="-3.19835">
        <ele>16</ele>
        <time>2020-08-09T09:59:45Z</time>
      </trkpt>
      <trkpt lat="47.67299" lon="-3.1984">
        <ele>15.52</ele>
        <time>2020-08-09T09:59:49Z</time>
      </trkpt>
      <trkpt lat="47.67296" lon="-3.19848">
        <ele>15.52</ele>
        <time>2020-08-09T09:59:56Z</time>
      </trkpt>
      <trkpt lat="47.67295" lon="-3.19853">
        <ele>15.52</ele>
        <time>2020-08-09T10:00:00Z</time>
      </trkpt>
      <trkpt lat="47.67289" lon="-3.19862">
        <ele>15.52</ele>
        <time>2020-08-09T10:00:13Z</time>
      </trkpt>
      <trkpt lat="47.67287" lon="-3.19865">
        <ele>15.52</ele>
        <time>2020-08-09T10:00:30Z</time>
      </trkpt>
      <trkpt lat="47.67286" lon="-3.19876">
        <ele>15.52</ele>
        <time>2020-08-09T10:00:40Z</time>
      </trkpt>
      <trkpt lat="47.67282" lon="-3.1989">
        <ele>15.04</ele>
        <time>2020-08-09T10:00:55Z</time>
      </trkpt>
      <trkpt lat="47.67281" lon="-3.19891">
        <ele>15.04</ele>
        <time>2020-08-09T10:01:13Z</time>
      </trkpt>
      <trkpt lat="47.67276" lon="-3.19894">
        <ele>17.92</ele>
        <time>2020-08-09T10:01:25Z</time>
      </trkpt>
      <trkpt lat="47.67272" lon="-3.19898">
        <ele>19.84</ele>
        <time>2020-08-09T10:01:42Z</time>
      </trkpt>
      <trkpt lat="47.67271" lon="-3.19898">
        <ele>18.88</ele>
        <time>2020-08-09T10:02:00Z</time>
      </trkpt>
      <trkpt lat="47.6727" lon="-3.19899">
        <ele>19.36</ele>
        <time>2020-08-09T10:02:23Z</time>
      </trkpt>
      <trkpt lat="47.67269" lon="-3.199">
        <ele>19.36</ele>
        <time>2020-08-09T10:02:51Z</time>
      </trkpt>
      <trkpt lat="47.67268" lon="-3.199">
        <ele>19.36</ele>
        <time>2020-08-09T10:03:28Z</time>
      </trkpt>
      <trkpt lat="47.67267" lon="-3.19901">
        <ele>19.36</ele>
        <time>2020-08-09T10:04:04Z</time>
      </trkpt>
      <trkpt lat="47.6726" lon="-3.19898">
        <ele>20.81</ele>
        <time>2020-08-09T10:04:15Z</time>
      </trkpt>
      <trkpt lat="47.67253" lon="-3.19896">
        <ele>21.29</ele>
        <time>2020-08-09T10:04:24Z</time>
      </trkpt>
      <trkpt lat="47.67247" lon="-3.19901">
        <ele>19.84</ele>
        <time>2020-08-09T10:04:35Z</time>
      </trkpt>
      <trkpt lat="47.67243" lon="-3.19909">
        <ele>21.77</ele>
        <time>2020-08-09T10:04:48Z</time>
      </trkpt>
      <trkpt lat="47.6724" lon="-3.19914">
        <ele>21.29</ele>
        <time>2020-08-09T10:04:59Z</time>
      </trkpt>
      <trkpt lat="47.67237" lon="-3.1992">
        <ele>20.81</ele>
        <time>2020-08-09T10:05:16Z</time>
      </trkpt>
      <trkpt lat="47.6723" lon="-3.1993">
        <ele>22.25</ele>
        <time>2020-08-09T10:05:29Z</time>
      </trkpt>
      <trkpt lat="47.67225" lon="-3.19934">
        <ele>22.25</ele>
        <time>2020-08-09T10:05:47Z</time>
      </trkpt>
      <trkpt lat="47.67221" lon="-3.19942">
        <ele>22.25</ele>
        <time>2020-08-09T10:06:07Z</time>
      </trkpt>
      <trkpt lat="47.67218" lon="-3.19947">
        <ele>22.25</ele>
        <time>2020-08-09T10:06:23Z</time>
      </trkpt>
      <trkpt lat="47.67218" lon="-3.19946">
        <ele>21.77</ele>
        <time>2020-08-09T10:06:54Z</time>
      </trkpt>
      <trkpt lat="47.67216" lon="-3.19949">
        <ele>21.77</ele>
        <time>2020-08-09T10:07:05Z</time>
      </trkpt>
      <trkpt lat="47.67215" lon="-3.1995">
        <ele>22.25</ele>
        <time>2020-08-09T10:07:34Z</time>
      </trkpt>
      <trkpt lat="47.67213" lon="-3.19945">
        <ele>21.77</ele>
        <time>2020-08-09T10:07:53Z</time>
      </trkpt>
      <trkpt lat="47.67212" lon="-3.1994">
        <ele>21.77</ele>
        <time>2020-08-09T10:08:18Z</time>
      </trkpt>
      <trkpt lat="47.67211" lon="-3.19937">
        <ele>21.77</ele>
        <time>2020-08-09T10:08:40Z</time>
      </trkpt>
      <trkpt lat="47.67212" lon="-3.19938">
        <ele>22.25</ele>
        <time>2020-08-09T10:09:08Z</time>
      </trkpt>
      <trkpt lat="47.67209" lon="-3.19938">
        <ele>21.77</ele>
        <time>2020-08-09T10:09:24Z</time>
      </trkpt>
      <trkpt lat="47.672" lon="-3.19934">
        <ele>22.73</ele>
        <time>2020-08-09T10:09:38Z</time>
      </trkpt>
      <trkpt lat="47.67191" lon="-3.19922">
        <ele>22.73</ele>
        <time>2020-08-09T10:09:54Z</time>
      </trkpt>
      <trkpt lat="47.67177" lon="-3.19914">
        <ele>22.73</ele>
        <time>2020-08-09T10:10:08Z</time>
      </trkpt>
      <trkpt lat="47.67166" lon="-3.19904">
        <ele>23.21</ele>
        <time>2020-08-09T10:10:20Z</time>
      </trkpt>
      <trkpt lat="47.67163" lon="-3.19901">
        <ele>23.21</ele>
        <time>2020-08-09T10:10:24Z</time>
      </trkpt>
      <trkpt lat="47.67162" lon="-3.19888">
        <ele>23.69</ele>
        <time>2020-08-09T10:10:35Z</time>
      </trkpt>
      <trkpt lat="47.67163" lon="-3.19888">
        <ele>18.88</ele>
        <time>2020-08-09T10:10:41Z</time>
      </trkpt>
      <trkpt lat="47.67162" lon="-3.19888">
        <ele>25.61</ele>
        <time>2020-08-09T10:10:42Z</time>
      </trkpt>
      <trkpt lat="47.67162" lon="-3.19888">
        <ele>21.77</ele>
        <time>2020-08-09T10:10:47Z</time>
      </trkpt>
      <trkpt lat="47.67161" lon="-3.19887">
        <ele>26.09</ele>
        <time>2020-08-09T10:10:51Z</time>
      </trkpt>
      <trkpt lat="47.6716" lon="-3.19887">
        <ele>23.21</ele>
        <time>2020-08-09T10:10:56Z</time>
      </trkpt>
      <trkpt lat="47.6716" lon="-3.19887">
        <ele>23.21</ele>
        <time>2020-08-09T10:10:57Z</time>
      </trkpt>
    </trkseg>
  </trk>
  <trk>
    <name><![CDATA[20-08-10]]></name>
    <trkseg>
      <trkpt lat="47.62272" lon="-3.1929">
        <ele>27.05</ele>
        <time>2020-08-10T08:07:37Z</time>
      </trkpt>
      <trkpt lat="47.62272" lon="-3.1929">
        <ele>27.05</ele>
        <time>2020-08-10T08:07:38Z</time>
      </trkpt>
      <trkpt lat="47.62278" lon="-3.19291">
        <ele>27.05</ele>
        <time>2020-08-10T08:08:00Z</time>
      </trkpt>
      <trkpt lat="47.62278" lon="-3.19292">
        <ele>23.69</ele>
        <time>2020-08-10T08:08:18Z</time>
      </trkpt>
      <trkpt lat="47.62278" lon="-3.19292">
        <ele>22.73</ele>
        <time>2020-08-10T08:08:20Z</time>
      </trkpt>
      <trkpt lat="47.62279" lon="-3.19292">
        <ele>19.36</ele>
        <time>2020-08-10T08:08:32Z</time>
      </trkpt>
      <trkpt lat="47.62279" lon="-3.19292">
        <ele>19.36</ele>
        <time>2020-08-10T08:08:33Z</time>
      </trkpt>
      <trkpt lat="47.62279" lon="-3.19289">
        <ele>18.4</ele>
        <time>2020-08-10T08:08:42Z</time>
      </trkpt>
      <trkpt lat="47.62277" lon="-3.1928">
        <ele>17.44</ele>
        <time>2020-08-10T08:08:52Z</time>
      </trkpt>
      <trkpt lat="47.62277" lon="-3.19279">
        <ele>17.44</ele>
        <time>2020-08-10T08:08:53Z</time>
      </trkpt>
      <trkpt lat="47.62269" lon="-3.19272">
        <ele>17.92</ele>
        <time>2020-08-10T08:09:05Z</time>
      </trkpt>
      <trkpt lat="47.62254" lon="-3.19271">
        <ele>16.96</ele>
        <time>2020-08-10T08:09:20Z</time>
      </trkpt>
      <trkpt lat="47.62241" lon="-3.1927">
        <ele>16.96</ele>
        <time>2020-08-10T08:09:34Z</time>
      </trkpt>
      <trkpt lat="47.62227" lon="-3.19271">
        <ele>16.96</ele>
        <time>2020-08-10T08:09:47Z</time>
      </trkpt>
      <trkpt lat="47.62224" lon="-3.19272">
        <ele>16.48</ele>
        <time>2020-08-10T08:09:50Z</time>
      </trkpt>
      <trkpt lat="47.6222" lon="-3.19276">
        <ele>16</ele>
        <time>2020-08-10T08:09:55Z</time>
      </trkpt>
      <trkpt lat="47.62217" lon="-3.19275">
        <ele>16.48</ele>
        <time>2020-08-10T08:09:58Z</time>
      </trkpt>
      <trkpt lat="47.62212" lon="-3.1928">
        <ele>16</ele>
        <time>2020-08-10T08:10:05Z</time>
      </trkpt>
      <trkpt lat="47.62212" lon="-3.19283">
        <ele>16.48</ele>
        <time>2020-08-10T08:10:07Z</time>
      </trkpt>
      <trkpt lat="47.62208" lon="-3.19287">
        <ele>16</ele>
        <time>2020-08-10T08:10:22Z</time>
      </trkpt>
      <trkpt lat="47.62207" lon="-3.1929">
        <ele>16</ele>
        <time>2020-08-10T08:10:24Z</time>
      </trkpt>
      <trkpt lat="47.62203" lon="-3.19293">
        <ele>15.04</ele>
        <time>2020-08-10T08:10:43Z</time>
      </trkpt>
      <trkpt lat="47.62203" lon="-3.19294">
        <ele>14.56</ele>
        <time>2020-08-10T08:11:15Z</time>
      </trkpt>
      <trkpt lat="47.622" lon="-3.19297">
        <ele>14.08</ele>
        <time>2020-08-10T08:11:40Z</time>
      </trkpt>
      <trkpt lat="47.62199" lon="-3.19307">
        <ele>14.08</ele>
        <time>2020-08-10T08:11:53Z</time>
      </trkpt>
      <trkpt lat="47.62199" lon="-3.19308">
        <ele>14.08</ele>
        <time>2020-08-10T08:11:54Z</time>
      </trkpt>
      <trkpt lat="47.62198" lon="-3.19324">
        <ele>13.6</ele>
        <time>2020-08-10T08:12:08Z</time>
      </trkpt>
      <trkpt lat="47.62201" lon="-3.19338">
        <ele>14.08</ele>
        <time>2020-08-10T08:12:21Z</time>
      </trkpt>
      <trkpt lat="47.62202" lon="-3.19356">
        <ele>13.6</ele>
        <time>2020-08-10T08:12:34Z</time>
      </trkpt>
      <trkpt lat="47.62203" lon="-3.19359">
        <ele>13.6</ele>
        <time>2020-08-10T08:12:37Z</time>
      </trkpt>
      <trkpt lat="47.62209" lon="-3.19375">
        <ele>13.12</ele>
        <time>2020-08-10T08:12:51Z</time>
      </trkpt>
      <trkpt lat="47.62208" lon="-3.19379">
        <ele>13.6</ele>
        <time>2020-08-10T08:12:54Z</time>
      </trkpt>
      <trkpt lat="47.62211" lon="-3.194">
        <ele>13.12</ele>
        <time>2020-08-10T08:13:09Z</time>
      </trkpt>
      <trkpt lat="47.62212" lon="-3.19416">
        <ele>12.63</ele>
        <time>2020-08-10T08:13:19Z</time>
      </trkpt>
      <trkpt lat="47.62221" lon="-3.19433">
        <ele>12.15</ele>
        <time>2020-08-10T08:13:32Z</time>
      </trkpt>
      <trkpt lat="47.62237" lon="-3.19453">
        <ele>11.67</ele>
        <time>2020-08-10T08:13:50Z</time>
      </trkpt>
      <trkpt lat="47.62247" lon="-3.19465">
        <ele>12.15</ele>
        <time>2020-08-10T08:14:03Z</time>
      </trkpt>
      <trkpt lat="47.62256" lon="-3.19479">
        <ele>11.67</ele>
        <time>2020-08-10T08:14:15Z</time>
      </trkpt>
      <trkpt lat="47.62267" lon="-3.19496">
        <ele>11.67</ele>
        <time>2020-08-10T08:14:30Z</time>
      </trkpt>
      <trkpt lat="47.62272" lon="-3.19504">
        <ele>11.67</ele>
        <time>2020-08-10T08:14:37Z</time>
      </trkpt>
      <trkpt lat="47.62273" lon="-3.19512">
        <ele>11.67</ele>
        <time>2020-08-10T08:14:42Z</time>
      </trkpt>
      <trkpt lat="47.62281" lon="-3.19526">
        <ele>11.19</ele>
        <time>2020-08-10T08:14:54Z</time>
      </trkpt>
      <trkpt lat="47.62291" lon="-3.19535">
        <ele>11.67</ele>
        <time>2020-08-10T08:15:05Z</time>
      </trkpt>
      <trkpt lat="47.62307" lon="-3.19559">
        <ele>11.67</ele>
        <time>2020-08-10T08:15:25Z</time>
      </trkpt>
      <trkpt lat="47.62309" lon="-3.19561">
        <ele>11.67</ele>
        <time>2020-08-10T08:15:27Z</time>
      </trkpt>
      <trkpt lat="47.62319" lon="-3.19575">
        <ele>11.67</ele>
        <time>2020-08-10T08:15:40Z</time>
      </trkpt>
      <trkpt lat="47.62329" lon="-3.19574">
        <ele>12.63</ele>
        <time>2020-08-10T08:15:54Z</time>
      </trkpt>
      <trkpt lat="47.62332" lon="-3.19574">
        <ele>12.63</ele>
        <time>2020-08-10T08:16:04Z</time>
      </trkpt>
      <trkpt lat="47.62335" lon="-3.19575">
        <ele>12.63</ele>
        <time>2020-08-10T08:16:08Z</time>
      </trkpt>
      <trkpt lat="47.62342" lon="-3.19587">
        <ele>13.12</ele>
        <time>2020-08-10T08:16:21Z</time>
      </trkpt>
      <trkpt lat="47.62349" lon="-3.19596">
        <ele>13.12</ele>
        <time>2020-08-10T08:16:32Z</time>
      </trkpt>
      <trkpt lat="47.6235" lon="-3.19599">
        <ele>12.63</ele>
        <time>2020-08-10T08:16:35Z</time>
      </trkpt>
      <trkpt lat="47.62355" lon="-3.19607">
        <ele>13.12</ele>
        <time>2020-08-10T08:16:43Z</time>
      </trkpt>
      <trkpt lat="47.62356" lon="-3.1961">
        <ele>13.12</ele>
        <time>2020-08-10T08:16:45Z</time>
      </trkpt>
      <trkpt lat="47.62361" lon="-3.19622">
        <ele>13.12</ele>
        <time>2020-08-10T08:16:56Z</time>
      </trkpt>
      <trkpt lat="47.62363" lon="-3.19629">
        <ele>12.63</ele>
        <time>2020-08-10T08:17:03Z</time>
      </trkpt>
      <trkpt lat="47.62365" lon="-3.19632">
        <ele>12.63</ele>
        <time>2020-08-10T08:17:06Z</time>
      </trkpt>
      <trkpt lat="47.6237" lon="-3.19648">
        <ele>12.63</ele>
        <time>2020-08-10T08:17:20Z</time>
      </trkpt>
      <trkpt lat="47.62374" lon="-3.19657">
        <ele>12.15</ele>
        <time>2020-08-10T08:17:32Z</time>
      </trkpt>
      <trkpt lat="47.62374" lon="-3.19659">
        <ele>12.15</ele>
        <time>2020-08-10T08:17:45Z</time>
      </trkpt>
      <trkpt lat="47.62376" lon="-3.19665">
        <ele>11.67</ele>
        <time>2020-08-10T08:18:00Z</time>
      </trkpt>
      <trkpt lat="47.6238" lon="-3.19679">
        <ele>12.15</ele>
        <time>2020-08-10T08:18:13Z</time>
      </trkpt>
      <trkpt lat="47.62381" lon="-3.19683">
        <ele>11.67</ele>
        <time>2020-08-10T08:18:18Z</time>
      </trkpt>
      <trkpt lat="47.62385" lon="-3.19699">
        <ele>11.67</ele>
        <time>2020-08-10T08:18:32Z</time>
      </trkpt>
      <trkpt lat="47.6239" lon="-3.1971">
        <ele>12.63</ele>
        <time>2020-08-10T08:18:45Z</time>
      </trkpt>
      <trkpt lat="47.62394" lon="-3.19722">
        <ele>12.63</ele>
        <time>2020-08-10T08:18:59Z</time>
      </trkpt>
      <trkpt lat="47.62399" lon="-3.19732">
        <ele>12.15</ele>
        <time>2020-08-10T08:19:11Z</time>
      </trkpt>
      <trkpt lat="47.62405" lon="-3.19739">
        <ele>12.63</ele>
        <time>2020-08-10T08:19:24Z</time>
      </trkpt>
      <trkpt lat="47.62406" lon="-3.19739">
        <ele>11.67</ele>
        <time>2020-08-10T08:19:40Z</time>
      </trkpt>
      <trkpt lat="47.62406" lon="-3.19739">
        <ele>12.63</ele>
        <time>2020-08-10T08:19:59Z</time>
      </trkpt>
      <trkpt lat="47.62407" lon="-3.19739">
        <ele>11.67</ele>
        <time>2020-08-10T08:20:10Z</time>
      </trkpt>
      <trkpt lat="47.62408" lon="-3.19739">
        <ele>11.67</ele>
        <time>2020-08-10T08:20:33Z</time>
      </trkpt>
      <trkpt lat="47.62407" lon="-3.19739">
        <ele>12.15</ele>
        <time>2020-08-10T08:21:02Z</time>
      </trkpt>
      <trkpt lat="47.6241" lon="-3.19742">
        <ele>12.15</ele>
        <time>2020-08-10T08:21:18Z</time>
      </trkpt>
      <trkpt lat="47.62414" lon="-3.19748">
        <ele>11.67</ele>
        <time>2020-08-10T08:21:28Z</time>
      </trkpt>
      <trkpt lat="47.62417" lon="-3.19755">
        <ele>11.19</ele>
        <time>2020-08-10T08:21:34Z</time>
      </trkpt>
      <trkpt lat="47.62422" lon="-3.19759">
        <ele>11.19</ele>
        <time>2020-08-10T08:21:40Z</time>
      </trkpt>
      <trkpt lat="47.62432" lon="-3.19766">
        <ele>10.23</ele>
        <time>2020-08-10T08:21:54Z</time>
      </trkpt>
      <trkpt lat="47.62434" lon="-3.19767">
        <ele>10.23</ele>
        <time>2020-08-10T08:22:01Z</time>
      </trkpt>
      <trkpt lat="47.62436" lon="-3.19767">
        <ele>10.71</ele>
        <time>2020-08-10T08:22:03Z</time>
      </trkpt>
      <trkpt lat="47.62449" lon="-3.19766">
        <ele>10.23</ele>
        <time>2020-08-10T08:22:16Z</time>
      </trkpt>
      <trkpt lat="47.6245" lon="-3.19766">
        <ele>10.23</ele>
        <time>2020-08-10T08:22:17Z</time>
      </trkpt>
      <trkpt lat="47.62463" lon="-3.19764">
        <ele>10.71</ele>
        <time>2020-08-10T08:22:31Z</time>
      </trkpt>
      <trkpt lat="47.6248" lon="-3.19761">
        <ele>11.19</ele>
        <time>2020-08-10T08:22:47Z</time>
      </trkpt>
      <trkpt lat="47.62495" lon="-3.19761">
        <ele>10.71</ele>
        <time>2020-08-10T08:23:01Z</time>
      </trkpt>
      <trkpt lat="47.62497" lon="-3.19761">
        <ele>10.71</ele>
        <time>2020-08-10T08:23:03Z</time>
      </trkpt>
      <trkpt lat="47.62514" lon="-3.19758">
        <ele>10.71</ele>
        <time>2020-08-10T08:23:19Z</time>
      </trkpt>
      <trkpt lat="47.62527" lon="-3.19756">
        <ele>10.71</ele>
        <time>2020-08-10T08:23:33Z</time>
      </trkpt>
      <trkpt lat="47.62532" lon="-3.1975">
        <ele>11.19</ele>
        <time>2020-08-10T08:23:40Z</time>
      </trkpt>
      <trkpt lat="47.62535" lon="-3.19746">
        <ele>11.67</ele>
        <time>2020-08-10T08:23:45Z</time>
      </trkpt>
      <trkpt lat="47.6254" lon="-3.19735">
        <ele>12.63</ele>
        <time>2020-08-10T08:23:58Z</time>
      </trkpt>
      <trkpt lat="47.62543" lon="-3.19739">
        <ele>12.15</ele>
        <time>2020-08-10T08:24:03Z</time>
      </trkpt>
      <trkpt lat="47.62545" lon="-3.19744">
        <ele>11.67</ele>
        <time>2020-08-10T08:24:07Z</time>
      </trkpt>
      <trkpt lat="47.62545" lon="-3.19746">
        <ele>11.19</ele>
        <time>2020-08-10T08:24:09Z</time>
      </trkpt>
      <trkpt lat="47.62549" lon="-3.19756">
        <ele>10.71</ele>
        <time>2020-08-10T08:24:16Z</time>
      </trkpt>
      <trkpt lat="47.62553" lon="-3.19757">
        <ele>10.23</ele>
        <time>2020-08-10T08:24:20Z</time>
      </trkpt>
      <trkpt lat="47.62556" lon="-3.19756">
        <ele>10.23</ele>
        <time>2020-08-10T08:24:23Z</time>
      </trkpt>
      <trkpt lat="47.62563" lon="-3.19761">
        <ele>10.23</ele>
        <time>2020-08-10T08:24:30Z</time>
      </trkpt>
      <trkpt lat="47.62567" lon="-3.19764">
        <ele>10.23</ele>
        <time>2020-08-10T08:24:44Z</time>
      </trkpt>
      <trkpt lat="47.62566" lon="-3.19761">
        <ele>10.23</ele>
        <time>2020-08-10T08:24:54Z</time>
      </trkpt>
      <trkpt lat="47.62566" lon="-3.19761">
        <ele>10.71</ele>
        <time>2020-08-10T08:25:14Z</time>
      </trkpt>
      <trkpt lat="47.62567" lon="-3.19762">
        <ele>10.71</ele>
        <time>2020-08-10T08:25:15Z</time>
      </trkpt>
      <trkpt lat="47.6257" lon="-3.19765">
        <ele>10.71</ele>
        <time>2020-08-10T08:25:19Z</time>
      </trkpt>
      <trkpt lat="47.62586" lon="-3.19764">
        <ele>10.23</ele>
        <time>2020-08-10T08:25:34Z</time>
      </trkpt>
      <trkpt lat="47.62594" lon="-3.1976">
        <ele>10.71</ele>
        <time>2020-08-10T08:25:45Z</time>
      </trkpt>
      <trkpt lat="47.62596" lon="-3.1976">
        <ele>11.19</ele>
        <time>2020-08-10T08:25:47Z</time>
      </trkpt>
      <trkpt lat="47.626" lon="-3.19762">
        <ele>10.23</ele>
        <time>2020-08-10T08:25:51Z</time>
      </trkpt>
      <trkpt lat="47.62604" lon="-3.19762">
        <ele>10.71</ele>
        <time>2020-08-10T08:25:55Z</time>
      </trkpt>
      <trkpt lat="47.62609" lon="-3.19765">
        <ele>10.23</ele>
        <time>2020-08-10T08:26:00Z</time>
      </trkpt>
      <trkpt lat="47.62624" lon="-3.19766">
        <ele>10.23</ele>
        <time>2020-08-10T08:26:16Z</time>
      </trkpt>
      <trkpt lat="47.62637" lon="-3.19765">
        <ele>10.71</ele>
        <time>2020-08-10T08:26:29Z</time>
      </trkpt>
      <trkpt lat="47.62644" lon="-3.19764">
        <ele>10.23</ele>
        <time>2020-08-10T08:26:38Z</time>
      </trkpt>
      <trkpt lat="47.62648" lon="-3.19764">
        <ele>10.23</ele>
        <time>2020-08-10T08:26:42Z</time>
      </trkpt>
      <trkpt lat="47.62663" lon="-3.19765">
        <ele>10.71</ele>
        <time>2020-08-10T08:26:57Z</time>
      </trkpt>
      <trkpt lat="47.62675" lon="-3.19764">
        <ele>10.71</ele>
        <time>2020-08-10T08:27:10Z</time>
      </trkpt>
      <trkpt lat="47.62692" lon="-3.19768">
        <ele>10.23</ele>
        <time>2020-08-10T08:27:27Z</time>
      </trkpt>
      <trkpt lat="47.62706" lon="-3.19771">
        <ele>10.23</ele>
        <time>2020-08-10T08:27:42Z</time>
      </trkpt>
      <trkpt lat="47.62707" lon="-3.19771">
        <ele>10.23</ele>
        <time>2020-08-10T08:27:43Z</time>
      </trkpt>
      <trkpt lat="47.6271" lon="-3.19771">
        <ele>10.23</ele>
        <time>2020-08-10T08:27:46Z</time>
      </trkpt>
      <trkpt lat="47.62725" lon="-3.19772">
        <ele>10.23</ele>
        <time>2020-08-10T08:28:01Z</time>
      </trkpt>
      <trkpt lat="47.62741" lon="-3.19775">
        <ele>9.75</ele>
        <time>2020-08-10T08:28:17Z</time>
      </trkpt>
      <trkpt lat="47.62742" lon="-3.19776">
        <ele>10.23</ele>
        <time>2020-08-10T08:28:27Z</time>
      </trkpt>
      <trkpt lat="47.62757" lon="-3.19779">
        <ele>9.75</ele>
        <time>2020-08-10T08:28:41Z</time>
      </trkpt>
      <trkpt lat="47.62768" lon="-3.19782">
        <ele>10.23</ele>
        <time>2020-08-10T08:28:53Z</time>
      </trkpt>
      <trkpt lat="47.62774" lon="-3.19782">
        <ele>9.75</ele>
        <time>2020-08-10T08:29:01Z</time>
      </trkpt>
      <trkpt lat="47.6278" lon="-3.19785">
        <ele>9.75</ele>
        <time>2020-08-10T08:29:08Z</time>
      </trkpt>
      <trkpt lat="47.62788" lon="-3.19791">
        <ele>9.27</ele>
        <time>2020-08-10T08:29:18Z</time>
      </trkpt>
      <trkpt lat="47.62796" lon="-3.19793">
        <ele>9.27</ele>
        <time>2020-08-10T08:29:27Z</time>
      </trkpt>
      <trkpt lat="47.6281" lon="-3.19798">
        <ele>9.27</ele>
        <time>2020-08-10T08:29:43Z</time>
      </trkpt>
      <trkpt lat="47.62819" lon="-3.19801">
        <ele>9.75</ele>
        <time>2020-08-10T08:29:53Z</time>
      </trkpt>
      <trkpt lat="47.62829" lon="-3.19803">
        <ele>9.27</ele>
        <time>2020-08-10T08:30:04Z</time>
      </trkpt>
      <trkpt lat="47.62844" lon="-3.19807">
        <ele>9.75</ele>
        <time>2020-08-10T08:30:20Z</time>
      </trkpt>
      <trkpt lat="47.6285" lon="-3.19808">
        <ele>9.75</ele>
        <time>2020-08-10T08:30:26Z</time>
      </trkpt>
      <trkpt lat="47.62854" lon="-3.19807">
        <ele>9.75</ele>
        <time>2020-08-10T08:30:30Z</time>
      </trkpt>
      <trkpt lat="47.62867" lon="-3.19812">
        <ele>10.23</ele>
        <time>2020-08-10T08:30:45Z</time>
      </trkpt>
      <trkpt lat="47.62873" lon="-3.19815">
        <ele>9.75</ele>
        <time>2020-08-10T08:30:52Z</time>
      </trkpt>
      <trkpt lat="47.62884" lon="-3.19823">
        <ele>9.27</ele>
        <time>2020-08-10T08:31:07Z</time>
      </trkpt>
      <trkpt lat="47.62884" lon="-3.19824">
        <ele>9.27</ele>
        <time>2020-08-10T08:31:14Z</time>
      </trkpt>
      <trkpt lat="47.62894" lon="-3.19827">
        <ele>9.75</ele>
        <time>2020-08-10T08:31:24Z</time>
      </trkpt>
      <trkpt lat="47.629" lon="-3.19831">
        <ele>9.75</ele>
        <time>2020-08-10T08:31:30Z</time>
      </trkpt>
      <trkpt lat="47.62904" lon="-3.19834">
        <ele>9.75</ele>
        <time>2020-08-10T08:31:35Z</time>
      </trkpt>
      <trkpt lat="47.62918" lon="-3.19843">
        <ele>9.27</ele>
        <time>2020-08-10T08:31:51Z</time>
      </trkpt>
      <trkpt lat="47.6292" lon="-3.19845">
        <ele>9.75</ele>
        <time>2020-08-10T08:31:54Z</time>
      </trkpt>
      <trkpt lat="47.62924" lon="-3.19849">
        <ele>9.75</ele>
        <time>2020-08-10T08:31:59Z</time>
      </trkpt>
      <trkpt lat="47.62935" lon="-3.19857">
        <ele>9.75</ele>
        <time>2020-08-10T08:32:11Z</time>
      </trkpt>
      <trkpt lat="47.62943" lon="-3.19861">
        <ele>9.27</ele>
        <time>2020-08-10T08:32:19Z</time>
      </trkpt>
      <trkpt lat="47.62948" lon="-3.19865">
        <ele>9.75</ele>
        <time>2020-08-10T08:32:25Z</time>
      </trkpt>
      <trkpt lat="47.62954" lon="-3.19871">
        <ele>8.79</ele>
        <time>2020-08-10T08:32:33Z</time>
      </trkpt>
      <trkpt lat="47.62965" lon="-3.19876">
        <ele>9.27</ele>
        <time>2020-08-10T08:32:47Z</time>
      </trkpt>
      <trkpt lat="47.62977" lon="-3.19884">
        <ele>9.27</ele>
        <time>2020-08-10T08:33:02Z</time>
      </trkpt>
      <trkpt lat="47.62985" lon="-3.1989">
        <ele>9.27</ele>
        <time>2020-08-10T08:33:13Z</time>
      </trkpt>
      <trkpt lat="47.62996" lon="-3.19901">
        <ele>8.79</ele>
        <time>2020-08-10T08:33:26Z</time>
      </trkpt>
      <trkpt lat="47.63007" lon="-3.19912">
        <ele>8.31</ele>
        <time>2020-08-10T08:33:41Z</time>
      </trkpt>
      <trkpt lat="47.63018" lon="-3.19921">
        <ele>8.31</ele>
        <time>2020-08-10T08:33:54Z</time>
      </trkpt>
      <trkpt lat="47.63018" lon="-3.19921">
        <ele>8.31</ele>
        <time>2020-08-10T08:33:55Z</time>
      </trkpt>
      <trkpt lat="47.63025" lon="-3.19926">
        <ele>8.31</ele>
        <time>2020-08-10T08:34:02Z</time>
      </trkpt>
      <trkpt lat="47.63032" lon="-3.19929">
        <ele>8.79</ele>
        <time>2020-08-10T08:34:09Z</time>
      </trkpt>
      <trkpt lat="47.63036" lon="-3.1993">
        <ele>8.31</ele>
        <time>2020-08-10T08:34:16Z</time>
      </trkpt>
      <trkpt lat="47.63039" lon="-3.19933">
        <ele>8.79</ele>
        <time>2020-08-10T08:34:20Z</time>
      </trkpt>
      <trkpt lat="47.63049" lon="-3.19943">
        <ele>7.83</ele>
        <time>2020-08-10T08:34:36Z</time>
      </trkpt>
      <trkpt lat="47.63049" lon="-3.19943">
        <ele>7.83</ele>
        <time>2020-08-10T08:34:41Z</time>
      </trkpt>
      <trkpt lat="47.63057" lon="-3.19951">
        <ele>7.83</ele>
        <time>2020-08-10T08:34:51Z</time>
      </trkpt>
      <trkpt lat="47.63069" lon="-3.19958">
        <ele>7.83</ele>
        <time>2020-08-10T08:35:07Z</time>
      </trkpt>
      <trkpt lat="47.63072" lon="-3.19962">
        <ele>8.31</ele>
        <time>2020-08-10T08:35:11Z</time>
      </trkpt>
      <trkpt lat="47.63075" lon="-3.19963">
        <ele>7.83</ele>
        <time>2020-08-10T08:35:14Z</time>
      </trkpt>
      <trkpt lat="47.63081" lon="-3.19971">
        <ele>7.35</ele>
        <time>2020-08-10T08:35:25Z</time>
      </trkpt>
      <trkpt lat="47.63096" lon="-3.19982">
        <ele>7.35</ele>
        <time>2020-08-10T08:35:40Z</time>
      </trkpt>
      <trkpt lat="47.63099" lon="-3.19982">
        <ele>8.31</ele>
        <time>2020-08-10T08:35:43Z</time>
      </trkpt>
      <trkpt lat="47.63111" lon="-3.19991">
        <ele>8.31</ele>
        <time>2020-08-10T08:35:59Z</time>
      </trkpt>
      <trkpt lat="47.63118" lon="-3.19997">
        <ele>8.31</ele>
        <time>2020-08-10T08:36:08Z</time>
      </trkpt>
      <trkpt lat="47.63121" lon="-3.19998">
        <ele>7.83</ele>
        <time>2020-08-10T08:36:11Z</time>
      </trkpt>
      <trkpt lat="47.63126" lon="-3.20002">
        <ele>7.83</ele>
        <time>2020-08-10T08:36:17Z</time>
      </trkpt>
      <trkpt lat="47.63129" lon="-3.20004">
        <ele>7.35</ele>
        <time>2020-08-10T08:36:21Z</time>
      </trkpt>
      <trkpt lat="47.63141" lon="-3.20015">
        <ele>7.83</ele>
        <time>2020-08-10T08:36:37Z</time>
      </trkpt>
      <trkpt lat="47.63151" lon="-3.20022">
        <ele>7.35</ele>
        <time>2020-08-10T08:36:49Z</time>
      </trkpt>
      <trkpt lat="47.63152" lon="-3.20024">
        <ele>7.35</ele>
        <time>2020-08-10T08:36:51Z</time>
      </trkpt>
      <trkpt lat="47.6316" lon="-3.2003">
        <ele>7.35</ele>
        <time>2020-08-10T08:37:02Z</time>
      </trkpt>
      <trkpt lat="47.63169" lon="-3.20036">
        <ele>7.83</ele>
        <time>2020-08-10T08:37:13Z</time>
      </trkpt>
      <trkpt lat="47.63174" lon="-3.20039">
        <ele>7.83</ele>
        <time>2020-08-10T08:37:18Z</time>
      </trkpt>
      <trkpt lat="47.6318" lon="-3.20044">
        <ele>7.35</ele>
        <time>2020-08-10T08:37:25Z</time>
      </trkpt>
      <trkpt lat="47.63182" lon="-3.20044">
        <ele>7.35</ele>
        <time>2020-08-10T08:37:27Z</time>
      </trkpt>
      <trkpt lat="47.63189" lon="-3.20051">
        <ele>7.35</ele>
        <time>2020-08-10T08:37:35Z</time>
      </trkpt>
      <trkpt lat="47.63193" lon="-3.20053">
        <ele>7.35</ele>
        <time>2020-08-10T08:37:45Z</time>
      </trkpt>
      <trkpt lat="47.63201" lon="-3.20059">
        <ele>7.35</ele>
        <time>2020-08-10T08:37:58Z</time>
      </trkpt>
      <trkpt lat="47.63201" lon="-3.20059">
        <ele>7.35</ele>
        <time>2020-08-10T08:38:01Z</time>
      </trkpt>
      <trkpt lat="47.63205" lon="-3.20063">
        <ele>7.35</ele>
        <time>2020-08-10T08:38:05Z</time>
      </trkpt>
      <trkpt lat="47.63208" lon="-3.20066">
        <ele>6.87</ele>
        <time>2020-08-10T08:38:08Z</time>
      </trkpt>
      <trkpt lat="47.63217" lon="-3.20072">
        <ele>7.83</ele>
        <time>2020-08-10T08:38:23Z</time>
      </trkpt>
      <trkpt lat="47.63218" lon="-3.20071">
        <ele>7.83</ele>
        <time>2020-08-10T08:38:39Z</time>
      </trkpt>
      <trkpt lat="47.63218" lon="-3.2007">
        <ele>7.83</ele>
        <time>2020-08-10T08:38:53Z</time>
      </trkpt>
      <trkpt lat="47.63217" lon="-3.20071">
        <ele>7.83</ele>
        <time>2020-08-10T08:39:15Z</time>
      </trkpt>
      <trkpt lat="47.63217" lon="-3.20071">
        <ele>7.35</ele>
        <time>2020-08-10T08:39:35Z</time>
      </trkpt>
      <trkpt lat="47.63217" lon="-3.20071">
        <ele>7.35</ele>
        <time>2020-08-10T08:40:09Z</time>
      </trkpt>
      <trkpt lat="47.63217" lon="-3.20072">
        <ele>7.83</ele>
        <time>2020-08-10T08:40:21Z</time>
      </trkpt>
      <trkpt lat="47.63217" lon="-3.20072">
        <ele>7.83</ele>
        <time>2020-08-10T08:40:35Z</time>
      </trkpt>
      <trkpt lat="47.63217" lon="-3.20072">
        <ele>7.83</ele>
        <time>2020-08-10T08:40:52Z</time>
      </trkpt>
      <trkpt lat="47.63217" lon="-3.20072">
        <ele>7.83</ele>
        <time>2020-08-10T08:41:06Z</time>
      </trkpt>
      <trkpt lat="47.63218" lon="-3.20072">
        <ele>7.83</ele>
        <time>2020-08-10T08:41:32Z</time>
      </trkpt>
      <trkpt lat="47.63218" lon="-3.20073">
        <ele>7.35</ele>
        <time>2020-08-10T08:41:40Z</time>
      </trkpt>
      <trkpt lat="47.63218" lon="-3.20072">
        <ele>7.35</ele>
        <time>2020-08-10T08:41:52Z</time>
      </trkpt>
      <trkpt lat="47.63218" lon="-3.20073">
        <ele>7.83</ele>
        <time>2020-08-10T08:42:12Z</time>
      </trkpt>
      <trkpt lat="47.63219" lon="-3.20073">
        <ele>7.83</ele>
        <time>2020-08-10T08:42:31Z</time>
      </trkpt>
      <trkpt lat="47.63219" lon="-3.20074">
        <ele>7.83</ele>
        <time>2020-08-10T08:42:45Z</time>
      </trkpt>
      <trkpt lat="47.6323" lon="-3.20089">
        <ele>8.31</ele>
        <time>2020-08-10T08:43:00Z</time>
      </trkpt>
      <trkpt lat="47.63238" lon="-3.20098">
        <ele>7.83</ele>
        <time>2020-08-10T08:43:10Z</time>
      </trkpt>
      <trkpt lat="47.63252" lon="-3.20109">
        <ele>7.83</ele>
        <time>2020-08-10T08:43:27Z</time>
      </trkpt>
      <trkpt lat="47.63255" lon="-3.20111">
        <ele>8.31</ele>
        <time>2020-08-10T08:43:30Z</time>
      </trkpt>
      <trkpt lat="47.63257" lon="-3.20114">
        <ele>7.83</ele>
        <time>2020-08-10T08:43:34Z</time>
      </trkpt>
      <trkpt lat="47.6326" lon="-3.20118">
        <ele>7.35</ele>
        <time>2020-08-10T08:43:38Z</time>
      </trkpt>
      <trkpt lat="47.63272" lon="-3.2013">
        <ele>7.83</ele>
        <time>2020-08-10T08:43:53Z</time>
      </trkpt>
      <trkpt lat="47.63281" lon="-3.20138">
        <ele>8.79</ele>
        <time>2020-08-10T08:44:05Z</time>
      </trkpt>
      <trkpt lat="47.63294" lon="-3.20149">
        <ele>8.31</ele>
        <time>2020-08-10T08:44:20Z</time>
      </trkpt>
      <trkpt lat="47.63303" lon="-3.20158">
        <ele>8.31</ele>
        <time>2020-08-10T08:44:31Z</time>
      </trkpt>
      <trkpt lat="47.63318" lon="-3.20172">
        <ele>7.83</ele>
        <time>2020-08-10T08:44:49Z</time>
      </trkpt>
      <trkpt lat="47.63329" lon="-3.20183">
        <ele>7.83</ele>
        <time>2020-08-10T08:45:02Z</time>
      </trkpt>
      <trkpt lat="47.63332" lon="-3.20185">
        <ele>7.83</ele>
        <time>2020-08-10T08:45:06Z</time>
      </trkpt>
      <trkpt lat="47.63345" lon="-3.20195">
        <ele>8.31</ele>
        <time>2020-08-10T08:45:21Z</time>
      </trkpt>
      <trkpt lat="47.63357" lon="-3.20206">
        <ele>7.83</ele>
        <time>2020-08-10T08:45:36Z</time>
      </trkpt>
      <trkpt lat="47.63362" lon="-3.20209">
        <ele>8.31</ele>
        <time>2020-08-10T08:45:41Z</time>
      </trkpt>
      <trkpt lat="47.63365" lon="-3.20212">
        <ele>7.83</ele>
        <time>2020-08-10T08:45:45Z</time>
      </trkpt>
      <trkpt lat="47.63371" lon="-3.20218">
        <ele>8.31</ele>
        <time>2020-08-10T08:45:52Z</time>
      </trkpt>
      <trkpt lat="47.63372" lon="-3.2022">
        <ele>8.31</ele>
        <time>2020-08-10T08:45:54Z</time>
      </trkpt>
      <trkpt lat="47.63378" lon="-3.20225">
        <ele>7.83</ele>
        <time>2020-08-10T08:46:02Z</time>
      </trkpt>
      <trkpt lat="47.63383" lon="-3.20229">
        <ele>8.31</ele>
        <time>2020-08-10T08:46:10Z</time>
      </trkpt>
      <trkpt lat="47.63385" lon="-3.2023">
        <ele>8.79</ele>
        <time>2020-08-10T08:46:12Z</time>
      </trkpt>
      <trkpt lat="47.63396" lon="-3.20242">
        <ele>7.83</ele>
        <time>2020-08-10T08:46:26Z</time>
      </trkpt>
      <trkpt lat="47.63407" lon="-3.20254">
        <ele>8.31</ele>
        <time>2020-08-10T08:46:41Z</time>
      </trkpt>
      <trkpt lat="47.63408" lon="-3.20255">
        <ele>8.31</ele>
        <time>2020-08-10T08:46:42Z</time>
      </trkpt>
      <trkpt lat="47.63415" lon="-3.20259">
        <ele>7.83</ele>
        <time>2020-08-10T08:46:50Z</time>
      </trkpt>
      <trkpt lat="47.63428" lon="-3.2027">
        <ele>7.83</ele>
        <time>2020-08-10T08:47:06Z</time>
      </trkpt>
      <trkpt lat="47.63439" lon="-3.2028">
        <ele>7.83</ele>
        <time>2020-08-10T08:47:19Z</time>
      </trkpt>
      <trkpt lat="47.63447" lon="-3.20285">
        <ele>7.83</ele>
        <time>2020-08-10T08:47:29Z</time>
      </trkpt>
      <trkpt lat="47.6345" lon="-3.20288">
        <ele>7.83</ele>
        <time>2020-08-10T08:47:33Z</time>
      </trkpt>
      <trkpt lat="47.63454" lon="-3.20292">
        <ele>7.83</ele>
        <time>2020-08-10T08:47:38Z</time>
      </trkpt>
      <trkpt lat="47.63464" lon="-3.20297">
        <ele>8.31</ele>
        <time>2020-08-10T08:47:53Z</time>
      </trkpt>
      <trkpt lat="47.63465" lon="-3.20296">
        <ele>6.87</ele>
        <time>2020-08-10T08:48:03Z</time>
      </trkpt>
      <trkpt lat="47.63465" lon="-3.20297">
        <ele>8.31</ele>
        <time>2020-08-10T08:48:19Z</time>
      </trkpt>
      <trkpt lat="47.63465" lon="-3.20297">
        <ele>7.83</ele>
        <time>2020-08-10T08:48:25Z</time>
      </trkpt>
      <trkpt lat="47.63467" lon="-3.203">
        <ele>8.31</ele>
        <time>2020-08-10T08:48:28Z</time>
      </trkpt>
      <trkpt lat="47.63473" lon="-3.2031">
        <ele>7.83</ele>
        <time>2020-08-10T08:48:39Z</time>
      </trkpt>
      <trkpt lat="47.63483" lon="-3.20321">
        <ele>7.83</ele>
        <time>2020-08-10T08:48:54Z</time>
      </trkpt>
      <trkpt lat="47.63484" lon="-3.20321">
        <ele>8.31</ele>
        <time>2020-08-10T08:48:56Z</time>
      </trkpt>
      <trkpt lat="47.63486" lon="-3.20325">
        <ele>7.35</ele>
        <time>2020-08-10T08:49:00Z</time>
      </trkpt>
      <trkpt lat="47.63489" lon="-3.20327">
        <ele>7.83</ele>
        <time>2020-08-10T08:49:03Z</time>
      </trkpt>
      <trkpt lat="47.63495" lon="-3.20333">
        <ele>7.83</ele>
        <time>2020-08-10T08:49:11Z</time>
      </trkpt>
      <trkpt lat="47.635" lon="-3.2034">
        <ele>7.35</ele>
        <time>2020-08-10T08:49:18Z</time>
      </trkpt>
      <trkpt lat="47.63514" lon="-3.2035">
        <ele>7.83</ele>
        <time>2020-08-10T08:49:33Z</time>
      </trkpt>
      <trkpt lat="47.63526" lon="-3.20361">
        <ele>7.83</ele>
        <time>2020-08-10T08:49:47Z</time>
      </trkpt>
      <trkpt lat="47.63532" lon="-3.20368">
        <ele>7.35</ele>
        <time>2020-08-10T08:49:55Z</time>
      </trkpt>
      <trkpt lat="47.63541" lon="-3.20374">
        <ele>7.83</ele>
        <time>2020-08-10T08:50:06Z</time>
      </trkpt>
      <trkpt lat="47.63552" lon="-3.20382">
        <ele>7.35</ele>
        <time>2020-08-10T08:50:18Z</time>
      </trkpt>
      <trkpt lat="47.63556" lon="-3.20386">
        <ele>7.35</ele>
        <time>2020-08-10T08:50:23Z</time>
      </trkpt>
      <trkpt lat="47.63572" lon="-3.204">
        <ele>7.35</ele>
        <time>2020-08-10T08:50:41Z</time>
      </trkpt>
      <trkpt lat="47.63579" lon="-3.20407">
        <ele>7.83</ele>
        <time>2020-08-10T08:50:49Z</time>
      </trkpt>
      <trkpt lat="47.63581" lon="-3.20409">
        <ele>7.83</ele>
        <time>2020-08-10T08:50:52Z</time>
      </trkpt>
      <trkpt lat="47.63587" lon="-3.20415">
        <ele>7.35</ele>
        <time>2020-08-10T08:51:04Z</time>
      </trkpt>
      <trkpt lat="47.63598" lon="-3.20425">
        <ele>6.87</ele>
        <time>2020-08-10T08:51:17Z</time>
      </trkpt>
      <trkpt lat="47.63608" lon="-3.20439">
        <ele>6.87</ele>
        <time>2020-08-10T08:51:30Z</time>
      </trkpt>
      <trkpt lat="47.63622" lon="-3.20454">
        <ele>7.35</ele>
        <time>2020-08-10T08:51:47Z</time>
      </trkpt>
      <trkpt lat="47.63623" lon="-3.20454">
        <ele>7.35</ele>
        <time>2020-08-10T08:51:49Z</time>
      </trkpt>
      <trkpt lat="47.63627" lon="-3.20456">
        <ele>7.35</ele>
        <time>2020-08-10T08:51:53Z</time>
      </trkpt>
      <trkpt lat="47.6363" lon="-3.20461">
        <ele>7.83</ele>
        <time>2020-08-10T08:51:58Z</time>
      </trkpt>
      <trkpt lat="47.63634" lon="-3.20465">
        <ele>6.87</ele>
        <time>2020-08-10T08:52:03Z</time>
      </trkpt>
      <trkpt lat="47.63645" lon="-3.2048">
        <ele>6.87</ele>
        <time>2020-08-10T08:52:19Z</time>
      </trkpt>
      <trkpt lat="47.63657" lon="-3.20493">
        <ele>7.35</ele>
        <time>2020-08-10T08:52:34Z</time>
      </trkpt>
      <trkpt lat="47.6367" lon="-3.20508">
        <ele>7.35</ele>
        <time>2020-08-10T08:52:51Z</time>
      </trkpt>
      <trkpt lat="47.63678" lon="-3.20517">
        <ele>6.87</ele>
        <time>2020-08-10T08:53:04Z</time>
      </trkpt>
      <trkpt lat="47.63681" lon="-3.20523">
        <ele>6.87</ele>
        <time>2020-08-10T08:53:11Z</time>
      </trkpt>
      <trkpt lat="47.63691" lon="-3.20537">
        <ele>6.87</ele>
        <time>2020-08-10T08:53:27Z</time>
      </trkpt>
      <trkpt lat="47.63699" lon="-3.20546">
        <ele>6.39</ele>
        <time>2020-08-10T08:53:40Z</time>
      </trkpt>
      <trkpt lat="47.63707" lon="-3.20554">
        <ele>6.87</ele>
        <time>2020-08-10T08:53:53Z</time>
      </trkpt>
      <trkpt lat="47.63709" lon="-3.20557">
        <ele>6.87</ele>
        <time>2020-08-10T08:53:56Z</time>
      </trkpt>
      <trkpt lat="47.63712" lon="-3.2056">
        <ele>6.87</ele>
        <time>2020-08-10T08:53:59Z</time>
      </trkpt>
      <trkpt lat="47.63722" lon="-3.20578">
        <ele>6.87</ele>
        <time>2020-08-10T08:54:15Z</time>
      </trkpt>
      <trkpt lat="47.63725" lon="-3.20584">
        <ele>6.87</ele>
        <time>2020-08-10T08:54:20Z</time>
      </trkpt>
      <trkpt lat="47.63736" lon="-3.20603">
        <ele>6.87</ele>
        <time>2020-08-10T08:54:37Z</time>
      </trkpt>
      <trkpt lat="47.63737" lon="-3.20605">
        <ele>6.87</ele>
        <time>2020-08-10T08:54:39Z</time>
      </trkpt>
      <trkpt lat="47.63741" lon="-3.20612">
        <ele>6.87</ele>
        <time>2020-08-10T08:54:45Z</time>
      </trkpt>
      <trkpt lat="47.63749" lon="-3.20626">
        <ele>6.87</ele>
        <time>2020-08-10T08:54:59Z</time>
      </trkpt>
      <trkpt lat="47.63757" lon="-3.2064">
        <ele>6.39</ele>
        <time>2020-08-10T08:55:13Z</time>
      </trkpt>
      <trkpt lat="47.63765" lon="-3.20653">
        <ele>6.39</ele>
        <time>2020-08-10T08:55:26Z</time>
      </trkpt>
      <trkpt lat="47.6377" lon="-3.20663">
        <ele>6.39</ele>
        <time>2020-08-10T08:55:34Z</time>
      </trkpt>
      <trkpt lat="47.63772" lon="-3.20667">
        <ele>6.87</ele>
        <time>2020-08-10T08:55:37Z</time>
      </trkpt>
      <trkpt lat="47.63776" lon="-3.20673">
        <ele>6.87</ele>
        <time>2020-08-10T08:55:43Z</time>
      </trkpt>
      <trkpt lat="47.63778" lon="-3.20676">
        <ele>6.87</ele>
        <time>2020-08-10T08:55:56Z</time>
      </trkpt>
      <trkpt lat="47.63782" lon="-3.2068">
        <ele>6.39</ele>
        <time>2020-08-10T08:56:06Z</time>
      </trkpt>
      <trkpt lat="47.63789" lon="-3.20694">
        <ele>5.91</ele>
        <time>2020-08-10T08:56:19Z</time>
      </trkpt>
      <trkpt lat="47.6379" lon="-3.20697">
        <ele>6.39</ele>
        <time>2020-08-10T08:56:22Z</time>
      </trkpt>
      <trkpt lat="47.63793" lon="-3.20699">
        <ele>5.91</ele>
        <time>2020-08-10T08:56:29Z</time>
      </trkpt>
      <trkpt lat="47.63794" lon="-3.20702">
        <ele>6.39</ele>
        <time>2020-08-10T08:56:32Z</time>
      </trkpt>
      <trkpt lat="47.63803" lon="-3.20711">
        <ele>5.91</ele>
        <time>2020-08-10T08:56:45Z</time>
      </trkpt>
      <trkpt lat="47.63806" lon="-3.20713">
        <ele>6.39</ele>
        <time>2020-08-10T08:56:48Z</time>
      </trkpt>
      <trkpt lat="47.63812" lon="-3.20722">
        <ele>6.87</ele>
        <time>2020-08-10T08:57:00Z</time>
      </trkpt>
      <trkpt lat="47.63817" lon="-3.20729">
        <ele>6.39</ele>
        <time>2020-08-10T08:57:09Z</time>
      </trkpt>
      <trkpt lat="47.63819" lon="-3.20732">
        <ele>6.87</ele>
        <time>2020-08-10T08:57:12Z</time>
      </trkpt>
      <trkpt lat="47.63827" lon="-3.20745">
        <ele>6.39</ele>
        <time>2020-08-10T08:57:26Z</time>
      </trkpt>
      <trkpt lat="47.63828" lon="-3.20746">
        <ele>5.91</ele>
        <time>2020-08-10T08:57:28Z</time>
      </trkpt>
      <trkpt lat="47.63833" lon="-3.20754">
        <ele>6.39</ele>
        <time>2020-08-10T08:57:39Z</time>
      </trkpt>
      <trkpt lat="47.63841" lon="-3.20765">
        <ele>6.39</ele>
        <time>2020-08-10T08:57:53Z</time>
      </trkpt>
      <trkpt lat="47.63842" lon="-3.20766">
        <ele>6.39</ele>
        <time>2020-08-10T08:57:56Z</time>
      </trkpt>
      <trkpt lat="47.63848" lon="-3.20773">
        <ele>5.91</ele>
        <time>2020-08-10T08:58:04Z</time>
      </trkpt>
      <trkpt lat="47.63854" lon="-3.20781">
        <ele>5.91</ele>
        <time>2020-08-10T08:58:13Z</time>
      </trkpt>
      <trkpt lat="47.63855" lon="-3.20785">
        <ele>5.42</ele>
        <time>2020-08-10T08:58:16Z</time>
      </trkpt>
      <trkpt lat="47.63862" lon="-3.20795">
        <ele>5.91</ele>
        <time>2020-08-10T08:58:29Z</time>
      </trkpt>
      <trkpt lat="47.6387" lon="-3.20806">
        <ele>5.91</ele>
        <time>2020-08-10T08:58:42Z</time>
      </trkpt>
      <trkpt lat="47.63878" lon="-3.20818">
        <ele>5.42</ele>
        <time>2020-08-10T08:58:56Z</time>
      </trkpt>
      <trkpt lat="47.63882" lon="-3.20824">
        <ele>5.42</ele>
        <time>2020-08-10T08:59:03Z</time>
      </trkpt>
      <trkpt lat="47.63888" lon="-3.20837">
        <ele>5.42</ele>
        <time>2020-08-10T08:59:16Z</time>
      </trkpt>
      <trkpt lat="47.63894" lon="-3.20842">
        <ele>5.91</ele>
        <time>2020-08-10T08:59:26Z</time>
      </trkpt>
      <trkpt lat="47.63901" lon="-3.20849">
        <ele>6.39</ele>
        <time>2020-08-10T08:59:36Z</time>
      </trkpt>
      <trkpt lat="47.63909" lon="-3.2086">
        <ele>6.87</ele>
        <time>2020-08-10T08:59:49Z</time>
      </trkpt>
      <trkpt lat="47.63918" lon="-3.2087">
        <ele>6.87</ele>
        <time>2020-08-10T09:00:03Z</time>
      </trkpt>
      <trkpt lat="47.63928" lon="-3.20874">
        <ele>6.87</ele>
        <time>2020-08-10T09:00:18Z</time>
      </trkpt>
      <trkpt lat="47.63936" lon="-3.20879">
        <ele>7.35</ele>
        <time>2020-08-10T09:00:32Z</time>
      </trkpt>
      <trkpt lat="47.63943" lon="-3.20882">
        <ele>7.83</ele>
        <time>2020-08-10T09:00:44Z</time>
      </trkpt>
      <trkpt lat="47.63953" lon="-3.2089">
        <ele>7.35</ele>
        <time>2020-08-10T09:00:59Z</time>
      </trkpt>
      <trkpt lat="47.63964" lon="-3.20898">
        <ele>7.83</ele>
        <time>2020-08-10T09:01:15Z</time>
      </trkpt>
      <trkpt lat="47.63974" lon="-3.20905">
        <ele>7.83</ele>
        <time>2020-08-10T09:01:28Z</time>
      </trkpt>
      <trkpt lat="47.63984" lon="-3.20913">
        <ele>7.83</ele>
        <time>2020-08-10T09:01:42Z</time>
      </trkpt>
      <trkpt lat="47.63993" lon="-3.20922">
        <ele>7.83</ele>
        <time>2020-08-10T09:01:56Z</time>
      </trkpt>
      <trkpt lat="47.64003" lon="-3.20929">
        <ele>6.87</ele>
        <time>2020-08-10T09:02:09Z</time>
      </trkpt>
      <trkpt lat="47.64015" lon="-3.20937">
        <ele>7.35</ele>
        <time>2020-08-10T09:02:25Z</time>
      </trkpt>
      <trkpt lat="47.64017" lon="-3.20937">
        <ele>5.91</ele>
        <time>2020-08-10T09:02:39Z</time>
      </trkpt>
      <trkpt lat="47.64018" lon="-3.20939">
        <ele>6.39</ele>
        <time>2020-08-10T09:02:50Z</time>
      </trkpt>
      <trkpt lat="47.64019" lon="-3.20941">
        <ele>6.39</ele>
        <time>2020-08-10T09:03:12Z</time>
      </trkpt>
      <trkpt lat="47.64027" lon="-3.20948">
        <ele>5.91</ele>
        <time>2020-08-10T09:03:25Z</time>
      </trkpt>
      <trkpt lat="47.64037" lon="-3.20952">
        <ele>6.87</ele>
        <time>2020-08-10T09:03:39Z</time>
      </trkpt>
      <trkpt lat="47.64045" lon="-3.20957">
        <ele>5.91</ele>
        <time>2020-08-10T09:03:52Z</time>
      </trkpt>
      <trkpt lat="47.64047" lon="-3.20957">
        <ele>5.42</ele>
        <time>2020-08-10T09:04:05Z</time>
      </trkpt>
      <trkpt lat="47.64048" lon="-3.20957">
        <ele>6.39</ele>
        <time>2020-08-10T09:04:12Z</time>
      </trkpt>
      <trkpt lat="47.64052" lon="-3.20957">
        <ele>6.87</ele>
        <time>2020-08-10T09:04:15Z</time>
      </trkpt>
      <trkpt lat="47.64061" lon="-3.20962">
        <ele>6.39</ele>
        <time>2020-08-10T09:04:27Z</time>
      </trkpt>
      <trkpt lat="47.64071" lon="-3.20965">
        <ele>6.39</ele>
        <time>2020-08-10T09:04:40Z</time>
      </trkpt>
      <trkpt lat="47.64081" lon="-3.20963">
        <ele>6.39</ele>
        <time>2020-08-10T09:04:54Z</time>
      </trkpt>
      <trkpt lat="47.64083" lon="-3.20962">
        <ele>6.39</ele>
        <time>2020-08-10T09:04:56Z</time>
      </trkpt>
      <trkpt lat="47.64093" lon="-3.20965">
        <ele>6.87</ele>
        <time>2020-08-10T09:05:10Z</time>
      </trkpt>
      <trkpt lat="47.64103" lon="-3.20968">
        <ele>6.87</ele>
        <time>2020-08-10T09:05:23Z</time>
      </trkpt>
      <trkpt lat="47.64114" lon="-3.2097">
        <ele>6.87</ele>
        <time>2020-08-10T09:05:38Z</time>
      </trkpt>
      <trkpt lat="47.64119" lon="-3.2097">
        <ele>6.39</ele>
        <time>2020-08-10T09:05:50Z</time>
      </trkpt>
      <trkpt lat="47.64129" lon="-3.2097">
        <ele>6.39</ele>
        <time>2020-08-10T09:06:03Z</time>
      </trkpt>
      <trkpt lat="47.64133" lon="-3.20971">
        <ele>6.39</ele>
        <time>2020-08-10T09:06:08Z</time>
      </trkpt>
      <trkpt lat="47.64143" lon="-3.20976">
        <ele>5.91</ele>
        <time>2020-08-10T09:06:21Z</time>
      </trkpt>
      <trkpt lat="47.64144" lon="-3.20979">
        <ele>5.91</ele>
        <time>2020-08-10T09:06:24Z</time>
      </trkpt>
      <trkpt lat="47.64145" lon="-3.20981">
        <ele>5.42</ele>
        <time>2020-08-10T09:06:26Z</time>
      </trkpt>
      <trkpt lat="47.64148" lon="-3.20984">
        <ele>4.94</ele>
        <time>2020-08-10T09:06:30Z</time>
      </trkpt>
      <trkpt lat="47.6416" lon="-3.20985">
        <ele>5.42</ele>
        <time>2020-08-10T09:06:45Z</time>
      </trkpt>
      <trkpt lat="47.64166" lon="-3.20973">
        <ele>5.91</ele>
        <time>2020-08-10T09:06:58Z</time>
      </trkpt>
      <trkpt lat="47.64177" lon="-3.20965">
        <ele>6.39</ele>
        <time>2020-08-10T09:07:12Z</time>
      </trkpt>
      <trkpt lat="47.64186" lon="-3.2096">
        <ele>6.39</ele>
        <time>2020-08-10T09:07:26Z</time>
      </trkpt>
      <trkpt lat="47.64195" lon="-3.20958">
        <ele>5.42</ele>
        <time>2020-08-10T09:07:38Z</time>
      </trkpt>
      <trkpt lat="47.642" lon="-3.20956">
        <ele>5.91</ele>
        <time>2020-08-10T09:07:52Z</time>
      </trkpt>
      <trkpt lat="47.64208" lon="-3.20954">
        <ele>5.42</ele>
        <time>2020-08-10T09:08:04Z</time>
      </trkpt>
      <trkpt lat="47.64214" lon="-3.20953">
        <ele>5.91</ele>
        <time>2020-08-10T09:08:10Z</time>
      </trkpt>
      <trkpt lat="47.64224" lon="-3.2095">
        <ele>6.39</ele>
        <time>2020-08-10T09:08:24Z</time>
      </trkpt>
      <trkpt lat="47.64233" lon="-3.20946">
        <ele>5.91</ele>
        <time>2020-08-10T09:08:36Z</time>
      </trkpt>
      <trkpt lat="47.64243" lon="-3.20948">
        <ele>5.91</ele>
        <time>2020-08-10T09:08:49Z</time>
      </trkpt>
      <trkpt lat="47.64254" lon="-3.20944">
        <ele>5.91</ele>
        <time>2020-08-10T09:09:03Z</time>
      </trkpt>
      <trkpt lat="47.64265" lon="-3.20943">
        <ele>5.91</ele>
        <time>2020-08-10T09:09:18Z</time>
      </trkpt>
      <trkpt lat="47.64266" lon="-3.20943">
        <ele>5.91</ele>
        <time>2020-08-10T09:09:19Z</time>
      </trkpt>
      <trkpt lat="47.64273" lon="-3.20945">
        <ele>5.42</ele>
        <time>2020-08-10T09:09:31Z</time>
      </trkpt>
      <trkpt lat="47.6428" lon="-3.20944">
        <ele>5.42</ele>
        <time>2020-08-10T09:09:38Z</time>
      </trkpt>
      <trkpt lat="47.64281" lon="-3.20942">
        <ele>5.42</ele>
        <time>2020-08-10T09:09:40Z</time>
      </trkpt>
      <trkpt lat="47.64284" lon="-3.20941">
        <ele>5.42</ele>
        <time>2020-08-10T09:09:43Z</time>
      </trkpt>
      <trkpt lat="47.64296" lon="-3.20942">
        <ele>6.39</ele>
        <time>2020-08-10T09:09:58Z</time>
      </trkpt>
      <trkpt lat="47.64305" lon="-3.20947">
        <ele>5.42</ele>
        <time>2020-08-10T09:10:12Z</time>
      </trkpt>
      <trkpt lat="47.64313" lon="-3.20947">
        <ele>5.91</ele>
        <time>2020-08-10T09:10:24Z</time>
      </trkpt>
      <trkpt lat="47.64322" lon="-3.20949">
        <ele>6.39</ele>
        <time>2020-08-10T09:10:36Z</time>
      </trkpt>
      <trkpt lat="47.64329" lon="-3.20946">
        <ele>6.39</ele>
        <time>2020-08-10T09:10:50Z</time>
      </trkpt>
      <trkpt lat="47.64333" lon="-3.2094">
        <ele>8.31</ele>
        <time>2020-08-10T09:11:02Z</time>
      </trkpt>
      <trkpt lat="47.64337" lon="-3.20938">
        <ele>8.31</ele>
        <time>2020-08-10T09:11:14Z</time>
      </trkpt>
      <trkpt lat="47.64337" lon="-3.20938">
        <ele>7.83</ele>
        <time>2020-08-10T09:11:36Z</time>
      </trkpt>
      <trkpt lat="47.64338" lon="-3.20938">
        <ele>7.83</ele>
        <time>2020-08-10T09:11:56Z</time>
      </trkpt>
      <trkpt lat="47.64338" lon="-3.20938">
        <ele>8.31</ele>
        <time>2020-08-10T09:12:13Z</time>
      </trkpt>
      <trkpt lat="47.64338" lon="-3.20938">
        <ele>8.31</ele>
        <time>2020-08-10T09:12:26Z</time>
      </trkpt>
      <trkpt lat="47.64338" lon="-3.20939">
        <ele>8.31</ele>
        <time>2020-08-10T09:12:36Z</time>
      </trkpt>
      <trkpt lat="47.64338" lon="-3.20939">
        <ele>8.31</ele>
        <time>2020-08-10T09:13:04Z</time>
      </trkpt>
      <trkpt lat="47.64339" lon="-3.20939">
        <ele>7.83</ele>
        <time>2020-08-10T09:13:19Z</time>
      </trkpt>
      <trkpt lat="47.64339" lon="-3.20939">
        <ele>7.83</ele>
        <time>2020-08-10T09:13:40Z</time>
      </trkpt>
      <trkpt lat="47.6434" lon="-3.20939">
        <ele>8.31</ele>
        <time>2020-08-10T09:13:56Z</time>
      </trkpt>
      <trkpt lat="47.64339" lon="-3.20939">
        <ele>8.31</ele>
        <time>2020-08-10T09:14:17Z</time>
      </trkpt>
      <trkpt lat="47.64339" lon="-3.20939">
        <ele>8.79</ele>
        <time>2020-08-10T09:14:43Z</time>
      </trkpt>
      <trkpt lat="47.6434" lon="-3.20939">
        <ele>8.79</ele>
        <time>2020-08-10T09:15:06Z</time>
      </trkpt>
      <trkpt lat="47.64339" lon="-3.20939">
        <ele>8.31</ele>
        <time>2020-08-10T09:15:31Z</time>
      </trkpt>
      <trkpt lat="47.64339" lon="-3.20939">
        <ele>8.79</ele>
        <time>2020-08-10T09:16:01Z</time>
      </trkpt>
      <trkpt lat="47.64339" lon="-3.20939">
        <ele>8.79</ele>
        <time>2020-08-10T09:16:20Z</time>
      </trkpt>
      <trkpt lat="47.64339" lon="-3.20939">
        <ele>8.31</ele>
        <time>2020-08-10T09:16:54Z</time>
      </trkpt>
      <trkpt lat="47.64339" lon="-3.20939">
        <ele>8.79</ele>
        <time>2020-08-10T09:17:26Z</time>
      </trkpt>
      <trkpt lat="47.64338" lon="-3.20932">
        <ele>8.31</ele>
        <time>2020-08-10T09:17:44Z</time>
      </trkpt>
      <trkpt lat="47.64336" lon="-3.20918">
        <ele>7.83</ele>
        <time>2020-08-10T09:17:56Z</time>
      </trkpt>
      <trkpt lat="47.64333" lon="-3.20902">
        <ele>8.31</ele>
        <time>2020-08-10T09:18:10Z</time>
      </trkpt>
      <trkpt lat="47.64331" lon="-3.20889">
        <ele>8.31</ele>
        <time>2020-08-10T09:18:22Z</time>
      </trkpt>
      <trkpt lat="47.64333" lon="-3.20883">
        <ele>7.83</ele>
        <time>2020-08-10T09:18:28Z</time>
      </trkpt>
      <trkpt lat="47.64337" lon="-3.20868">
        <ele>7.83</ele>
        <time>2020-08-10T09:18:42Z</time>
      </trkpt>
      <trkpt lat="47.64337" lon="-3.20862">
        <ele>7.83</ele>
        <time>2020-08-10T09:18:56Z</time>
      </trkpt>
      <trkpt lat="47.64336" lon="-3.20862">
        <ele>7.35</ele>
        <time>2020-08-10T09:18:57Z</time>
      </trkpt>
      <trkpt lat="47.64334" lon="-3.20856">
        <ele>7.35</ele>
        <time>2020-08-10T09:19:02Z</time>
      </trkpt>
      <trkpt lat="47.6434" lon="-3.20835">
        <ele>7.83</ele>
        <time>2020-08-10T09:19:19Z</time>
      </trkpt>
      <trkpt lat="47.64341" lon="-3.20829">
        <ele>7.35</ele>
        <time>2020-08-10T09:19:23Z</time>
      </trkpt>
      <trkpt lat="47.64344" lon="-3.20819">
        <ele>7.35</ele>
        <time>2020-08-10T09:19:34Z</time>
      </trkpt>
      <trkpt lat="47.64345" lon="-3.20813">
        <ele>7.35</ele>
        <time>2020-08-10T09:19:39Z</time>
      </trkpt>
      <trkpt lat="47.64353" lon="-3.20801">
        <ele>7.35</ele>
        <time>2020-08-10T09:19:54Z</time>
      </trkpt>
      <trkpt lat="47.64354" lon="-3.208">
        <ele>7.83</ele>
        <time>2020-08-10T09:20:07Z</time>
      </trkpt>
      <trkpt lat="47.64354" lon="-3.20799">
        <ele>7.35</ele>
        <time>2020-08-10T09:20:15Z</time>
      </trkpt>
      <trkpt lat="47.64356" lon="-3.20796">
        <ele>7.35</ele>
        <time>2020-08-10T09:20:18Z</time>
      </trkpt>
      <trkpt lat="47.64367" lon="-3.20782">
        <ele>7.35</ele>
        <time>2020-08-10T09:20:31Z</time>
      </trkpt>
      <trkpt lat="47.64375" lon="-3.20764">
        <ele>7.35</ele>
        <time>2020-08-10T09:20:44Z</time>
      </trkpt>
      <trkpt lat="47.64384" lon="-3.20744">
        <ele>7.35</ele>
        <time>2020-08-10T09:20:59Z</time>
      </trkpt>
      <trkpt lat="47.64387" lon="-3.20738">
        <ele>7.35</ele>
        <time>2020-08-10T09:21:03Z</time>
      </trkpt>
      <trkpt lat="47.64398" lon="-3.2072">
        <ele>7.35</ele>
        <time>2020-08-10T09:21:19Z</time>
      </trkpt>
      <trkpt lat="47.64408" lon="-3.20701">
        <ele>7.83</ele>
        <time>2020-08-10T09:21:34Z</time>
      </trkpt>
      <trkpt lat="47.64407" lon="-3.20697">
        <ele>7.35</ele>
        <time>2020-08-10T09:21:38Z</time>
      </trkpt>
      <trkpt lat="47.64404" lon="-3.20699">
        <ele>7.35</ele>
        <time>2020-08-10T09:21:41Z</time>
      </trkpt>
      <trkpt lat="47.64387" lon="-3.20696">
        <ele>7.35</ele>
        <time>2020-08-10T09:21:58Z</time>
      </trkpt>
      <trkpt lat="47.6438" lon="-3.20694">
        <ele>7.35</ele>
        <time>2020-08-10T09:22:11Z</time>
      </trkpt>
      <trkpt lat="47.6438" lon="-3.20694">
        <ele>6.87</ele>
        <time>2020-08-10T09:22:37Z</time>
      </trkpt>
      <trkpt lat="47.64379" lon="-3.20695">
        <ele>7.35</ele>
        <time>2020-08-10T09:23:05Z</time>
      </trkpt>
      <trkpt lat="47.64379" lon="-3.20695">
        <ele>6.87</ele>
        <time>2020-08-10T09:23:39Z</time>
      </trkpt>
      <trkpt lat="47.64379" lon="-3.20695">
        <ele>7.35</ele>
        <time>2020-08-10T09:23:59Z</time>
      </trkpt>
      <trkpt lat="47.64379" lon="-3.20694">
        <ele>8.31</ele>
        <time>2020-08-10T09:24:26Z</time>
      </trkpt>
      <trkpt lat="47.64377" lon="-3.20693">
        <ele>8.31</ele>
        <time>2020-08-10T09:24:33Z</time>
      </trkpt>
      <trkpt lat="47.64372" lon="-3.20689">
        <ele>7.83</ele>
        <time>2020-08-10T09:24:39Z</time>
      </trkpt>
      <trkpt lat="47.64359" lon="-3.20674">
        <ele>7.83</ele>
        <time>2020-08-10T09:24:55Z</time>
      </trkpt>
      <trkpt lat="47.64348" lon="-3.20663">
        <ele>8.79</ele>
        <time>2020-08-10T09:25:08Z</time>
      </trkpt>
      <trkpt lat="47.6433" lon="-3.20661">
        <ele>8.31</ele>
        <time>2020-08-10T09:25:25Z</time>
      </trkpt>
      <trkpt lat="47.64314" lon="-3.20663">
        <ele>7.83</ele>
        <time>2020-08-10T09:25:40Z</time>
      </trkpt>
      <trkpt lat="47.64297" lon="-3.20659">
        <ele>7.83</ele>
        <time>2020-08-10T09:25:56Z</time>
      </trkpt>
      <trkpt lat="47.64279" lon="-3.20653">
        <ele>7.83</ele>
        <time>2020-08-10T09:26:12Z</time>
      </trkpt>
      <trkpt lat="47.64261" lon="-3.20648">
        <ele>8.31</ele>
        <time>2020-08-10T09:26:27Z</time>
      </trkpt>
      <trkpt lat="47.64255" lon="-3.20647">
        <ele>8.31</ele>
        <time>2020-08-10T09:26:34Z</time>
      </trkpt>
      <trkpt lat="47.64251" lon="-3.20645">
        <ele>8.31</ele>
        <time>2020-08-10T09:26:38Z</time>
      </trkpt>
      <trkpt lat="47.64237" lon="-3.20647">
        <ele>7.83</ele>
        <time>2020-08-10T09:26:51Z</time>
      </trkpt>
      <trkpt lat="47.6423" lon="-3.20648">
        <ele>8.31</ele>
        <time>2020-08-10T09:27:03Z</time>
      </trkpt>
      <trkpt lat="47.64223" lon="-3.20649">
        <ele>8.31</ele>
        <time>2020-08-10T09:27:10Z</time>
      </trkpt>
      <trkpt lat="47.64218" lon="-3.2065">
        <ele>8.79</ele>
        <time>2020-08-10T09:27:14Z</time>
      </trkpt>
      <trkpt lat="47.6421" lon="-3.20651">
        <ele>8.79</ele>
        <time>2020-08-10T09:27:22Z</time>
      </trkpt>
      <trkpt lat="47.64201" lon="-3.20651">
        <ele>8.79</ele>
        <time>2020-08-10T09:27:30Z</time>
      </trkpt>
      <trkpt lat="47.64182" lon="-3.20651">
        <ele>8.79</ele>
        <time>2020-08-10T09:27:48Z</time>
      </trkpt>
      <trkpt lat="47.6418" lon="-3.20651">
        <ele>9.27</ele>
        <time>2020-08-10T09:27:50Z</time>
      </trkpt>
      <trkpt lat="47.64178" lon="-3.2065">
        <ele>9.27</ele>
        <time>2020-08-10T09:27:53Z</time>
      </trkpt>
      <trkpt lat="47.64174" lon="-3.20651">
        <ele>8.79</ele>
        <time>2020-08-10T09:27:57Z</time>
      </trkpt>
      <trkpt lat="47.64165" lon="-3.20651">
        <ele>9.27</ele>
        <time>2020-08-10T09:28:05Z</time>
      </trkpt>
      <trkpt lat="47.64147" lon="-3.20651">
        <ele>9.27</ele>
        <time>2020-08-10T09:28:22Z</time>
      </trkpt>
      <trkpt lat="47.64134" lon="-3.20652">
        <ele>9.27</ele>
        <time>2020-08-10T09:28:34Z</time>
      </trkpt>
      <trkpt lat="47.64119" lon="-3.20654">
        <ele>9.27</ele>
        <time>2020-08-10T09:28:48Z</time>
      </trkpt>
      <trkpt lat="47.64101" lon="-3.20653">
        <ele>9.75</ele>
        <time>2020-08-10T09:29:04Z</time>
      </trkpt>
      <trkpt lat="47.64083" lon="-3.20651">
        <ele>10.23</ele>
        <time>2020-08-10T09:29:21Z</time>
      </trkpt>
      <trkpt lat="47.64075" lon="-3.2065">
        <ele>10.23</ele>
        <time>2020-08-10T09:29:28Z</time>
      </trkpt>
      <trkpt lat="47.64066" lon="-3.20648">
        <ele>10.23</ele>
        <time>2020-08-10T09:29:37Z</time>
      </trkpt>
      <trkpt lat="47.64061" lon="-3.20644">
        <ele>10.23</ele>
        <time>2020-08-10T09:29:43Z</time>
      </trkpt>
      <trkpt lat="47.64045" lon="-3.20641">
        <ele>10.23</ele>
        <time>2020-08-10T09:29:58Z</time>
      </trkpt>
      <trkpt lat="47.6404" lon="-3.20638">
        <ele>10.71</ele>
        <time>2020-08-10T09:30:04Z</time>
      </trkpt>
      <trkpt lat="47.64025" lon="-3.20639">
        <ele>11.19</ele>
        <time>2020-08-10T09:30:18Z</time>
      </trkpt>
      <trkpt lat="47.64011" lon="-3.20641">
        <ele>11.19</ele>
        <time>2020-08-10T09:30:33Z</time>
      </trkpt>
      <trkpt lat="47.64002" lon="-3.2064">
        <ele>11.19</ele>
        <time>2020-08-10T09:30:43Z</time>
      </trkpt>
      <trkpt lat="47.63992" lon="-3.20635">
        <ele>12.15</ele>
        <time>2020-08-10T09:30:55Z</time>
      </trkpt>
      <trkpt lat="47.63978" lon="-3.20633">
        <ele>11.19</ele>
        <time>2020-08-10T09:31:10Z</time>
      </trkpt>
      <trkpt lat="47.63975" lon="-3.20633">
        <ele>10.71</ele>
        <time>2020-08-10T09:31:13Z</time>
      </trkpt>
      <trkpt lat="47.6396" lon="-3.20626">
        <ele>10.23</ele>
        <time>2020-08-10T09:31:28Z</time>
      </trkpt>
      <trkpt lat="47.63947" lon="-3.2062">
        <ele>10.23</ele>
        <time>2020-08-10T09:31:41Z</time>
      </trkpt>
      <trkpt lat="47.6394" lon="-3.20615">
        <ele>10.23</ele>
        <time>2020-08-10T09:31:48Z</time>
      </trkpt>
      <trkpt lat="47.63922" lon="-3.20609">
        <ele>10.71</ele>
        <time>2020-08-10T09:32:05Z</time>
      </trkpt>
      <trkpt lat="47.63906" lon="-3.20605">
        <ele>10.71</ele>
        <time>2020-08-10T09:32:20Z</time>
      </trkpt>
      <trkpt lat="47.639" lon="-3.20603">
        <ele>10.71</ele>
        <time>2020-08-10T09:32:26Z</time>
      </trkpt>
      <trkpt lat="47.63886" lon="-3.20593">
        <ele>11.67</ele>
        <time>2020-08-10T09:32:42Z</time>
      </trkpt>
      <trkpt lat="47.63877" lon="-3.20581">
        <ele>11.67</ele>
        <time>2020-08-10T09:32:57Z</time>
      </trkpt>
      <trkpt lat="47.63871" lon="-3.20583">
        <ele>11.19</ele>
        <time>2020-08-10T09:33:04Z</time>
      </trkpt>
      <trkpt lat="47.63855" lon="-3.20583">
        <ele>11.67</ele>
        <time>2020-08-10T09:33:20Z</time>
      </trkpt>
      <trkpt lat="47.63844" lon="-3.20586">
        <ele>10.71</ele>
        <time>2020-08-10T09:33:34Z</time>
      </trkpt>
      <trkpt lat="47.63836" lon="-3.20588">
        <ele>10.71</ele>
        <time>2020-08-10T09:33:46Z</time>
      </trkpt>
      <trkpt lat="47.63828" lon="-3.20588">
        <ele>9.75</ele>
        <time>2020-08-10T09:33:57Z</time>
      </trkpt>
      <trkpt lat="47.63821" lon="-3.20579">
        <ele>10.23</ele>
        <time>2020-08-10T09:34:09Z</time>
      </trkpt>
      <trkpt lat="47.63818" lon="-3.20575">
        <ele>10.23</ele>
        <time>2020-08-10T09:34:14Z</time>
      </trkpt>
      <trkpt lat="47.63808" lon="-3.20561">
        <ele>10.23</ele>
        <time>2020-08-10T09:34:29Z</time>
      </trkpt>
      <trkpt lat="47.63799" lon="-3.20551">
        <ele>9.75</ele>
        <time>2020-08-10T09:34:43Z</time>
      </trkpt>
      <trkpt lat="47.63789" lon="-3.20537">
        <ele>10.23</ele>
        <time>2020-08-10T09:34:59Z</time>
      </trkpt>
      <trkpt lat="47.63782" lon="-3.20526">
        <ele>10.71</ele>
        <time>2020-08-10T09:35:13Z</time>
      </trkpt>
      <trkpt lat="47.63773" lon="-3.20514">
        <ele>10.23</ele>
        <time>2020-08-10T09:35:26Z</time>
      </trkpt>
      <trkpt lat="47.63772" lon="-3.20511">
        <ele>9.75</ele>
        <time>2020-08-10T09:35:29Z</time>
      </trkpt>
      <trkpt lat="47.63767" lon="-3.20507">
        <ele>10.23</ele>
        <time>2020-08-10T09:35:35Z</time>
      </trkpt>
      <trkpt lat="47.63763" lon="-3.20501">
        <ele>10.23</ele>
        <time>2020-08-10T09:35:42Z</time>
      </trkpt>
      <trkpt lat="47.63754" lon="-3.20488">
        <ele>10.23</ele>
        <time>2020-08-10T09:35:57Z</time>
      </trkpt>
      <trkpt lat="47.63748" lon="-3.20477">
        <ele>10.23</ele>
        <time>2020-08-10T09:36:10Z</time>
      </trkpt>
      <trkpt lat="47.6374" lon="-3.20466">
        <ele>11.19</ele>
        <time>2020-08-10T09:36:23Z</time>
      </trkpt>
      <trkpt lat="47.63737" lon="-3.20462">
        <ele>10.23</ele>
        <time>2020-08-10T09:36:29Z</time>
      </trkpt>
      <trkpt lat="47.63734" lon="-3.20458">
        <ele>10.71</ele>
        <time>2020-08-10T09:36:33Z</time>
      </trkpt>
      <trkpt lat="47.63726" lon="-3.20445">
        <ele>10.71</ele>
        <time>2020-08-10T09:36:49Z</time>
      </trkpt>
      <trkpt lat="47.63719" lon="-3.20437">
        <ele>11.19</ele>
        <time>2020-08-10T09:37:02Z</time>
      </trkpt>
      <trkpt lat="47.63717" lon="-3.20435">
        <ele>10.71</ele>
        <time>2020-08-10T09:37:15Z</time>
      </trkpt>
      <trkpt lat="47.6371" lon="-3.20425">
        <ele>10.23</ele>
        <time>2020-08-10T09:37:28Z</time>
      </trkpt>
      <trkpt lat="47.63702" lon="-3.20414">
        <ele>10.23</ele>
        <time>2020-08-10T09:37:43Z</time>
      </trkpt>
      <trkpt lat="47.637" lon="-3.20407">
        <ele>10.71</ele>
        <time>2020-08-10T09:37:50Z</time>
      </trkpt>
      <trkpt lat="47.63702" lon="-3.20394">
        <ele>11.67</ele>
        <time>2020-08-10T09:38:04Z</time>
      </trkpt>
      <trkpt lat="47.63702" lon="-3.20393">
        <ele>11.67</ele>
        <time>2020-08-10T09:38:05Z</time>
      </trkpt>
      <trkpt lat="47.63703" lon="-3.20391">
        <ele>11.67</ele>
        <time>2020-08-10T09:38:07Z</time>
      </trkpt>
      <trkpt lat="47.63706" lon="-3.20387">
        <ele>12.15</ele>
        <time>2020-08-10T09:38:12Z</time>
      </trkpt>
      <trkpt lat="47.63717" lon="-3.20378">
        <ele>11.19</ele>
        <time>2020-08-10T09:38:27Z</time>
      </trkpt>
      <trkpt lat="47.63718" lon="-3.20377">
        <ele>10.71</ele>
        <time>2020-08-10T09:38:28Z</time>
      </trkpt>
      <trkpt lat="47.63723" lon="-3.20373">
        <ele>10.71</ele>
        <time>2020-08-10T09:38:35Z</time>
      </trkpt>
      <trkpt lat="47.63729" lon="-3.20365">
        <ele>9.75</ele>
        <time>2020-08-10T09:38:44Z</time>
      </trkpt>
      <trkpt lat="47.63735" lon="-3.20351">
        <ele>9.27</ele>
        <time>2020-08-10T09:38:57Z</time>
      </trkpt>
      <trkpt lat="47.63727" lon="-3.20343">
        <ele>8.79</ele>
        <time>2020-08-10T09:39:11Z</time>
      </trkpt>
      <trkpt lat="47.63725" lon="-3.20344">
        <ele>8.31</ele>
        <time>2020-08-10T09:39:16Z</time>
      </trkpt>
      <trkpt lat="47.63717" lon="-3.20343">
        <ele>8.31</ele>
        <time>2020-08-10T09:39:23Z</time>
      </trkpt>
      <trkpt lat="47.63715" lon="-3.20342">
        <ele>8.31</ele>
        <time>2020-08-10T09:39:27Z</time>
      </trkpt>
      <trkpt lat="47.63707" lon="-3.20341">
        <ele>7.83</ele>
        <time>2020-08-10T09:39:35Z</time>
      </trkpt>
      <trkpt lat="47.63696" lon="-3.20334">
        <ele>8.31</ele>
        <time>2020-08-10T09:39:47Z</time>
      </trkpt>
      <trkpt lat="47.63685" lon="-3.20322">
        <ele>7.83</ele>
        <time>2020-08-10T09:39:59Z</time>
      </trkpt>
      <trkpt lat="47.63668" lon="-3.20303">
        <ele>8.31</ele>
        <time>2020-08-10T09:40:17Z</time>
      </trkpt>
      <trkpt lat="47.63656" lon="-3.20295">
        <ele>8.31</ele>
        <time>2020-08-10T09:40:30Z</time>
      </trkpt>
      <trkpt lat="47.63652" lon="-3.20289">
        <ele>8.31</ele>
        <time>2020-08-10T09:40:35Z</time>
      </trkpt>
      <trkpt lat="47.63648" lon="-3.20286">
        <ele>8.31</ele>
        <time>2020-08-10T09:40:39Z</time>
      </trkpt>
      <trkpt lat="47.63644" lon="-3.20284">
        <ele>7.83</ele>
        <time>2020-08-10T09:40:43Z</time>
      </trkpt>
      <trkpt lat="47.63625" lon="-3.20269">
        <ele>8.31</ele>
        <time>2020-08-10T09:41:02Z</time>
      </trkpt>
      <trkpt lat="47.63614" lon="-3.20259">
        <ele>8.31</ele>
        <time>2020-08-10T09:41:14Z</time>
      </trkpt>
      <trkpt lat="47.63608" lon="-3.20254">
        <ele>8.31</ele>
        <time>2020-08-10T09:41:20Z</time>
      </trkpt>
      <trkpt lat="47.63596" lon="-3.20245">
        <ele>8.31</ele>
        <time>2020-08-10T09:41:33Z</time>
      </trkpt>
      <trkpt lat="47.63577" lon="-3.20228">
        <ele>7.83</ele>
        <time>2020-08-10T09:41:51Z</time>
      </trkpt>
      <trkpt lat="47.63564" lon="-3.20218">
        <ele>7.35</ele>
        <time>2020-08-10T09:42:04Z</time>
      </trkpt>
      <trkpt lat="47.63548" lon="-3.20205">
        <ele>6.87</ele>
        <time>2020-08-10T09:42:19Z</time>
      </trkpt>
      <trkpt lat="47.6353" lon="-3.20192">
        <ele>7.35</ele>
        <time>2020-08-10T09:42:36Z</time>
      </trkpt>
      <trkpt lat="47.63517" lon="-3.20181">
        <ele>8.31</ele>
        <time>2020-08-10T09:42:49Z</time>
      </trkpt>
      <trkpt lat="47.63503" lon="-3.20169">
        <ele>7.83</ele>
        <time>2020-08-10T09:43:04Z</time>
      </trkpt>
      <trkpt lat="47.63499" lon="-3.20166">
        <ele>8.31</ele>
        <time>2020-08-10T09:43:09Z</time>
      </trkpt>
      <trkpt lat="47.63487" lon="-3.20156">
        <ele>8.31</ele>
        <time>2020-08-10T09:43:22Z</time>
      </trkpt>
      <trkpt lat="47.63475" lon="-3.20147">
        <ele>8.79</ele>
        <time>2020-08-10T09:43:33Z</time>
      </trkpt>
      <trkpt lat="47.63457" lon="-3.20132">
        <ele>8.79</ele>
        <time>2020-08-10T09:43:51Z</time>
      </trkpt>
      <trkpt lat="47.63443" lon="-3.20119">
        <ele>8.79</ele>
        <time>2020-08-10T09:44:08Z</time>
      </trkpt>
      <trkpt lat="47.63434" lon="-3.20111">
        <ele>8.79</ele>
        <time>2020-08-10T09:44:17Z</time>
      </trkpt>
      <trkpt lat="47.63414" lon="-3.20094">
        <ele>8.79</ele>
        <time>2020-08-10T09:44:36Z</time>
      </trkpt>
      <trkpt lat="47.63399" lon="-3.20079">
        <ele>8.31</ele>
        <time>2020-08-10T09:44:52Z</time>
      </trkpt>
      <trkpt lat="47.63388" lon="-3.20064">
        <ele>8.31</ele>
        <time>2020-08-10T09:45:05Z</time>
      </trkpt>
      <trkpt lat="47.63377" lon="-3.2005">
        <ele>8.79</ele>
        <time>2020-08-10T09:45:18Z</time>
      </trkpt>
      <trkpt lat="47.63369" lon="-3.20042">
        <ele>8.79</ele>
        <time>2020-08-10T09:45:27Z</time>
      </trkpt>
      <trkpt lat="47.63363" lon="-3.20041">
        <ele>9.27</ele>
        <time>2020-08-10T09:45:32Z</time>
      </trkpt>
      <trkpt lat="47.63358" lon="-3.20043">
        <ele>9.27</ele>
        <time>2020-08-10T09:45:37Z</time>
      </trkpt>
      <trkpt lat="47.63349" lon="-3.20045">
        <ele>9.27</ele>
        <time>2020-08-10T09:45:46Z</time>
      </trkpt>
      <trkpt lat="47.63343" lon="-3.20043">
        <ele>8.79</ele>
        <time>2020-08-10T09:45:52Z</time>
      </trkpt>
      <trkpt lat="47.63325" lon="-3.2004">
        <ele>9.27</ele>
        <time>2020-08-10T09:46:08Z</time>
      </trkpt>
      <trkpt lat="47.63311" lon="-3.20026">
        <ele>9.27</ele>
        <time>2020-08-10T09:46:23Z</time>
      </trkpt>
      <trkpt lat="47.63297" lon="-3.2001">
        <ele>8.79</ele>
        <time>2020-08-10T09:46:38Z</time>
      </trkpt>
      <trkpt lat="47.63285" lon="-3.19993">
        <ele>9.27</ele>
        <time>2020-08-10T09:46:52Z</time>
      </trkpt>
      <trkpt lat="47.6328" lon="-3.19985">
        <ele>9.27</ele>
        <time>2020-08-10T09:46:58Z</time>
      </trkpt>
      <trkpt lat="47.63276" lon="-3.1998">
        <ele>10.23</ele>
        <time>2020-08-10T09:47:03Z</time>
      </trkpt>
      <trkpt lat="47.63271" lon="-3.19971">
        <ele>10.71</ele>
        <time>2020-08-10T09:47:10Z</time>
      </trkpt>
      <trkpt lat="47.63266" lon="-3.19964">
        <ele>11.19</ele>
        <time>2020-08-10T09:47:16Z</time>
      </trkpt>
      <trkpt lat="47.63261" lon="-3.19955">
        <ele>10.71</ele>
        <time>2020-08-10T09:47:23Z</time>
      </trkpt>
      <trkpt lat="47.63256" lon="-3.1995">
        <ele>10.23</ele>
        <time>2020-08-10T09:47:28Z</time>
      </trkpt>
      <trkpt lat="47.6325" lon="-3.1994">
        <ele>9.75</ele>
        <time>2020-08-10T09:47:36Z</time>
      </trkpt>
      <trkpt lat="47.63237" lon="-3.19927">
        <ele>8.79</ele>
        <time>2020-08-10T09:47:50Z</time>
      </trkpt>
      <trkpt lat="47.63234" lon="-3.19927">
        <ele>7.83</ele>
        <time>2020-08-10T09:47:53Z</time>
      </trkpt>
      <trkpt lat="47.63229" lon="-3.19921">
        <ele>8.31</ele>
        <time>2020-08-10T09:47:59Z</time>
      </trkpt>
      <trkpt lat="47.6321" lon="-3.19903">
        <ele>8.31</ele>
        <time>2020-08-10T09:48:18Z</time>
      </trkpt>
      <trkpt lat="47.63194" lon="-3.1989">
        <ele>8.31</ele>
        <time>2020-08-10T09:48:34Z</time>
      </trkpt>
      <trkpt lat="47.63192" lon="-3.19888">
        <ele>7.83</ele>
        <time>2020-08-10T09:48:36Z</time>
      </trkpt>
      <trkpt lat="47.63177" lon="-3.19877">
        <ele>8.31</ele>
        <time>2020-08-10T09:48:50Z</time>
      </trkpt>
      <trkpt lat="47.6316" lon="-3.19864">
        <ele>8.31</ele>
        <time>2020-08-10T09:49:08Z</time>
      </trkpt>
      <trkpt lat="47.63142" lon="-3.19848">
        <ele>7.83</ele>
        <time>2020-08-10T09:49:26Z</time>
      </trkpt>
      <trkpt lat="47.63124" lon="-3.19833">
        <ele>8.31</ele>
        <time>2020-08-10T09:49:43Z</time>
      </trkpt>
      <trkpt lat="47.63123" lon="-3.19833">
        <ele>8.31</ele>
        <time>2020-08-10T09:49:45Z</time>
      </trkpt>
      <trkpt lat="47.6312" lon="-3.19831">
        <ele>8.31</ele>
        <time>2020-08-10T09:49:48Z</time>
      </trkpt>
      <trkpt lat="47.63103" lon="-3.19821">
        <ele>8.31</ele>
        <time>2020-08-10T09:50:04Z</time>
      </trkpt>
      <trkpt lat="47.63085" lon="-3.19813">
        <ele>8.79</ele>
        <time>2020-08-10T09:50:21Z</time>
      </trkpt>
      <trkpt lat="47.63069" lon="-3.19803">
        <ele>8.79</ele>
        <time>2020-08-10T09:50:36Z</time>
      </trkpt>
      <trkpt lat="47.63052" lon="-3.19791">
        <ele>8.79</ele>
        <time>2020-08-10T09:50:52Z</time>
      </trkpt>
      <trkpt lat="47.63034" lon="-3.19779">
        <ele>9.27</ele>
        <time>2020-08-10T09:51:09Z</time>
      </trkpt>
      <trkpt lat="47.63017" lon="-3.19767">
        <ele>9.27</ele>
        <time>2020-08-10T09:51:25Z</time>
      </trkpt>
      <trkpt lat="47.62998" lon="-3.1975">
        <ele>9.27</ele>
        <time>2020-08-10T09:51:44Z</time>
      </trkpt>
      <trkpt lat="47.62985" lon="-3.19739">
        <ele>9.27</ele>
        <time>2020-08-10T09:51:59Z</time>
      </trkpt>
      <trkpt lat="47.62974" lon="-3.19729">
        <ele>9.75</ele>
        <time>2020-08-10T09:52:09Z</time>
      </trkpt>
      <trkpt lat="47.62973" lon="-3.19728">
        <ele>9.75</ele>
        <time>2020-08-10T09:52:11Z</time>
      </trkpt>
      <trkpt lat="47.6297" lon="-3.19727">
        <ele>9.27</ele>
        <time>2020-08-10T09:52:14Z</time>
      </trkpt>
      <trkpt lat="47.62959" lon="-3.19718">
        <ele>9.75</ele>
        <time>2020-08-10T09:52:25Z</time>
      </trkpt>
      <trkpt lat="47.62943" lon="-3.19705">
        <ele>10.23</ele>
        <time>2020-08-10T09:52:42Z</time>
      </trkpt>
      <trkpt lat="47.62935" lon="-3.19697">
        <ele>9.75</ele>
        <time>2020-08-10T09:52:51Z</time>
      </trkpt>
      <trkpt lat="47.6293" lon="-3.19691">
        <ele>10.23</ele>
        <time>2020-08-10T09:52:57Z</time>
      </trkpt>
      <trkpt lat="47.62911" lon="-3.1968">
        <ele>9.27</ele>
        <time>2020-08-10T09:53:14Z</time>
      </trkpt>
      <trkpt lat="47.62909" lon="-3.19679">
        <ele>8.79</ele>
        <time>2020-08-10T09:53:16Z</time>
      </trkpt>
      <trkpt lat="47.62894" lon="-3.19676">
        <ele>9.27</ele>
        <time>2020-08-10T09:53:30Z</time>
      </trkpt>
      <trkpt lat="47.62893" lon="-3.19675">
        <ele>9.27</ele>
        <time>2020-08-10T09:53:35Z</time>
      </trkpt>
      <trkpt lat="47.62876" lon="-3.19676">
        <ele>8.79</ele>
        <time>2020-08-10T09:53:49Z</time>
      </trkpt>
      <trkpt lat="47.62859" lon="-3.19676">
        <ele>8.31</ele>
        <time>2020-08-10T09:54:04Z</time>
      </trkpt>
      <trkpt lat="47.62843" lon="-3.19676">
        <ele>8.31</ele>
        <time>2020-08-10T09:54:18Z</time>
      </trkpt>
      <trkpt lat="47.62825" lon="-3.19677">
        <ele>8.79</ele>
        <time>2020-08-10T09:54:34Z</time>
      </trkpt>
      <trkpt lat="47.62816" lon="-3.19677">
        <ele>9.27</ele>
        <time>2020-08-10T09:54:45Z</time>
      </trkpt>
      <trkpt lat="47.62812" lon="-3.19677">
        <ele>9.27</ele>
        <time>2020-08-10T09:54:48Z</time>
      </trkpt>
      <trkpt lat="47.62797" lon="-3.19679">
        <ele>10.23</ele>
        <time>2020-08-10T09:55:01Z</time>
      </trkpt>
      <trkpt lat="47.62782" lon="-3.19679">
        <ele>9.75</ele>
        <time>2020-08-10T09:55:14Z</time>
      </trkpt>
      <trkpt lat="47.62764" lon="-3.1968">
        <ele>9.75</ele>
        <time>2020-08-10T09:55:29Z</time>
      </trkpt>
      <trkpt lat="47.62759" lon="-3.19678">
        <ele>9.75</ele>
        <time>2020-08-10T09:55:34Z</time>
      </trkpt>
      <trkpt lat="47.62754" lon="-3.19678">
        <ele>9.27</ele>
        <time>2020-08-10T09:55:38Z</time>
      </trkpt>
      <trkpt lat="47.62744" lon="-3.19679">
        <ele>10.23</ele>
        <time>2020-08-10T09:55:47Z</time>
      </trkpt>
      <trkpt lat="47.62732" lon="-3.19679">
        <ele>10.23</ele>
        <time>2020-08-10T09:55:58Z</time>
      </trkpt>
      <trkpt lat="47.62728" lon="-3.19679">
        <ele>9.27</ele>
        <time>2020-08-10T09:56:01Z</time>
      </trkpt>
      <trkpt lat="47.62711" lon="-3.1968">
        <ele>8.79</ele>
        <time>2020-08-10T09:56:16Z</time>
      </trkpt>
      <trkpt lat="47.62696" lon="-3.1968">
        <ele>7.83</ele>
        <time>2020-08-10T09:56:29Z</time>
      </trkpt>
      <trkpt lat="47.62684" lon="-3.19681">
        <ele>8.31</ele>
        <time>2020-08-10T09:56:39Z</time>
      </trkpt>
      <trkpt lat="47.62666" lon="-3.1968">
        <ele>7.83</ele>
        <time>2020-08-10T09:56:55Z</time>
      </trkpt>
      <trkpt lat="47.6265" lon="-3.1968">
        <ele>8.31</ele>
        <time>2020-08-10T09:57:08Z</time>
      </trkpt>
      <trkpt lat="47.62643" lon="-3.19679">
        <ele>8.79</ele>
        <time>2020-08-10T09:57:15Z</time>
      </trkpt>
      <trkpt lat="47.62641" lon="-3.1968">
        <ele>8.31</ele>
        <time>2020-08-10T09:57:17Z</time>
      </trkpt>
      <trkpt lat="47.62623" lon="-3.19679">
        <ele>8.79</ele>
        <time>2020-08-10T09:57:33Z</time>
      </trkpt>
      <trkpt lat="47.62607" lon="-3.19677">
        <ele>8.79</ele>
        <time>2020-08-10T09:57:48Z</time>
      </trkpt>
      <trkpt lat="47.62594" lon="-3.19678">
        <ele>9.27</ele>
        <time>2020-08-10T09:58:00Z</time>
      </trkpt>
      <trkpt lat="47.62592" lon="-3.19678">
        <ele>8.79</ele>
        <time>2020-08-10T09:58:02Z</time>
      </trkpt>
      <trkpt lat="47.62576" lon="-3.19678">
        <ele>8.31</ele>
        <time>2020-08-10T09:58:17Z</time>
      </trkpt>
      <trkpt lat="47.62564" lon="-3.19677">
        <ele>7.83</ele>
        <time>2020-08-10T09:58:26Z</time>
      </trkpt>
      <trkpt lat="47.62561" lon="-3.19678">
        <ele>7.83</ele>
        <time>2020-08-10T09:58:30Z</time>
      </trkpt>
      <trkpt lat="47.62555" lon="-3.19678">
        <ele>7.35</ele>
        <time>2020-08-10T09:58:35Z</time>
      </trkpt>
      <trkpt lat="47.62539" lon="-3.19676">
        <ele>7.35</ele>
        <time>2020-08-10T09:58:49Z</time>
      </trkpt>
      <trkpt lat="47.62522" lon="-3.19676">
        <ele>8.31</ele>
        <time>2020-08-10T09:59:04Z</time>
      </trkpt>
      <trkpt lat="47.62503" lon="-3.19676">
        <ele>8.31</ele>
        <time>2020-08-10T09:59:21Z</time>
      </trkpt>
      <trkpt lat="47.62501" lon="-3.19676">
        <ele>8.31</ele>
        <time>2020-08-10T09:59:22Z</time>
      </trkpt>
      <trkpt lat="47.62484" lon="-3.19675">
        <ele>7.83</ele>
        <time>2020-08-10T09:59:37Z</time>
      </trkpt>
      <trkpt lat="47.62468" lon="-3.19674">
        <ele>7.83</ele>
        <time>2020-08-10T09:59:52Z</time>
      </trkpt>
      <trkpt lat="47.62451" lon="-3.19673">
        <ele>7.35</ele>
        <time>2020-08-10T10:00:08Z</time>
      </trkpt>
      <trkpt lat="47.62441" lon="-3.19672">
        <ele>7.83</ele>
        <time>2020-08-10T10:00:18Z</time>
      </trkpt>
      <trkpt lat="47.62422" lon="-3.19664">
        <ele>8.31</ele>
        <time>2020-08-10T10:00:36Z</time>
      </trkpt>
      <trkpt lat="47.62419" lon="-3.1966">
        <ele>7.83</ele>
        <time>2020-08-10T10:00:41Z</time>
      </trkpt>
      <trkpt lat="47.62408" lon="-3.19647">
        <ele>8.31</ele>
        <time>2020-08-10T10:00:54Z</time>
      </trkpt>
      <trkpt lat="47.62402" lon="-3.19636">
        <ele>8.31</ele>
        <time>2020-08-10T10:01:03Z</time>
      </trkpt>
      <trkpt lat="47.62394" lon="-3.19616">
        <ele>8.31</ele>
        <time>2020-08-10T10:01:17Z</time>
      </trkpt>
      <trkpt lat="47.62386" lon="-3.19598">
        <ele>8.31</ele>
        <time>2020-08-10T10:01:30Z</time>
      </trkpt>
      <trkpt lat="47.62377" lon="-3.19574">
        <ele>8.79</ele>
        <time>2020-08-10T10:01:47Z</time>
      </trkpt>
      <trkpt lat="47.62371" lon="-3.1956">
        <ele>9.27</ele>
        <time>2020-08-10T10:01:58Z</time>
      </trkpt>
      <trkpt lat="47.62369" lon="-3.19553">
        <ele>9.27</ele>
        <time>2020-08-10T10:02:02Z</time>
      </trkpt>
      <trkpt lat="47.62357" lon="-3.19531">
        <ele>9.75</ele>
        <time>2020-08-10T10:02:19Z</time>
      </trkpt>
      <trkpt lat="47.62345" lon="-3.19509">
        <ele>9.75</ele>
        <time>2020-08-10T10:02:36Z</time>
      </trkpt>
      <trkpt lat="47.62343" lon="-3.19504">
        <ele>9.75</ele>
        <time>2020-08-10T10:02:40Z</time>
      </trkpt>
      <trkpt lat="47.62332" lon="-3.1948">
        <ele>9.75</ele>
        <time>2020-08-10T10:02:57Z</time>
      </trkpt>
      <trkpt lat="47.62321" lon="-3.19453">
        <ele>9.27</ele>
        <time>2020-08-10T10:03:15Z</time>
      </trkpt>
      <trkpt lat="47.62309" lon="-3.19429">
        <ele>9.27</ele>
        <time>2020-08-10T10:03:32Z</time>
      </trkpt>
      <trkpt lat="47.62302" lon="-3.19415">
        <ele>8.79</ele>
        <time>2020-08-10T10:03:42Z</time>
      </trkpt>
      <trkpt lat="47.62299" lon="-3.19409">
        <ele>9.27</ele>
        <time>2020-08-10T10:03:46Z</time>
      </trkpt>
      <trkpt lat="47.62292" lon="-3.19385">
        <ele>9.27</ele>
        <time>2020-08-10T10:04:01Z</time>
      </trkpt>
      <trkpt lat="47.62284" lon="-3.19363">
        <ele>8.79</ele>
        <time>2020-08-10T10:04:19Z</time>
      </trkpt>
      <trkpt lat="47.62286" lon="-3.19362">
        <ele>9.27</ele>
        <time>2020-08-10T10:04:22Z</time>
      </trkpt>
      <trkpt lat="47.62299" lon="-3.19349">
        <ele>9.27</ele>
        <time>2020-08-10T10:04:37Z</time>
      </trkpt>
      <trkpt lat="47.62298" lon="-3.19345">
        <ele>8.79</ele>
        <time>2020-08-10T10:04:45Z</time>
      </trkpt>
      <trkpt lat="47.62297" lon="-3.19337">
        <ele>9.27</ele>
        <time>2020-08-10T10:04:50Z</time>
      </trkpt>
      <trkpt lat="47.62286" lon="-3.19311">
        <ele>8.79</ele>
        <time>2020-08-10T10:05:07Z</time>
      </trkpt>
      <trkpt lat="47.62286" lon="-3.19309">
        <ele>8.79</ele>
        <time>2020-08-10T10:05:08Z</time>
      </trkpt>
      <trkpt lat="47.62278" lon="-3.19294">
        <ele>7.35</ele>
        <time>2020-08-10T10:05:24Z</time>
      </trkpt>
      <trkpt lat="47.62278" lon="-3.19294">
        <ele>10.71</ele>
        <time>2020-08-10T10:05:25Z</time>
      </trkpt>
      <trkpt lat="47.62279" lon="-3.19293">
        <ele>8.31</ele>
        <time>2020-08-10T10:05:35Z</time>
      </trkpt>
    </trkseg>
  </trk>
  <trk>
    <name><![CDATA[20-08-11]]></name>
    <trkseg>
      <trkpt lat="47.83509" lon="-2.96174">
        <ele>123.19</ele>
        <time>2020-08-11T16:30:10Z</time>
      </trkpt>
      <trkpt lat="47.83509" lon="-2.96178">
        <ele>123.19</ele>
        <time>2020-08-11T16:30:11Z</time>
      </trkpt>
      <trkpt lat="47.83499" lon="-2.96173">
        <ele>120.3</ele>
        <time>2020-08-11T16:30:21Z</time>
      </trkpt>
      <trkpt lat="47.83498" lon="-2.96174">
        <ele>123.67</ele>
        <time>2020-08-11T16:30:22Z</time>
      </trkpt>
      <trkpt lat="47.83496" lon="-2.96173">
        <ele>123.67</ele>
        <time>2020-08-11T16:30:37Z</time>
      </trkpt>
      <trkpt lat="47.83495" lon="-2.96176">
        <ele>123.67</ele>
        <time>2020-08-11T16:30:56Z</time>
      </trkpt>
      <trkpt lat="47.83499" lon="-2.96173">
        <ele>124.63</ele>
        <time>2020-08-11T16:31:10Z</time>
      </trkpt>
      <trkpt lat="47.83499" lon="-2.96162">
        <ele>125.11</ele>
        <time>2020-08-11T16:31:24Z</time>
      </trkpt>
      <trkpt lat="47.83499" lon="-2.96148">
        <ele>125.11</ele>
        <time>2020-08-11T16:31:36Z</time>
      </trkpt>
      <trkpt lat="47.83496" lon="-2.96134">
        <ele>125.11</ele>
        <time>2020-08-11T16:31:48Z</time>
      </trkpt>
      <trkpt lat="47.83497" lon="-2.9613">
        <ele>125.59</ele>
        <time>2020-08-11T16:31:56Z</time>
      </trkpt>
      <trkpt lat="47.83496" lon="-2.9612">
        <ele>125.59</ele>
        <time>2020-08-11T16:32:08Z</time>
      </trkpt>
      <trkpt lat="47.83492" lon="-2.96106">
        <ele>125.59</ele>
        <time>2020-08-11T16:32:19Z</time>
      </trkpt>
      <trkpt lat="47.83489" lon="-2.96094">
        <ele>125.59</ele>
        <time>2020-08-11T16:32:31Z</time>
      </trkpt>
      <trkpt lat="47.83487" lon="-2.96084">
        <ele>126.07</ele>
        <time>2020-08-11T16:32:40Z</time>
      </trkpt>
      <trkpt lat="47.83484" lon="-2.96072">
        <ele>126.07</ele>
        <time>2020-08-11T16:32:50Z</time>
      </trkpt>
      <trkpt lat="47.8348" lon="-2.96061">
        <ele>126.07</ele>
        <time>2020-08-11T16:32:59Z</time>
      </trkpt>
      <trkpt lat="47.83467" lon="-2.96041">
        <ele>126.07</ele>
        <time>2020-08-11T16:33:11Z</time>
      </trkpt>
      <trkpt lat="47.8346" lon="-2.96021">
        <ele>125.59</ele>
        <time>2020-08-11T16:33:22Z</time>
      </trkpt>
      <trkpt lat="47.83457" lon="-2.96014">
        <ele>125.59</ele>
        <time>2020-08-11T16:33:28Z</time>
      </trkpt>
      <trkpt lat="47.83455" lon="-2.96009">
        <ele>125.59</ele>
        <time>2020-08-11T16:33:30Z</time>
      </trkpt>
      <trkpt lat="47.83452" lon="-2.95998">
        <ele>125.59</ele>
        <time>2020-08-11T16:33:38Z</time>
      </trkpt>
      <trkpt lat="47.83446" lon="-2.95978">
        <ele>124.63</ele>
        <time>2020-08-11T16:33:49Z</time>
      </trkpt>
      <trkpt lat="47.83445" lon="-2.95974">
        <ele>124.63</ele>
        <time>2020-08-11T16:33:51Z</time>
      </trkpt>
      <trkpt lat="47.83444" lon="-2.95968">
        <ele>124.63</ele>
        <time>2020-08-11T16:33:54Z</time>
      </trkpt>
      <trkpt lat="47.83443" lon="-2.95948">
        <ele>123.67</ele>
        <time>2020-08-11T16:34:06Z</time>
      </trkpt>
      <trkpt lat="47.83436" lon="-2.95926">
        <ele>123.19</ele>
        <time>2020-08-11T16:34:18Z</time>
      </trkpt>
      <trkpt lat="47.83434" lon="-2.95917">
        <ele>124.15</ele>
        <time>2020-08-11T16:34:22Z</time>
      </trkpt>
      <trkpt lat="47.83432" lon="-2.95905">
        <ele>123.67</ele>
        <time>2020-08-11T16:34:27Z</time>
      </trkpt>
      <trkpt lat="47.83427" lon="-2.9588">
        <ele>123.67</ele>
        <time>2020-08-11T16:34:39Z</time>
      </trkpt>
      <trkpt lat="47.83421" lon="-2.95855">
        <ele>123.19</ele>
        <time>2020-08-11T16:34:55Z</time>
      </trkpt>
      <trkpt lat="47.83418" lon="-2.95845">
        <ele>123.19</ele>
        <time>2020-08-11T16:35:04Z</time>
      </trkpt>
      <trkpt lat="47.83417" lon="-2.95844">
        <ele>122.71</ele>
        <time>2020-08-11T16:35:05Z</time>
      </trkpt>
      <trkpt lat="47.83413" lon="-2.9584">
        <ele>123.19</ele>
        <time>2020-08-11T16:35:08Z</time>
      </trkpt>
      <trkpt lat="47.83411" lon="-2.95834">
        <ele>122.71</ele>
        <time>2020-08-11T16:35:11Z</time>
      </trkpt>
      <trkpt lat="47.83403" lon="-2.95808">
        <ele>122.71</ele>
        <time>2020-08-11T16:35:25Z</time>
      </trkpt>
      <trkpt lat="47.83401" lon="-2.95798">
        <ele>122.71</ele>
        <time>2020-08-11T16:35:32Z</time>
      </trkpt>
      <trkpt lat="47.834" lon="-2.95793">
        <ele>122.71</ele>
        <time>2020-08-11T16:35:35Z</time>
      </trkpt>
      <trkpt lat="47.83395" lon="-2.95782">
        <ele>122.22</ele>
        <time>2020-08-11T16:35:43Z</time>
      </trkpt>
      <trkpt lat="47.8339" lon="-2.95765">
        <ele>122.71</ele>
        <time>2020-08-11T16:35:53Z</time>
      </trkpt>
      <trkpt lat="47.83389" lon="-2.95757">
        <ele>122.22</ele>
        <time>2020-08-11T16:35:58Z</time>
      </trkpt>
      <trkpt lat="47.83385" lon="-2.9574">
        <ele>122.71</ele>
        <time>2020-08-11T16:36:08Z</time>
      </trkpt>
      <trkpt lat="47.83381" lon="-2.95724">
        <ele>122.71</ele>
        <time>2020-08-11T16:36:19Z</time>
      </trkpt>
      <trkpt lat="47.83381" lon="-2.95722">
        <ele>122.71</ele>
        <time>2020-08-11T16:36:20Z</time>
      </trkpt>
      <trkpt lat="47.83378" lon="-2.95707">
        <ele>123.19</ele>
        <time>2020-08-11T16:36:28Z</time>
      </trkpt>
      <trkpt lat="47.83378" lon="-2.95702">
        <ele>122.71</ele>
        <time>2020-08-11T16:36:31Z</time>
      </trkpt>
      <trkpt lat="47.83376" lon="-2.95686">
        <ele>122.71</ele>
        <time>2020-08-11T16:36:39Z</time>
      </trkpt>
      <trkpt lat="47.83375" lon="-2.95679">
        <ele>123.19</ele>
        <time>2020-08-11T16:36:42Z</time>
      </trkpt>
      <trkpt lat="47.83372" lon="-2.95661">
        <ele>122.71</ele>
        <time>2020-08-11T16:36:51Z</time>
      </trkpt>
      <trkpt lat="47.83366" lon="-2.95643">
        <ele>123.19</ele>
        <time>2020-08-11T16:37:01Z</time>
      </trkpt>
      <trkpt lat="47.83366" lon="-2.95641">
        <ele>123.67</ele>
        <time>2020-08-11T16:37:02Z</time>
      </trkpt>
      <trkpt lat="47.83362" lon="-2.95629">
        <ele>123.19</ele>
        <time>2020-08-11T16:37:12Z</time>
      </trkpt>
      <trkpt lat="47.83362" lon="-2.95629">
        <ele>123.19</ele>
        <time>2020-08-11T16:37:13Z</time>
      </trkpt>
      <trkpt lat="47.83356" lon="-2.95617">
        <ele>124.15</ele>
        <time>2020-08-11T16:37:24Z</time>
      </trkpt>
      <trkpt lat="47.83355" lon="-2.95611">
        <ele>124.15</ele>
        <time>2020-08-11T16:37:28Z</time>
      </trkpt>
      <trkpt lat="47.83354" lon="-2.95607">
        <ele>125.11</ele>
        <time>2020-08-11T16:37:30Z</time>
      </trkpt>
      <trkpt lat="47.83363" lon="-2.95548">
        <ele>125.59</ele>
        <time>2020-08-11T16:37:39Z</time>
      </trkpt>
      <trkpt lat="47.8336" lon="-2.95523">
        <ele>126.55</ele>
        <time>2020-08-11T16:37:50Z</time>
      </trkpt>
      <trkpt lat="47.83359" lon="-2.9551">
        <ele>127.03</ele>
        <time>2020-08-11T16:37:58Z</time>
      </trkpt>
      <trkpt lat="47.83354" lon="-2.95492">
        <ele>127.99</ele>
        <time>2020-08-11T16:38:06Z</time>
      </trkpt>
      <trkpt lat="47.83353" lon="-2.95485">
        <ele>128.47</ele>
        <time>2020-08-11T16:38:09Z</time>
      </trkpt>
      <trkpt lat="47.83352" lon="-2.95479">
        <ele>128.47</ele>
        <time>2020-08-11T16:38:11Z</time>
      </trkpt>
      <trkpt lat="47.8335" lon="-2.95469">
        <ele>128.95</ele>
        <time>2020-08-11T16:38:16Z</time>
      </trkpt>
      <trkpt lat="47.83348" lon="-2.9546">
        <ele>129.43</ele>
        <time>2020-08-11T16:38:20Z</time>
      </trkpt>
      <trkpt lat="47.83347" lon="-2.95455">
        <ele>129.92</ele>
        <time>2020-08-11T16:38:24Z</time>
      </trkpt>
      <trkpt lat="47.83346" lon="-2.95442">
        <ele>130.88</ele>
        <time>2020-08-11T16:38:36Z</time>
      </trkpt>
      <trkpt lat="47.83343" lon="-2.95427">
        <ele>131.84</ele>
        <time>2020-08-11T16:38:48Z</time>
      </trkpt>
      <trkpt lat="47.83343" lon="-2.9542">
        <ele>132.32</ele>
        <time>2020-08-11T16:38:52Z</time>
      </trkpt>
      <trkpt lat="47.83341" lon="-2.95409">
        <ele>132.32</ele>
        <time>2020-08-11T16:38:59Z</time>
      </trkpt>
      <trkpt lat="47.83339" lon="-2.95404">
        <ele>132.32</ele>
        <time>2020-08-11T16:39:01Z</time>
      </trkpt>
      <trkpt lat="47.83337" lon="-2.95392">
        <ele>132.8</ele>
        <time>2020-08-11T16:39:07Z</time>
      </trkpt>
      <trkpt lat="47.83336" lon="-2.95388">
        <ele>132.32</ele>
        <time>2020-08-11T16:39:09Z</time>
      </trkpt>
      <trkpt lat="47.83335" lon="-2.95384">
        <ele>132.32</ele>
        <time>2020-08-11T16:39:11Z</time>
      </trkpt>
      <trkpt lat="47.83333" lon="-2.95365">
        <ele>132.32</ele>
        <time>2020-08-11T16:39:19Z</time>
      </trkpt>
      <trkpt lat="47.83332" lon="-2.9536">
        <ele>132.32</ele>
        <time>2020-08-11T16:39:22Z</time>
      </trkpt>
      <trkpt lat="47.8333" lon="-2.95336">
        <ele>132.32</ele>
        <time>2020-08-11T16:39:35Z</time>
      </trkpt>
      <trkpt lat="47.83327" lon="-2.95326">
        <ele>133.76</ele>
        <time>2020-08-11T16:39:47Z</time>
      </trkpt>
      <trkpt lat="47.83321" lon="-2.95309">
        <ele>134.72</ele>
        <time>2020-08-11T16:39:57Z</time>
      </trkpt>
      <trkpt lat="47.83318" lon="-2.95293">
        <ele>135.2</ele>
        <time>2020-08-11T16:40:07Z</time>
      </trkpt>
      <trkpt lat="47.83314" lon="-2.95276">
        <ele>136.16</ele>
        <time>2020-08-11T16:40:17Z</time>
      </trkpt>
      <trkpt lat="47.83311" lon="-2.95265">
        <ele>137.13</ele>
        <time>2020-08-11T16:40:23Z</time>
      </trkpt>
      <trkpt lat="47.83308" lon="-2.95254">
        <ele>137.61</ele>
        <time>2020-08-11T16:40:27Z</time>
      </trkpt>
      <trkpt lat="47.83306" lon="-2.95241">
        <ele>137.61</ele>
        <time>2020-08-11T16:40:32Z</time>
      </trkpt>
      <trkpt lat="47.83303" lon="-2.95225">
        <ele>138.57</ele>
        <time>2020-08-11T16:40:41Z</time>
      </trkpt>
      <trkpt lat="47.833" lon="-2.95213">
        <ele>140.01</ele>
        <time>2020-08-11T16:40:48Z</time>
      </trkpt>
      <trkpt lat="47.83299" lon="-2.95208">
        <ele>140.01</ele>
        <time>2020-08-11T16:40:50Z</time>
      </trkpt>
      <trkpt lat="47.83298" lon="-2.95204">
        <ele>140.49</ele>
        <time>2020-08-11T16:40:52Z</time>
      </trkpt>
      <trkpt lat="47.83297" lon="-2.95185">
        <ele>140.49</ele>
        <time>2020-08-11T16:41:01Z</time>
      </trkpt>
      <trkpt lat="47.83297" lon="-2.95153">
        <ele>142.41</ele>
        <time>2020-08-11T16:41:15Z</time>
      </trkpt>
      <trkpt lat="47.83296" lon="-2.95147">
        <ele>142.89</ele>
        <time>2020-08-11T16:41:19Z</time>
      </trkpt>
      <trkpt lat="47.83294" lon="-2.95121">
        <ele>142.89</ele>
        <time>2020-08-11T16:41:34Z</time>
      </trkpt>
      <trkpt lat="47.83293" lon="-2.95115">
        <ele>142.89</ele>
        <time>2020-08-11T16:41:38Z</time>
      </trkpt>
      <trkpt lat="47.83292" lon="-2.9511">
        <ele>142.89</ele>
        <time>2020-08-11T16:41:40Z</time>
      </trkpt>
      <trkpt lat="47.83291" lon="-2.95088">
        <ele>142.89</ele>
        <time>2020-08-11T16:41:52Z</time>
      </trkpt>
      <trkpt lat="47.83287" lon="-2.95076">
        <ele>142.41</ele>
        <time>2020-08-11T16:41:59Z</time>
      </trkpt>
      <trkpt lat="47.83284" lon="-2.95058">
        <ele>140.97</ele>
        <time>2020-08-11T16:42:10Z</time>
      </trkpt>
      <trkpt lat="47.8328" lon="-2.95048">
        <ele>140.49</ele>
        <time>2020-08-11T16:42:20Z</time>
      </trkpt>
      <trkpt lat="47.83278" lon="-2.95021">
        <ele>139.53</ele>
        <time>2020-08-11T16:42:33Z</time>
      </trkpt>
      <trkpt lat="47.83277" lon="-2.95016">
        <ele>139.05</ele>
        <time>2020-08-11T16:42:36Z</time>
      </trkpt>
      <trkpt lat="47.83275" lon="-2.94997">
        <ele>138.09</ele>
        <time>2020-08-11T16:42:49Z</time>
      </trkpt>
      <trkpt lat="47.83272" lon="-2.94971">
        <ele>137.13</ele>
        <time>2020-08-11T16:43:03Z</time>
      </trkpt>
      <trkpt lat="47.83268" lon="-2.94961">
        <ele>135.68</ele>
        <time>2020-08-11T16:43:10Z</time>
      </trkpt>
      <trkpt lat="47.83264" lon="-2.94944">
        <ele>135.2</ele>
        <time>2020-08-11T16:43:24Z</time>
      </trkpt>
      <trkpt lat="47.83262" lon="-2.9493">
        <ele>134.24</ele>
        <time>2020-08-11T16:43:35Z</time>
      </trkpt>
      <trkpt lat="47.83259" lon="-2.94911">
        <ele>132.32</ele>
        <time>2020-08-11T16:43:46Z</time>
      </trkpt>
      <trkpt lat="47.83258" lon="-2.94905">
        <ele>132.32</ele>
        <time>2020-08-11T16:43:49Z</time>
      </trkpt>
      <trkpt lat="47.83256" lon="-2.94892">
        <ele>131.84</ele>
        <time>2020-08-11T16:43:55Z</time>
      </trkpt>
      <trkpt lat="47.83249" lon="-2.94873">
        <ele>130.88</ele>
        <time>2020-08-11T16:44:07Z</time>
      </trkpt>
      <trkpt lat="47.83243" lon="-2.9485">
        <ele>129.92</ele>
        <time>2020-08-11T16:44:21Z</time>
      </trkpt>
      <trkpt lat="47.83243" lon="-2.94848">
        <ele>129.92</ele>
        <time>2020-08-11T16:44:22Z</time>
      </trkpt>
      <trkpt lat="47.83239" lon="-2.94831">
        <ele>129.92</ele>
        <time>2020-08-11T16:44:32Z</time>
      </trkpt>
      <trkpt lat="47.83235" lon="-2.94805">
        <ele>129.43</ele>
        <time>2020-08-11T16:44:45Z</time>
      </trkpt>
      <trkpt lat="47.83235" lon="-2.94797">
        <ele>129.43</ele>
        <time>2020-08-11T16:44:49Z</time>
      </trkpt>
      <trkpt lat="47.83229" lon="-2.94779">
        <ele>129.92</ele>
        <time>2020-08-11T16:45:01Z</time>
      </trkpt>
      <trkpt lat="47.83229" lon="-2.94773">
        <ele>130.4</ele>
        <time>2020-08-11T16:45:04Z</time>
      </trkpt>
      <trkpt lat="47.83224" lon="-2.94756">
        <ele>130.88</ele>
        <time>2020-08-11T16:45:12Z</time>
      </trkpt>
      <trkpt lat="47.83223" lon="-2.94751">
        <ele>130.4</ele>
        <time>2020-08-11T16:45:14Z</time>
      </trkpt>
      <trkpt lat="47.83219" lon="-2.9473">
        <ele>130.88</ele>
        <time>2020-08-11T16:45:28Z</time>
      </trkpt>
      <trkpt lat="47.83216" lon="-2.94712">
        <ele>130.88</ele>
        <time>2020-08-11T16:45:40Z</time>
      </trkpt>
      <trkpt lat="47.83213" lon="-2.94693">
        <ele>130.4</ele>
        <time>2020-08-11T16:45:53Z</time>
      </trkpt>
      <trkpt lat="47.83212" lon="-2.94689">
        <ele>130.88</ele>
        <time>2020-08-11T16:45:56Z</time>
      </trkpt>
      <trkpt lat="47.8321" lon="-2.94686">
        <ele>130.88</ele>
        <time>2020-08-11T16:45:58Z</time>
      </trkpt>
      <trkpt lat="47.83203" lon="-2.94675">
        <ele>130.4</ele>
        <time>2020-08-11T16:46:10Z</time>
      </trkpt>
      <trkpt lat="47.83195" lon="-2.94678">
        <ele>129.92</ele>
        <time>2020-08-11T16:46:18Z</time>
      </trkpt>
      <trkpt lat="47.83185" lon="-2.94679">
        <ele>130.4</ele>
        <time>2020-08-11T16:46:29Z</time>
      </trkpt>
      <trkpt lat="47.83179" lon="-2.94667">
        <ele>130.4</ele>
        <time>2020-08-11T16:46:40Z</time>
      </trkpt>
      <trkpt lat="47.83171" lon="-2.9466">
        <ele>130.88</ele>
        <time>2020-08-11T16:46:50Z</time>
      </trkpt>
      <trkpt lat="47.83163" lon="-2.94648">
        <ele>131.36</ele>
        <time>2020-08-11T16:47:01Z</time>
      </trkpt>
      <trkpt lat="47.83153" lon="-2.94635">
        <ele>132.8</ele>
        <time>2020-08-11T16:47:14Z</time>
      </trkpt>
      <trkpt lat="47.83145" lon="-2.94613">
        <ele>134.24</ele>
        <time>2020-08-11T16:47:27Z</time>
      </trkpt>
      <trkpt lat="47.83134" lon="-2.94607">
        <ele>134.24</ele>
        <time>2020-08-11T16:47:44Z</time>
      </trkpt>
      <trkpt lat="47.83126" lon="-2.94591">
        <ele>136.16</ele>
        <time>2020-08-11T16:47:59Z</time>
      </trkpt>
      <trkpt lat="47.83123" lon="-2.94585">
        <ele>136.16</ele>
        <time>2020-08-11T16:48:03Z</time>
      </trkpt>
      <trkpt lat="47.83116" lon="-2.94572">
        <ele>136.16</ele>
        <time>2020-08-11T16:48:17Z</time>
      </trkpt>
      <trkpt lat="47.83114" lon="-2.94561">
        <ele>136.64</ele>
        <time>2020-08-11T16:48:27Z</time>
      </trkpt>
      <trkpt lat="47.83115" lon="-2.94552">
        <ele>136.64</ele>
        <time>2020-08-11T16:48:34Z</time>
      </trkpt>
      <trkpt lat="47.83117" lon="-2.9455">
        <ele>137.13</ele>
        <time>2020-08-11T16:48:36Z</time>
      </trkpt>
      <trkpt lat="47.8312" lon="-2.9455">
        <ele>137.13</ele>
        <time>2020-08-11T16:48:39Z</time>
      </trkpt>
      <trkpt lat="47.83125" lon="-2.94544">
        <ele>138.09</ele>
        <time>2020-08-11T16:48:46Z</time>
      </trkpt>
      <trkpt lat="47.83128" lon="-2.94538">
        <ele>139.53</ele>
        <time>2020-08-11T16:48:57Z</time>
      </trkpt>
      <trkpt lat="47.83129" lon="-2.94539">
        <ele>139.53</ele>
        <time>2020-08-11T16:48:59Z</time>
      </trkpt>
      <trkpt lat="47.83141" lon="-2.94536">
        <ele>140.97</ele>
        <time>2020-08-11T16:49:10Z</time>
      </trkpt>
      <trkpt lat="47.83141" lon="-2.94535">
        <ele>141.45</ele>
        <time>2020-08-11T16:49:13Z</time>
      </trkpt>
      <trkpt lat="47.8315" lon="-2.94533">
        <ele>143.37</ele>
        <time>2020-08-11T16:49:24Z</time>
      </trkpt>
      <trkpt lat="47.83166" lon="-2.94527">
        <ele>144.34</ele>
        <time>2020-08-11T16:49:35Z</time>
      </trkpt>
      <trkpt lat="47.83179" lon="-2.94515">
        <ele>146.26</ele>
        <time>2020-08-11T16:49:47Z</time>
      </trkpt>
      <trkpt lat="47.83181" lon="-2.94512">
        <ele>146.26</ele>
        <time>2020-08-11T16:49:50Z</time>
      </trkpt>
      <trkpt lat="47.83178" lon="-2.94492">
        <ele>147.22</ele>
        <time>2020-08-11T16:50:03Z</time>
      </trkpt>
      <trkpt lat="47.83175" lon="-2.9448">
        <ele>147.22</ele>
        <time>2020-08-11T16:50:15Z</time>
      </trkpt>
      <trkpt lat="47.83169" lon="-2.94462">
        <ele>148.18</ele>
        <time>2020-08-11T16:50:27Z</time>
      </trkpt>
      <trkpt lat="47.83168" lon="-2.94457">
        <ele>148.18</ele>
        <time>2020-08-11T16:50:30Z</time>
      </trkpt>
      <trkpt lat="47.83166" lon="-2.94442">
        <ele>148.18</ele>
        <time>2020-08-11T16:50:41Z</time>
      </trkpt>
      <trkpt lat="47.83166" lon="-2.94438">
        <ele>148.66</ele>
        <time>2020-08-11T16:50:44Z</time>
      </trkpt>
      <trkpt lat="47.8316" lon="-2.94408">
        <ele>148.66</ele>
        <time>2020-08-11T16:51:00Z</time>
      </trkpt>
      <trkpt lat="47.83155" lon="-2.9439">
        <ele>147.7</ele>
        <time>2020-08-11T16:51:14Z</time>
      </trkpt>
      <trkpt lat="47.8315" lon="-2.94373">
        <ele>147.22</ele>
        <time>2020-08-11T16:51:26Z</time>
      </trkpt>
      <trkpt lat="47.83149" lon="-2.94368">
        <ele>146.74</ele>
        <time>2020-08-11T16:51:32Z</time>
      </trkpt>
      <trkpt lat="47.83144" lon="-2.94352">
        <ele>145.3</ele>
        <time>2020-08-11T16:51:44Z</time>
      </trkpt>
      <trkpt lat="47.83144" lon="-2.94346">
        <ele>145.3</ele>
        <time>2020-08-11T16:51:47Z</time>
      </trkpt>
      <trkpt lat="47.8314" lon="-2.94322">
        <ele>143.37</ele>
        <time>2020-08-11T16:52:02Z</time>
      </trkpt>
      <trkpt lat="47.83138" lon="-2.94302">
        <ele>142.89</ele>
        <time>2020-08-11T16:52:11Z</time>
      </trkpt>
      <trkpt lat="47.83135" lon="-2.94288">
        <ele>142.41</ele>
        <time>2020-08-11T16:52:19Z</time>
      </trkpt>
      <trkpt lat="47.83131" lon="-2.94259">
        <ele>140.97</ele>
        <time>2020-08-11T16:52:32Z</time>
      </trkpt>
      <trkpt lat="47.8313" lon="-2.94256">
        <ele>140.97</ele>
        <time>2020-08-11T16:52:34Z</time>
      </trkpt>
      <trkpt lat="47.83123" lon="-2.94236">
        <ele>140.49</ele>
        <time>2020-08-11T16:52:47Z</time>
      </trkpt>
      <trkpt lat="47.8312" lon="-2.94233">
        <ele>140.49</ele>
        <time>2020-08-11T16:52:52Z</time>
      </trkpt>
      <trkpt lat="47.83113" lon="-2.94221">
        <ele>140.97</ele>
        <time>2020-08-11T16:53:04Z</time>
      </trkpt>
      <trkpt lat="47.83105" lon="-2.94221">
        <ele>141.45</ele>
        <time>2020-08-11T16:53:16Z</time>
      </trkpt>
      <trkpt lat="47.83087" lon="-2.94222">
        <ele>141.93</ele>
        <time>2020-08-11T16:53:32Z</time>
      </trkpt>
      <trkpt lat="47.83073" lon="-2.94225">
        <ele>142.41</ele>
        <time>2020-08-11T16:53:42Z</time>
      </trkpt>
      <trkpt lat="47.83066" lon="-2.94226">
        <ele>142.89</ele>
        <time>2020-08-11T16:53:46Z</time>
      </trkpt>
      <trkpt lat="47.83052" lon="-2.94202">
        <ele>143.37</ele>
        <time>2020-08-11T16:53:56Z</time>
      </trkpt>
      <trkpt lat="47.83043" lon="-2.94148">
        <ele>144.34</ele>
        <time>2020-08-11T16:54:09Z</time>
      </trkpt>
      <trkpt lat="47.83025" lon="-2.94138">
        <ele>144.82</ele>
        <time>2020-08-11T16:54:23Z</time>
      </trkpt>
      <trkpt lat="47.83011" lon="-2.94138">
        <ele>145.3</ele>
        <time>2020-08-11T16:54:29Z</time>
      </trkpt>
      <trkpt lat="47.82996" lon="-2.94141">
        <ele>145.78</ele>
        <time>2020-08-11T16:54:43Z</time>
      </trkpt>
      <trkpt lat="47.82981" lon="-2.94139">
        <ele>146.26</ele>
        <time>2020-08-11T16:54:54Z</time>
      </trkpt>
      <trkpt lat="47.8297" lon="-2.94138">
        <ele>147.22</ele>
        <time>2020-08-11T16:55:06Z</time>
      </trkpt>
      <trkpt lat="47.8296" lon="-2.94138">
        <ele>148.18</ele>
        <time>2020-08-11T16:55:19Z</time>
      </trkpt>
      <trkpt lat="47.82959" lon="-2.94138">
        <ele>148.18</ele>
        <time>2020-08-11T16:55:20Z</time>
      </trkpt>
      <trkpt lat="47.82953" lon="-2.94137">
        <ele>148.18</ele>
        <time>2020-08-11T16:55:25Z</time>
      </trkpt>
      <trkpt lat="47.82937" lon="-2.94145">
        <ele>149.14</ele>
        <time>2020-08-11T16:55:39Z</time>
      </trkpt>
      <trkpt lat="47.82926" lon="-2.94142">
        <ele>149.62</ele>
        <time>2020-08-11T16:55:51Z</time>
      </trkpt>
      <trkpt lat="47.82915" lon="-2.94142">
        <ele>150.58</ele>
        <time>2020-08-11T16:56:04Z</time>
      </trkpt>
      <trkpt lat="47.82911" lon="-2.9414">
        <ele>151.06</ele>
        <time>2020-08-11T16:56:08Z</time>
      </trkpt>
      <trkpt lat="47.82909" lon="-2.9414">
        <ele>150.58</ele>
        <time>2020-08-11T16:56:10Z</time>
      </trkpt>
      <trkpt lat="47.8289" lon="-2.94142">
        <ele>151.54</ele>
        <time>2020-08-11T16:56:23Z</time>
      </trkpt>
      <trkpt lat="47.82884" lon="-2.94143">
        <ele>152.51</ele>
        <time>2020-08-11T16:56:29Z</time>
      </trkpt>
      <trkpt lat="47.82871" lon="-2.94145">
        <ele>152.99</ele>
        <time>2020-08-11T16:56:37Z</time>
      </trkpt>
      <trkpt lat="47.82855" lon="-2.94145">
        <ele>152.99</ele>
        <time>2020-08-11T16:56:50Z</time>
      </trkpt>
      <trkpt lat="47.82848" lon="-2.94143">
        <ele>153.47</ele>
        <time>2020-08-11T16:56:59Z</time>
      </trkpt>
      <trkpt lat="47.82841" lon="-2.94142">
        <ele>153.95</ele>
        <time>2020-08-11T16:57:05Z</time>
      </trkpt>
      <trkpt lat="47.82832" lon="-2.94144">
        <ele>153.95</ele>
        <time>2020-08-11T16:57:11Z</time>
      </trkpt>
      <trkpt lat="47.82813" lon="-2.94151">
        <ele>154.43</ele>
        <time>2020-08-11T16:57:26Z</time>
      </trkpt>
      <trkpt lat="47.828" lon="-2.94156">
        <ele>154.43</ele>
        <time>2020-08-11T16:57:38Z</time>
      </trkpt>
      <trkpt lat="47.82787" lon="-2.94159">
        <ele>154.43</ele>
        <time>2020-08-11T16:57:51Z</time>
      </trkpt>
      <trkpt lat="47.82779" lon="-2.94161">
        <ele>154.91</ele>
        <time>2020-08-11T16:57:56Z</time>
      </trkpt>
      <trkpt lat="47.82767" lon="-2.94161">
        <ele>154.91</ele>
        <time>2020-08-11T16:58:02Z</time>
      </trkpt>
      <trkpt lat="47.82755" lon="-2.94165">
        <ele>154.43</ele>
        <time>2020-08-11T16:58:12Z</time>
      </trkpt>
      <trkpt lat="47.82752" lon="-2.94173">
        <ele>154.43</ele>
        <time>2020-08-11T16:58:23Z</time>
      </trkpt>
      <trkpt lat="47.82744" lon="-2.94186">
        <ele>154.91</ele>
        <time>2020-08-11T16:58:34Z</time>
      </trkpt>
      <trkpt lat="47.82744" lon="-2.94212">
        <ele>154.43</ele>
        <time>2020-08-11T16:58:47Z</time>
      </trkpt>
      <trkpt lat="47.82748" lon="-2.94235">
        <ele>155.39</ele>
        <time>2020-08-11T16:59:00Z</time>
      </trkpt>
      <trkpt lat="47.8275" lon="-2.94251">
        <ele>155.39</ele>
        <time>2020-08-11T16:59:12Z</time>
      </trkpt>
      <trkpt lat="47.8275" lon="-2.94253">
        <ele>155.87</ele>
        <time>2020-08-11T16:59:13Z</time>
      </trkpt>
      <trkpt lat="47.82758" lon="-2.94274">
        <ele>155.87</ele>
        <time>2020-08-11T16:59:25Z</time>
      </trkpt>
      <trkpt lat="47.82764" lon="-2.94291">
        <ele>155.87</ele>
        <time>2020-08-11T16:59:35Z</time>
      </trkpt>
      <trkpt lat="47.82765" lon="-2.94295">
        <ele>154.91</ele>
        <time>2020-08-11T16:59:37Z</time>
      </trkpt>
      <trkpt lat="47.82775" lon="-2.9432">
        <ele>155.39</ele>
        <time>2020-08-11T16:59:50Z</time>
      </trkpt>
      <trkpt lat="47.82777" lon="-2.94325">
        <ele>155.39</ele>
        <time>2020-08-11T16:59:52Z</time>
      </trkpt>
      <trkpt lat="47.82781" lon="-2.94329">
        <ele>155.39</ele>
        <time>2020-08-11T16:59:54Z</time>
      </trkpt>
      <trkpt lat="47.82783" lon="-2.94333">
        <ele>155.39</ele>
        <time>2020-08-11T16:59:57Z</time>
      </trkpt>
      <trkpt lat="47.82786" lon="-2.94351">
        <ele>155.87</ele>
        <time>2020-08-11T17:00:09Z</time>
      </trkpt>
      <trkpt lat="47.82787" lon="-2.94367">
        <ele>155.87</ele>
        <time>2020-08-11T17:00:21Z</time>
      </trkpt>
      <trkpt lat="47.82791" lon="-2.94381">
        <ele>155.87</ele>
        <time>2020-08-11T17:00:31Z</time>
      </trkpt>
      <trkpt lat="47.82793" lon="-2.94393">
        <ele>156.35</ele>
        <time>2020-08-11T17:00:42Z</time>
      </trkpt>
      <trkpt lat="47.82795" lon="-2.94409">
        <ele>155.39</ele>
        <time>2020-08-11T17:00:53Z</time>
      </trkpt>
      <trkpt lat="47.82802" lon="-2.94426">
        <ele>154.91</ele>
        <time>2020-08-11T17:01:03Z</time>
      </trkpt>
      <trkpt lat="47.82806" lon="-2.94439">
        <ele>154.91</ele>
        <time>2020-08-11T17:01:14Z</time>
      </trkpt>
      <trkpt lat="47.8281" lon="-2.94453">
        <ele>155.39</ele>
        <time>2020-08-11T17:01:24Z</time>
      </trkpt>
      <trkpt lat="47.82819" lon="-2.94478">
        <ele>155.39</ele>
        <time>2020-08-11T17:01:36Z</time>
      </trkpt>
      <trkpt lat="47.82828" lon="-2.94505">
        <ele>155.87</ele>
        <time>2020-08-11T17:01:48Z</time>
      </trkpt>
      <trkpt lat="47.82839" lon="-2.94537">
        <ele>156.35</ele>
        <time>2020-08-11T17:02:02Z</time>
      </trkpt>
      <trkpt lat="47.82843" lon="-2.94541">
        <ele>156.83</ele>
        <time>2020-08-11T17:02:05Z</time>
      </trkpt>
      <trkpt lat="47.82846" lon="-2.94556">
        <ele>156.35</ele>
        <time>2020-08-11T17:02:15Z</time>
      </trkpt>
      <trkpt lat="47.82846" lon="-2.94562">
        <ele>156.35</ele>
        <time>2020-08-11T17:02:19Z</time>
      </trkpt>
      <trkpt lat="47.82854" lon="-2.94577">
        <ele>157.31</ele>
        <time>2020-08-11T17:02:29Z</time>
      </trkpt>
      <trkpt lat="47.82858" lon="-2.94597">
        <ele>157.31</ele>
        <time>2020-08-11T17:02:39Z</time>
      </trkpt>
      <trkpt lat="47.82865" lon="-2.94615">
        <ele>158.27</ele>
        <time>2020-08-11T17:02:49Z</time>
      </trkpt>
      <trkpt lat="47.82866" lon="-2.94627">
        <ele>157.79</ele>
        <time>2020-08-11T17:02:54Z</time>
      </trkpt>
      <trkpt lat="47.82868" lon="-2.94634">
        <ele>157.79</ele>
        <time>2020-08-11T17:02:57Z</time>
      </trkpt>
      <trkpt lat="47.82877" lon="-2.94659">
        <ele>157.79</ele>
        <time>2020-08-11T17:03:09Z</time>
      </trkpt>
      <trkpt lat="47.82878" lon="-2.94662">
        <ele>157.31</ele>
        <time>2020-08-11T17:03:11Z</time>
      </trkpt>
      <trkpt lat="47.82884" lon="-2.94676">
        <ele>157.31</ele>
        <time>2020-08-11T17:03:21Z</time>
      </trkpt>
      <trkpt lat="47.82888" lon="-2.94696">
        <ele>156.83</ele>
        <time>2020-08-11T17:03:33Z</time>
      </trkpt>
      <trkpt lat="47.82891" lon="-2.94717">
        <ele>156.35</ele>
        <time>2020-08-11T17:03:46Z</time>
      </trkpt>
      <trkpt lat="47.82897" lon="-2.94725">
        <ele>155.87</ele>
        <time>2020-08-11T17:03:53Z</time>
      </trkpt>
      <trkpt lat="47.82901" lon="-2.94738">
        <ele>155.87</ele>
        <time>2020-08-11T17:04:01Z</time>
      </trkpt>
      <trkpt lat="47.82903" lon="-2.94749">
        <ele>155.87</ele>
        <time>2020-08-11T17:04:08Z</time>
      </trkpt>
      <trkpt lat="47.82911" lon="-2.94769">
        <ele>156.35</ele>
        <time>2020-08-11T17:04:19Z</time>
      </trkpt>
      <trkpt lat="47.82914" lon="-2.94779">
        <ele>156.35</ele>
        <time>2020-08-11T17:04:24Z</time>
      </trkpt>
      <trkpt lat="47.82917" lon="-2.94802">
        <ele>157.31</ele>
        <time>2020-08-11T17:04:36Z</time>
      </trkpt>
      <trkpt lat="47.82923" lon="-2.94819">
        <ele>157.79</ele>
        <time>2020-08-11T17:04:44Z</time>
      </trkpt>
      <trkpt lat="47.82926" lon="-2.94827">
        <ele>157.79</ele>
        <time>2020-08-11T17:04:50Z</time>
      </trkpt>
      <trkpt lat="47.82929" lon="-2.94835">
        <ele>157.79</ele>
        <time>2020-08-11T17:04:55Z</time>
      </trkpt>
      <trkpt lat="47.82933" lon="-2.94845">
        <ele>158.27</ele>
        <time>2020-08-11T17:05:02Z</time>
      </trkpt>
      <trkpt lat="47.82934" lon="-2.94851">
        <ele>158.27</ele>
        <time>2020-08-11T17:05:05Z</time>
      </trkpt>
      <trkpt lat="47.8294" lon="-2.94868">
        <ele>158.27</ele>
        <time>2020-08-11T17:05:13Z</time>
      </trkpt>
      <trkpt lat="47.82944" lon="-2.94879">
        <ele>158.75</ele>
        <time>2020-08-11T17:05:19Z</time>
      </trkpt>
      <trkpt lat="47.82949" lon="-2.94887">
        <ele>158.27</ele>
        <time>2020-08-11T17:05:22Z</time>
      </trkpt>
      <trkpt lat="47.82955" lon="-2.949">
        <ele>158.27</ele>
        <time>2020-08-11T17:05:31Z</time>
      </trkpt>
      <trkpt lat="47.82956" lon="-2.94904">
        <ele>158.27</ele>
        <time>2020-08-11T17:05:33Z</time>
      </trkpt>
      <trkpt lat="47.82958" lon="-2.94912">
        <ele>158.27</ele>
        <time>2020-08-11T17:05:38Z</time>
      </trkpt>
      <trkpt lat="47.82959" lon="-2.94914">
        <ele>158.27</ele>
        <time>2020-08-11T17:05:40Z</time>
      </trkpt>
      <trkpt lat="47.82963" lon="-2.94928">
        <ele>158.27</ele>
        <time>2020-08-11T17:05:51Z</time>
      </trkpt>
      <trkpt lat="47.82965" lon="-2.9494">
        <ele>158.75</ele>
        <time>2020-08-11T17:06:01Z</time>
      </trkpt>
      <trkpt lat="47.82977" lon="-2.94959">
        <ele>158.75</ele>
        <time>2020-08-11T17:06:14Z</time>
      </trkpt>
      <trkpt lat="47.8299" lon="-2.94976">
        <ele>159.24</ele>
        <time>2020-08-11T17:06:33Z</time>
      </trkpt>
      <trkpt lat="47.82987" lon="-2.94981">
        <ele>158.75</ele>
        <time>2020-08-11T17:06:45Z</time>
      </trkpt>
      <trkpt lat="47.82985" lon="-2.94995">
        <ele>158.75</ele>
        <time>2020-08-11T17:06:56Z</time>
      </trkpt>
      <trkpt lat="47.82984" lon="-2.95016">
        <ele>159.72</ele>
        <time>2020-08-11T17:07:09Z</time>
      </trkpt>
      <trkpt lat="47.82987" lon="-2.95034">
        <ele>159.72</ele>
        <time>2020-08-11T17:07:26Z</time>
      </trkpt>
      <trkpt lat="47.82992" lon="-2.95059">
        <ele>159.72</ele>
        <time>2020-08-11T17:07:39Z</time>
      </trkpt>
      <trkpt lat="47.82992" lon="-2.95065">
        <ele>159.72</ele>
        <time>2020-08-11T17:07:50Z</time>
      </trkpt>
      <trkpt lat="47.83002" lon="-2.95093">
        <ele>160.68</ele>
        <time>2020-08-11T17:08:05Z</time>
      </trkpt>
      <trkpt lat="47.83011" lon="-2.95117">
        <ele>161.16</ele>
        <time>2020-08-11T17:08:19Z</time>
      </trkpt>
      <trkpt lat="47.83019" lon="-2.95144">
        <ele>161.16</ele>
        <time>2020-08-11T17:08:32Z</time>
      </trkpt>
      <trkpt lat="47.83024" lon="-2.95162">
        <ele>161.16</ele>
        <time>2020-08-11T17:08:46Z</time>
      </trkpt>
      <trkpt lat="47.83029" lon="-2.95182">
        <ele>161.16</ele>
        <time>2020-08-11T17:08:59Z</time>
      </trkpt>
      <trkpt lat="47.83031" lon="-2.95188">
        <ele>161.64</ele>
        <time>2020-08-11T17:09:04Z</time>
      </trkpt>
      <trkpt lat="47.83037" lon="-2.95212">
        <ele>162.12</ele>
        <time>2020-08-11T17:09:16Z</time>
      </trkpt>
      <trkpt lat="47.8305" lon="-2.95245">
        <ele>162.12</ele>
        <time>2020-08-11T17:09:30Z</time>
      </trkpt>
      <trkpt lat="47.83052" lon="-2.9525">
        <ele>161.64</ele>
        <time>2020-08-11T17:09:33Z</time>
      </trkpt>
      <trkpt lat="47.83054" lon="-2.95263">
        <ele>162.12</ele>
        <time>2020-08-11T17:09:47Z</time>
      </trkpt>
      <trkpt lat="47.83059" lon="-2.95276">
        <ele>162.12</ele>
        <time>2020-08-11T17:10:00Z</time>
      </trkpt>
      <trkpt lat="47.83064" lon="-2.95297">
        <ele>161.64</ele>
        <time>2020-08-11T17:10:13Z</time>
      </trkpt>
      <trkpt lat="47.83066" lon="-2.95311">
        <ele>161.64</ele>
        <time>2020-08-11T17:10:20Z</time>
      </trkpt>
      <trkpt lat="47.8307" lon="-2.95336">
        <ele>160.68</ele>
        <time>2020-08-11T17:10:34Z</time>
      </trkpt>
      <trkpt lat="47.83072" lon="-2.95346">
        <ele>161.16</ele>
        <time>2020-08-11T17:10:40Z</time>
      </trkpt>
      <trkpt lat="47.83075" lon="-2.95365">
        <ele>160.68</ele>
        <time>2020-08-11T17:10:51Z</time>
      </trkpt>
      <trkpt lat="47.83082" lon="-2.95392">
        <ele>159.72</ele>
        <time>2020-08-11T17:11:04Z</time>
      </trkpt>
      <trkpt lat="47.83082" lon="-2.95399">
        <ele>159.72</ele>
        <time>2020-08-11T17:11:06Z</time>
      </trkpt>
      <trkpt lat="47.83083" lon="-2.95412">
        <ele>159.24</ele>
        <time>2020-08-11T17:11:12Z</time>
      </trkpt>
      <trkpt lat="47.83087" lon="-2.95435">
        <ele>159.24</ele>
        <time>2020-08-11T17:11:24Z</time>
      </trkpt>
      <trkpt lat="47.83093" lon="-2.95458">
        <ele>158.27</ele>
        <time>2020-08-11T17:11:36Z</time>
      </trkpt>
      <trkpt lat="47.83095" lon="-2.95472">
        <ele>158.27</ele>
        <time>2020-08-11T17:11:46Z</time>
      </trkpt>
      <trkpt lat="47.83099" lon="-2.95486">
        <ele>157.79</ele>
        <time>2020-08-11T17:11:56Z</time>
      </trkpt>
      <trkpt lat="47.83102" lon="-2.95509">
        <ele>157.79</ele>
        <time>2020-08-11T17:12:09Z</time>
      </trkpt>
      <trkpt lat="47.83101" lon="-2.95522">
        <ele>157.79</ele>
        <time>2020-08-11T17:12:21Z</time>
      </trkpt>
      <trkpt lat="47.831" lon="-2.95539">
        <ele>158.27</ele>
        <time>2020-08-11T17:12:43Z</time>
      </trkpt>
      <trkpt lat="47.83109" lon="-2.95558">
        <ele>158.27</ele>
        <time>2020-08-11T17:12:58Z</time>
      </trkpt>
      <trkpt lat="47.83119" lon="-2.95561">
        <ele>157.79</ele>
        <time>2020-08-11T17:13:09Z</time>
      </trkpt>
      <trkpt lat="47.83122" lon="-2.95553">
        <ele>158.27</ele>
        <time>2020-08-11T17:13:31Z</time>
      </trkpt>
      <trkpt lat="47.83118" lon="-2.95539">
        <ele>158.75</ele>
        <time>2020-08-11T17:13:42Z</time>
      </trkpt>
      <trkpt lat="47.83114" lon="-2.95534">
        <ele>158.75</ele>
        <time>2020-08-11T17:13:52Z</time>
      </trkpt>
      <trkpt lat="47.83111" lon="-2.95522">
        <ele>159.24</ele>
        <time>2020-08-11T17:14:02Z</time>
      </trkpt>
      <trkpt lat="47.83111" lon="-2.9552">
        <ele>159.24</ele>
        <time>2020-08-11T17:14:05Z</time>
      </trkpt>
      <trkpt lat="47.83106" lon="-2.95498">
        <ele>159.72</ele>
        <time>2020-08-11T17:14:18Z</time>
      </trkpt>
      <trkpt lat="47.83105" lon="-2.95495">
        <ele>159.72</ele>
        <time>2020-08-11T17:14:20Z</time>
      </trkpt>
      <trkpt lat="47.83103" lon="-2.95474">
        <ele>160.2</ele>
        <time>2020-08-11T17:14:31Z</time>
      </trkpt>
      <trkpt lat="47.831" lon="-2.95457">
        <ele>160.68</ele>
        <time>2020-08-11T17:14:42Z</time>
      </trkpt>
      <trkpt lat="47.83096" lon="-2.95446">
        <ele>161.64</ele>
        <time>2020-08-11T17:14:54Z</time>
      </trkpt>
      <trkpt lat="47.83093" lon="-2.95427">
        <ele>162.12</ele>
        <time>2020-08-11T17:15:05Z</time>
      </trkpt>
      <trkpt lat="47.83088" lon="-2.95403">
        <ele>162.12</ele>
        <time>2020-08-11T17:15:16Z</time>
      </trkpt>
      <trkpt lat="47.83086" lon="-2.95377">
        <ele>162.6</ele>
        <time>2020-08-11T17:15:27Z</time>
      </trkpt>
      <trkpt lat="47.83087" lon="-2.95367">
        <ele>162.6</ele>
        <time>2020-08-11T17:15:32Z</time>
      </trkpt>
      <trkpt lat="47.83088" lon="-2.95349">
        <ele>162.6</ele>
        <time>2020-08-11T17:15:42Z</time>
      </trkpt>
      <trkpt lat="47.83088" lon="-2.95341">
        <ele>163.08</ele>
        <time>2020-08-11T17:15:51Z</time>
      </trkpt>
      <trkpt lat="47.83094" lon="-2.95332">
        <ele>163.08</ele>
        <time>2020-08-11T17:16:03Z</time>
      </trkpt>
      <trkpt lat="47.83101" lon="-2.95327">
        <ele>163.56</ele>
        <time>2020-08-11T17:16:14Z</time>
      </trkpt>
      <trkpt lat="47.83111" lon="-2.95324">
        <ele>164.04</ele>
        <time>2020-08-11T17:16:23Z</time>
      </trkpt>
      <trkpt lat="47.83119" lon="-2.95322">
        <ele>163.56</ele>
        <time>2020-08-11T17:16:29Z</time>
      </trkpt>
      <trkpt lat="47.83135" lon="-2.95317">
        <ele>163.08</ele>
        <time>2020-08-11T17:16:40Z</time>
      </trkpt>
      <trkpt lat="47.83146" lon="-2.9531">
        <ele>163.08</ele>
        <time>2020-08-11T17:16:50Z</time>
      </trkpt>
      <trkpt lat="47.83158" lon="-2.95304">
        <ele>162.6</ele>
        <time>2020-08-11T17:16:58Z</time>
      </trkpt>
      <trkpt lat="47.8316" lon="-2.95302">
        <ele>162.12</ele>
        <time>2020-08-11T17:17:00Z</time>
      </trkpt>
      <trkpt lat="47.83178" lon="-2.9529">
        <ele>160.68</ele>
        <time>2020-08-11T17:17:13Z</time>
      </trkpt>
      <trkpt lat="47.83195" lon="-2.95279">
        <ele>159.72</ele>
        <time>2020-08-11T17:17:26Z</time>
      </trkpt>
      <trkpt lat="47.83209" lon="-2.95249">
        <ele>154.91</ele>
        <time>2020-08-11T17:17:39Z</time>
      </trkpt>
      <trkpt lat="47.8321" lon="-2.95248">
        <ele>156.83</ele>
        <time>2020-08-11T17:17:40Z</time>
      </trkpt>
      <trkpt lat="47.83211" lon="-2.95247">
        <ele>157.31</ele>
        <time>2020-08-11T17:18:09Z</time>
      </trkpt>
      <trkpt lat="47.83214" lon="-2.95248">
        <ele>158.27</ele>
        <time>2020-08-11T17:18:39Z</time>
      </trkpt>
      <trkpt lat="47.83225" lon="-2.95242">
        <ele>157.79</ele>
        <time>2020-08-11T17:18:51Z</time>
      </trkpt>
      <trkpt lat="47.83227" lon="-2.95241">
        <ele>157.31</ele>
        <time>2020-08-11T17:18:53Z</time>
      </trkpt>
      <trkpt lat="47.8324" lon="-2.95233">
        <ele>155.87</ele>
        <time>2020-08-11T17:19:05Z</time>
      </trkpt>
      <trkpt lat="47.83248" lon="-2.95232">
        <ele>154.91</ele>
        <time>2020-08-11T17:19:15Z</time>
      </trkpt>
      <trkpt lat="47.83252" lon="-2.95231">
        <ele>154.43</ele>
        <time>2020-08-11T17:19:18Z</time>
      </trkpt>
      <trkpt lat="47.83254" lon="-2.95232">
        <ele>154.91</ele>
        <time>2020-08-11T17:19:20Z</time>
      </trkpt>
      <trkpt lat="47.83278" lon="-2.95234">
        <ele>153.95</ele>
        <time>2020-08-11T17:19:31Z</time>
      </trkpt>
      <trkpt lat="47.83283" lon="-2.95234">
        <ele>153.95</ele>
        <time>2020-08-11T17:19:34Z</time>
      </trkpt>
      <trkpt lat="47.8329" lon="-2.95221">
        <ele>152.51</ele>
        <time>2020-08-11T17:19:38Z</time>
      </trkpt>
      <trkpt lat="47.83294" lon="-2.9522">
        <ele>152.99</ele>
        <time>2020-08-11T17:19:41Z</time>
      </trkpt>
      <trkpt lat="47.83301" lon="-2.95208">
        <ele>151.54</ele>
        <time>2020-08-11T17:19:44Z</time>
      </trkpt>
      <trkpt lat="47.83306" lon="-2.95202">
        <ele>151.54</ele>
        <time>2020-08-11T17:19:51Z</time>
      </trkpt>
      <trkpt lat="47.83308" lon="-2.95219">
        <ele>150.1</ele>
        <time>2020-08-11T17:20:06Z</time>
      </trkpt>
      <trkpt lat="47.83312" lon="-2.95231">
        <ele>149.14</ele>
        <time>2020-08-11T17:20:17Z</time>
      </trkpt>
      <trkpt lat="47.83315" lon="-2.95245">
        <ele>149.14</ele>
        <time>2020-08-11T17:20:28Z</time>
      </trkpt>
      <trkpt lat="47.83317" lon="-2.95265">
        <ele>149.14</ele>
        <time>2020-08-11T17:20:37Z</time>
      </trkpt>
      <trkpt lat="47.83319" lon="-2.95274">
        <ele>149.62</ele>
        <time>2020-08-11T17:20:40Z</time>
      </trkpt>
      <trkpt lat="47.83328" lon="-2.95299">
        <ele>149.62</ele>
        <time>2020-08-11T17:20:48Z</time>
      </trkpt>
      <trkpt lat="47.83332" lon="-2.95325">
        <ele>149.62</ele>
        <time>2020-08-11T17:21:02Z</time>
      </trkpt>
      <trkpt lat="47.83337" lon="-2.9535">
        <ele>149.14</ele>
        <time>2020-08-11T17:21:14Z</time>
      </trkpt>
      <trkpt lat="47.83339" lon="-2.95359">
        <ele>149.14</ele>
        <time>2020-08-11T17:21:19Z</time>
      </trkpt>
      <trkpt lat="47.83338" lon="-2.95366">
        <ele>148.66</ele>
        <time>2020-08-11T17:21:24Z</time>
      </trkpt>
      <trkpt lat="47.83339" lon="-2.95372">
        <ele>148.18</ele>
        <time>2020-08-11T17:21:28Z</time>
      </trkpt>
      <trkpt lat="47.83344" lon="-2.95395">
        <ele>147.7</ele>
        <time>2020-08-11T17:21:42Z</time>
      </trkpt>
      <trkpt lat="47.83348" lon="-2.95417">
        <ele>146.26</ele>
        <time>2020-08-11T17:21:54Z</time>
      </trkpt>
      <trkpt lat="47.83351" lon="-2.9543">
        <ele>145.3</ele>
        <time>2020-08-11T17:22:05Z</time>
      </trkpt>
      <trkpt lat="47.83352" lon="-2.95441">
        <ele>143.85</ele>
        <time>2020-08-11T17:22:15Z</time>
      </trkpt>
      <trkpt lat="47.83351" lon="-2.95449">
        <ele>143.85</ele>
        <time>2020-08-11T17:22:18Z</time>
      </trkpt>
      <trkpt lat="47.83353" lon="-2.95477">
        <ele>143.37</ele>
        <time>2020-08-11T17:22:31Z</time>
      </trkpt>
      <trkpt lat="47.83357" lon="-2.955">
        <ele>143.37</ele>
        <time>2020-08-11T17:22:43Z</time>
      </trkpt>
      <trkpt lat="47.83358" lon="-2.95513">
        <ele>142.89</ele>
        <time>2020-08-11T17:22:53Z</time>
      </trkpt>
      <trkpt lat="47.83365" lon="-2.95539">
        <ele>143.85</ele>
        <time>2020-08-11T17:23:05Z</time>
      </trkpt>
      <trkpt lat="47.83373" lon="-2.95557">
        <ele>143.85</ele>
        <time>2020-08-11T17:23:19Z</time>
      </trkpt>
      <trkpt lat="47.83374" lon="-2.95558">
        <ele>143.37</ele>
        <time>2020-08-11T17:23:21Z</time>
      </trkpt>
      <trkpt lat="47.83377" lon="-2.95574">
        <ele>143.85</ele>
        <time>2020-08-11T17:23:33Z</time>
      </trkpt>
      <trkpt lat="47.83384" lon="-2.95609">
        <ele>143.37</ele>
        <time>2020-08-11T17:23:44Z</time>
      </trkpt>
      <trkpt lat="47.83393" lon="-2.95643">
        <ele>143.85</ele>
        <time>2020-08-11T17:23:59Z</time>
      </trkpt>
      <trkpt lat="47.83396" lon="-2.95667">
        <ele>143.85</ele>
        <time>2020-08-11T17:24:11Z</time>
      </trkpt>
      <trkpt lat="47.83405" lon="-2.95693">
        <ele>144.34</ele>
        <time>2020-08-11T17:24:24Z</time>
      </trkpt>
      <trkpt lat="47.83406" lon="-2.95697">
        <ele>144.34</ele>
        <time>2020-08-11T17:24:26Z</time>
      </trkpt>
      <trkpt lat="47.83413" lon="-2.95725">
        <ele>144.82</ele>
        <time>2020-08-11T17:24:40Z</time>
      </trkpt>
      <trkpt lat="47.83418" lon="-2.95741">
        <ele>145.3</ele>
        <time>2020-08-11T17:24:50Z</time>
      </trkpt>
      <trkpt lat="47.83419" lon="-2.95754">
        <ele>146.26</ele>
        <time>2020-08-11T17:25:01Z</time>
      </trkpt>
      <trkpt lat="47.83427" lon="-2.95787">
        <ele>146.26</ele>
        <time>2020-08-11T17:25:16Z</time>
      </trkpt>
      <trkpt lat="47.83433" lon="-2.95804">
        <ele>146.74</ele>
        <time>2020-08-11T17:25:27Z</time>
      </trkpt>
      <trkpt lat="47.83436" lon="-2.95817">
        <ele>147.22</ele>
        <time>2020-08-11T17:25:35Z</time>
      </trkpt>
      <trkpt lat="47.8344" lon="-2.9584">
        <ele>147.22</ele>
        <time>2020-08-11T17:25:50Z</time>
      </trkpt>
      <trkpt lat="47.83445" lon="-2.95858">
        <ele>148.66</ele>
        <time>2020-08-11T17:26:01Z</time>
      </trkpt>
      <trkpt lat="47.83451" lon="-2.95891">
        <ele>149.62</ele>
        <time>2020-08-11T17:26:12Z</time>
      </trkpt>
      <trkpt lat="47.83453" lon="-2.95902">
        <ele>150.1</ele>
        <time>2020-08-11T17:26:24Z</time>
      </trkpt>
      <trkpt lat="47.83455" lon="-2.95915">
        <ele>150.1</ele>
        <time>2020-08-11T17:26:36Z</time>
      </trkpt>
      <trkpt lat="47.83457" lon="-2.95935">
        <ele>150.1</ele>
        <time>2020-08-11T17:26:49Z</time>
      </trkpt>
      <trkpt lat="47.8346" lon="-2.95951">
        <ele>150.1</ele>
        <time>2020-08-11T17:26:59Z</time>
      </trkpt>
      <trkpt lat="47.83464" lon="-2.95977">
        <ele>149.62</ele>
        <time>2020-08-11T17:27:12Z</time>
      </trkpt>
      <trkpt lat="47.83468" lon="-2.95999">
        <ele>149.62</ele>
        <time>2020-08-11T17:27:24Z</time>
      </trkpt>
      <trkpt lat="47.83473" lon="-2.96024">
        <ele>149.14</ele>
        <time>2020-08-11T17:27:37Z</time>
      </trkpt>
      <trkpt lat="47.83478" lon="-2.9605">
        <ele>149.62</ele>
        <time>2020-08-11T17:27:49Z</time>
      </trkpt>
      <trkpt lat="47.83486" lon="-2.96087">
        <ele>148.66</ele>
        <time>2020-08-11T17:28:02Z</time>
      </trkpt>
      <trkpt lat="47.83486" lon="-2.96094">
        <ele>148.66</ele>
        <time>2020-08-11T17:28:11Z</time>
      </trkpt>
      <trkpt lat="47.83488" lon="-2.96105">
        <ele>148.66</ele>
        <time>2020-08-11T17:28:22Z</time>
      </trkpt>
      <trkpt lat="47.83493" lon="-2.96125">
        <ele>148.18</ele>
        <time>2020-08-11T17:28:35Z</time>
      </trkpt>
      <trkpt lat="47.83495" lon="-2.96139">
        <ele>147.7</ele>
        <time>2020-08-11T17:28:47Z</time>
      </trkpt>
      <trkpt lat="47.83496" lon="-2.96148">
        <ele>147.7</ele>
        <time>2020-08-11T17:29:00Z</time>
      </trkpt>
      <trkpt lat="47.83496" lon="-2.96148">
        <ele>146.26</ele>
        <time>2020-08-11T17:29:06Z</time>
      </trkpt>
      <trkpt lat="47.83495" lon="-2.96149">
        <ele>147.7</ele>
        <time>2020-08-11T17:29:08Z</time>
      </trkpt>
      <trkpt lat="47.83494" lon="-2.9615">
        <ele>147.7</ele>
        <time>2020-08-11T17:29:19Z</time>
      </trkpt>
    </trkseg>
  </trk>
  <trk>
    <name><![CDATA[20-08-12]]></name>
    <trkseg>
      <trkpt lat="47.58885" lon="-3.03163">
        <ele>20.81</ele>
        <time>2020-08-12T07:12:11Z</time>
      </trkpt>
      <trkpt lat="47.58885" lon="-3.03163">
        <ele>20.81</ele>
        <time>2020-08-12T07:12:12Z</time>
      </trkpt>
      <trkpt lat="47.5889" lon="-3.03166">
        <ele>17.44</ele>
        <time>2020-08-12T07:12:34Z</time>
      </trkpt>
      <trkpt lat="47.5889" lon="-3.03166">
        <ele>12.15</ele>
        <time>2020-08-12T07:12:35Z</time>
      </trkpt>
      <trkpt lat="47.58889" lon="-3.03167">
        <ele>18.88</ele>
        <time>2020-08-12T07:12:36Z</time>
      </trkpt>
      <trkpt lat="47.58886" lon="-3.0317">
        <ele>17.44</ele>
        <time>2020-08-12T07:12:51Z</time>
      </trkpt>
      <trkpt lat="47.58885" lon="-3.03171">
        <ele>16</ele>
        <time>2020-08-12T07:13:11Z</time>
      </trkpt>
      <trkpt lat="47.58886" lon="-3.03171">
        <ele>16</ele>
        <time>2020-08-12T07:13:37Z</time>
      </trkpt>
      <trkpt lat="47.58885" lon="-3.03172">
        <ele>15.52</ele>
        <time>2020-08-12T07:13:54Z</time>
      </trkpt>
      <trkpt lat="47.58886" lon="-3.03174">
        <ele>16</ele>
        <time>2020-08-12T07:14:20Z</time>
      </trkpt>
      <trkpt lat="47.58886" lon="-3.03174">
        <ele>15.04</ele>
        <time>2020-08-12T07:14:44Z</time>
      </trkpt>
      <trkpt lat="47.58886" lon="-3.03173">
        <ele>15.52</ele>
        <time>2020-08-12T07:15:02Z</time>
      </trkpt>
      <trkpt lat="47.58886" lon="-3.03173">
        <ele>15.04</ele>
        <time>2020-08-12T07:15:27Z</time>
      </trkpt>
      <trkpt lat="47.58887" lon="-3.03172">
        <ele>15.04</ele>
        <time>2020-08-12T07:15:47Z</time>
      </trkpt>
      <trkpt lat="47.58886" lon="-3.03172">
        <ele>15.04</ele>
        <time>2020-08-12T07:16:03Z</time>
      </trkpt>
      <trkpt lat="47.58886" lon="-3.03171">
        <ele>15.04</ele>
        <time>2020-08-12T07:16:22Z</time>
      </trkpt>
      <trkpt lat="47.58886" lon="-3.03172">
        <ele>15.52</ele>
        <time>2020-08-12T07:16:39Z</time>
      </trkpt>
      <trkpt lat="47.58886" lon="-3.03171">
        <ele>15.04</ele>
        <time>2020-08-12T07:17:01Z</time>
      </trkpt>
      <trkpt lat="47.58886" lon="-3.03168">
        <ele>14.56</ele>
        <time>2020-08-12T07:17:24Z</time>
      </trkpt>
      <trkpt lat="47.58885" lon="-3.0316">
        <ele>13.6</ele>
        <time>2020-08-12T07:17:37Z</time>
      </trkpt>
      <trkpt lat="47.58885" lon="-3.03156">
        <ele>13.6</ele>
        <time>2020-08-12T07:17:40Z</time>
      </trkpt>
      <trkpt lat="47.58885" lon="-3.03143">
        <ele>12.63</ele>
        <time>2020-08-12T07:17:51Z</time>
      </trkpt>
      <trkpt lat="47.58884" lon="-3.03126">
        <ele>11.67</ele>
        <time>2020-08-12T07:18:03Z</time>
      </trkpt>
      <trkpt lat="47.58886" lon="-3.03116">
        <ele>11.19</ele>
        <time>2020-08-12T07:18:14Z</time>
      </trkpt>
      <trkpt lat="47.58887" lon="-3.03115">
        <ele>11.19</ele>
        <time>2020-08-12T07:18:15Z</time>
      </trkpt>
      <trkpt lat="47.58884" lon="-3.03102">
        <ele>10.23</ele>
        <time>2020-08-12T07:18:27Z</time>
      </trkpt>
      <trkpt lat="47.58881" lon="-3.03085">
        <ele>9.27</ele>
        <time>2020-08-12T07:18:39Z</time>
      </trkpt>
      <trkpt lat="47.58884" lon="-3.03071">
        <ele>8.31</ele>
        <time>2020-08-12T07:18:44Z</time>
      </trkpt>
      <trkpt lat="47.58883" lon="-3.03065">
        <ele>7.83</ele>
        <time>2020-08-12T07:18:47Z</time>
      </trkpt>
      <trkpt lat="47.58878" lon="-3.03061">
        <ele>8.31</ele>
        <time>2020-08-12T07:18:51Z</time>
      </trkpt>
      <trkpt lat="47.58874" lon="-3.03052">
        <ele>7.83</ele>
        <time>2020-08-12T07:19:04Z</time>
      </trkpt>
      <trkpt lat="47.58874" lon="-3.03049">
        <ele>7.35</ele>
        <time>2020-08-12T07:19:07Z</time>
      </trkpt>
      <trkpt lat="47.58877" lon="-3.03045">
        <ele>7.83</ele>
        <time>2020-08-12T07:19:11Z</time>
      </trkpt>
      <trkpt lat="47.58879" lon="-3.03041">
        <ele>7.83</ele>
        <time>2020-08-12T07:19:16Z</time>
      </trkpt>
      <trkpt lat="47.58888" lon="-3.03033">
        <ele>7.35</ele>
        <time>2020-08-12T07:19:27Z</time>
      </trkpt>
      <trkpt lat="47.58897" lon="-3.03027">
        <ele>7.35</ele>
        <time>2020-08-12T07:19:41Z</time>
      </trkpt>
      <trkpt lat="47.58905" lon="-3.03023">
        <ele>7.83</ele>
        <time>2020-08-12T07:19:52Z</time>
      </trkpt>
      <trkpt lat="47.58914" lon="-3.03011">
        <ele>7.83</ele>
        <time>2020-08-12T07:20:04Z</time>
      </trkpt>
      <trkpt lat="47.58917" lon="-3.03008">
        <ele>7.35</ele>
        <time>2020-08-12T07:20:09Z</time>
      </trkpt>
      <trkpt lat="47.5892" lon="-3.03006">
        <ele>7.35</ele>
        <time>2020-08-12T07:20:11Z</time>
      </trkpt>
      <trkpt lat="47.58926" lon="-3.03001">
        <ele>7.83</ele>
        <time>2020-08-12T07:20:18Z</time>
      </trkpt>
      <trkpt lat="47.58928" lon="-3.02987">
        <ele>7.35</ele>
        <time>2020-08-12T07:20:33Z</time>
      </trkpt>
      <trkpt lat="47.58925" lon="-3.02979">
        <ele>6.87</ele>
        <time>2020-08-12T07:20:43Z</time>
      </trkpt>
      <trkpt lat="47.58924" lon="-3.02975">
        <ele>6.87</ele>
        <time>2020-08-12T07:20:46Z</time>
      </trkpt>
      <trkpt lat="47.58919" lon="-3.02958">
        <ele>6.87</ele>
        <time>2020-08-12T07:20:59Z</time>
      </trkpt>
      <trkpt lat="47.58922" lon="-3.02941">
        <ele>7.35</ele>
        <time>2020-08-12T07:21:09Z</time>
      </trkpt>
      <trkpt lat="47.58924" lon="-3.02932">
        <ele>7.35</ele>
        <time>2020-08-12T07:21:16Z</time>
      </trkpt>
      <trkpt lat="47.58919" lon="-3.0292">
        <ele>6.39</ele>
        <time>2020-08-12T07:21:26Z</time>
      </trkpt>
      <trkpt lat="47.58916" lon="-3.02914">
        <ele>6.39</ele>
        <time>2020-08-12T07:21:32Z</time>
      </trkpt>
      <trkpt lat="47.58916" lon="-3.02907">
        <ele>6.39</ele>
        <time>2020-08-12T07:21:36Z</time>
      </trkpt>
      <trkpt lat="47.58915" lon="-3.02895">
        <ele>5.91</ele>
        <time>2020-08-12T07:21:44Z</time>
      </trkpt>
      <trkpt lat="47.58915" lon="-3.02891">
        <ele>6.87</ele>
        <time>2020-08-12T07:21:46Z</time>
      </trkpt>
      <trkpt lat="47.58912" lon="-3.0288">
        <ele>6.39</ele>
        <time>2020-08-12T07:21:59Z</time>
      </trkpt>
      <trkpt lat="47.58912" lon="-3.02872">
        <ele>5.91</ele>
        <time>2020-08-12T07:22:06Z</time>
      </trkpt>
      <trkpt lat="47.58899" lon="-3.02862">
        <ele>6.39</ele>
        <time>2020-08-12T07:22:21Z</time>
      </trkpt>
      <trkpt lat="47.58895" lon="-3.0286">
        <ele>6.39</ele>
        <time>2020-08-12T07:22:24Z</time>
      </trkpt>
      <trkpt lat="47.58891" lon="-3.02855">
        <ele>6.39</ele>
        <time>2020-08-12T07:22:33Z</time>
      </trkpt>
      <trkpt lat="47.5889" lon="-3.02849">
        <ele>6.39</ele>
        <time>2020-08-12T07:22:36Z</time>
      </trkpt>
      <trkpt lat="47.58883" lon="-3.02836">
        <ele>6.39</ele>
        <time>2020-08-12T07:22:49Z</time>
      </trkpt>
      <trkpt lat="47.58882" lon="-3.02835">
        <ele>6.39</ele>
        <time>2020-08-12T07:22:50Z</time>
      </trkpt>
      <trkpt lat="47.58881" lon="-3.02831">
        <ele>6.39</ele>
        <time>2020-08-12T07:22:53Z</time>
      </trkpt>
      <trkpt lat="47.58878" lon="-3.02828">
        <ele>6.39</ele>
        <time>2020-08-12T07:22:57Z</time>
      </trkpt>
      <trkpt lat="47.58868" lon="-3.0281">
        <ele>6.39</ele>
        <time>2020-08-12T07:23:12Z</time>
      </trkpt>
      <trkpt lat="47.58852" lon="-3.028">
        <ele>6.39</ele>
        <time>2020-08-12T07:23:28Z</time>
      </trkpt>
      <trkpt lat="47.58838" lon="-3.02787">
        <ele>6.39</ele>
        <time>2020-08-12T07:23:42Z</time>
      </trkpt>
      <trkpt lat="47.58837" lon="-3.02785">
        <ele>6.87</ele>
        <time>2020-08-12T07:23:44Z</time>
      </trkpt>
      <trkpt lat="47.5882" lon="-3.0277">
        <ele>6.87</ele>
        <time>2020-08-12T07:24:01Z</time>
      </trkpt>
      <trkpt lat="47.58803" lon="-3.02754">
        <ele>6.39</ele>
        <time>2020-08-12T07:24:18Z</time>
      </trkpt>
      <trkpt lat="47.58793" lon="-3.02748">
        <ele>6.87</ele>
        <time>2020-08-12T07:24:28Z</time>
      </trkpt>
      <trkpt lat="47.58786" lon="-3.02743">
        <ele>6.87</ele>
        <time>2020-08-12T07:24:35Z</time>
      </trkpt>
      <trkpt lat="47.5877" lon="-3.02729">
        <ele>6.39</ele>
        <time>2020-08-12T07:24:52Z</time>
      </trkpt>
      <trkpt lat="47.58757" lon="-3.02718">
        <ele>6.87</ele>
        <time>2020-08-12T07:25:04Z</time>
      </trkpt>
      <trkpt lat="47.58747" lon="-3.02697">
        <ele>6.39</ele>
        <time>2020-08-12T07:25:19Z</time>
      </trkpt>
      <trkpt lat="47.58745" lon="-3.02692">
        <ele>5.91</ele>
        <time>2020-08-12T07:25:22Z</time>
      </trkpt>
      <trkpt lat="47.58741" lon="-3.02683">
        <ele>5.91</ele>
        <time>2020-08-12T07:25:29Z</time>
      </trkpt>
      <trkpt lat="47.58733" lon="-3.02665">
        <ele>6.39</ele>
        <time>2020-08-12T07:25:43Z</time>
      </trkpt>
      <trkpt lat="47.58726" lon="-3.02651">
        <ele>6.39</ele>
        <time>2020-08-12T07:25:54Z</time>
      </trkpt>
      <trkpt lat="47.58727" lon="-3.02646">
        <ele>6.39</ele>
        <time>2020-08-12T07:26:04Z</time>
      </trkpt>
      <trkpt lat="47.58728" lon="-3.02642">
        <ele>6.39</ele>
        <time>2020-08-12T07:26:14Z</time>
      </trkpt>
      <trkpt lat="47.58725" lon="-3.02642">
        <ele>5.91</ele>
        <time>2020-08-12T07:26:17Z</time>
      </trkpt>
      <trkpt lat="47.58722" lon="-3.0264">
        <ele>5.91</ele>
        <time>2020-08-12T07:26:32Z</time>
      </trkpt>
      <trkpt lat="47.5872" lon="-3.0264">
        <ele>6.39</ele>
        <time>2020-08-12T07:26:51Z</time>
      </trkpt>
      <trkpt lat="47.5872" lon="-3.02641">
        <ele>6.39</ele>
        <time>2020-08-12T07:26:57Z</time>
      </trkpt>
      <trkpt lat="47.58716" lon="-3.02647">
        <ele>6.87</ele>
        <time>2020-08-12T07:27:02Z</time>
      </trkpt>
      <trkpt lat="47.58706" lon="-3.02671">
        <ele>6.39</ele>
        <time>2020-08-12T07:27:16Z</time>
      </trkpt>
      <trkpt lat="47.58704" lon="-3.02678">
        <ele>6.39</ele>
        <time>2020-08-12T07:27:20Z</time>
      </trkpt>
      <trkpt lat="47.58699" lon="-3.02696">
        <ele>5.91</ele>
        <time>2020-08-12T07:27:34Z</time>
      </trkpt>
      <trkpt lat="47.58696" lon="-3.02697">
        <ele>6.39</ele>
        <time>2020-08-12T07:27:37Z</time>
      </trkpt>
      <trkpt lat="47.58676" lon="-3.02701">
        <ele>6.39</ele>
        <time>2020-08-12T07:27:54Z</time>
      </trkpt>
      <trkpt lat="47.5867" lon="-3.027">
        <ele>6.39</ele>
        <time>2020-08-12T07:28:10Z</time>
      </trkpt>
      <trkpt lat="47.58669" lon="-3.02699">
        <ele>8.31</ele>
        <time>2020-08-12T07:28:29Z</time>
      </trkpt>
      <trkpt lat="47.58666" lon="-3.02698">
        <ele>7.83</ele>
        <time>2020-08-12T07:28:50Z</time>
      </trkpt>
      <trkpt lat="47.58649" lon="-3.02695">
        <ele>7.83</ele>
        <time>2020-08-12T07:29:06Z</time>
      </trkpt>
      <trkpt lat="47.58644" lon="-3.02695">
        <ele>7.83</ele>
        <time>2020-08-12T07:29:09Z</time>
      </trkpt>
      <trkpt lat="47.58639" lon="-3.02693">
        <ele>8.31</ele>
        <time>2020-08-12T07:29:13Z</time>
      </trkpt>
      <trkpt lat="47.58614" lon="-3.02682">
        <ele>7.83</ele>
        <time>2020-08-12T07:29:30Z</time>
      </trkpt>
      <trkpt lat="47.58594" lon="-3.02675">
        <ele>8.79</ele>
        <time>2020-08-12T07:29:45Z</time>
      </trkpt>
      <trkpt lat="47.58578" lon="-3.02669">
        <ele>8.31</ele>
        <time>2020-08-12T07:29:57Z</time>
      </trkpt>
      <trkpt lat="47.5856" lon="-3.02663">
        <ele>8.31</ele>
        <time>2020-08-12T07:30:10Z</time>
      </trkpt>
      <trkpt lat="47.58547" lon="-3.02662">
        <ele>8.31</ele>
        <time>2020-08-12T07:30:26Z</time>
      </trkpt>
      <trkpt lat="47.58546" lon="-3.02662">
        <ele>8.31</ele>
        <time>2020-08-12T07:30:27Z</time>
      </trkpt>
      <trkpt lat="47.58543" lon="-3.02661">
        <ele>8.31</ele>
        <time>2020-08-12T07:30:30Z</time>
      </trkpt>
      <trkpt lat="47.58524" lon="-3.02666">
        <ele>8.79</ele>
        <time>2020-08-12T07:30:45Z</time>
      </trkpt>
      <trkpt lat="47.58522" lon="-3.02667">
        <ele>8.79</ele>
        <time>2020-08-12T07:30:47Z</time>
      </trkpt>
      <trkpt lat="47.58519" lon="-3.02669">
        <ele>8.79</ele>
        <time>2020-08-12T07:30:50Z</time>
      </trkpt>
      <trkpt lat="47.58513" lon="-3.02671">
        <ele>8.31</ele>
        <time>2020-08-12T07:30:55Z</time>
      </trkpt>
      <trkpt lat="47.58497" lon="-3.02675">
        <ele>8.31</ele>
        <time>2020-08-12T07:31:09Z</time>
      </trkpt>
      <trkpt lat="47.58495" lon="-3.02676">
        <ele>8.79</ele>
        <time>2020-08-12T07:31:11Z</time>
      </trkpt>
      <trkpt lat="47.58478" lon="-3.02678">
        <ele>8.79</ele>
        <time>2020-08-12T07:31:27Z</time>
      </trkpt>
      <trkpt lat="47.5846" lon="-3.02678">
        <ele>8.79</ele>
        <time>2020-08-12T07:31:43Z</time>
      </trkpt>
      <trkpt lat="47.58452" lon="-3.0268">
        <ele>7.83</ele>
        <time>2020-08-12T07:31:50Z</time>
      </trkpt>
      <trkpt lat="47.58441" lon="-3.02685">
        <ele>8.79</ele>
        <time>2020-08-12T07:32:01Z</time>
      </trkpt>
      <trkpt lat="47.58423" lon="-3.02688">
        <ele>10.23</ele>
        <time>2020-08-12T07:32:16Z</time>
      </trkpt>
      <trkpt lat="47.58409" lon="-3.02689">
        <ele>11.67</ele>
        <time>2020-08-12T07:32:29Z</time>
      </trkpt>
      <trkpt lat="47.584" lon="-3.02689">
        <ele>12.63</ele>
        <time>2020-08-12T07:32:39Z</time>
      </trkpt>
      <trkpt lat="47.58395" lon="-3.0269">
        <ele>12.63</ele>
        <time>2020-08-12T07:32:45Z</time>
      </trkpt>
      <trkpt lat="47.58391" lon="-3.0269">
        <ele>14.08</ele>
        <time>2020-08-12T07:32:49Z</time>
      </trkpt>
      <trkpt lat="47.58389" lon="-3.0269">
        <ele>14.08</ele>
        <time>2020-08-12T07:32:51Z</time>
      </trkpt>
      <trkpt lat="47.58377" lon="-3.02692">
        <ele>13.6</ele>
        <time>2020-08-12T07:33:04Z</time>
      </trkpt>
      <trkpt lat="47.58366" lon="-3.02691">
        <ele>13.12</ele>
        <time>2020-08-12T07:33:18Z</time>
      </trkpt>
      <trkpt lat="47.58365" lon="-3.02691">
        <ele>13.12</ele>
        <time>2020-08-12T07:33:19Z</time>
      </trkpt>
      <trkpt lat="47.58355" lon="-3.02687">
        <ele>12.15</ele>
        <time>2020-08-12T07:33:32Z</time>
      </trkpt>
      <trkpt lat="47.58347" lon="-3.02688">
        <ele>12.63</ele>
        <time>2020-08-12T07:33:40Z</time>
      </trkpt>
      <trkpt lat="47.58343" lon="-3.02686">
        <ele>12.63</ele>
        <time>2020-08-12T07:33:43Z</time>
      </trkpt>
      <trkpt lat="47.58325" lon="-3.02693">
        <ele>11.67</ele>
        <time>2020-08-12T07:33:58Z</time>
      </trkpt>
      <trkpt lat="47.58312" lon="-3.02698">
        <ele>12.15</ele>
        <time>2020-08-12T07:34:14Z</time>
      </trkpt>
      <trkpt lat="47.58301" lon="-3.02699">
        <ele>11.67</ele>
        <time>2020-08-12T07:34:24Z</time>
      </trkpt>
      <trkpt lat="47.58286" lon="-3.02696">
        <ele>12.15</ele>
        <time>2020-08-12T07:34:38Z</time>
      </trkpt>
      <trkpt lat="47.58268" lon="-3.02699">
        <ele>11.67</ele>
        <time>2020-08-12T07:34:53Z</time>
      </trkpt>
      <trkpt lat="47.58263" lon="-3.027">
        <ele>11.67</ele>
        <time>2020-08-12T07:34:58Z</time>
      </trkpt>
      <trkpt lat="47.58258" lon="-3.02701">
        <ele>12.15</ele>
        <time>2020-08-12T07:35:02Z</time>
      </trkpt>
      <trkpt lat="47.5825" lon="-3.027">
        <ele>12.15</ele>
        <time>2020-08-12T07:35:10Z</time>
      </trkpt>
      <trkpt lat="47.58245" lon="-3.027">
        <ele>12.63</ele>
        <time>2020-08-12T07:35:14Z</time>
      </trkpt>
      <trkpt lat="47.58227" lon="-3.02694">
        <ele>13.6</ele>
        <time>2020-08-12T07:35:30Z</time>
      </trkpt>
      <trkpt lat="47.58224" lon="-3.02696">
        <ele>13.6</ele>
        <time>2020-08-12T07:35:33Z</time>
      </trkpt>
      <trkpt lat="47.5822" lon="-3.02696">
        <ele>14.08</ele>
        <time>2020-08-12T07:35:36Z</time>
      </trkpt>
      <trkpt lat="47.58203" lon="-3.02685">
        <ele>14.08</ele>
        <time>2020-08-12T07:35:52Z</time>
      </trkpt>
      <trkpt lat="47.58191" lon="-3.02672">
        <ele>14.08</ele>
        <time>2020-08-12T07:36:06Z</time>
      </trkpt>
      <trkpt lat="47.58182" lon="-3.02665">
        <ele>12.63</ele>
        <time>2020-08-12T07:36:13Z</time>
      </trkpt>
      <trkpt lat="47.58177" lon="-3.02658">
        <ele>12.63</ele>
        <time>2020-08-12T07:36:20Z</time>
      </trkpt>
      <trkpt lat="47.58168" lon="-3.0265">
        <ele>12.63</ele>
        <time>2020-08-12T07:36:29Z</time>
      </trkpt>
      <trkpt lat="47.58166" lon="-3.02648">
        <ele>12.63</ele>
        <time>2020-08-12T07:36:31Z</time>
      </trkpt>
      <trkpt lat="47.58152" lon="-3.02641">
        <ele>12.15</ele>
        <time>2020-08-12T07:36:45Z</time>
      </trkpt>
      <trkpt lat="47.5815" lon="-3.02641">
        <ele>12.63</ele>
        <time>2020-08-12T07:36:47Z</time>
      </trkpt>
      <trkpt lat="47.58143" lon="-3.02637">
        <ele>12.63</ele>
        <time>2020-08-12T07:36:52Z</time>
      </trkpt>
      <trkpt lat="47.5814" lon="-3.02635">
        <ele>12.63</ele>
        <time>2020-08-12T07:36:55Z</time>
      </trkpt>
      <trkpt lat="47.58128" lon="-3.0263">
        <ele>12.63</ele>
        <time>2020-08-12T07:37:06Z</time>
      </trkpt>
      <trkpt lat="47.58121" lon="-3.02624">
        <ele>11.67</ele>
        <time>2020-08-12T07:37:13Z</time>
      </trkpt>
      <trkpt lat="47.58105" lon="-3.02606">
        <ele>12.15</ele>
        <time>2020-08-12T07:37:29Z</time>
      </trkpt>
      <trkpt lat="47.58099" lon="-3.02596">
        <ele>11.67</ele>
        <time>2020-08-12T07:37:37Z</time>
      </trkpt>
      <trkpt lat="47.58086" lon="-3.02573">
        <ele>11.19</ele>
        <time>2020-08-12T07:37:52Z</time>
      </trkpt>
      <trkpt lat="47.58081" lon="-3.02562">
        <ele>10.23</ele>
        <time>2020-08-12T07:38:01Z</time>
      </trkpt>
      <trkpt lat="47.58081" lon="-3.02545">
        <ele>8.79</ele>
        <time>2020-08-12T07:38:13Z</time>
      </trkpt>
      <trkpt lat="47.58075" lon="-3.02525">
        <ele>8.79</ele>
        <time>2020-08-12T07:38:25Z</time>
      </trkpt>
      <trkpt lat="47.58065" lon="-3.02511">
        <ele>9.27</ele>
        <time>2020-08-12T07:38:36Z</time>
      </trkpt>
      <trkpt lat="47.58054" lon="-3.02496">
        <ele>8.79</ele>
        <time>2020-08-12T07:38:51Z</time>
      </trkpt>
      <trkpt lat="47.58043" lon="-3.02478">
        <ele>8.79</ele>
        <time>2020-08-12T07:39:04Z</time>
      </trkpt>
      <trkpt lat="47.58031" lon="-3.02455">
        <ele>8.79</ele>
        <time>2020-08-12T07:39:20Z</time>
      </trkpt>
      <trkpt lat="47.58028" lon="-3.02452">
        <ele>8.79</ele>
        <time>2020-08-12T07:39:23Z</time>
      </trkpt>
      <trkpt lat="47.58015" lon="-3.02429">
        <ele>8.79</ele>
        <time>2020-08-12T07:39:39Z</time>
      </trkpt>
      <trkpt lat="47.58006" lon="-3.02409">
        <ele>8.31</ele>
        <time>2020-08-12T07:39:53Z</time>
      </trkpt>
      <trkpt lat="47.58005" lon="-3.02406">
        <ele>8.31</ele>
        <time>2020-08-12T07:39:56Z</time>
      </trkpt>
      <trkpt lat="47.58" lon="-3.02389">
        <ele>8.31</ele>
        <time>2020-08-12T07:40:07Z</time>
      </trkpt>
      <trkpt lat="47.57997" lon="-3.02384">
        <ele>8.31</ele>
        <time>2020-08-12T07:40:11Z</time>
      </trkpt>
      <trkpt lat="47.57985" lon="-3.02356">
        <ele>8.31</ele>
        <time>2020-08-12T07:40:26Z</time>
      </trkpt>
      <trkpt lat="47.57984" lon="-3.02351">
        <ele>8.31</ele>
        <time>2020-08-12T07:40:29Z</time>
      </trkpt>
      <trkpt lat="47.57979" lon="-3.02336">
        <ele>7.83</ele>
        <time>2020-08-12T07:40:37Z</time>
      </trkpt>
      <trkpt lat="47.57971" lon="-3.02309">
        <ele>8.31</ele>
        <time>2020-08-12T07:40:52Z</time>
      </trkpt>
      <trkpt lat="47.57963" lon="-3.0229">
        <ele>8.31</ele>
        <time>2020-08-12T07:41:04Z</time>
      </trkpt>
      <trkpt lat="47.57958" lon="-3.02285">
        <ele>8.31</ele>
        <time>2020-08-12T07:41:08Z</time>
      </trkpt>
      <trkpt lat="47.5795" lon="-3.0227">
        <ele>8.31</ele>
        <time>2020-08-12T07:41:18Z</time>
      </trkpt>
      <trkpt lat="47.57949" lon="-3.0226">
        <ele>8.79</ele>
        <time>2020-08-12T07:41:24Z</time>
      </trkpt>
      <trkpt lat="47.57947" lon="-3.02253">
        <ele>9.27</ele>
        <time>2020-08-12T07:41:28Z</time>
      </trkpt>
      <trkpt lat="47.5794" lon="-3.02235">
        <ele>9.27</ele>
        <time>2020-08-12T07:41:41Z</time>
      </trkpt>
      <trkpt lat="47.57924" lon="-3.02225">
        <ele>9.27</ele>
        <time>2020-08-12T07:41:56Z</time>
      </trkpt>
      <trkpt lat="47.57923" lon="-3.02225">
        <ele>9.27</ele>
        <time>2020-08-12T07:41:57Z</time>
      </trkpt>
      <trkpt lat="47.57901" lon="-3.02225">
        <ele>9.27</ele>
        <time>2020-08-12T07:42:15Z</time>
      </trkpt>
      <trkpt lat="47.57886" lon="-3.02236">
        <ele>10.23</ele>
        <time>2020-08-12T07:42:31Z</time>
      </trkpt>
      <trkpt lat="47.57871" lon="-3.02251">
        <ele>10.71</ele>
        <time>2020-08-12T07:42:46Z</time>
      </trkpt>
      <trkpt lat="47.57858" lon="-3.02268">
        <ele>10.71</ele>
        <time>2020-08-12T07:43:00Z</time>
      </trkpt>
      <trkpt lat="47.57844" lon="-3.0229">
        <ele>12.15</ele>
        <time>2020-08-12T07:43:17Z</time>
      </trkpt>
      <trkpt lat="47.5783" lon="-3.02301">
        <ele>13.12</ele>
        <time>2020-08-12T07:43:32Z</time>
      </trkpt>
      <trkpt lat="47.57817" lon="-3.02311">
        <ele>13.6</ele>
        <time>2020-08-12T07:43:47Z</time>
      </trkpt>
      <trkpt lat="47.57815" lon="-3.02313">
        <ele>13.6</ele>
        <time>2020-08-12T07:43:49Z</time>
      </trkpt>
      <trkpt lat="47.57813" lon="-3.02315">
        <ele>13.6</ele>
        <time>2020-08-12T07:43:51Z</time>
      </trkpt>
      <trkpt lat="47.578" lon="-3.02322">
        <ele>14.08</ele>
        <time>2020-08-12T07:44:04Z</time>
      </trkpt>
      <trkpt lat="47.57777" lon="-3.02323">
        <ele>12.15</ele>
        <time>2020-08-12T07:44:21Z</time>
      </trkpt>
      <trkpt lat="47.57773" lon="-3.02324">
        <ele>12.15</ele>
        <time>2020-08-12T07:44:23Z</time>
      </trkpt>
      <trkpt lat="47.57756" lon="-3.02334">
        <ele>11.19</ele>
        <time>2020-08-12T07:44:38Z</time>
      </trkpt>
      <trkpt lat="47.57735" lon="-3.02327">
        <ele>11.67</ele>
        <time>2020-08-12T07:44:53Z</time>
      </trkpt>
      <trkpt lat="47.57731" lon="-3.02326">
        <ele>11.67</ele>
        <time>2020-08-12T07:44:56Z</time>
      </trkpt>
      <trkpt lat="47.5772" lon="-3.02329">
        <ele>13.12</ele>
        <time>2020-08-12T07:45:11Z</time>
      </trkpt>
      <trkpt lat="47.57713" lon="-3.02329">
        <ele>14.08</ele>
        <time>2020-08-12T07:45:18Z</time>
      </trkpt>
      <trkpt lat="47.57696" lon="-3.0233">
        <ele>14.56</ele>
        <time>2020-08-12T07:45:31Z</time>
      </trkpt>
      <trkpt lat="47.57691" lon="-3.02327">
        <ele>14.56</ele>
        <time>2020-08-12T07:45:46Z</time>
      </trkpt>
      <trkpt lat="47.57691" lon="-3.02328">
        <ele>14.56</ele>
        <time>2020-08-12T07:46:17Z</time>
      </trkpt>
      <trkpt lat="47.5769" lon="-3.02329">
        <ele>14.08</ele>
        <time>2020-08-12T07:46:46Z</time>
      </trkpt>
      <trkpt lat="47.57689" lon="-3.02328">
        <ele>14.08</ele>
        <time>2020-08-12T07:47:10Z</time>
      </trkpt>
      <trkpt lat="47.57687" lon="-3.02329">
        <ele>14.56</ele>
        <time>2020-08-12T07:47:22Z</time>
      </trkpt>
      <trkpt lat="47.57683" lon="-3.02327">
        <ele>13.6</ele>
        <time>2020-08-12T07:47:35Z</time>
      </trkpt>
      <trkpt lat="47.57669" lon="-3.02328">
        <ele>14.08</ele>
        <time>2020-08-12T07:47:52Z</time>
      </trkpt>
      <trkpt lat="47.57655" lon="-3.02326">
        <ele>14.56</ele>
        <time>2020-08-12T07:48:05Z</time>
      </trkpt>
      <trkpt lat="47.57633" lon="-3.02319">
        <ele>13.6</ele>
        <time>2020-08-12T07:48:20Z</time>
      </trkpt>
      <trkpt lat="47.57613" lon="-3.02311">
        <ele>12.63</ele>
        <time>2020-08-12T07:48:35Z</time>
      </trkpt>
      <trkpt lat="47.57605" lon="-3.02308">
        <ele>10.71</ele>
        <time>2020-08-12T07:48:45Z</time>
      </trkpt>
      <trkpt lat="47.57589" lon="-3.02308">
        <ele>10.23</ele>
        <time>2020-08-12T07:48:58Z</time>
      </trkpt>
      <trkpt lat="47.57586" lon="-3.02308">
        <ele>9.75</ele>
        <time>2020-08-12T07:49:01Z</time>
      </trkpt>
      <trkpt lat="47.57571" lon="-3.02301">
        <ele>8.79</ele>
        <time>2020-08-12T07:49:14Z</time>
      </trkpt>
      <trkpt lat="47.57568" lon="-3.02295">
        <ele>8.31</ele>
        <time>2020-08-12T07:49:21Z</time>
      </trkpt>
      <trkpt lat="47.57564" lon="-3.02287">
        <ele>8.79</ele>
        <time>2020-08-12T07:49:25Z</time>
      </trkpt>
      <trkpt lat="47.57556" lon="-3.02276">
        <ele>8.79</ele>
        <time>2020-08-12T07:49:33Z</time>
      </trkpt>
      <trkpt lat="47.57552" lon="-3.02265">
        <ele>8.79</ele>
        <time>2020-08-12T07:49:43Z</time>
      </trkpt>
      <trkpt lat="47.5754" lon="-3.02263">
        <ele>9.27</ele>
        <time>2020-08-12T07:50:00Z</time>
      </trkpt>
      <trkpt lat="47.57528" lon="-3.02263">
        <ele>10.23</ele>
        <time>2020-08-12T07:50:16Z</time>
      </trkpt>
      <trkpt lat="47.57513" lon="-3.02258">
        <ele>10.23</ele>
        <time>2020-08-12T07:50:31Z</time>
      </trkpt>
      <trkpt lat="47.57491" lon="-3.0226">
        <ele>10.71</ele>
        <time>2020-08-12T07:50:47Z</time>
      </trkpt>
      <trkpt lat="47.57473" lon="-3.02274">
        <ele>10.23</ele>
        <time>2020-08-12T07:51:04Z</time>
      </trkpt>
      <trkpt lat="47.57471" lon="-3.02275">
        <ele>10.23</ele>
        <time>2020-08-12T07:51:06Z</time>
      </trkpt>
      <trkpt lat="47.57453" lon="-3.02296">
        <ele>9.75</ele>
        <time>2020-08-12T07:51:24Z</time>
      </trkpt>
      <trkpt lat="47.57439" lon="-3.0231">
        <ele>9.75</ele>
        <time>2020-08-12T07:51:40Z</time>
      </trkpt>
      <trkpt lat="47.57424" lon="-3.0232">
        <ele>9.27</ele>
        <time>2020-08-12T07:51:56Z</time>
      </trkpt>
      <trkpt lat="47.5741" lon="-3.02328">
        <ele>9.27</ele>
        <time>2020-08-12T07:52:11Z</time>
      </trkpt>
      <trkpt lat="47.57399" lon="-3.02331">
        <ele>9.27</ele>
        <time>2020-08-12T07:52:21Z</time>
      </trkpt>
      <trkpt lat="47.57392" lon="-3.02334">
        <ele>9.27</ele>
        <time>2020-08-12T07:52:26Z</time>
      </trkpt>
      <trkpt lat="47.57373" lon="-3.02342">
        <ele>8.79</ele>
        <time>2020-08-12T07:52:44Z</time>
      </trkpt>
      <trkpt lat="47.57372" lon="-3.02342">
        <ele>8.79</ele>
        <time>2020-08-12T07:52:45Z</time>
      </trkpt>
      <trkpt lat="47.5736" lon="-3.02349">
        <ele>8.79</ele>
        <time>2020-08-12T07:52:58Z</time>
      </trkpt>
      <trkpt lat="47.57355" lon="-3.02356">
        <ele>7.83</ele>
        <time>2020-08-12T07:53:11Z</time>
      </trkpt>
      <trkpt lat="47.57351" lon="-3.0236">
        <ele>7.83</ele>
        <time>2020-08-12T07:53:27Z</time>
      </trkpt>
      <trkpt lat="47.57347" lon="-3.02358">
        <ele>8.31</ele>
        <time>2020-08-12T07:53:34Z</time>
      </trkpt>
      <trkpt lat="47.57341" lon="-3.02358">
        <ele>8.31</ele>
        <time>2020-08-12T07:53:38Z</time>
      </trkpt>
      <trkpt lat="47.5733" lon="-3.02356">
        <ele>8.31</ele>
        <time>2020-08-12T07:53:42Z</time>
      </trkpt>
      <trkpt lat="47.57304" lon="-3.02351">
        <ele>8.31</ele>
        <time>2020-08-12T07:53:57Z</time>
      </trkpt>
      <trkpt lat="47.573" lon="-3.02348">
        <ele>7.83</ele>
        <time>2020-08-12T07:54:01Z</time>
      </trkpt>
      <trkpt lat="47.57288" lon="-3.02335">
        <ele>7.83</ele>
        <time>2020-08-12T07:54:14Z</time>
      </trkpt>
      <trkpt lat="47.57285" lon="-3.02333">
        <ele>7.83</ele>
        <time>2020-08-12T07:54:16Z</time>
      </trkpt>
      <trkpt lat="47.57282" lon="-3.02332">
        <ele>7.83</ele>
        <time>2020-08-12T07:54:18Z</time>
      </trkpt>
      <trkpt lat="47.57271" lon="-3.02318">
        <ele>8.31</ele>
        <time>2020-08-12T07:54:31Z</time>
      </trkpt>
      <trkpt lat="47.57259" lon="-3.02305">
        <ele>9.27</ele>
        <time>2020-08-12T07:54:46Z</time>
      </trkpt>
      <trkpt lat="47.57256" lon="-3.02302">
        <ele>9.27</ele>
        <time>2020-08-12T07:54:50Z</time>
      </trkpt>
      <trkpt lat="47.57248" lon="-3.02292">
        <ele>9.27</ele>
        <time>2020-08-12T07:54:59Z</time>
      </trkpt>
      <trkpt lat="47.57236" lon="-3.02277">
        <ele>10.23</ele>
        <time>2020-08-12T07:55:13Z</time>
      </trkpt>
      <trkpt lat="47.57234" lon="-3.0227">
        <ele>9.75</ele>
        <time>2020-08-12T07:55:18Z</time>
      </trkpt>
      <trkpt lat="47.5724" lon="-3.02257">
        <ele>9.75</ele>
        <time>2020-08-12T07:55:27Z</time>
      </trkpt>
      <trkpt lat="47.57243" lon="-3.02256">
        <ele>9.27</ele>
        <time>2020-08-12T07:55:32Z</time>
      </trkpt>
      <trkpt lat="47.57255" lon="-3.0225">
        <ele>9.27</ele>
        <time>2020-08-12T07:55:45Z</time>
      </trkpt>
      <trkpt lat="47.57255" lon="-3.02231">
        <ele>8.79</ele>
        <time>2020-08-12T07:55:57Z</time>
      </trkpt>
      <trkpt lat="47.57254" lon="-3.02229">
        <ele>9.27</ele>
        <time>2020-08-12T07:55:59Z</time>
      </trkpt>
      <trkpt lat="47.57237" lon="-3.02223">
        <ele>9.75</ele>
        <time>2020-08-12T07:56:15Z</time>
      </trkpt>
      <trkpt lat="47.57232" lon="-3.02221">
        <ele>9.27</ele>
        <time>2020-08-12T07:56:20Z</time>
      </trkpt>
      <trkpt lat="47.57221" lon="-3.02218">
        <ele>9.75</ele>
        <time>2020-08-12T07:56:29Z</time>
      </trkpt>
      <trkpt lat="47.57204" lon="-3.02209">
        <ele>8.79</ele>
        <time>2020-08-12T07:56:46Z</time>
      </trkpt>
      <trkpt lat="47.57202" lon="-3.02208">
        <ele>9.27</ele>
        <time>2020-08-12T07:56:48Z</time>
      </trkpt>
      <trkpt lat="47.57195" lon="-3.02203">
        <ele>8.79</ele>
        <time>2020-08-12T07:56:55Z</time>
      </trkpt>
      <trkpt lat="47.57183" lon="-3.02193">
        <ele>8.79</ele>
        <time>2020-08-12T07:57:08Z</time>
      </trkpt>
      <trkpt lat="47.5718" lon="-3.02192">
        <ele>8.31</ele>
        <time>2020-08-12T07:57:10Z</time>
      </trkpt>
      <trkpt lat="47.57176" lon="-3.02184">
        <ele>8.31</ele>
        <time>2020-08-12T07:57:16Z</time>
      </trkpt>
      <trkpt lat="47.57164" lon="-3.02163">
        <ele>8.31</ele>
        <time>2020-08-12T07:57:30Z</time>
      </trkpt>
      <trkpt lat="47.57158" lon="-3.02148">
        <ele>7.83</ele>
        <time>2020-08-12T07:57:40Z</time>
      </trkpt>
      <trkpt lat="47.57154" lon="-3.02137">
        <ele>8.31</ele>
        <time>2020-08-12T07:57:48Z</time>
      </trkpt>
      <trkpt lat="47.57149" lon="-3.02134">
        <ele>8.79</ele>
        <time>2020-08-12T07:57:54Z</time>
      </trkpt>
      <trkpt lat="47.57146" lon="-3.02132">
        <ele>8.31</ele>
        <time>2020-08-12T07:57:57Z</time>
      </trkpt>
      <trkpt lat="47.57142" lon="-3.0212">
        <ele>8.79</ele>
        <time>2020-08-12T07:58:12Z</time>
      </trkpt>
      <trkpt lat="47.57139" lon="-3.0212">
        <ele>7.83</ele>
        <time>2020-08-12T07:58:28Z</time>
      </trkpt>
      <trkpt lat="47.57139" lon="-3.0212">
        <ele>8.31</ele>
        <time>2020-08-12T07:58:58Z</time>
      </trkpt>
      <trkpt lat="47.57136" lon="-3.02113">
        <ele>8.31</ele>
        <time>2020-08-12T07:59:08Z</time>
      </trkpt>
      <trkpt lat="47.57134" lon="-3.02108">
        <ele>7.83</ele>
        <time>2020-08-12T07:59:12Z</time>
      </trkpt>
      <trkpt lat="47.57127" lon="-3.0209">
        <ele>8.31</ele>
        <time>2020-08-12T07:59:26Z</time>
      </trkpt>
      <trkpt lat="47.57122" lon="-3.02073">
        <ele>8.31</ele>
        <time>2020-08-12T07:59:40Z</time>
      </trkpt>
      <trkpt lat="47.57113" lon="-3.0205">
        <ele>8.31</ele>
        <time>2020-08-12T07:59:57Z</time>
      </trkpt>
      <trkpt lat="47.57107" lon="-3.02042">
        <ele>7.83</ele>
        <time>2020-08-12T08:00:06Z</time>
      </trkpt>
      <trkpt lat="47.57103" lon="-3.02035">
        <ele>7.83</ele>
        <time>2020-08-12T08:00:12Z</time>
      </trkpt>
      <trkpt lat="47.57091" lon="-3.02025">
        <ele>7.83</ele>
        <time>2020-08-12T08:00:27Z</time>
      </trkpt>
      <trkpt lat="47.57079" lon="-3.02013">
        <ele>8.31</ele>
        <time>2020-08-12T08:00:43Z</time>
      </trkpt>
      <trkpt lat="47.57065" lon="-3.02004">
        <ele>9.27</ele>
        <time>2020-08-12T08:00:56Z</time>
      </trkpt>
      <trkpt lat="47.57053" lon="-3.01994">
        <ele>9.27</ele>
        <time>2020-08-12T08:01:09Z</time>
      </trkpt>
      <trkpt lat="47.57053" lon="-3.01994">
        <ele>9.27</ele>
        <time>2020-08-12T08:01:10Z</time>
      </trkpt>
      <trkpt lat="47.5705" lon="-3.01991">
        <ele>8.79</ele>
        <time>2020-08-12T08:01:13Z</time>
      </trkpt>
      <trkpt lat="47.57033" lon="-3.01977">
        <ele>8.31</ele>
        <time>2020-08-12T08:01:28Z</time>
      </trkpt>
      <trkpt lat="47.57029" lon="-3.01974">
        <ele>7.83</ele>
        <time>2020-08-12T08:01:32Z</time>
      </trkpt>
      <trkpt lat="47.57013" lon="-3.01971">
        <ele>8.31</ele>
        <time>2020-08-12T08:01:47Z</time>
      </trkpt>
      <trkpt lat="47.57012" lon="-3.01971">
        <ele>8.31</ele>
        <time>2020-08-12T08:01:48Z</time>
      </trkpt>
      <trkpt lat="47.56997" lon="-3.01958">
        <ele>7.83</ele>
        <time>2020-08-12T08:02:04Z</time>
      </trkpt>
      <trkpt lat="47.56984" lon="-3.01948">
        <ele>7.35</ele>
        <time>2020-08-12T08:02:18Z</time>
      </trkpt>
      <trkpt lat="47.56966" lon="-3.01945">
        <ele>8.31</ele>
        <time>2020-08-12T08:02:36Z</time>
      </trkpt>
      <trkpt lat="47.56965" lon="-3.01945">
        <ele>8.31</ele>
        <time>2020-08-12T08:02:37Z</time>
      </trkpt>
      <trkpt lat="47.56946" lon="-3.01942">
        <ele>7.83</ele>
        <time>2020-08-12T08:02:54Z</time>
      </trkpt>
      <trkpt lat="47.56934" lon="-3.01942">
        <ele>8.31</ele>
        <time>2020-08-12T08:03:05Z</time>
      </trkpt>
      <trkpt lat="47.5693" lon="-3.0194">
        <ele>8.31</ele>
        <time>2020-08-12T08:03:09Z</time>
      </trkpt>
      <trkpt lat="47.56911" lon="-3.0193">
        <ele>7.83</ele>
        <time>2020-08-12T08:03:28Z</time>
      </trkpt>
      <trkpt lat="47.56894" lon="-3.01916">
        <ele>7.35</ele>
        <time>2020-08-12T08:03:44Z</time>
      </trkpt>
      <trkpt lat="47.5689" lon="-3.01912">
        <ele>7.35</ele>
        <time>2020-08-12T08:03:49Z</time>
      </trkpt>
      <trkpt lat="47.56873" lon="-3.01907">
        <ele>7.83</ele>
        <time>2020-08-12T08:04:06Z</time>
      </trkpt>
      <trkpt lat="47.56866" lon="-3.0191">
        <ele>7.35</ele>
        <time>2020-08-12T08:04:12Z</time>
      </trkpt>
      <trkpt lat="47.5685" lon="-3.01925">
        <ele>7.35</ele>
        <time>2020-08-12T08:04:29Z</time>
      </trkpt>
      <trkpt lat="47.56836" lon="-3.0194">
        <ele>8.31</ele>
        <time>2020-08-12T08:04:45Z</time>
      </trkpt>
      <trkpt lat="47.56828" lon="-3.0195">
        <ele>7.83</ele>
        <time>2020-08-12T08:04:58Z</time>
      </trkpt>
      <trkpt lat="47.56816" lon="-3.01942">
        <ele>6.87</ele>
        <time>2020-08-12T08:05:14Z</time>
      </trkpt>
      <trkpt lat="47.56807" lon="-3.01946">
        <ele>6.87</ele>
        <time>2020-08-12T08:05:26Z</time>
      </trkpt>
      <trkpt lat="47.56799" lon="-3.01952">
        <ele>6.87</ele>
        <time>2020-08-12T08:05:35Z</time>
      </trkpt>
      <trkpt lat="47.56786" lon="-3.0197">
        <ele>6.87</ele>
        <time>2020-08-12T08:05:51Z</time>
      </trkpt>
      <trkpt lat="47.56787" lon="-3.01975">
        <ele>6.87</ele>
        <time>2020-08-12T08:06:07Z</time>
      </trkpt>
      <trkpt lat="47.56785" lon="-3.01975">
        <ele>6.87</ele>
        <time>2020-08-12T08:06:27Z</time>
      </trkpt>
      <trkpt lat="47.56785" lon="-3.01973">
        <ele>6.87</ele>
        <time>2020-08-12T08:06:45Z</time>
      </trkpt>
      <trkpt lat="47.56785" lon="-3.01972">
        <ele>6.87</ele>
        <time>2020-08-12T08:07:05Z</time>
      </trkpt>
      <trkpt lat="47.56787" lon="-3.01975">
        <ele>6.87</ele>
        <time>2020-08-12T08:07:32Z</time>
      </trkpt>
      <trkpt lat="47.56787" lon="-3.01977">
        <ele>6.87</ele>
        <time>2020-08-12T08:07:57Z</time>
      </trkpt>
      <trkpt lat="47.56787" lon="-3.01983">
        <ele>7.35</ele>
        <time>2020-08-12T08:08:15Z</time>
      </trkpt>
      <trkpt lat="47.56782" lon="-3.01989">
        <ele>7.35</ele>
        <time>2020-08-12T08:08:29Z</time>
      </trkpt>
      <trkpt lat="47.56782" lon="-3.01993">
        <ele>7.35</ele>
        <time>2020-08-12T08:08:44Z</time>
      </trkpt>
      <trkpt lat="47.56781" lon="-3.01994">
        <ele>6.87</ele>
        <time>2020-08-12T08:09:04Z</time>
      </trkpt>
      <trkpt lat="47.5678" lon="-3.01995">
        <ele>6.87</ele>
        <time>2020-08-12T08:09:28Z</time>
      </trkpt>
      <trkpt lat="47.56779" lon="-3.01998">
        <ele>6.87</ele>
        <time>2020-08-12T08:09:42Z</time>
      </trkpt>
      <trkpt lat="47.56781" lon="-3.02002">
        <ele>7.35</ele>
        <time>2020-08-12T08:09:53Z</time>
      </trkpt>
      <trkpt lat="47.56785" lon="-3.02019">
        <ele>7.35</ele>
        <time>2020-08-12T08:10:08Z</time>
      </trkpt>
      <trkpt lat="47.5679" lon="-3.02032">
        <ele>7.35</ele>
        <time>2020-08-12T08:10:23Z</time>
      </trkpt>
      <trkpt lat="47.5679" lon="-3.0205">
        <ele>7.35</ele>
        <time>2020-08-12T08:10:38Z</time>
      </trkpt>
      <trkpt lat="47.56797" lon="-3.02066">
        <ele>6.87</ele>
        <time>2020-08-12T08:10:53Z</time>
      </trkpt>
      <trkpt lat="47.568" lon="-3.02084">
        <ele>7.83</ele>
        <time>2020-08-12T08:11:11Z</time>
      </trkpt>
      <trkpt lat="47.56803" lon="-3.02093">
        <ele>7.83</ele>
        <time>2020-08-12T08:11:19Z</time>
      </trkpt>
      <trkpt lat="47.56809" lon="-3.02119">
        <ele>7.35</ele>
        <time>2020-08-12T08:11:34Z</time>
      </trkpt>
      <trkpt lat="47.56811" lon="-3.02137">
        <ele>6.39</ele>
        <time>2020-08-12T08:11:50Z</time>
      </trkpt>
      <trkpt lat="47.5681" lon="-3.02154">
        <ele>6.87</ele>
        <time>2020-08-12T08:12:03Z</time>
      </trkpt>
      <trkpt lat="47.56808" lon="-3.02181">
        <ele>6.39</ele>
        <time>2020-08-12T08:12:20Z</time>
      </trkpt>
      <trkpt lat="47.56808" lon="-3.02197">
        <ele>5.91</ele>
        <time>2020-08-12T08:12:37Z</time>
      </trkpt>
      <trkpt lat="47.56802" lon="-3.0222">
        <ele>5.42</ele>
        <time>2020-08-12T08:12:50Z</time>
      </trkpt>
      <trkpt lat="47.56798" lon="-3.02234">
        <ele>5.91</ele>
        <time>2020-08-12T08:12:58Z</time>
      </trkpt>
      <trkpt lat="47.56789" lon="-3.02252">
        <ele>5.91</ele>
        <time>2020-08-12T08:13:12Z</time>
      </trkpt>
      <trkpt lat="47.56781" lon="-3.02271">
        <ele>6.39</ele>
        <time>2020-08-12T08:13:26Z</time>
      </trkpt>
      <trkpt lat="47.56771" lon="-3.02289">
        <ele>6.39</ele>
        <time>2020-08-12T08:13:40Z</time>
      </trkpt>
      <trkpt lat="47.56762" lon="-3.02309">
        <ele>5.91</ele>
        <time>2020-08-12T08:13:56Z</time>
      </trkpt>
      <trkpt lat="47.56762" lon="-3.02311">
        <ele>5.42</ele>
        <time>2020-08-12T08:13:57Z</time>
      </trkpt>
      <trkpt lat="47.56766" lon="-3.0233">
        <ele>6.39</ele>
        <time>2020-08-12T08:14:10Z</time>
      </trkpt>
      <trkpt lat="47.56767" lon="-3.02332">
        <ele>6.39</ele>
        <time>2020-08-12T08:14:12Z</time>
      </trkpt>
      <trkpt lat="47.56773" lon="-3.02352">
        <ele>5.91</ele>
        <time>2020-08-12T08:14:25Z</time>
      </trkpt>
      <trkpt lat="47.5678" lon="-3.02362">
        <ele>5.91</ele>
        <time>2020-08-12T08:14:34Z</time>
      </trkpt>
      <trkpt lat="47.56785" lon="-3.02365">
        <ele>6.39</ele>
        <time>2020-08-12T08:14:40Z</time>
      </trkpt>
      <trkpt lat="47.56793" lon="-3.02373">
        <ele>6.87</ele>
        <time>2020-08-12T08:14:52Z</time>
      </trkpt>
      <trkpt lat="47.56796" lon="-3.02375">
        <ele>6.39</ele>
        <time>2020-08-12T08:14:56Z</time>
      </trkpt>
      <trkpt lat="47.568" lon="-3.02378">
        <ele>6.39</ele>
        <time>2020-08-12T08:15:00Z</time>
      </trkpt>
      <trkpt lat="47.56811" lon="-3.02393">
        <ele>6.87</ele>
        <time>2020-08-12T08:15:13Z</time>
      </trkpt>
      <trkpt lat="47.56815" lon="-3.02404">
        <ele>6.39</ele>
        <time>2020-08-12T08:15:21Z</time>
      </trkpt>
      <trkpt lat="47.56819" lon="-3.02427">
        <ele>6.39</ele>
        <time>2020-08-12T08:15:36Z</time>
      </trkpt>
      <trkpt lat="47.56818" lon="-3.02431">
        <ele>5.91</ele>
        <time>2020-08-12T08:15:39Z</time>
      </trkpt>
      <trkpt lat="47.56822" lon="-3.02449">
        <ele>6.87</ele>
        <time>2020-08-12T08:15:51Z</time>
      </trkpt>
      <trkpt lat="47.56825" lon="-3.02464">
        <ele>6.87</ele>
        <time>2020-08-12T08:16:02Z</time>
      </trkpt>
      <trkpt lat="47.56833" lon="-3.02485">
        <ele>7.35</ele>
        <time>2020-08-12T08:16:18Z</time>
      </trkpt>
      <trkpt lat="47.56835" lon="-3.02491">
        <ele>6.87</ele>
        <time>2020-08-12T08:16:23Z</time>
      </trkpt>
      <trkpt lat="47.56836" lon="-3.02494">
        <ele>6.87</ele>
        <time>2020-08-12T08:16:25Z</time>
      </trkpt>
      <trkpt lat="47.5685" lon="-3.02506">
        <ele>6.39</ele>
        <time>2020-08-12T08:16:39Z</time>
      </trkpt>
      <trkpt lat="47.56852" lon="-3.02506">
        <ele>6.39</ele>
        <time>2020-08-12T08:16:41Z</time>
      </trkpt>
      <trkpt lat="47.56854" lon="-3.02509">
        <ele>6.87</ele>
        <time>2020-08-12T08:16:44Z</time>
      </trkpt>
      <trkpt lat="47.56865" lon="-3.02514">
        <ele>6.39</ele>
        <time>2020-08-12T08:16:55Z</time>
      </trkpt>
      <trkpt lat="47.56872" lon="-3.02512">
        <ele>5.91</ele>
        <time>2020-08-12T08:17:03Z</time>
      </trkpt>
      <trkpt lat="47.56888" lon="-3.02519">
        <ele>5.42</ele>
        <time>2020-08-12T08:17:17Z</time>
      </trkpt>
      <trkpt lat="47.56899" lon="-3.02517">
        <ele>5.91</ele>
        <time>2020-08-12T08:17:27Z</time>
      </trkpt>
      <trkpt lat="47.56905" lon="-3.02524">
        <ele>5.91</ele>
        <time>2020-08-12T08:17:35Z</time>
      </trkpt>
      <trkpt lat="47.56911" lon="-3.02529">
        <ele>5.91</ele>
        <time>2020-08-12T08:17:41Z</time>
      </trkpt>
      <trkpt lat="47.56925" lon="-3.02545">
        <ele>6.39</ele>
        <time>2020-08-12T08:17:57Z</time>
      </trkpt>
      <trkpt lat="47.5693" lon="-3.02551">
        <ele>6.87</ele>
        <time>2020-08-12T08:18:04Z</time>
      </trkpt>
      <trkpt lat="47.56931" lon="-3.02554">
        <ele>7.35</ele>
        <time>2020-08-12T08:18:06Z</time>
      </trkpt>
      <trkpt lat="47.56932" lon="-3.02555">
        <ele>6.87</ele>
        <time>2020-08-12T08:18:26Z</time>
      </trkpt>
      <trkpt lat="47.56933" lon="-3.02555">
        <ele>7.35</ele>
        <time>2020-08-12T08:18:45Z</time>
      </trkpt>
      <trkpt lat="47.56933" lon="-3.02556">
        <ele>7.35</ele>
        <time>2020-08-12T08:19:00Z</time>
      </trkpt>
      <trkpt lat="47.56934" lon="-3.0256">
        <ele>7.35</ele>
        <time>2020-08-12T08:19:03Z</time>
      </trkpt>
      <trkpt lat="47.56939" lon="-3.02574">
        <ele>7.83</ele>
        <time>2020-08-12T08:19:13Z</time>
      </trkpt>
      <trkpt lat="47.56947" lon="-3.0259">
        <ele>8.31</ele>
        <time>2020-08-12T08:19:25Z</time>
      </trkpt>
      <trkpt lat="47.56956" lon="-3.02599">
        <ele>8.31</ele>
        <time>2020-08-12T08:19:35Z</time>
      </trkpt>
      <trkpt lat="47.56959" lon="-3.02616">
        <ele>8.31</ele>
        <time>2020-08-12T08:19:46Z</time>
      </trkpt>
      <trkpt lat="47.56963" lon="-3.02626">
        <ele>8.31</ele>
        <time>2020-08-12T08:19:59Z</time>
      </trkpt>
      <trkpt lat="47.56969" lon="-3.02632">
        <ele>8.79</ele>
        <time>2020-08-12T08:20:08Z</time>
      </trkpt>
      <trkpt lat="47.56975" lon="-3.02637">
        <ele>8.79</ele>
        <time>2020-08-12T08:20:17Z</time>
      </trkpt>
      <trkpt lat="47.56979" lon="-3.0264">
        <ele>8.79</ele>
        <time>2020-08-12T08:20:21Z</time>
      </trkpt>
      <trkpt lat="47.56985" lon="-3.02646">
        <ele>8.79</ele>
        <time>2020-08-12T08:20:29Z</time>
      </trkpt>
      <trkpt lat="47.56988" lon="-3.0265">
        <ele>9.27</ele>
        <time>2020-08-12T08:20:33Z</time>
      </trkpt>
      <trkpt lat="47.57004" lon="-3.02661">
        <ele>9.27</ele>
        <time>2020-08-12T08:20:50Z</time>
      </trkpt>
      <trkpt lat="47.5701" lon="-3.02669">
        <ele>9.27</ele>
        <time>2020-08-12T08:21:03Z</time>
      </trkpt>
      <trkpt lat="47.5701" lon="-3.02671">
        <ele>9.27</ele>
        <time>2020-08-12T08:21:04Z</time>
      </trkpt>
      <trkpt lat="47.57018" lon="-3.02679">
        <ele>8.31</ele>
        <time>2020-08-12T08:21:14Z</time>
      </trkpt>
      <trkpt lat="47.57019" lon="-3.02682">
        <ele>8.31</ele>
        <time>2020-08-12T08:21:17Z</time>
      </trkpt>
      <trkpt lat="47.57025" lon="-3.02681">
        <ele>8.79</ele>
        <time>2020-08-12T08:21:24Z</time>
      </trkpt>
      <trkpt lat="47.57037" lon="-3.02676">
        <ele>6.87</ele>
        <time>2020-08-12T08:21:38Z</time>
      </trkpt>
      <trkpt lat="47.5704" lon="-3.02677">
        <ele>6.87</ele>
        <time>2020-08-12T08:21:44Z</time>
      </trkpt>
      <trkpt lat="47.57054" lon="-3.02675">
        <ele>7.83</ele>
        <time>2020-08-12T08:21:59Z</time>
      </trkpt>
      <trkpt lat="47.57064" lon="-3.02677">
        <ele>7.35</ele>
        <time>2020-08-12T08:22:09Z</time>
      </trkpt>
      <trkpt lat="47.5708" lon="-3.02693">
        <ele>6.87</ele>
        <time>2020-08-12T08:22:26Z</time>
      </trkpt>
      <trkpt lat="47.57084" lon="-3.02698">
        <ele>6.87</ele>
        <time>2020-08-12T08:22:30Z</time>
      </trkpt>
      <trkpt lat="47.57098" lon="-3.02716">
        <ele>7.83</ele>
        <time>2020-08-12T08:22:46Z</time>
      </trkpt>
      <trkpt lat="47.57099" lon="-3.0272">
        <ele>7.83</ele>
        <time>2020-08-12T08:22:49Z</time>
      </trkpt>
      <trkpt lat="47.57099" lon="-3.02728">
        <ele>7.83</ele>
        <time>2020-08-12T08:22:55Z</time>
      </trkpt>
      <trkpt lat="47.57101" lon="-3.02732">
        <ele>7.35</ele>
        <time>2020-08-12T08:22:58Z</time>
      </trkpt>
      <trkpt lat="47.57109" lon="-3.02746">
        <ele>7.35</ele>
        <time>2020-08-12T08:23:10Z</time>
      </trkpt>
      <trkpt lat="47.57113" lon="-3.02755">
        <ele>7.83</ele>
        <time>2020-08-12T08:23:17Z</time>
      </trkpt>
      <trkpt lat="47.57122" lon="-3.02766">
        <ele>6.87</ele>
        <time>2020-08-12T08:23:31Z</time>
      </trkpt>
      <trkpt lat="47.57125" lon="-3.02769">
        <ele>6.39</ele>
        <time>2020-08-12T08:23:35Z</time>
      </trkpt>
      <trkpt lat="47.5714" lon="-3.02773">
        <ele>6.39</ele>
        <time>2020-08-12T08:23:50Z</time>
      </trkpt>
      <trkpt lat="47.57154" lon="-3.02769">
        <ele>6.87</ele>
        <time>2020-08-12T08:24:04Z</time>
      </trkpt>
      <trkpt lat="47.57163" lon="-3.02761">
        <ele>6.87</ele>
        <time>2020-08-12T08:24:15Z</time>
      </trkpt>
      <trkpt lat="47.57168" lon="-3.02754">
        <ele>6.87</ele>
        <time>2020-08-12T08:24:21Z</time>
      </trkpt>
      <trkpt lat="47.57178" lon="-3.02736">
        <ele>6.87</ele>
        <time>2020-08-12T08:24:36Z</time>
      </trkpt>
      <trkpt lat="47.57179" lon="-3.02733">
        <ele>6.39</ele>
        <time>2020-08-12T08:24:40Z</time>
      </trkpt>
      <trkpt lat="47.57183" lon="-3.02725">
        <ele>6.87</ele>
        <time>2020-08-12T08:24:47Z</time>
      </trkpt>
      <trkpt lat="47.57192" lon="-3.02706">
        <ele>6.87</ele>
        <time>2020-08-12T08:25:01Z</time>
      </trkpt>
      <trkpt lat="47.57197" lon="-3.02698">
        <ele>5.42</ele>
        <time>2020-08-12T08:25:14Z</time>
      </trkpt>
      <trkpt lat="47.57203" lon="-3.02698">
        <ele>5.42</ele>
        <time>2020-08-12T08:25:21Z</time>
      </trkpt>
      <trkpt lat="47.57208" lon="-3.02697">
        <ele>5.42</ele>
        <time>2020-08-12T08:25:27Z</time>
      </trkpt>
      <trkpt lat="47.57216" lon="-3.02698">
        <ele>5.42</ele>
        <time>2020-08-12T08:25:35Z</time>
      </trkpt>
      <trkpt lat="47.5722" lon="-3.02699">
        <ele>5.42</ele>
        <time>2020-08-12T08:25:39Z</time>
      </trkpt>
      <trkpt lat="47.57231" lon="-3.02703">
        <ele>5.42</ele>
        <time>2020-08-12T08:25:50Z</time>
      </trkpt>
      <trkpt lat="47.57243" lon="-3.02711">
        <ele>5.42</ele>
        <time>2020-08-12T08:26:05Z</time>
      </trkpt>
      <trkpt lat="47.57251" lon="-3.02715">
        <ele>5.91</ele>
        <time>2020-08-12T08:26:19Z</time>
      </trkpt>
      <trkpt lat="47.57255" lon="-3.02718">
        <ele>5.91</ele>
        <time>2020-08-12T08:26:45Z</time>
      </trkpt>
      <trkpt lat="47.57256" lon="-3.02717">
        <ele>5.42</ele>
        <time>2020-08-12T08:27:10Z</time>
      </trkpt>
      <trkpt lat="47.57256" lon="-3.02717">
        <ele>5.91</ele>
        <time>2020-08-12T08:27:37Z</time>
      </trkpt>
      <trkpt lat="47.57258" lon="-3.02721">
        <ele>5.42</ele>
        <time>2020-08-12T08:27:57Z</time>
      </trkpt>
      <trkpt lat="47.57259" lon="-3.02725">
        <ele>5.91</ele>
        <time>2020-08-12T08:28:02Z</time>
      </trkpt>
      <trkpt lat="47.57262" lon="-3.02733">
        <ele>5.42</ele>
        <time>2020-08-12T08:28:08Z</time>
      </trkpt>
      <trkpt lat="47.57267" lon="-3.02749">
        <ele>5.42</ele>
        <time>2020-08-12T08:28:17Z</time>
      </trkpt>
      <trkpt lat="47.57269" lon="-3.02755">
        <ele>5.42</ele>
        <time>2020-08-12T08:28:21Z</time>
      </trkpt>
      <trkpt lat="47.57273" lon="-3.02765">
        <ele>4.94</ele>
        <time>2020-08-12T08:28:27Z</time>
      </trkpt>
      <trkpt lat="47.57282" lon="-3.02787">
        <ele>4.94</ele>
        <time>2020-08-12T08:28:41Z</time>
      </trkpt>
      <trkpt lat="47.57283" lon="-3.0279">
        <ele>4.94</ele>
        <time>2020-08-12T08:28:43Z</time>
      </trkpt>
      <trkpt lat="47.57289" lon="-3.02805">
        <ele>4.94</ele>
        <time>2020-08-12T08:28:52Z</time>
      </trkpt>
      <trkpt lat="47.57298" lon="-3.0282">
        <ele>5.42</ele>
        <time>2020-08-12T08:29:04Z</time>
      </trkpt>
      <trkpt lat="47.57308" lon="-3.02844">
        <ele>4.94</ele>
        <time>2020-08-12T08:29:21Z</time>
      </trkpt>
      <trkpt lat="47.57316" lon="-3.02863">
        <ele>4.94</ele>
        <time>2020-08-12T08:29:34Z</time>
      </trkpt>
      <trkpt lat="47.57324" lon="-3.02886">
        <ele>5.42</ele>
        <time>2020-08-12T08:29:49Z</time>
      </trkpt>
      <trkpt lat="47.57328" lon="-3.02902">
        <ele>4.94</ele>
        <time>2020-08-12T08:29:59Z</time>
      </trkpt>
      <trkpt lat="47.57333" lon="-3.02923">
        <ele>4.94</ele>
        <time>2020-08-12T08:30:13Z</time>
      </trkpt>
      <trkpt lat="47.57336" lon="-3.02944">
        <ele>4.94</ele>
        <time>2020-08-12T08:30:27Z</time>
      </trkpt>
      <trkpt lat="47.57336" lon="-3.02952">
        <ele>4.94</ele>
        <time>2020-08-12T08:30:31Z</time>
      </trkpt>
      <trkpt lat="47.57337" lon="-3.0296">
        <ele>4.94</ele>
        <time>2020-08-12T08:30:36Z</time>
      </trkpt>
      <trkpt lat="47.57339" lon="-3.02979">
        <ele>4.94</ele>
        <time>2020-08-12T08:30:47Z</time>
      </trkpt>
      <trkpt lat="47.5734" lon="-3.03005">
        <ele>5.42</ele>
        <time>2020-08-12T08:31:03Z</time>
      </trkpt>
      <trkpt lat="47.5734" lon="-3.03007">
        <ele>4.94</ele>
        <time>2020-08-12T08:31:04Z</time>
      </trkpt>
      <trkpt lat="47.57341" lon="-3.03027">
        <ele>5.42</ele>
        <time>2020-08-12T08:31:17Z</time>
      </trkpt>
      <trkpt lat="47.57341" lon="-3.03046">
        <ele>4.94</ele>
        <time>2020-08-12T08:31:28Z</time>
      </trkpt>
      <trkpt lat="47.57341" lon="-3.03063">
        <ele>4.94</ele>
        <time>2020-08-12T08:31:38Z</time>
      </trkpt>
      <trkpt lat="47.5734" lon="-3.03073">
        <ele>4.94</ele>
        <time>2020-08-12T08:31:44Z</time>
      </trkpt>
      <trkpt lat="47.5734" lon="-3.03088">
        <ele>4.94</ele>
        <time>2020-08-12T08:31:53Z</time>
      </trkpt>
      <trkpt lat="47.5734" lon="-3.03097">
        <ele>4.94</ele>
        <time>2020-08-12T08:31:58Z</time>
      </trkpt>
      <trkpt lat="47.57339" lon="-3.03114">
        <ele>5.42</ele>
        <time>2020-08-12T08:32:08Z</time>
      </trkpt>
      <trkpt lat="47.57339" lon="-3.03138">
        <ele>4.94</ele>
        <time>2020-08-12T08:32:22Z</time>
      </trkpt>
      <trkpt lat="47.57338" lon="-3.03146">
        <ele>4.94</ele>
        <time>2020-08-12T08:32:27Z</time>
      </trkpt>
      <trkpt lat="47.57339" lon="-3.03148">
        <ele>4.94</ele>
        <time>2020-08-12T08:32:29Z</time>
      </trkpt>
      <trkpt lat="47.57338" lon="-3.03162">
        <ele>4.94</ele>
        <time>2020-08-12T08:32:38Z</time>
      </trkpt>
      <trkpt lat="47.57336" lon="-3.03187">
        <ele>4.46</ele>
        <time>2020-08-12T08:32:52Z</time>
      </trkpt>
      <trkpt lat="47.57335" lon="-3.03193">
        <ele>4.94</ele>
        <time>2020-08-12T08:32:56Z</time>
      </trkpt>
      <trkpt lat="47.57334" lon="-3.03198">
        <ele>4.94</ele>
        <time>2020-08-12T08:32:59Z</time>
      </trkpt>
      <trkpt lat="47.57333" lon="-3.03213">
        <ele>4.46</ele>
        <time>2020-08-12T08:33:08Z</time>
      </trkpt>
      <trkpt lat="47.57331" lon="-3.03236">
        <ele>4.46</ele>
        <time>2020-08-12T08:33:22Z</time>
      </trkpt>
      <trkpt lat="47.57328" lon="-3.03259">
        <ele>4.94</ele>
        <time>2020-08-12T08:33:35Z</time>
      </trkpt>
      <trkpt lat="47.57326" lon="-3.0328">
        <ele>4.46</ele>
        <time>2020-08-12T08:33:47Z</time>
      </trkpt>
      <trkpt lat="47.57324" lon="-3.03303">
        <ele>4.94</ele>
        <time>2020-08-12T08:34:01Z</time>
      </trkpt>
      <trkpt lat="47.57324" lon="-3.03304">
        <ele>4.94</ele>
        <time>2020-08-12T08:34:02Z</time>
      </trkpt>
      <trkpt lat="47.57322" lon="-3.03324">
        <ele>4.46</ele>
        <time>2020-08-12T08:34:14Z</time>
      </trkpt>
      <trkpt lat="47.57319" lon="-3.03342">
        <ele>3.98</ele>
        <time>2020-08-12T08:34:26Z</time>
      </trkpt>
      <trkpt lat="47.57318" lon="-3.03345">
        <ele>3.98</ele>
        <time>2020-08-12T08:34:28Z</time>
      </trkpt>
      <trkpt lat="47.57318" lon="-3.0335">
        <ele>4.46</ele>
        <time>2020-08-12T08:34:31Z</time>
      </trkpt>
      <trkpt lat="47.57314" lon="-3.03368">
        <ele>3.98</ele>
        <time>2020-08-12T08:34:44Z</time>
      </trkpt>
      <trkpt lat="47.57307" lon="-3.03379">
        <ele>3.98</ele>
        <time>2020-08-12T08:34:56Z</time>
      </trkpt>
      <trkpt lat="47.57304" lon="-3.03391">
        <ele>3.98</ele>
        <time>2020-08-12T08:35:09Z</time>
      </trkpt>
      <trkpt lat="47.57305" lon="-3.03399">
        <ele>3.98</ele>
        <time>2020-08-12T08:35:17Z</time>
      </trkpt>
      <trkpt lat="47.57307" lon="-3.03412">
        <ele>3.98</ele>
        <time>2020-08-12T08:35:25Z</time>
      </trkpt>
      <trkpt lat="47.57307" lon="-3.03415">
        <ele>3.98</ele>
        <time>2020-08-12T08:35:27Z</time>
      </trkpt>
      <trkpt lat="47.57309" lon="-3.03421">
        <ele>3.98</ele>
        <time>2020-08-12T08:35:31Z</time>
      </trkpt>
      <trkpt lat="47.5731" lon="-3.03431">
        <ele>3.98</ele>
        <time>2020-08-12T08:35:37Z</time>
      </trkpt>
      <trkpt lat="47.57311" lon="-3.03438">
        <ele>3.5</ele>
        <time>2020-08-12T08:35:41Z</time>
      </trkpt>
      <trkpt lat="47.57312" lon="-3.03444">
        <ele>3.5</ele>
        <time>2020-08-12T08:35:45Z</time>
      </trkpt>
      <trkpt lat="47.57313" lon="-3.03448">
        <ele>3.5</ele>
        <time>2020-08-12T08:35:48Z</time>
      </trkpt>
      <trkpt lat="47.57317" lon="-3.03471">
        <ele>3.98</ele>
        <time>2020-08-12T08:36:02Z</time>
      </trkpt>
      <trkpt lat="47.57322" lon="-3.03492">
        <ele>3.5</ele>
        <time>2020-08-12T08:36:15Z</time>
      </trkpt>
      <trkpt lat="47.57323" lon="-3.03499">
        <ele>3.02</ele>
        <time>2020-08-12T08:36:20Z</time>
      </trkpt>
      <trkpt lat="47.57326" lon="-3.0351">
        <ele>3.02</ele>
        <time>2020-08-12T08:36:28Z</time>
      </trkpt>
      <trkpt lat="47.57328" lon="-3.03518">
        <ele>3.5</ele>
        <time>2020-08-12T08:36:34Z</time>
      </trkpt>
      <trkpt lat="47.57331" lon="-3.03538">
        <ele>3.02</ele>
        <time>2020-08-12T08:36:47Z</time>
      </trkpt>
      <trkpt lat="47.57334" lon="-3.03558">
        <ele>2.54</ele>
        <time>2020-08-12T08:37:00Z</time>
      </trkpt>
      <trkpt lat="47.57334" lon="-3.0356">
        <ele>3.02</ele>
        <time>2020-08-12T08:37:01Z</time>
      </trkpt>
      <trkpt lat="47.57334" lon="-3.03564">
        <ele>2.06</ele>
        <time>2020-08-12T08:37:03Z</time>
      </trkpt>
      <trkpt lat="47.57337" lon="-3.03583">
        <ele>2.06</ele>
        <time>2020-08-12T08:37:16Z</time>
      </trkpt>
      <trkpt lat="47.57337" lon="-3.03584">
        <ele>2.06</ele>
        <time>2020-08-12T08:37:17Z</time>
      </trkpt>
      <trkpt lat="47.57338" lon="-3.03587">
        <ele>2.54</ele>
        <time>2020-08-12T08:37:20Z</time>
      </trkpt>
      <trkpt lat="47.57337" lon="-3.03592">
        <ele>2.54</ele>
        <time>2020-08-12T08:37:23Z</time>
      </trkpt>
      <trkpt lat="47.57339" lon="-3.03602">
        <ele>2.06</ele>
        <time>2020-08-12T08:37:31Z</time>
      </trkpt>
      <trkpt lat="47.57339" lon="-3.03626">
        <ele>1.58</ele>
        <time>2020-08-12T08:37:46Z</time>
      </trkpt>
      <trkpt lat="47.5734" lon="-3.03641">
        <ele>2.06</ele>
        <time>2020-08-12T08:37:57Z</time>
      </trkpt>
      <trkpt lat="47.5734" lon="-3.03643">
        <ele>1.58</ele>
        <time>2020-08-12T08:37:58Z</time>
      </trkpt>
      <trkpt lat="47.57341" lon="-3.03661">
        <ele>2.06</ele>
        <time>2020-08-12T08:38:11Z</time>
      </trkpt>
      <trkpt lat="47.57343" lon="-3.03685">
        <ele>2.06</ele>
        <time>2020-08-12T08:38:26Z</time>
      </trkpt>
      <trkpt lat="47.57344" lon="-3.03703">
        <ele>1.58</ele>
        <time>2020-08-12T08:38:38Z</time>
      </trkpt>
      <trkpt lat="47.57344" lon="-3.03712">
        <ele>1.58</ele>
        <time>2020-08-12T08:38:45Z</time>
      </trkpt>
      <trkpt lat="47.57344" lon="-3.03729">
        <ele>2.06</ele>
        <time>2020-08-12T08:38:56Z</time>
      </trkpt>
      <trkpt lat="47.57344" lon="-3.03736">
        <ele>1.58</ele>
        <time>2020-08-12T08:39:00Z</time>
      </trkpt>
      <trkpt lat="47.57343" lon="-3.03741">
        <ele>1.58</ele>
        <time>2020-08-12T08:39:03Z</time>
      </trkpt>
      <trkpt lat="47.57343" lon="-3.03754">
        <ele>1.1</ele>
        <time>2020-08-12T08:39:15Z</time>
      </trkpt>
      <trkpt lat="47.57343" lon="-3.03761">
        <ele>1.58</ele>
        <time>2020-08-12T08:39:20Z</time>
      </trkpt>
      <trkpt lat="47.57342" lon="-3.03765">
        <ele>1.58</ele>
        <time>2020-08-12T08:39:23Z</time>
      </trkpt>
      <trkpt lat="47.57342" lon="-3.03784">
        <ele>1.58</ele>
        <time>2020-08-12T08:39:37Z</time>
      </trkpt>
      <trkpt lat="47.57341" lon="-3.03798">
        <ele>2.06</ele>
        <time>2020-08-12T08:39:48Z</time>
      </trkpt>
      <trkpt lat="47.57339" lon="-3.03804">
        <ele>1.58</ele>
        <time>2020-08-12T08:40:01Z</time>
      </trkpt>
      <trkpt lat="47.5734" lon="-3.03802">
        <ele>1.58</ele>
        <time>2020-08-12T08:40:17Z</time>
      </trkpt>
      <trkpt lat="47.57344" lon="-3.03803">
        <ele>2.54</ele>
        <time>2020-08-12T08:40:28Z</time>
      </trkpt>
      <trkpt lat="47.57352" lon="-3.03808">
        <ele>3.02</ele>
        <time>2020-08-12T08:40:43Z</time>
      </trkpt>
      <trkpt lat="47.57353" lon="-3.03809">
        <ele>2.54</ele>
        <time>2020-08-12T08:40:44Z</time>
      </trkpt>
      <trkpt lat="47.57357" lon="-3.03815">
        <ele>4.94</ele>
        <time>2020-08-12T08:40:57Z</time>
      </trkpt>
      <trkpt lat="47.57357" lon="-3.03815">
        <ele>4.46</ele>
        <time>2020-08-12T08:41:24Z</time>
      </trkpt>
      <trkpt lat="47.57356" lon="-3.03814">
        <ele>4.46</ele>
        <time>2020-08-12T08:41:49Z</time>
      </trkpt>
      <trkpt lat="47.57356" lon="-3.03809">
        <ele>3.98</ele>
        <time>2020-08-12T08:41:56Z</time>
      </trkpt>
      <trkpt lat="47.57357" lon="-3.03803">
        <ele>3.98</ele>
        <time>2020-08-12T08:42:02Z</time>
      </trkpt>
      <trkpt lat="47.57359" lon="-3.03797">
        <ele>3.98</ele>
        <time>2020-08-12T08:42:09Z</time>
      </trkpt>
      <trkpt lat="47.57359" lon="-3.03793">
        <ele>3.98</ele>
        <time>2020-08-12T08:42:12Z</time>
      </trkpt>
      <trkpt lat="47.57359" lon="-3.03788">
        <ele>3.98</ele>
        <time>2020-08-12T08:42:16Z</time>
      </trkpt>
      <trkpt lat="47.57359" lon="-3.03786">
        <ele>3.98</ele>
        <time>2020-08-12T08:42:18Z</time>
      </trkpt>
      <trkpt lat="47.57359" lon="-3.03778">
        <ele>3.02</ele>
        <time>2020-08-12T08:42:33Z</time>
      </trkpt>
      <trkpt lat="47.5736" lon="-3.03774">
        <ele>3.02</ele>
        <time>2020-08-12T08:42:48Z</time>
      </trkpt>
      <trkpt lat="47.5736" lon="-3.03771">
        <ele>3.5</ele>
        <time>2020-08-12T08:43:04Z</time>
      </trkpt>
      <trkpt lat="47.5736" lon="-3.03768">
        <ele>3.98</ele>
        <time>2020-08-12T08:43:06Z</time>
      </trkpt>
      <trkpt lat="47.57362" lon="-3.03759">
        <ele>3.5</ele>
        <time>2020-08-12T08:43:14Z</time>
      </trkpt>
      <trkpt lat="47.57369" lon="-3.0376">
        <ele>4.46</ele>
        <time>2020-08-12T08:43:28Z</time>
      </trkpt>
      <trkpt lat="47.5737" lon="-3.0376">
        <ele>4.46</ele>
        <time>2020-08-12T08:43:44Z</time>
      </trkpt>
      <trkpt lat="47.57373" lon="-3.03749">
        <ele>4.94</ele>
        <time>2020-08-12T08:43:57Z</time>
      </trkpt>
      <trkpt lat="47.57374" lon="-3.03738">
        <ele>5.42</ele>
        <time>2020-08-12T08:44:06Z</time>
      </trkpt>
      <trkpt lat="47.57374" lon="-3.03721">
        <ele>5.42</ele>
        <time>2020-08-12T08:44:19Z</time>
      </trkpt>
      <trkpt lat="47.57374" lon="-3.0372">
        <ele>5.91</ele>
        <time>2020-08-12T08:44:20Z</time>
      </trkpt>
      <trkpt lat="47.57374" lon="-3.03717">
        <ele>5.91</ele>
        <time>2020-08-12T08:44:22Z</time>
      </trkpt>
      <trkpt lat="47.57375" lon="-3.03702">
        <ele>6.39</ele>
        <time>2020-08-12T08:44:33Z</time>
      </trkpt>
      <trkpt lat="47.57376" lon="-3.03682">
        <ele>6.39</ele>
        <time>2020-08-12T08:44:48Z</time>
      </trkpt>
      <trkpt lat="47.57377" lon="-3.03661">
        <ele>6.39</ele>
        <time>2020-08-12T08:45:03Z</time>
      </trkpt>
      <trkpt lat="47.57378" lon="-3.03654">
        <ele>5.91</ele>
        <time>2020-08-12T08:45:08Z</time>
      </trkpt>
      <trkpt lat="47.57378" lon="-3.03651">
        <ele>5.91</ele>
        <time>2020-08-12T08:45:10Z</time>
      </trkpt>
      <trkpt lat="47.5738" lon="-3.03644">
        <ele>6.39</ele>
        <time>2020-08-12T08:45:16Z</time>
      </trkpt>
      <trkpt lat="47.5738" lon="-3.03641">
        <ele>6.39</ele>
        <time>2020-08-12T08:45:18Z</time>
      </trkpt>
      <trkpt lat="47.57381" lon="-3.03631">
        <ele>6.39</ele>
        <time>2020-08-12T08:45:24Z</time>
      </trkpt>
      <trkpt lat="47.5738" lon="-3.03628">
        <ele>6.39</ele>
        <time>2020-08-12T08:45:26Z</time>
      </trkpt>
      <trkpt lat="47.57381" lon="-3.03609">
        <ele>6.39</ele>
        <time>2020-08-12T08:45:39Z</time>
      </trkpt>
      <trkpt lat="47.57381" lon="-3.03594">
        <ele>5.42</ele>
        <time>2020-08-12T08:45:52Z</time>
      </trkpt>
      <trkpt lat="47.5739" lon="-3.03588">
        <ele>3.98</ele>
        <time>2020-08-12T08:46:05Z</time>
      </trkpt>
      <trkpt lat="47.57392" lon="-3.03582">
        <ele>3.5</ele>
        <time>2020-08-12T08:46:17Z</time>
      </trkpt>
      <trkpt lat="47.57392" lon="-3.03575">
        <ele>3.5</ele>
        <time>2020-08-12T08:46:22Z</time>
      </trkpt>
      <trkpt lat="47.57392" lon="-3.0355">
        <ele>4.46</ele>
        <time>2020-08-12T08:46:36Z</time>
      </trkpt>
      <trkpt lat="47.57393" lon="-3.03542">
        <ele>5.42</ele>
        <time>2020-08-12T08:46:42Z</time>
      </trkpt>
      <trkpt lat="47.57394" lon="-3.03524">
        <ele>4.94</ele>
        <time>2020-08-12T08:46:56Z</time>
      </trkpt>
      <trkpt lat="47.57392" lon="-3.03506">
        <ele>4.94</ele>
        <time>2020-08-12T08:47:09Z</time>
      </trkpt>
      <trkpt lat="47.57392" lon="-3.03493">
        <ele>4.94</ele>
        <time>2020-08-12T08:47:16Z</time>
      </trkpt>
      <trkpt lat="47.57391" lon="-3.03473">
        <ele>4.94</ele>
        <time>2020-08-12T08:47:29Z</time>
      </trkpt>
      <trkpt lat="47.57394" lon="-3.03464">
        <ele>4.94</ele>
        <time>2020-08-12T08:47:47Z</time>
      </trkpt>
      <trkpt lat="47.57394" lon="-3.03456">
        <ele>4.94</ele>
        <time>2020-08-12T08:48:04Z</time>
      </trkpt>
      <trkpt lat="47.57392" lon="-3.03452">
        <ele>4.94</ele>
        <time>2020-08-12T08:48:07Z</time>
      </trkpt>
      <trkpt lat="47.5739" lon="-3.03439">
        <ele>4.94</ele>
        <time>2020-08-12T08:48:14Z</time>
      </trkpt>
      <trkpt lat="47.57386" lon="-3.03429">
        <ele>4.46</ele>
        <time>2020-08-12T08:48:21Z</time>
      </trkpt>
      <trkpt lat="47.57382" lon="-3.03402">
        <ele>4.46</ele>
        <time>2020-08-12T08:48:36Z</time>
      </trkpt>
      <trkpt lat="47.57382" lon="-3.034">
        <ele>4.46</ele>
        <time>2020-08-12T08:48:37Z</time>
      </trkpt>
      <trkpt lat="47.57374" lon="-3.0338">
        <ele>4.46</ele>
        <time>2020-08-12T08:48:50Z</time>
      </trkpt>
      <trkpt lat="47.5737" lon="-3.0337">
        <ele>4.46</ele>
        <time>2020-08-12T08:49:01Z</time>
      </trkpt>
      <trkpt lat="47.57367" lon="-3.03357">
        <ele>4.46</ele>
        <time>2020-08-12T08:49:08Z</time>
      </trkpt>
      <trkpt lat="47.57362" lon="-3.03335">
        <ele>4.46</ele>
        <time>2020-08-12T08:49:22Z</time>
      </trkpt>
      <trkpt lat="47.57357" lon="-3.03314">
        <ele>4.46</ele>
        <time>2020-08-12T08:49:38Z</time>
      </trkpt>
      <trkpt lat="47.57359" lon="-3.03296">
        <ele>4.94</ele>
        <time>2020-08-12T08:49:52Z</time>
      </trkpt>
      <trkpt lat="47.57361" lon="-3.0328">
        <ele>4.94</ele>
        <time>2020-08-12T08:50:03Z</time>
      </trkpt>
      <trkpt lat="47.57365" lon="-3.03261">
        <ele>4.94</ele>
        <time>2020-08-12T08:50:18Z</time>
      </trkpt>
      <trkpt lat="47.57366" lon="-3.03257">
        <ele>4.94</ele>
        <time>2020-08-12T08:50:23Z</time>
      </trkpt>
      <trkpt lat="47.57367" lon="-3.03239">
        <ele>5.42</ele>
        <time>2020-08-12T08:50:36Z</time>
      </trkpt>
      <trkpt lat="47.57372" lon="-3.03222">
        <ele>5.42</ele>
        <time>2020-08-12T08:50:50Z</time>
      </trkpt>
      <trkpt lat="47.57372" lon="-3.03213">
        <ele>5.42</ele>
        <time>2020-08-12T08:51:00Z</time>
      </trkpt>
      <trkpt lat="47.57376" lon="-3.03192">
        <ele>4.94</ele>
        <time>2020-08-12T08:51:13Z</time>
      </trkpt>
      <trkpt lat="47.57381" lon="-3.03174">
        <ele>4.46</ele>
        <time>2020-08-12T08:51:29Z</time>
      </trkpt>
      <trkpt lat="47.5738" lon="-3.03173">
        <ele>4.46</ele>
        <time>2020-08-12T08:51:52Z</time>
      </trkpt>
      <trkpt lat="47.57384" lon="-3.03152">
        <ele>3.5</ele>
        <time>2020-08-12T08:52:08Z</time>
      </trkpt>
      <trkpt lat="47.57389" lon="-3.03136">
        <ele>3.98</ele>
        <time>2020-08-12T08:52:18Z</time>
      </trkpt>
      <trkpt lat="47.5739" lon="-3.03131">
        <ele>3.5</ele>
        <time>2020-08-12T08:52:21Z</time>
      </trkpt>
      <trkpt lat="47.57391" lon="-3.03125">
        <ele>3.98</ele>
        <time>2020-08-12T08:52:25Z</time>
      </trkpt>
      <trkpt lat="47.57394" lon="-3.0311">
        <ele>3.98</ele>
        <time>2020-08-12T08:52:36Z</time>
      </trkpt>
      <trkpt lat="47.57394" lon="-3.031">
        <ele>3.98</ele>
        <time>2020-08-12T08:52:42Z</time>
      </trkpt>
      <trkpt lat="47.57395" lon="-3.03083">
        <ele>3.5</ele>
        <time>2020-08-12T08:52:53Z</time>
      </trkpt>
      <trkpt lat="47.57394" lon="-3.03076">
        <ele>3.98</ele>
        <time>2020-08-12T08:52:58Z</time>
      </trkpt>
      <trkpt lat="47.57394" lon="-3.03055">
        <ele>3.98</ele>
        <time>2020-08-12T08:53:09Z</time>
      </trkpt>
      <trkpt lat="47.57393" lon="-3.03051">
        <ele>4.46</ele>
        <time>2020-08-12T08:53:12Z</time>
      </trkpt>
      <trkpt lat="47.5739" lon="-3.03029">
        <ele>4.46</ele>
        <time>2020-08-12T08:53:26Z</time>
      </trkpt>
      <trkpt lat="47.5739" lon="-3.03026">
        <ele>4.94</ele>
        <time>2020-08-12T08:53:34Z</time>
      </trkpt>
      <trkpt lat="47.57387" lon="-3.03002">
        <ele>5.42</ele>
        <time>2020-08-12T08:53:49Z</time>
      </trkpt>
      <trkpt lat="47.57387" lon="-3.02993">
        <ele>5.42</ele>
        <time>2020-08-12T08:53:54Z</time>
      </trkpt>
      <trkpt lat="47.57386" lon="-3.02984">
        <ele>5.91</ele>
        <time>2020-08-12T08:53:59Z</time>
      </trkpt>
      <trkpt lat="47.57385" lon="-3.02981">
        <ele>5.91</ele>
        <time>2020-08-12T08:54:01Z</time>
      </trkpt>
      <trkpt lat="47.57386" lon="-3.02969">
        <ele>6.39</ele>
        <time>2020-08-12T08:54:09Z</time>
      </trkpt>
      <trkpt lat="47.57387" lon="-3.02949">
        <ele>6.39</ele>
        <time>2020-08-12T08:54:20Z</time>
      </trkpt>
      <trkpt lat="47.57386" lon="-3.02934">
        <ele>6.87</ele>
        <time>2020-08-12T08:54:28Z</time>
      </trkpt>
      <trkpt lat="47.57386" lon="-3.02926">
        <ele>6.87</ele>
        <time>2020-08-12T08:54:33Z</time>
      </trkpt>
      <trkpt lat="47.57386" lon="-3.02915">
        <ele>6.87</ele>
        <time>2020-08-12T08:54:39Z</time>
      </trkpt>
      <trkpt lat="47.57385" lon="-3.02898">
        <ele>6.87</ele>
        <time>2020-08-12T08:54:49Z</time>
      </trkpt>
      <trkpt lat="47.57385" lon="-3.02891">
        <ele>6.87</ele>
        <time>2020-08-12T08:54:53Z</time>
      </trkpt>
      <trkpt lat="47.57384" lon="-3.02881">
        <ele>6.87</ele>
        <time>2020-08-12T08:54:59Z</time>
      </trkpt>
      <trkpt lat="47.57384" lon="-3.02876">
        <ele>6.87</ele>
        <time>2020-08-12T08:55:02Z</time>
      </trkpt>
      <trkpt lat="47.57385" lon="-3.02869">
        <ele>6.87</ele>
        <time>2020-08-12T08:55:06Z</time>
      </trkpt>
      <trkpt lat="47.57386" lon="-3.02859">
        <ele>6.87</ele>
        <time>2020-08-12T08:55:11Z</time>
      </trkpt>
      <trkpt lat="47.57384" lon="-3.0285">
        <ele>6.87</ele>
        <time>2020-08-12T08:55:17Z</time>
      </trkpt>
      <trkpt lat="47.57384" lon="-3.02845">
        <ele>7.35</ele>
        <time>2020-08-12T08:55:20Z</time>
      </trkpt>
      <trkpt lat="47.57386" lon="-3.02829">
        <ele>6.87</ele>
        <time>2020-08-12T08:55:29Z</time>
      </trkpt>
      <trkpt lat="47.57388" lon="-3.02806">
        <ele>7.35</ele>
        <time>2020-08-12T08:55:43Z</time>
      </trkpt>
      <trkpt lat="47.57389" lon="-3.02791">
        <ele>7.35</ele>
        <time>2020-08-12T08:55:52Z</time>
      </trkpt>
      <trkpt lat="47.57391" lon="-3.02779">
        <ele>7.35</ele>
        <time>2020-08-12T08:55:59Z</time>
      </trkpt>
      <trkpt lat="47.5739" lon="-3.02769">
        <ele>7.83</ele>
        <time>2020-08-12T08:56:13Z</time>
      </trkpt>
      <trkpt lat="47.57391" lon="-3.02767">
        <ele>7.83</ele>
        <time>2020-08-12T08:56:31Z</time>
      </trkpt>
      <trkpt lat="47.57391" lon="-3.02767">
        <ele>8.31</ele>
        <time>2020-08-12T08:56:39Z</time>
      </trkpt>
      <trkpt lat="47.5739" lon="-3.02767">
        <ele>7.83</ele>
        <time>2020-08-12T08:56:41Z</time>
      </trkpt>
      <trkpt lat="47.57386" lon="-3.02765">
        <ele>8.31</ele>
        <time>2020-08-12T08:56:46Z</time>
      </trkpt>
      <trkpt lat="47.57372" lon="-3.02757">
        <ele>8.79</ele>
        <time>2020-08-12T08:57:02Z</time>
      </trkpt>
      <trkpt lat="47.57368" lon="-3.02753">
        <ele>8.79</ele>
        <time>2020-08-12T08:57:16Z</time>
      </trkpt>
      <trkpt lat="47.57366" lon="-3.02751">
        <ele>8.79</ele>
        <time>2020-08-12T08:57:18Z</time>
      </trkpt>
      <trkpt lat="47.57361" lon="-3.02748">
        <ele>8.79</ele>
        <time>2020-08-12T08:57:23Z</time>
      </trkpt>
      <trkpt lat="47.57359" lon="-3.02745">
        <ele>9.27</ele>
        <time>2020-08-12T08:57:26Z</time>
      </trkpt>
      <trkpt lat="47.57352" lon="-3.02734">
        <ele>9.27</ele>
        <time>2020-08-12T08:57:35Z</time>
      </trkpt>
      <trkpt lat="47.5734" lon="-3.02718">
        <ele>8.31</ele>
        <time>2020-08-12T08:57:49Z</time>
      </trkpt>
      <trkpt lat="47.57329" lon="-3.02702">
        <ele>7.83</ele>
        <time>2020-08-12T08:58:02Z</time>
      </trkpt>
      <trkpt lat="47.57317" lon="-3.02689">
        <ele>7.83</ele>
        <time>2020-08-12T08:58:15Z</time>
      </trkpt>
      <trkpt lat="47.57312" lon="-3.02685">
        <ele>7.35</ele>
        <time>2020-08-12T08:58:20Z</time>
      </trkpt>
      <trkpt lat="47.57311" lon="-3.02683">
        <ele>7.35</ele>
        <time>2020-08-12T08:58:22Z</time>
      </trkpt>
      <trkpt lat="47.57304" lon="-3.02677">
        <ele>7.35</ele>
        <time>2020-08-12T08:58:29Z</time>
      </trkpt>
      <trkpt lat="47.57293" lon="-3.02664">
        <ele>6.87</ele>
        <time>2020-08-12T08:58:42Z</time>
      </trkpt>
      <trkpt lat="47.57292" lon="-3.02664">
        <ele>6.87</ele>
        <time>2020-08-12T08:58:43Z</time>
      </trkpt>
      <trkpt lat="47.57289" lon="-3.02659">
        <ele>6.87</ele>
        <time>2020-08-12T08:58:47Z</time>
      </trkpt>
      <trkpt lat="47.5728" lon="-3.02648">
        <ele>6.87</ele>
        <time>2020-08-12T08:58:59Z</time>
      </trkpt>
      <trkpt lat="47.57277" lon="-3.02647">
        <ele>6.39</ele>
        <time>2020-08-12T08:59:02Z</time>
      </trkpt>
      <trkpt lat="47.57274" lon="-3.02643">
        <ele>6.39</ele>
        <time>2020-08-12T08:59:07Z</time>
      </trkpt>
      <trkpt lat="47.5727" lon="-3.02641">
        <ele>6.39</ele>
        <time>2020-08-12T08:59:10Z</time>
      </trkpt>
      <trkpt lat="47.57266" lon="-3.02638">
        <ele>6.39</ele>
        <time>2020-08-12T08:59:15Z</time>
      </trkpt>
      <trkpt lat="47.57261" lon="-3.02632">
        <ele>6.39</ele>
        <time>2020-08-12T08:59:22Z</time>
      </trkpt>
      <trkpt lat="47.57254" lon="-3.02624">
        <ele>6.39</ele>
        <time>2020-08-12T08:59:35Z</time>
      </trkpt>
      <trkpt lat="47.57237" lon="-3.02615">
        <ele>6.87</ele>
        <time>2020-08-12T08:59:51Z</time>
      </trkpt>
      <trkpt lat="47.57231" lon="-3.0261">
        <ele>7.35</ele>
        <time>2020-08-12T09:00:03Z</time>
      </trkpt>
      <trkpt lat="47.57218" lon="-3.02602">
        <ele>6.87</ele>
        <time>2020-08-12T09:00:17Z</time>
      </trkpt>
      <trkpt lat="47.57216" lon="-3.02601">
        <ele>5.91</ele>
        <time>2020-08-12T09:00:20Z</time>
      </trkpt>
      <trkpt lat="47.57212" lon="-3.02596">
        <ele>6.39</ele>
        <time>2020-08-12T09:00:24Z</time>
      </trkpt>
      <trkpt lat="47.57207" lon="-3.02591">
        <ele>5.91</ele>
        <time>2020-08-12T09:00:29Z</time>
      </trkpt>
      <trkpt lat="47.572" lon="-3.02587">
        <ele>6.39</ele>
        <time>2020-08-12T09:00:35Z</time>
      </trkpt>
      <trkpt lat="47.57199" lon="-3.02585">
        <ele>6.39</ele>
        <time>2020-08-12T09:00:37Z</time>
      </trkpt>
      <trkpt lat="47.57196" lon="-3.02583">
        <ele>6.39</ele>
        <time>2020-08-12T09:00:40Z</time>
      </trkpt>
      <trkpt lat="47.57185" lon="-3.02571">
        <ele>6.87</ele>
        <time>2020-08-12T09:00:53Z</time>
      </trkpt>
      <trkpt lat="47.57184" lon="-3.02569">
        <ele>6.39</ele>
        <time>2020-08-12T09:01:12Z</time>
      </trkpt>
      <trkpt lat="47.57177" lon="-3.02565">
        <ele>6.87</ele>
        <time>2020-08-12T09:01:27Z</time>
      </trkpt>
      <trkpt lat="47.57164" lon="-3.02555">
        <ele>6.87</ele>
        <time>2020-08-12T09:01:44Z</time>
      </trkpt>
      <trkpt lat="47.5716" lon="-3.02552">
        <ele>6.87</ele>
        <time>2020-08-12T09:01:57Z</time>
      </trkpt>
      <trkpt lat="47.57151" lon="-3.02543">
        <ele>7.35</ele>
        <time>2020-08-12T09:02:11Z</time>
      </trkpt>
      <trkpt lat="47.57141" lon="-3.02533">
        <ele>7.35</ele>
        <time>2020-08-12T09:02:25Z</time>
      </trkpt>
      <trkpt lat="47.5714" lon="-3.02532">
        <ele>7.35</ele>
        <time>2020-08-12T09:02:27Z</time>
      </trkpt>
      <trkpt lat="47.57139" lon="-3.0253">
        <ele>7.83</ele>
        <time>2020-08-12T09:02:29Z</time>
      </trkpt>
      <trkpt lat="47.57127" lon="-3.02524">
        <ele>8.31</ele>
        <time>2020-08-12T09:02:44Z</time>
      </trkpt>
      <trkpt lat="47.57125" lon="-3.0251">
        <ele>8.79</ele>
        <time>2020-08-12T09:02:54Z</time>
      </trkpt>
      <trkpt lat="47.57132" lon="-3.02497">
        <ele>7.83</ele>
        <time>2020-08-12T09:03:07Z</time>
      </trkpt>
      <trkpt lat="47.57139" lon="-3.02484">
        <ele>7.83</ele>
        <time>2020-08-12T09:03:21Z</time>
      </trkpt>
      <trkpt lat="47.57154" lon="-3.02461">
        <ele>8.31</ele>
        <time>2020-08-12T09:03:37Z</time>
      </trkpt>
      <trkpt lat="47.57159" lon="-3.0245">
        <ele>8.79</ele>
        <time>2020-08-12T09:03:45Z</time>
      </trkpt>
      <trkpt lat="47.57161" lon="-3.02447">
        <ele>8.79</ele>
        <time>2020-08-12T09:03:47Z</time>
      </trkpt>
      <trkpt lat="47.57163" lon="-3.02443">
        <ele>8.31</ele>
        <time>2020-08-12T09:03:50Z</time>
      </trkpt>
      <trkpt lat="47.57173" lon="-3.02427">
        <ele>9.27</ele>
        <time>2020-08-12T09:04:06Z</time>
      </trkpt>
      <trkpt lat="47.57176" lon="-3.02411">
        <ele>10.23</ele>
        <time>2020-08-12T09:04:20Z</time>
      </trkpt>
      <trkpt lat="47.5718" lon="-3.0239">
        <ele>11.19</ele>
        <time>2020-08-12T09:04:35Z</time>
      </trkpt>
      <trkpt lat="47.57182" lon="-3.02385">
        <ele>11.19</ele>
        <time>2020-08-12T09:04:39Z</time>
      </trkpt>
      <trkpt lat="47.5718" lon="-3.02384">
        <ele>10.71</ele>
        <time>2020-08-12T09:04:41Z</time>
      </trkpt>
      <trkpt lat="47.57176" lon="-3.02379">
        <ele>11.67</ele>
        <time>2020-08-12T09:04:50Z</time>
      </trkpt>
      <trkpt lat="47.57163" lon="-3.02374">
        <ele>12.15</ele>
        <time>2020-08-12T09:05:03Z</time>
      </trkpt>
      <trkpt lat="47.57151" lon="-3.02363">
        <ele>13.12</ele>
        <time>2020-08-12T09:05:17Z</time>
      </trkpt>
      <trkpt lat="47.57141" lon="-3.02359">
        <ele>13.12</ele>
        <time>2020-08-12T09:05:26Z</time>
      </trkpt>
      <trkpt lat="47.57129" lon="-3.0235">
        <ele>13.12</ele>
        <time>2020-08-12T09:05:39Z</time>
      </trkpt>
      <trkpt lat="47.57129" lon="-3.0235">
        <ele>13.12</ele>
        <time>2020-08-12T09:05:41Z</time>
      </trkpt>
      <trkpt lat="47.57128" lon="-3.02347">
        <ele>13.6</ele>
        <time>2020-08-12T09:05:43Z</time>
      </trkpt>
      <trkpt lat="47.57126" lon="-3.02344">
        <ele>13.12</ele>
        <time>2020-08-12T09:05:46Z</time>
      </trkpt>
      <trkpt lat="47.57121" lon="-3.02338">
        <ele>13.6</ele>
        <time>2020-08-12T09:05:51Z</time>
      </trkpt>
      <trkpt lat="47.57118" lon="-3.02334">
        <ele>13.12</ele>
        <time>2020-08-12T09:05:54Z</time>
      </trkpt>
      <trkpt lat="47.57106" lon="-3.02321">
        <ele>13.12</ele>
        <time>2020-08-12T09:06:08Z</time>
      </trkpt>
      <trkpt lat="47.57101" lon="-3.0231">
        <ele>13.12</ele>
        <time>2020-08-12T09:06:16Z</time>
      </trkpt>
      <trkpt lat="47.57099" lon="-3.02306">
        <ele>13.6</ele>
        <time>2020-08-12T09:06:19Z</time>
      </trkpt>
      <trkpt lat="47.57095" lon="-3.023">
        <ele>13.12</ele>
        <time>2020-08-12T09:06:25Z</time>
      </trkpt>
      <trkpt lat="47.57085" lon="-3.02285">
        <ele>13.12</ele>
        <time>2020-08-12T09:06:39Z</time>
      </trkpt>
      <trkpt lat="47.57084" lon="-3.02283">
        <ele>13.12</ele>
        <time>2020-08-12T09:06:42Z</time>
      </trkpt>
      <trkpt lat="47.57082" lon="-3.02279">
        <ele>13.12</ele>
        <time>2020-08-12T09:06:45Z</time>
      </trkpt>
      <trkpt lat="47.57077" lon="-3.02276">
        <ele>13.12</ele>
        <time>2020-08-12T09:06:50Z</time>
      </trkpt>
      <trkpt lat="47.57071" lon="-3.02272">
        <ele>13.12</ele>
        <time>2020-08-12T09:06:57Z</time>
      </trkpt>
      <trkpt lat="47.57067" lon="-3.02269">
        <ele>12.63</ele>
        <time>2020-08-12T09:07:01Z</time>
      </trkpt>
      <trkpt lat="47.57063" lon="-3.02265">
        <ele>12.63</ele>
        <time>2020-08-12T09:07:05Z</time>
      </trkpt>
      <trkpt lat="47.57061" lon="-3.0226">
        <ele>12.63</ele>
        <time>2020-08-12T09:07:08Z</time>
      </trkpt>
      <trkpt lat="47.57065" lon="-3.02237">
        <ele>11.67</ele>
        <time>2020-08-12T09:07:23Z</time>
      </trkpt>
      <trkpt lat="47.57069" lon="-3.0223">
        <ele>12.15</ele>
        <time>2020-08-12T09:07:37Z</time>
      </trkpt>
      <trkpt lat="47.5707" lon="-3.02228">
        <ele>12.15</ele>
        <time>2020-08-12T09:07:41Z</time>
      </trkpt>
      <trkpt lat="47.57085" lon="-3.02207">
        <ele>11.67</ele>
        <time>2020-08-12T09:07:59Z</time>
      </trkpt>
      <trkpt lat="47.57096" lon="-3.02184">
        <ele>11.19</ele>
        <time>2020-08-12T09:08:15Z</time>
      </trkpt>
      <trkpt lat="47.57102" lon="-3.02179">
        <ele>11.19</ele>
        <time>2020-08-12T09:08:20Z</time>
      </trkpt>
      <trkpt lat="47.57114" lon="-3.02172">
        <ele>10.23</ele>
        <time>2020-08-12T09:08:31Z</time>
      </trkpt>
      <trkpt lat="47.57119" lon="-3.02168">
        <ele>10.71</ele>
        <time>2020-08-12T09:08:36Z</time>
      </trkpt>
      <trkpt lat="47.57126" lon="-3.02161">
        <ele>9.75</ele>
        <time>2020-08-12T09:08:43Z</time>
      </trkpt>
      <trkpt lat="47.57138" lon="-3.02139">
        <ele>8.79</ele>
        <time>2020-08-12T09:09:00Z</time>
      </trkpt>
      <trkpt lat="47.57139" lon="-3.02138">
        <ele>8.79</ele>
        <time>2020-08-12T09:09:01Z</time>
      </trkpt>
      <trkpt lat="47.57145" lon="-3.02134">
        <ele>8.79</ele>
        <time>2020-08-12T09:09:09Z</time>
      </trkpt>
      <trkpt lat="47.57148" lon="-3.02136">
        <ele>8.31</ele>
        <time>2020-08-12T09:09:12Z</time>
      </trkpt>
      <trkpt lat="47.57155" lon="-3.02143">
        <ele>8.31</ele>
        <time>2020-08-12T09:09:19Z</time>
      </trkpt>
      <trkpt lat="47.57161" lon="-3.02153">
        <ele>7.83</ele>
        <time>2020-08-12T09:09:28Z</time>
      </trkpt>
      <trkpt lat="47.57169" lon="-3.02164">
        <ele>7.83</ele>
        <time>2020-08-12T09:09:38Z</time>
      </trkpt>
      <trkpt lat="47.57171" lon="-3.02169">
        <ele>8.79</ele>
        <time>2020-08-12T09:09:42Z</time>
      </trkpt>
      <trkpt lat="47.57177" lon="-3.02181">
        <ele>8.79</ele>
        <time>2020-08-12T09:09:52Z</time>
      </trkpt>
      <trkpt lat="47.57179" lon="-3.02186">
        <ele>8.79</ele>
        <time>2020-08-12T09:09:56Z</time>
      </trkpt>
      <trkpt lat="47.57188" lon="-3.02198">
        <ele>8.79</ele>
        <time>2020-08-12T09:10:08Z</time>
      </trkpt>
      <trkpt lat="47.572" lon="-3.02208">
        <ele>9.27</ele>
        <time>2020-08-12T09:10:21Z</time>
      </trkpt>
      <trkpt lat="47.57216" lon="-3.02216">
        <ele>9.27</ele>
        <time>2020-08-12T09:10:36Z</time>
      </trkpt>
      <trkpt lat="47.57217" lon="-3.02217">
        <ele>9.75</ele>
        <time>2020-08-12T09:10:37Z</time>
      </trkpt>
      <trkpt lat="47.57222" lon="-3.0222">
        <ele>9.27</ele>
        <time>2020-08-12T09:10:41Z</time>
      </trkpt>
      <trkpt lat="47.5723" lon="-3.02224">
        <ele>9.27</ele>
        <time>2020-08-12T09:10:49Z</time>
      </trkpt>
      <trkpt lat="47.57243" lon="-3.02229">
        <ele>8.79</ele>
        <time>2020-08-12T09:11:02Z</time>
      </trkpt>
      <trkpt lat="47.57243" lon="-3.02229">
        <ele>8.79</ele>
        <time>2020-08-12T09:11:03Z</time>
      </trkpt>
      <trkpt lat="47.57247" lon="-3.02231">
        <ele>8.79</ele>
        <time>2020-08-12T09:11:06Z</time>
      </trkpt>
      <trkpt lat="47.57251" lon="-3.02232">
        <ele>7.83</ele>
        <time>2020-08-12T09:11:10Z</time>
      </trkpt>
      <trkpt lat="47.57258" lon="-3.02236">
        <ele>8.31</ele>
        <time>2020-08-12T09:11:16Z</time>
      </trkpt>
      <trkpt lat="47.57258" lon="-3.02241">
        <ele>8.79</ele>
        <time>2020-08-12T09:11:20Z</time>
      </trkpt>
      <trkpt lat="47.57258" lon="-3.0225">
        <ele>8.79</ele>
        <time>2020-08-12T09:11:26Z</time>
      </trkpt>
      <trkpt lat="47.57258" lon="-3.02255">
        <ele>8.79</ele>
        <time>2020-08-12T09:11:29Z</time>
      </trkpt>
      <trkpt lat="47.57255" lon="-3.02258">
        <ele>8.79</ele>
        <time>2020-08-12T09:11:34Z</time>
      </trkpt>
      <trkpt lat="47.57242" lon="-3.02257">
        <ele>8.79</ele>
        <time>2020-08-12T09:11:47Z</time>
      </trkpt>
      <trkpt lat="47.57237" lon="-3.02257">
        <ele>9.75</ele>
        <time>2020-08-12T09:11:54Z</time>
      </trkpt>
      <trkpt lat="47.57237" lon="-3.02264">
        <ele>9.75</ele>
        <time>2020-08-12T09:12:03Z</time>
      </trkpt>
      <trkpt lat="47.57247" lon="-3.02278">
        <ele>8.79</ele>
        <time>2020-08-12T09:12:17Z</time>
      </trkpt>
      <trkpt lat="47.57257" lon="-3.02293">
        <ele>8.31</ele>
        <time>2020-08-12T09:12:29Z</time>
      </trkpt>
      <trkpt lat="47.57259" lon="-3.02295">
        <ele>8.31</ele>
        <time>2020-08-12T09:12:32Z</time>
      </trkpt>
      <trkpt lat="47.57266" lon="-3.02306">
        <ele>8.79</ele>
        <time>2020-08-12T09:12:44Z</time>
      </trkpt>
      <trkpt lat="47.5727" lon="-3.02309">
        <ele>7.83</ele>
        <time>2020-08-12T09:12:52Z</time>
      </trkpt>
      <trkpt lat="47.57281" lon="-3.02322">
        <ele>7.35</ele>
        <time>2020-08-12T09:13:05Z</time>
      </trkpt>
      <trkpt lat="47.57295" lon="-3.02335">
        <ele>7.35</ele>
        <time>2020-08-12T09:13:21Z</time>
      </trkpt>
      <trkpt lat="47.573" lon="-3.02338">
        <ele>7.35</ele>
        <time>2020-08-12T09:13:26Z</time>
      </trkpt>
      <trkpt lat="47.57313" lon="-3.02343">
        <ele>8.31</ele>
        <time>2020-08-12T09:13:40Z</time>
      </trkpt>
      <trkpt lat="47.57322" lon="-3.02347">
        <ele>8.31</ele>
        <time>2020-08-12T09:13:49Z</time>
      </trkpt>
      <trkpt lat="47.57328" lon="-3.02353">
        <ele>8.31</ele>
        <time>2020-08-12T09:13:55Z</time>
      </trkpt>
      <trkpt lat="47.57339" lon="-3.02358">
        <ele>8.31</ele>
        <time>2020-08-12T09:14:06Z</time>
      </trkpt>
      <trkpt lat="47.57349" lon="-3.02355">
        <ele>8.79</ele>
        <time>2020-08-12T09:14:19Z</time>
      </trkpt>
      <trkpt lat="47.57349" lon="-3.02356">
        <ele>8.79</ele>
        <time>2020-08-12T09:14:34Z</time>
      </trkpt>
      <trkpt lat="47.5735" lon="-3.02357">
        <ele>9.27</ele>
        <time>2020-08-12T09:14:56Z</time>
      </trkpt>
      <trkpt lat="47.57352" lon="-3.02357">
        <ele>8.79</ele>
        <time>2020-08-12T09:15:25Z</time>
      </trkpt>
      <trkpt lat="47.57356" lon="-3.02355">
        <ele>8.79</ele>
        <time>2020-08-12T09:15:41Z</time>
      </trkpt>
      <trkpt lat="47.57357" lon="-3.02354">
        <ele>9.27</ele>
        <time>2020-08-12T09:15:43Z</time>
      </trkpt>
      <trkpt lat="47.57362" lon="-3.0235">
        <ele>10.23</ele>
        <time>2020-08-12T09:15:51Z</time>
      </trkpt>
      <trkpt lat="47.57368" lon="-3.02346">
        <ele>9.75</ele>
        <time>2020-08-12T09:16:00Z</time>
      </trkpt>
      <trkpt lat="47.57379" lon="-3.02337">
        <ele>9.27</ele>
        <time>2020-08-12T09:16:11Z</time>
      </trkpt>
      <trkpt lat="47.57383" lon="-3.02334">
        <ele>10.23</ele>
        <time>2020-08-12T09:16:15Z</time>
      </trkpt>
      <trkpt lat="47.57392" lon="-3.02327">
        <ele>10.23</ele>
        <time>2020-08-12T09:16:24Z</time>
      </trkpt>
      <trkpt lat="47.57398" lon="-3.02322">
        <ele>10.23</ele>
        <time>2020-08-12T09:16:30Z</time>
      </trkpt>
      <trkpt lat="47.57403" lon="-3.02322">
        <ele>10.71</ele>
        <time>2020-08-12T09:16:34Z</time>
      </trkpt>
      <trkpt lat="47.57417" lon="-3.02315">
        <ele>10.23</ele>
        <time>2020-08-12T09:16:50Z</time>
      </trkpt>
      <trkpt lat="47.57432" lon="-3.02309">
        <ele>10.23</ele>
        <time>2020-08-12T09:17:03Z</time>
      </trkpt>
      <trkpt lat="47.57445" lon="-3.023">
        <ele>10.71</ele>
        <time>2020-08-12T09:17:16Z</time>
      </trkpt>
      <trkpt lat="47.57448" lon="-3.02294">
        <ele>10.23</ele>
        <time>2020-08-12T09:17:21Z</time>
      </trkpt>
      <trkpt lat="47.5746" lon="-3.02283">
        <ele>10.71</ele>
        <time>2020-08-12T09:17:35Z</time>
      </trkpt>
      <trkpt lat="47.5747" lon="-3.02275">
        <ele>10.71</ele>
        <time>2020-08-12T09:17:47Z</time>
      </trkpt>
      <trkpt lat="47.57472" lon="-3.02272">
        <ele>10.71</ele>
        <time>2020-08-12T09:17:49Z</time>
      </trkpt>
      <trkpt lat="47.57481" lon="-3.02268">
        <ele>11.19</ele>
        <time>2020-08-12T09:17:56Z</time>
      </trkpt>
      <trkpt lat="47.57485" lon="-3.02264">
        <ele>10.71</ele>
        <time>2020-08-12T09:18:00Z</time>
      </trkpt>
      <trkpt lat="47.57501" lon="-3.02257">
        <ele>10.71</ele>
        <time>2020-08-12T09:18:14Z</time>
      </trkpt>
      <trkpt lat="47.57511" lon="-3.02268">
        <ele>10.23</ele>
        <time>2020-08-12T09:18:26Z</time>
      </trkpt>
      <trkpt lat="47.57519" lon="-3.02269">
        <ele>10.23</ele>
        <time>2020-08-12T09:18:33Z</time>
      </trkpt>
      <trkpt lat="47.57521" lon="-3.02269">
        <ele>10.23</ele>
        <time>2020-08-12T09:18:35Z</time>
      </trkpt>
      <trkpt lat="47.57528" lon="-3.02266">
        <ele>10.23</ele>
        <time>2020-08-12T09:18:41Z</time>
      </trkpt>
      <trkpt lat="47.57542" lon="-3.02265">
        <ele>9.27</ele>
        <time>2020-08-12T09:18:55Z</time>
      </trkpt>
      <trkpt lat="47.57547" lon="-3.02266">
        <ele>7.83</ele>
        <time>2020-08-12T09:19:00Z</time>
      </trkpt>
      <trkpt lat="47.57555" lon="-3.02274">
        <ele>7.83</ele>
        <time>2020-08-12T09:19:08Z</time>
      </trkpt>
      <trkpt lat="47.57561" lon="-3.0228">
        <ele>7.83</ele>
        <time>2020-08-12T09:19:15Z</time>
      </trkpt>
      <trkpt lat="47.57565" lon="-3.02287">
        <ele>7.35</ele>
        <time>2020-08-12T09:19:20Z</time>
      </trkpt>
      <trkpt lat="47.57571" lon="-3.02306">
        <ele>8.79</ele>
        <time>2020-08-12T09:19:33Z</time>
      </trkpt>
      <trkpt lat="47.57579" lon="-3.02309">
        <ele>9.27</ele>
        <time>2020-08-12T09:19:40Z</time>
      </trkpt>
      <trkpt lat="47.5759" lon="-3.02308">
        <ele>10.23</ele>
        <time>2020-08-12T09:19:52Z</time>
      </trkpt>
      <trkpt lat="47.57605" lon="-3.02312">
        <ele>11.67</ele>
        <time>2020-08-12T09:20:06Z</time>
      </trkpt>
      <trkpt lat="47.57618" lon="-3.02315">
        <ele>12.63</ele>
        <time>2020-08-12T09:20:19Z</time>
      </trkpt>
      <trkpt lat="47.57624" lon="-3.02319">
        <ele>13.6</ele>
        <time>2020-08-12T09:20:25Z</time>
      </trkpt>
      <trkpt lat="47.57627" lon="-3.02321">
        <ele>13.12</ele>
        <time>2020-08-12T09:20:28Z</time>
      </trkpt>
      <trkpt lat="47.57643" lon="-3.0232">
        <ele>13.6</ele>
        <time>2020-08-12T09:20:43Z</time>
      </trkpt>
      <trkpt lat="47.57656" lon="-3.02321">
        <ele>13.6</ele>
        <time>2020-08-12T09:20:57Z</time>
      </trkpt>
      <trkpt lat="47.57657" lon="-3.02321">
        <ele>13.12</ele>
        <time>2020-08-12T09:20:58Z</time>
      </trkpt>
      <trkpt lat="47.57667" lon="-3.02321">
        <ele>13.6</ele>
        <time>2020-08-12T09:21:07Z</time>
      </trkpt>
      <trkpt lat="47.57682" lon="-3.02326">
        <ele>13.6</ele>
        <time>2020-08-12T09:21:20Z</time>
      </trkpt>
      <trkpt lat="47.57686" lon="-3.02325">
        <ele>13.12</ele>
        <time>2020-08-12T09:21:24Z</time>
      </trkpt>
      <trkpt lat="47.57702" lon="-3.02325">
        <ele>12.15</ele>
        <time>2020-08-12T09:21:38Z</time>
      </trkpt>
      <trkpt lat="47.57704" lon="-3.02326">
        <ele>11.67</ele>
        <time>2020-08-12T09:21:41Z</time>
      </trkpt>
      <trkpt lat="47.57708" lon="-3.02325">
        <ele>11.19</ele>
        <time>2020-08-12T09:21:44Z</time>
      </trkpt>
      <trkpt lat="47.57715" lon="-3.02318">
        <ele>11.19</ele>
        <time>2020-08-12T09:21:51Z</time>
      </trkpt>
      <trkpt lat="47.57725" lon="-3.02319">
        <ele>10.23</ele>
        <time>2020-08-12T09:22:00Z</time>
      </trkpt>
      <trkpt lat="47.57742" lon="-3.02327">
        <ele>10.23</ele>
        <time>2020-08-12T09:22:14Z</time>
      </trkpt>
      <trkpt lat="47.57748" lon="-3.0233">
        <ele>10.71</ele>
        <time>2020-08-12T09:22:20Z</time>
      </trkpt>
      <trkpt lat="47.57759" lon="-3.02323">
        <ele>10.71</ele>
        <time>2020-08-12T09:22:31Z</time>
      </trkpt>
      <trkpt lat="47.57766" lon="-3.0232">
        <ele>10.71</ele>
        <time>2020-08-12T09:22:38Z</time>
      </trkpt>
      <trkpt lat="47.57774" lon="-3.02318">
        <ele>12.15</ele>
        <time>2020-08-12T09:22:48Z</time>
      </trkpt>
      <trkpt lat="47.57788" lon="-3.02318">
        <ele>13.12</ele>
        <time>2020-08-12T09:23:00Z</time>
      </trkpt>
      <trkpt lat="47.57794" lon="-3.02316">
        <ele>13.6</ele>
        <time>2020-08-12T09:23:05Z</time>
      </trkpt>
      <trkpt lat="47.57798" lon="-3.02313">
        <ele>13.12</ele>
        <time>2020-08-12T09:23:10Z</time>
      </trkpt>
      <trkpt lat="47.57808" lon="-3.0231">
        <ele>12.63</ele>
        <time>2020-08-12T09:23:21Z</time>
      </trkpt>
      <trkpt lat="47.5781" lon="-3.02308">
        <ele>12.63</ele>
        <time>2020-08-12T09:23:24Z</time>
      </trkpt>
      <trkpt lat="47.57816" lon="-3.02304">
        <ele>12.63</ele>
        <time>2020-08-12T09:23:29Z</time>
      </trkpt>
      <trkpt lat="47.57819" lon="-3.02303">
        <ele>12.63</ele>
        <time>2020-08-12T09:23:32Z</time>
      </trkpt>
      <trkpt lat="47.57825" lon="-3.02301">
        <ele>12.15</ele>
        <time>2020-08-12T09:23:37Z</time>
      </trkpt>
      <trkpt lat="47.57836" lon="-3.02293">
        <ele>11.67</ele>
        <time>2020-08-12T09:23:48Z</time>
      </trkpt>
      <trkpt lat="47.57846" lon="-3.02283">
        <ele>11.19</ele>
        <time>2020-08-12T09:24:00Z</time>
      </trkpt>
      <trkpt lat="47.57853" lon="-3.02272">
        <ele>10.23</ele>
        <time>2020-08-12T09:24:10Z</time>
      </trkpt>
      <trkpt lat="47.57862" lon="-3.02257">
        <ele>10.71</ele>
        <time>2020-08-12T09:24:22Z</time>
      </trkpt>
      <trkpt lat="47.57878" lon="-3.02242">
        <ele>10.23</ele>
        <time>2020-08-12T09:24:38Z</time>
      </trkpt>
      <trkpt lat="47.57879" lon="-3.02241">
        <ele>10.23</ele>
        <time>2020-08-12T09:24:40Z</time>
      </trkpt>
      <trkpt lat="47.57885" lon="-3.02238">
        <ele>9.75</ele>
        <time>2020-08-12T09:24:45Z</time>
      </trkpt>
      <trkpt lat="47.57888" lon="-3.0223">
        <ele>9.27</ele>
        <time>2020-08-12T09:24:50Z</time>
      </trkpt>
      <trkpt lat="47.57902" lon="-3.02226">
        <ele>10.23</ele>
        <time>2020-08-12T09:25:03Z</time>
      </trkpt>
      <trkpt lat="47.5791" lon="-3.02227">
        <ele>9.75</ele>
        <time>2020-08-12T09:25:11Z</time>
      </trkpt>
      <trkpt lat="47.57912" lon="-3.02226">
        <ele>10.23</ele>
        <time>2020-08-12T09:25:13Z</time>
      </trkpt>
      <trkpt lat="47.57915" lon="-3.02227">
        <ele>10.23</ele>
        <time>2020-08-12T09:25:16Z</time>
      </trkpt>
      <trkpt lat="47.57922" lon="-3.02226">
        <ele>9.75</ele>
        <time>2020-08-12T09:25:23Z</time>
      </trkpt>
      <trkpt lat="47.57924" lon="-3.02227">
        <ele>10.23</ele>
        <time>2020-08-12T09:25:25Z</time>
      </trkpt>
      <trkpt lat="47.57939" lon="-3.02233">
        <ele>9.75</ele>
        <time>2020-08-12T09:25:40Z</time>
      </trkpt>
      <trkpt lat="47.57943" lon="-3.02237">
        <ele>9.27</ele>
        <time>2020-08-12T09:25:54Z</time>
      </trkpt>
      <trkpt lat="47.57943" lon="-3.02237">
        <ele>9.27</ele>
        <time>2020-08-12T09:26:17Z</time>
      </trkpt>
      <trkpt lat="47.57943" lon="-3.02238">
        <ele>9.27</ele>
        <time>2020-08-12T09:26:41Z</time>
      </trkpt>
      <trkpt lat="47.57943" lon="-3.02238">
        <ele>9.27</ele>
        <time>2020-08-12T09:27:04Z</time>
      </trkpt>
      <trkpt lat="47.57946" lon="-3.02244">
        <ele>9.27</ele>
        <time>2020-08-12T09:27:09Z</time>
      </trkpt>
      <trkpt lat="47.57946" lon="-3.02251">
        <ele>9.27</ele>
        <time>2020-08-12T09:27:14Z</time>
      </trkpt>
      <trkpt lat="47.57947" lon="-3.02257">
        <ele>8.79</ele>
        <time>2020-08-12T09:27:18Z</time>
      </trkpt>
      <trkpt lat="47.57953" lon="-3.02271">
        <ele>9.27</ele>
        <time>2020-08-12T09:27:28Z</time>
      </trkpt>
      <trkpt lat="47.57956" lon="-3.02274">
        <ele>8.79</ele>
        <time>2020-08-12T09:27:31Z</time>
      </trkpt>
      <trkpt lat="47.57959" lon="-3.02279">
        <ele>8.79</ele>
        <time>2020-08-12T09:27:35Z</time>
      </trkpt>
      <trkpt lat="47.57966" lon="-3.02291">
        <ele>9.27</ele>
        <time>2020-08-12T09:27:44Z</time>
      </trkpt>
      <trkpt lat="47.57968" lon="-3.02295">
        <ele>8.31</ele>
        <time>2020-08-12T09:27:47Z</time>
      </trkpt>
      <trkpt lat="47.57979" lon="-3.02319">
        <ele>8.31</ele>
        <time>2020-08-12T09:28:03Z</time>
      </trkpt>
      <trkpt lat="47.57982" lon="-3.02333">
        <ele>8.79</ele>
        <time>2020-08-12T09:28:12Z</time>
      </trkpt>
      <trkpt lat="47.57984" lon="-3.02338">
        <ele>8.31</ele>
        <time>2020-08-12T09:28:17Z</time>
      </trkpt>
      <trkpt lat="47.57986" lon="-3.02344">
        <ele>8.79</ele>
        <time>2020-08-12T09:28:21Z</time>
      </trkpt>
      <trkpt lat="47.57994" lon="-3.02371">
        <ele>8.79</ele>
        <time>2020-08-12T09:28:38Z</time>
      </trkpt>
      <trkpt lat="47.57996" lon="-3.02378">
        <ele>8.79</ele>
        <time>2020-08-12T09:28:43Z</time>
      </trkpt>
      <trkpt lat="47.57999" lon="-3.02383">
        <ele>8.79</ele>
        <time>2020-08-12T09:28:57Z</time>
      </trkpt>
      <trkpt lat="47.58006" lon="-3.02397">
        <ele>8.79</ele>
        <time>2020-08-12T09:29:10Z</time>
      </trkpt>
      <trkpt lat="47.58011" lon="-3.02409">
        <ele>8.79</ele>
        <time>2020-08-12T09:29:22Z</time>
      </trkpt>
      <trkpt lat="47.58013" lon="-3.02417">
        <ele>9.27</ele>
        <time>2020-08-12T09:29:35Z</time>
      </trkpt>
      <trkpt lat="47.58014" lon="-3.0242">
        <ele>9.27</ele>
        <time>2020-08-12T09:29:47Z</time>
      </trkpt>
      <trkpt lat="47.58017" lon="-3.02427">
        <ele>9.27</ele>
        <time>2020-08-12T09:29:52Z</time>
      </trkpt>
      <trkpt lat="47.58018" lon="-3.02434">
        <ele>10.23</ele>
        <time>2020-08-12T09:29:57Z</time>
      </trkpt>
      <trkpt lat="47.58023" lon="-3.02439">
        <ele>9.27</ele>
        <time>2020-08-12T09:30:05Z</time>
      </trkpt>
      <trkpt lat="47.58026" lon="-3.0244">
        <ele>9.27</ele>
        <time>2020-08-12T09:30:08Z</time>
      </trkpt>
      <trkpt lat="47.58033" lon="-3.02455">
        <ele>9.27</ele>
        <time>2020-08-12T09:30:17Z</time>
      </trkpt>
      <trkpt lat="47.58037" lon="-3.02467">
        <ele>9.75</ele>
        <time>2020-08-12T09:30:30Z</time>
      </trkpt>
      <trkpt lat="47.58039" lon="-3.02472">
        <ele>10.23</ele>
        <time>2020-08-12T09:30:33Z</time>
      </trkpt>
      <trkpt lat="47.58049" lon="-3.02488">
        <ele>9.75</ele>
        <time>2020-08-12T09:30:49Z</time>
      </trkpt>
      <trkpt lat="47.58059" lon="-3.02502">
        <ele>9.75</ele>
        <time>2020-08-12T09:31:03Z</time>
      </trkpt>
      <trkpt lat="47.5807" lon="-3.02519">
        <ele>9.75</ele>
        <time>2020-08-12T09:31:18Z</time>
      </trkpt>
      <trkpt lat="47.58082" lon="-3.02539">
        <ele>9.75</ele>
        <time>2020-08-12T09:31:32Z</time>
      </trkpt>
      <trkpt lat="47.58083" lon="-3.02546">
        <ele>10.23</ele>
        <time>2020-08-12T09:31:36Z</time>
      </trkpt>
      <trkpt lat="47.58081" lon="-3.02561">
        <ele>11.67</ele>
        <time>2020-08-12T09:31:48Z</time>
      </trkpt>
      <trkpt lat="47.58082" lon="-3.02564">
        <ele>12.15</ele>
        <time>2020-08-12T09:31:51Z</time>
      </trkpt>
      <trkpt lat="47.5809" lon="-3.02573">
        <ele>12.63</ele>
        <time>2020-08-12T09:32:03Z</time>
      </trkpt>
      <trkpt lat="47.58095" lon="-3.02583">
        <ele>12.63</ele>
        <time>2020-08-12T09:32:11Z</time>
      </trkpt>
      <trkpt lat="47.58097" lon="-3.02589">
        <ele>12.63</ele>
        <time>2020-08-12T09:32:15Z</time>
      </trkpt>
      <trkpt lat="47.58107" lon="-3.02609">
        <ele>13.12</ele>
        <time>2020-08-12T09:32:30Z</time>
      </trkpt>
      <trkpt lat="47.58114" lon="-3.02619">
        <ele>13.6</ele>
        <time>2020-08-12T09:32:38Z</time>
      </trkpt>
      <trkpt lat="47.5812" lon="-3.02626">
        <ele>13.6</ele>
        <time>2020-08-12T09:32:45Z</time>
      </trkpt>
      <trkpt lat="47.58133" lon="-3.02631">
        <ele>13.6</ele>
        <time>2020-08-12T09:32:58Z</time>
      </trkpt>
      <trkpt lat="47.58134" lon="-3.02631">
        <ele>13.12</ele>
        <time>2020-08-12T09:32:59Z</time>
      </trkpt>
      <trkpt lat="47.58139" lon="-3.02637">
        <ele>13.6</ele>
        <time>2020-08-12T09:33:05Z</time>
      </trkpt>
      <trkpt lat="47.58143" lon="-3.02637">
        <ele>13.6</ele>
        <time>2020-08-12T09:33:09Z</time>
      </trkpt>
      <trkpt lat="47.58146" lon="-3.02639">
        <ele>13.6</ele>
        <time>2020-08-12T09:33:12Z</time>
      </trkpt>
      <trkpt lat="47.58156" lon="-3.02642">
        <ele>13.6</ele>
        <time>2020-08-12T09:33:23Z</time>
      </trkpt>
      <trkpt lat="47.58158" lon="-3.02643">
        <ele>13.6</ele>
        <time>2020-08-12T09:33:25Z</time>
      </trkpt>
      <trkpt lat="47.58172" lon="-3.02647">
        <ele>13.6</ele>
        <time>2020-08-12T09:33:35Z</time>
      </trkpt>
      <trkpt lat="47.58186" lon="-3.02665">
        <ele>15.04</ele>
        <time>2020-08-12T09:33:51Z</time>
      </trkpt>
      <trkpt lat="47.58199" lon="-3.02682">
        <ele>15.52</ele>
        <time>2020-08-12T09:34:06Z</time>
      </trkpt>
      <trkpt lat="47.58202" lon="-3.02685">
        <ele>15.52</ele>
        <time>2020-08-12T09:34:09Z</time>
      </trkpt>
      <trkpt lat="47.58207" lon="-3.0269">
        <ele>15.04</ele>
        <time>2020-08-12T09:34:14Z</time>
      </trkpt>
      <trkpt lat="47.58217" lon="-3.02692">
        <ele>14.56</ele>
        <time>2020-08-12T09:34:24Z</time>
      </trkpt>
      <trkpt lat="47.58226" lon="-3.0269">
        <ele>14.08</ele>
        <time>2020-08-12T09:34:33Z</time>
      </trkpt>
      <trkpt lat="47.58232" lon="-3.02694">
        <ele>13.6</ele>
        <time>2020-08-12T09:34:39Z</time>
      </trkpt>
      <trkpt lat="47.58243" lon="-3.02698">
        <ele>13.12</ele>
        <time>2020-08-12T09:34:49Z</time>
      </trkpt>
      <trkpt lat="47.5825" lon="-3.02697">
        <ele>13.12</ele>
        <time>2020-08-12T09:34:55Z</time>
      </trkpt>
      <trkpt lat="47.58256" lon="-3.02697">
        <ele>13.12</ele>
        <time>2020-08-12T09:35:00Z</time>
      </trkpt>
      <trkpt lat="47.58261" lon="-3.02697">
        <ele>13.12</ele>
        <time>2020-08-12T09:35:04Z</time>
      </trkpt>
      <trkpt lat="47.5827" lon="-3.02697">
        <ele>13.12</ele>
        <time>2020-08-12T09:35:12Z</time>
      </trkpt>
      <trkpt lat="47.58278" lon="-3.02694">
        <ele>13.12</ele>
        <time>2020-08-12T09:35:20Z</time>
      </trkpt>
      <trkpt lat="47.58289" lon="-3.02696">
        <ele>13.12</ele>
        <time>2020-08-12T09:35:29Z</time>
      </trkpt>
      <trkpt lat="47.58294" lon="-3.02696">
        <ele>12.63</ele>
        <time>2020-08-12T09:35:33Z</time>
      </trkpt>
      <trkpt lat="47.58311" lon="-3.02695">
        <ele>13.12</ele>
        <time>2020-08-12T09:35:47Z</time>
      </trkpt>
      <trkpt lat="47.58316" lon="-3.02695">
        <ele>13.12</ele>
        <time>2020-08-12T09:35:51Z</time>
      </trkpt>
      <trkpt lat="47.5833" lon="-3.02684">
        <ele>13.6</ele>
        <time>2020-08-12T09:36:06Z</time>
      </trkpt>
      <trkpt lat="47.58333" lon="-3.02685">
        <ele>13.6</ele>
        <time>2020-08-12T09:36:09Z</time>
      </trkpt>
      <trkpt lat="47.58348" lon="-3.02688">
        <ele>14.08</ele>
        <time>2020-08-12T09:36:22Z</time>
      </trkpt>
      <trkpt lat="47.5835" lon="-3.02687">
        <ele>14.08</ele>
        <time>2020-08-12T09:36:25Z</time>
      </trkpt>
      <trkpt lat="47.58358" lon="-3.02693">
        <ele>14.08</ele>
        <time>2020-08-12T09:36:36Z</time>
      </trkpt>
      <trkpt lat="47.58364" lon="-3.02698">
        <ele>15.52</ele>
        <time>2020-08-12T09:36:49Z</time>
      </trkpt>
      <trkpt lat="47.58364" lon="-3.02699">
        <ele>15.52</ele>
        <time>2020-08-12T09:37:12Z</time>
      </trkpt>
      <trkpt lat="47.58364" lon="-3.02699">
        <ele>15.52</ele>
        <time>2020-08-12T09:37:35Z</time>
      </trkpt>
      <trkpt lat="47.58364" lon="-3.02698">
        <ele>15.52</ele>
        <time>2020-08-12T09:37:54Z</time>
      </trkpt>
      <trkpt lat="47.58363" lon="-3.02699">
        <ele>16</ele>
        <time>2020-08-12T09:38:18Z</time>
      </trkpt>
      <trkpt lat="47.58364" lon="-3.027">
        <ele>15.52</ele>
        <time>2020-08-12T09:38:52Z</time>
      </trkpt>
      <trkpt lat="47.58363" lon="-3.02698">
        <ele>16</ele>
        <time>2020-08-12T09:39:27Z</time>
      </trkpt>
      <trkpt lat="47.58364" lon="-3.02698">
        <ele>16</ele>
        <time>2020-08-12T09:39:48Z</time>
      </trkpt>
      <trkpt lat="47.58364" lon="-3.02698">
        <ele>15.52</ele>
        <time>2020-08-12T09:40:12Z</time>
      </trkpt>
      <trkpt lat="47.58364" lon="-3.02698">
        <ele>11.67</ele>
        <time>2020-08-12T09:40:33Z</time>
      </trkpt>
      <trkpt lat="47.58364" lon="-3.02698">
        <ele>18.4</ele>
        <time>2020-08-12T09:40:34Z</time>
      </trkpt>
      <trkpt lat="47.58364" lon="-3.02699">
        <ele>15.04</ele>
        <time>2020-08-12T09:40:47Z</time>
      </trkpt>
      <trkpt lat="47.58364" lon="-3.02699">
        <ele>15.52</ele>
        <time>2020-08-12T09:41:20Z</time>
      </trkpt>
      <trkpt lat="47.58364" lon="-3.027">
        <ele>14.56</ele>
        <time>2020-08-12T09:41:57Z</time>
      </trkpt>
      <trkpt lat="47.58364" lon="-3.02701">
        <ele>15.52</ele>
        <time>2020-08-12T09:42:26Z</time>
      </trkpt>
      <trkpt lat="47.58364" lon="-3.027">
        <ele>14.56</ele>
        <time>2020-08-12T09:42:49Z</time>
      </trkpt>
      <trkpt lat="47.58365" lon="-3.02701">
        <ele>16</ele>
        <time>2020-08-12T09:43:02Z</time>
      </trkpt>
      <trkpt lat="47.58366" lon="-3.02699">
        <ele>15.04</ele>
        <time>2020-08-12T09:43:12Z</time>
      </trkpt>
      <trkpt lat="47.58379" lon="-3.0269">
        <ele>15.04</ele>
        <time>2020-08-12T09:43:27Z</time>
      </trkpt>
      <trkpt lat="47.5839" lon="-3.02689">
        <ele>13.6</ele>
        <time>2020-08-12T09:43:44Z</time>
      </trkpt>
      <trkpt lat="47.58397" lon="-3.02688">
        <ele>13.12</ele>
        <time>2020-08-12T09:43:50Z</time>
      </trkpt>
      <trkpt lat="47.58415" lon="-3.02686">
        <ele>11.67</ele>
        <time>2020-08-12T09:44:08Z</time>
      </trkpt>
      <trkpt lat="47.5842" lon="-3.02686">
        <ele>11.19</ele>
        <time>2020-08-12T09:44:23Z</time>
      </trkpt>
      <trkpt lat="47.5844" lon="-3.02682">
        <ele>10.23</ele>
        <time>2020-08-12T09:44:41Z</time>
      </trkpt>
      <trkpt lat="47.58442" lon="-3.0268">
        <ele>9.75</ele>
        <time>2020-08-12T09:44:43Z</time>
      </trkpt>
      <trkpt lat="47.58448" lon="-3.0268">
        <ele>10.23</ele>
        <time>2020-08-12T09:44:47Z</time>
      </trkpt>
      <trkpt lat="47.5847" lon="-3.02679">
        <ele>10.23</ele>
        <time>2020-08-12T09:45:05Z</time>
      </trkpt>
      <trkpt lat="47.58484" lon="-3.02677">
        <ele>10.71</ele>
        <time>2020-08-12T09:45:20Z</time>
      </trkpt>
      <trkpt lat="47.58485" lon="-3.02677">
        <ele>10.23</ele>
        <time>2020-08-12T09:45:26Z</time>
      </trkpt>
      <trkpt lat="47.58495" lon="-3.02674">
        <ele>10.71</ele>
        <time>2020-08-12T09:45:36Z</time>
      </trkpt>
      <trkpt lat="47.58499" lon="-3.02673">
        <ele>10.71</ele>
        <time>2020-08-12T09:45:40Z</time>
      </trkpt>
      <trkpt lat="47.58505" lon="-3.02671">
        <ele>10.71</ele>
        <time>2020-08-12T09:45:47Z</time>
      </trkpt>
      <trkpt lat="47.5851" lon="-3.02671">
        <ele>10.71</ele>
        <time>2020-08-12T09:45:52Z</time>
      </trkpt>
      <trkpt lat="47.58524" lon="-3.02665">
        <ele>11.19</ele>
        <time>2020-08-12T09:46:06Z</time>
      </trkpt>
      <trkpt lat="47.5854" lon="-3.02659">
        <ele>10.71</ele>
        <time>2020-08-12T09:46:20Z</time>
      </trkpt>
      <trkpt lat="47.58559" lon="-3.02656">
        <ele>10.23</ele>
        <time>2020-08-12T09:46:38Z</time>
      </trkpt>
      <trkpt lat="47.58562" lon="-3.02656">
        <ele>10.71</ele>
        <time>2020-08-12T09:46:41Z</time>
      </trkpt>
      <trkpt lat="47.58568" lon="-3.02658">
        <ele>10.23</ele>
        <time>2020-08-12T09:46:47Z</time>
      </trkpt>
      <trkpt lat="47.5857" lon="-3.02659">
        <ele>10.71</ele>
        <time>2020-08-12T09:46:49Z</time>
      </trkpt>
      <trkpt lat="47.58579" lon="-3.02662">
        <ele>10.71</ele>
        <time>2020-08-12T09:47:01Z</time>
      </trkpt>
      <trkpt lat="47.5859" lon="-3.02667">
        <ele>10.23</ele>
        <time>2020-08-12T09:47:12Z</time>
      </trkpt>
      <trkpt lat="47.58602" lon="-3.02673">
        <ele>11.19</ele>
        <time>2020-08-12T09:47:25Z</time>
      </trkpt>
      <trkpt lat="47.58602" lon="-3.02674">
        <ele>10.71</ele>
        <time>2020-08-12T09:47:38Z</time>
      </trkpt>
      <trkpt lat="47.58602" lon="-3.02676">
        <ele>10.71</ele>
        <time>2020-08-12T09:47:56Z</time>
      </trkpt>
      <trkpt lat="47.58601" lon="-3.02675">
        <ele>10.23</ele>
        <time>2020-08-12T09:48:16Z</time>
      </trkpt>
      <trkpt lat="47.586" lon="-3.02675">
        <ele>10.71</ele>
        <time>2020-08-12T09:48:40Z</time>
      </trkpt>
      <trkpt lat="47.58601" lon="-3.02674">
        <ele>10.71</ele>
        <time>2020-08-12T09:48:51Z</time>
      </trkpt>
      <trkpt lat="47.58607" lon="-3.02675">
        <ele>10.71</ele>
        <time>2020-08-12T09:48:55Z</time>
      </trkpt>
      <trkpt lat="47.5863" lon="-3.02687">
        <ele>10.71</ele>
        <time>2020-08-12T09:49:13Z</time>
      </trkpt>
      <trkpt lat="47.58633" lon="-3.02689">
        <ele>10.71</ele>
        <time>2020-08-12T09:49:18Z</time>
      </trkpt>
      <trkpt lat="47.58636" lon="-3.0269">
        <ele>11.19</ele>
        <time>2020-08-12T09:49:21Z</time>
      </trkpt>
      <trkpt lat="47.58638" lon="-3.0269">
        <ele>10.71</ele>
        <time>2020-08-12T09:49:23Z</time>
      </trkpt>
      <trkpt lat="47.58645" lon="-3.02691">
        <ele>10.71</ele>
        <time>2020-08-12T09:49:28Z</time>
      </trkpt>
      <trkpt lat="47.5867" lon="-3.02702">
        <ele>10.71</ele>
        <time>2020-08-12T09:49:45Z</time>
      </trkpt>
      <trkpt lat="47.58672" lon="-3.02703">
        <ele>10.71</ele>
        <time>2020-08-12T09:49:47Z</time>
      </trkpt>
      <trkpt lat="47.58692" lon="-3.02704">
        <ele>10.71</ele>
        <time>2020-08-12T09:50:02Z</time>
      </trkpt>
      <trkpt lat="47.58708" lon="-3.02715">
        <ele>10.71</ele>
        <time>2020-08-12T09:50:18Z</time>
      </trkpt>
      <trkpt lat="47.5871" lon="-3.02717">
        <ele>11.19</ele>
        <time>2020-08-12T09:50:29Z</time>
      </trkpt>
      <trkpt lat="47.5871" lon="-3.02716">
        <ele>11.19</ele>
        <time>2020-08-12T09:50:43Z</time>
      </trkpt>
      <trkpt lat="47.5871" lon="-3.02716">
        <ele>10.71</ele>
        <time>2020-08-12T09:51:03Z</time>
      </trkpt>
      <trkpt lat="47.58713" lon="-3.02713">
        <ele>11.19</ele>
        <time>2020-08-12T09:51:24Z</time>
      </trkpt>
      <trkpt lat="47.58714" lon="-3.02709">
        <ele>10.71</ele>
        <time>2020-08-12T09:51:50Z</time>
      </trkpt>
      <trkpt lat="47.58715" lon="-3.02707">
        <ele>11.19</ele>
        <time>2020-08-12T09:52:15Z</time>
      </trkpt>
      <trkpt lat="47.58715" lon="-3.02707">
        <ele>11.19</ele>
        <time>2020-08-12T09:52:38Z</time>
      </trkpt>
      <trkpt lat="47.58717" lon="-3.02714">
        <ele>11.19</ele>
        <time>2020-08-12T09:53:00Z</time>
      </trkpt>
      <trkpt lat="47.58715" lon="-3.02715">
        <ele>11.19</ele>
        <time>2020-08-12T09:53:03Z</time>
      </trkpt>
      <trkpt lat="47.58713" lon="-3.02714">
        <ele>10.71</ele>
        <time>2020-08-12T09:53:05Z</time>
      </trkpt>
      <trkpt lat="47.58705" lon="-3.02711">
        <ele>10.71</ele>
        <time>2020-08-12T09:53:13Z</time>
      </trkpt>
      <trkpt lat="47.58686" lon="-3.02704">
        <ele>10.71</ele>
        <time>2020-08-12T09:53:28Z</time>
      </trkpt>
      <trkpt lat="47.58661" lon="-3.02697">
        <ele>10.71</ele>
        <time>2020-08-12T09:53:43Z</time>
      </trkpt>
      <trkpt lat="47.58649" lon="-3.02696">
        <ele>10.71</ele>
        <time>2020-08-12T09:53:54Z</time>
      </trkpt>
      <trkpt lat="47.58642" lon="-3.02693">
        <ele>10.23</ele>
        <time>2020-08-12T09:54:01Z</time>
      </trkpt>
      <trkpt lat="47.5863" lon="-3.02689">
        <ele>10.71</ele>
        <time>2020-08-12T09:54:15Z</time>
      </trkpt>
      <trkpt lat="47.5863" lon="-3.0269">
        <ele>10.71</ele>
        <time>2020-08-12T09:54:22Z</time>
      </trkpt>
      <trkpt lat="47.58633" lon="-3.02693">
        <ele>10.71</ele>
        <time>2020-08-12T09:54:25Z</time>
      </trkpt>
      <trkpt lat="47.58646" lon="-3.02696">
        <ele>10.71</ele>
        <time>2020-08-12T09:54:39Z</time>
      </trkpt>
      <trkpt lat="47.58657" lon="-3.027">
        <ele>10.71</ele>
        <time>2020-08-12T09:54:51Z</time>
      </trkpt>
      <trkpt lat="47.58659" lon="-3.027">
        <ele>10.23</ele>
        <time>2020-08-12T09:54:53Z</time>
      </trkpt>
      <trkpt lat="47.58671" lon="-3.02703">
        <ele>10.23</ele>
        <time>2020-08-12T09:55:07Z</time>
      </trkpt>
      <trkpt lat="47.58676" lon="-3.02705">
        <ele>10.23</ele>
        <time>2020-08-12T09:55:13Z</time>
      </trkpt>
      <trkpt lat="47.58679" lon="-3.02704">
        <ele>10.23</ele>
        <time>2020-08-12T09:55:15Z</time>
      </trkpt>
      <trkpt lat="47.58689" lon="-3.02707">
        <ele>10.23</ele>
        <time>2020-08-12T09:55:29Z</time>
      </trkpt>
      <trkpt lat="47.58689" lon="-3.02709">
        <ele>10.23</ele>
        <time>2020-08-12T09:55:42Z</time>
      </trkpt>
      <trkpt lat="47.58689" lon="-3.0271">
        <ele>10.71</ele>
        <time>2020-08-12T09:55:59Z</time>
      </trkpt>
      <trkpt lat="47.58689" lon="-3.0271">
        <ele>10.23</ele>
        <time>2020-08-12T09:56:16Z</time>
      </trkpt>
      <trkpt lat="47.5869" lon="-3.02711">
        <ele>10.23</ele>
        <time>2020-08-12T09:56:42Z</time>
      </trkpt>
      <trkpt lat="47.58691" lon="-3.02711">
        <ele>10.23</ele>
        <time>2020-08-12T09:56:56Z</time>
      </trkpt>
      <trkpt lat="47.58691" lon="-3.0271">
        <ele>10.71</ele>
        <time>2020-08-12T09:57:13Z</time>
      </trkpt>
      <trkpt lat="47.58691" lon="-3.02711">
        <ele>10.23</ele>
        <time>2020-08-12T09:57:37Z</time>
      </trkpt>
      <trkpt lat="47.58691" lon="-3.02711">
        <ele>12.63</ele>
        <time>2020-08-12T09:57:56Z</time>
      </trkpt>
      <trkpt lat="47.58691" lon="-3.02711">
        <ele>9.27</ele>
        <time>2020-08-12T09:57:57Z</time>
      </trkpt>
      <trkpt lat="47.58691" lon="-3.02711">
        <ele>10.71</ele>
        <time>2020-08-12T09:58:15Z</time>
      </trkpt>
      <trkpt lat="47.58691" lon="-3.02711">
        <ele>10.23</ele>
        <time>2020-08-12T09:58:35Z</time>
      </trkpt>
      <trkpt lat="47.58691" lon="-3.02711">
        <ele>12.15</ele>
        <time>2020-08-12T09:58:48Z</time>
      </trkpt>
      <trkpt lat="47.58691" lon="-3.02711">
        <ele>11.19</ele>
        <time>2020-08-12T09:58:50Z</time>
      </trkpt>
      <trkpt lat="47.58691" lon="-3.02711">
        <ele>11.19</ele>
        <time>2020-08-12T09:59:07Z</time>
      </trkpt>
      <trkpt lat="47.58692" lon="-3.02711">
        <ele>11.19</ele>
        <time>2020-08-12T09:59:13Z</time>
      </trkpt>
      <trkpt lat="47.58695" lon="-3.0271">
        <ele>11.19</ele>
        <time>2020-08-12T09:59:23Z</time>
      </trkpt>
      <trkpt lat="47.58697" lon="-3.02702">
        <ele>10.71</ele>
        <time>2020-08-12T09:59:30Z</time>
      </trkpt>
      <trkpt lat="47.58701" lon="-3.02686">
        <ele>10.71</ele>
        <time>2020-08-12T09:59:42Z</time>
      </trkpt>
      <trkpt lat="47.58702" lon="-3.02666">
        <ele>11.19</ele>
        <time>2020-08-12T09:59:58Z</time>
      </trkpt>
      <trkpt lat="47.58706" lon="-3.02651">
        <ele>11.19</ele>
        <time>2020-08-12T10:00:11Z</time>
      </trkpt>
      <trkpt lat="47.5871" lon="-3.02645">
        <ele>11.67</ele>
        <time>2020-08-12T10:00:24Z</time>
      </trkpt>
      <trkpt lat="47.58714" lon="-3.02639">
        <ele>11.19</ele>
        <time>2020-08-12T10:00:36Z</time>
      </trkpt>
      <trkpt lat="47.5872" lon="-3.02626">
        <ele>11.67</ele>
        <time>2020-08-12T10:00:50Z</time>
      </trkpt>
      <trkpt lat="47.58726" lon="-3.02612">
        <ele>11.67</ele>
        <time>2020-08-12T10:01:04Z</time>
      </trkpt>
      <trkpt lat="47.58731" lon="-3.02604">
        <ele>12.15</ele>
        <time>2020-08-12T10:01:17Z</time>
      </trkpt>
      <trkpt lat="47.58735" lon="-3.02589">
        <ele>11.67</ele>
        <time>2020-08-12T10:01:32Z</time>
      </trkpt>
      <trkpt lat="47.58737" lon="-3.02586">
        <ele>12.63</ele>
        <time>2020-08-12T10:01:49Z</time>
      </trkpt>
      <trkpt lat="47.58737" lon="-3.02585">
        <ele>12.15</ele>
        <time>2020-08-12T10:01:52Z</time>
      </trkpt>
      <trkpt lat="47.58741" lon="-3.0258">
        <ele>12.63</ele>
        <time>2020-08-12T10:02:06Z</time>
      </trkpt>
      <trkpt lat="47.58745" lon="-3.02575">
        <ele>12.63</ele>
        <time>2020-08-12T10:02:18Z</time>
      </trkpt>
      <trkpt lat="47.58746" lon="-3.02571">
        <ele>12.15</ele>
        <time>2020-08-12T10:02:33Z</time>
      </trkpt>
      <trkpt lat="47.58748" lon="-3.02561">
        <ele>12.15</ele>
        <time>2020-08-12T10:02:45Z</time>
      </trkpt>
      <trkpt lat="47.58752" lon="-3.02555">
        <ele>11.67</ele>
        <time>2020-08-12T10:03:08Z</time>
      </trkpt>
      <trkpt lat="47.58755" lon="-3.02546">
        <ele>12.63</ele>
        <time>2020-08-12T10:03:20Z</time>
      </trkpt>
      <trkpt lat="47.58757" lon="-3.02538">
        <ele>12.63</ele>
        <time>2020-08-12T10:03:33Z</time>
      </trkpt>
      <trkpt lat="47.5876" lon="-3.0253">
        <ele>12.63</ele>
        <time>2020-08-12T10:03:45Z</time>
      </trkpt>
      <trkpt lat="47.58763" lon="-3.02519">
        <ele>12.15</ele>
        <time>2020-08-12T10:03:59Z</time>
      </trkpt>
      <trkpt lat="47.5877" lon="-3.02503">
        <ele>12.15</ele>
        <time>2020-08-12T10:04:13Z</time>
      </trkpt>
      <trkpt lat="47.58772" lon="-3.02499">
        <ele>12.63</ele>
        <time>2020-08-12T10:04:26Z</time>
      </trkpt>
      <trkpt lat="47.58776" lon="-3.02491">
        <ele>12.63</ele>
        <time>2020-08-12T10:04:44Z</time>
      </trkpt>
      <trkpt lat="47.5878" lon="-3.02478">
        <ele>12.15</ele>
        <time>2020-08-12T10:04:56Z</time>
      </trkpt>
      <trkpt lat="47.58786" lon="-3.02465">
        <ele>12.63</ele>
        <time>2020-08-12T10:05:10Z</time>
      </trkpt>
      <trkpt lat="47.5879" lon="-3.02451">
        <ele>12.15</ele>
        <time>2020-08-12T10:05:24Z</time>
      </trkpt>
      <trkpt lat="47.58792" lon="-3.02448">
        <ele>12.15</ele>
        <time>2020-08-12T10:05:39Z</time>
      </trkpt>
      <trkpt lat="47.58795" lon="-3.02442">
        <ele>12.15</ele>
        <time>2020-08-12T10:05:50Z</time>
      </trkpt>
      <trkpt lat="47.58798" lon="-3.02437">
        <ele>12.15</ele>
        <time>2020-08-12T10:06:02Z</time>
      </trkpt>
      <trkpt lat="47.58796" lon="-3.02444">
        <ele>12.15</ele>
        <time>2020-08-12T10:06:17Z</time>
      </trkpt>
      <trkpt lat="47.58794" lon="-3.02455">
        <ele>12.63</ele>
        <time>2020-08-12T10:06:31Z</time>
      </trkpt>
      <trkpt lat="47.58794" lon="-3.02457">
        <ele>12.15</ele>
        <time>2020-08-12T10:06:44Z</time>
      </trkpt>
      <trkpt lat="47.58793" lon="-3.02461">
        <ele>12.15</ele>
        <time>2020-08-12T10:07:00Z</time>
      </trkpt>
      <trkpt lat="47.5879" lon="-3.02472">
        <ele>11.67</ele>
        <time>2020-08-12T10:07:12Z</time>
      </trkpt>
      <trkpt lat="47.58787" lon="-3.02479">
        <ele>11.67</ele>
        <time>2020-08-12T10:07:25Z</time>
      </trkpt>
      <trkpt lat="47.58785" lon="-3.02483">
        <ele>12.15</ele>
        <time>2020-08-12T10:07:39Z</time>
      </trkpt>
      <trkpt lat="47.58782" lon="-3.02487">
        <ele>11.67</ele>
        <time>2020-08-12T10:07:52Z</time>
      </trkpt>
      <trkpt lat="47.5878" lon="-3.02496">
        <ele>11.67</ele>
        <time>2020-08-12T10:08:05Z</time>
      </trkpt>
      <trkpt lat="47.58776" lon="-3.02506">
        <ele>12.15</ele>
        <time>2020-08-12T10:08:16Z</time>
      </trkpt>
      <trkpt lat="47.58772" lon="-3.02515">
        <ele>11.67</ele>
        <time>2020-08-12T10:08:30Z</time>
      </trkpt>
      <trkpt lat="47.58766" lon="-3.02529">
        <ele>12.15</ele>
        <time>2020-08-12T10:08:44Z</time>
      </trkpt>
      <trkpt lat="47.58758" lon="-3.02548">
        <ele>11.67</ele>
        <time>2020-08-12T10:08:57Z</time>
      </trkpt>
      <trkpt lat="47.58755" lon="-3.02561">
        <ele>12.15</ele>
        <time>2020-08-12T10:09:08Z</time>
      </trkpt>
      <trkpt lat="47.58753" lon="-3.02564">
        <ele>11.67</ele>
        <time>2020-08-12T10:09:19Z</time>
      </trkpt>
      <trkpt lat="47.5875" lon="-3.02577">
        <ele>11.67</ele>
        <time>2020-08-12T10:09:33Z</time>
      </trkpt>
      <trkpt lat="47.58746" lon="-3.0259">
        <ele>11.67</ele>
        <time>2020-08-12T10:09:47Z</time>
      </trkpt>
      <trkpt lat="47.58744" lon="-3.02597">
        <ele>11.19</ele>
        <time>2020-08-12T10:09:59Z</time>
      </trkpt>
      <trkpt lat="47.58742" lon="-3.02603">
        <ele>11.19</ele>
        <time>2020-08-12T10:10:12Z</time>
      </trkpt>
      <trkpt lat="47.58738" lon="-3.02611">
        <ele>11.67</ele>
        <time>2020-08-12T10:10:26Z</time>
      </trkpt>
      <trkpt lat="47.58734" lon="-3.02618">
        <ele>11.67</ele>
        <time>2020-08-12T10:10:38Z</time>
      </trkpt>
      <trkpt lat="47.5873" lon="-3.02628">
        <ele>11.67</ele>
        <time>2020-08-12T10:10:51Z</time>
      </trkpt>
      <trkpt lat="47.5873" lon="-3.02639">
        <ele>12.15</ele>
        <time>2020-08-12T10:11:05Z</time>
      </trkpt>
      <trkpt lat="47.58734" lon="-3.0265">
        <ele>11.67</ele>
        <time>2020-08-12T10:11:18Z</time>
      </trkpt>
      <trkpt lat="47.58736" lon="-3.02658">
        <ele>11.67</ele>
        <time>2020-08-12T10:11:31Z</time>
      </trkpt>
      <trkpt lat="47.58737" lon="-3.02663">
        <ele>11.67</ele>
        <time>2020-08-12T10:11:44Z</time>
      </trkpt>
      <trkpt lat="47.58737" lon="-3.02665">
        <ele>11.19</ele>
        <time>2020-08-12T10:11:59Z</time>
      </trkpt>
      <trkpt lat="47.58737" lon="-3.02666">
        <ele>11.67</ele>
        <time>2020-08-12T10:12:12Z</time>
      </trkpt>
      <trkpt lat="47.58738" lon="-3.02668">
        <ele>11.67</ele>
        <time>2020-08-12T10:12:36Z</time>
      </trkpt>
      <trkpt lat="47.58738" lon="-3.02669">
        <ele>11.19</ele>
        <time>2020-08-12T10:13:05Z</time>
      </trkpt>
      <trkpt lat="47.58739" lon="-3.02671">
        <ele>11.19</ele>
        <time>2020-08-12T10:13:31Z</time>
      </trkpt>
      <trkpt lat="47.58741" lon="-3.0268">
        <ele>11.19</ele>
        <time>2020-08-12T10:13:46Z</time>
      </trkpt>
      <trkpt lat="47.58743" lon="-3.02685">
        <ele>11.19</ele>
        <time>2020-08-12T10:13:59Z</time>
      </trkpt>
      <trkpt lat="47.58745" lon="-3.02694">
        <ele>11.19</ele>
        <time>2020-08-12T10:14:10Z</time>
      </trkpt>
      <trkpt lat="47.5875" lon="-3.02704">
        <ele>11.19</ele>
        <time>2020-08-12T10:14:23Z</time>
      </trkpt>
      <trkpt lat="47.58754" lon="-3.02711">
        <ele>11.19</ele>
        <time>2020-08-12T10:14:36Z</time>
      </trkpt>
      <trkpt lat="47.58766" lon="-3.02722">
        <ele>11.67</ele>
        <time>2020-08-12T10:14:49Z</time>
      </trkpt>
      <trkpt lat="47.58779" lon="-3.02735">
        <ele>11.19</ele>
        <time>2020-08-12T10:15:03Z</time>
      </trkpt>
      <trkpt lat="47.5879" lon="-3.02745">
        <ele>11.19</ele>
        <time>2020-08-12T10:15:17Z</time>
      </trkpt>
      <trkpt lat="47.58796" lon="-3.0275">
        <ele>11.19</ele>
        <time>2020-08-12T10:15:28Z</time>
      </trkpt>
      <trkpt lat="47.58805" lon="-3.02758">
        <ele>10.71</ele>
        <time>2020-08-12T10:15:40Z</time>
      </trkpt>
      <trkpt lat="47.58814" lon="-3.02762">
        <ele>11.19</ele>
        <time>2020-08-12T10:15:53Z</time>
      </trkpt>
      <trkpt lat="47.58822" lon="-3.0277">
        <ele>11.67</ele>
        <time>2020-08-12T10:16:06Z</time>
      </trkpt>
      <trkpt lat="47.58835" lon="-3.0278">
        <ele>11.67</ele>
        <time>2020-08-12T10:16:21Z</time>
      </trkpt>
      <trkpt lat="47.58839" lon="-3.02785">
        <ele>11.67</ele>
        <time>2020-08-12T10:16:34Z</time>
      </trkpt>
      <trkpt lat="47.58844" lon="-3.0279">
        <ele>11.19</ele>
        <time>2020-08-12T10:16:47Z</time>
      </trkpt>
      <trkpt lat="47.58845" lon="-3.0279">
        <ele>11.19</ele>
        <time>2020-08-12T10:16:48Z</time>
      </trkpt>
      <trkpt lat="47.58852" lon="-3.02795">
        <ele>11.19</ele>
        <time>2020-08-12T10:16:56Z</time>
      </trkpt>
      <trkpt lat="47.58863" lon="-3.02802">
        <ele>11.19</ele>
        <time>2020-08-12T10:17:10Z</time>
      </trkpt>
      <trkpt lat="47.58874" lon="-3.0281">
        <ele>11.19</ele>
        <time>2020-08-12T10:17:23Z</time>
      </trkpt>
      <trkpt lat="47.58883" lon="-3.02819">
        <ele>11.19</ele>
        <time>2020-08-12T10:17:35Z</time>
      </trkpt>
      <trkpt lat="47.58893" lon="-3.02827">
        <ele>11.19</ele>
        <time>2020-08-12T10:17:48Z</time>
      </trkpt>
      <trkpt lat="47.58903" lon="-3.02835">
        <ele>11.67</ele>
        <time>2020-08-12T10:18:02Z</time>
      </trkpt>
      <trkpt lat="47.58915" lon="-3.02842">
        <ele>11.67</ele>
        <time>2020-08-12T10:18:16Z</time>
      </trkpt>
      <trkpt lat="47.58921" lon="-3.02849">
        <ele>11.67</ele>
        <time>2020-08-12T10:18:24Z</time>
      </trkpt>
      <trkpt lat="47.58921" lon="-3.02852">
        <ele>11.67</ele>
        <time>2020-08-12T10:18:30Z</time>
      </trkpt>
      <trkpt lat="47.58923" lon="-3.02855">
        <ele>11.67</ele>
        <time>2020-08-12T10:18:33Z</time>
      </trkpt>
      <trkpt lat="47.58927" lon="-3.02869">
        <ele>11.67</ele>
        <time>2020-08-12T10:18:44Z</time>
      </trkpt>
      <trkpt lat="47.58926" lon="-3.02883">
        <ele>12.15</ele>
        <time>2020-08-12T10:18:58Z</time>
      </trkpt>
      <trkpt lat="47.58925" lon="-3.02886">
        <ele>11.67</ele>
        <time>2020-08-12T10:19:04Z</time>
      </trkpt>
      <trkpt lat="47.58928" lon="-3.02895">
        <ele>12.15</ele>
        <time>2020-08-12T10:19:12Z</time>
      </trkpt>
      <trkpt lat="47.58932" lon="-3.02901">
        <ele>12.63</ele>
        <time>2020-08-12T10:19:22Z</time>
      </trkpt>
      <trkpt lat="47.58933" lon="-3.02903">
        <ele>12.63</ele>
        <time>2020-08-12T10:19:28Z</time>
      </trkpt>
      <trkpt lat="47.58934" lon="-3.02919">
        <ele>13.12</ele>
        <time>2020-08-12T10:19:41Z</time>
      </trkpt>
      <trkpt lat="47.58936" lon="-3.0293">
        <ele>13.12</ele>
        <time>2020-08-12T10:19:54Z</time>
      </trkpt>
      <trkpt lat="47.58935" lon="-3.02941">
        <ele>13.12</ele>
        <time>2020-08-12T10:20:06Z</time>
      </trkpt>
      <trkpt lat="47.58936" lon="-3.02945">
        <ele>13.12</ele>
        <time>2020-08-12T10:20:08Z</time>
      </trkpt>
      <trkpt lat="47.58936" lon="-3.0295">
        <ele>13.12</ele>
        <time>2020-08-12T10:20:12Z</time>
      </trkpt>
      <trkpt lat="47.58938" lon="-3.02955">
        <ele>13.6</ele>
        <time>2020-08-12T10:20:26Z</time>
      </trkpt>
      <trkpt lat="47.58939" lon="-3.02961">
        <ele>14.08</ele>
        <time>2020-08-12T10:20:35Z</time>
      </trkpt>
      <trkpt lat="47.58939" lon="-3.02967">
        <ele>13.6</ele>
        <time>2020-08-12T10:20:39Z</time>
      </trkpt>
      <trkpt lat="47.58938" lon="-3.02969">
        <ele>14.08</ele>
        <time>2020-08-12T10:20:41Z</time>
      </trkpt>
      <trkpt lat="47.58928" lon="-3.02987">
        <ele>14.08</ele>
        <time>2020-08-12T10:20:55Z</time>
      </trkpt>
      <trkpt lat="47.58927" lon="-3.0299">
        <ele>14.08</ele>
        <time>2020-08-12T10:20:57Z</time>
      </trkpt>
      <trkpt lat="47.58923" lon="-3.03">
        <ele>14.08</ele>
        <time>2020-08-12T10:21:08Z</time>
      </trkpt>
      <trkpt lat="47.5892" lon="-3.03011">
        <ele>14.08</ele>
        <time>2020-08-12T10:21:18Z</time>
      </trkpt>
      <trkpt lat="47.58926" lon="-3.0302">
        <ele>13.6</ele>
        <time>2020-08-12T10:21:30Z</time>
      </trkpt>
      <trkpt lat="47.58919" lon="-3.03023">
        <ele>14.08</ele>
        <time>2020-08-12T10:21:43Z</time>
      </trkpt>
      <trkpt lat="47.58896" lon="-3.03036">
        <ele>14.08</ele>
        <time>2020-08-12T10:21:53Z</time>
      </trkpt>
      <trkpt lat="47.58879" lon="-3.03043">
        <ele>14.56</ele>
        <time>2020-08-12T10:22:06Z</time>
      </trkpt>
      <trkpt lat="47.58877" lon="-3.03047">
        <ele>14.56</ele>
        <time>2020-08-12T10:22:09Z</time>
      </trkpt>
      <trkpt lat="47.58878" lon="-3.0305">
        <ele>14.56</ele>
        <time>2020-08-12T10:22:12Z</time>
      </trkpt>
      <trkpt lat="47.58879" lon="-3.0306">
        <ele>15.52</ele>
        <time>2020-08-12T10:22:23Z</time>
      </trkpt>
      <trkpt lat="47.58887" lon="-3.0307">
        <ele>16</ele>
        <time>2020-08-12T10:22:32Z</time>
      </trkpt>
      <trkpt lat="47.5889" lon="-3.03077">
        <ele>16.48</ele>
        <time>2020-08-12T10:22:38Z</time>
      </trkpt>
      <trkpt lat="47.58892" lon="-3.03081">
        <ele>16.96</ele>
        <time>2020-08-12T10:22:41Z</time>
      </trkpt>
      <trkpt lat="47.58894" lon="-3.03083">
        <ele>16.96</ele>
        <time>2020-08-12T10:22:43Z</time>
      </trkpt>
      <trkpt lat="47.58893" lon="-3.03105">
        <ele>18.4</ele>
        <time>2020-08-12T10:22:57Z</time>
      </trkpt>
      <trkpt lat="47.58893" lon="-3.03113">
        <ele>18.88</ele>
        <time>2020-08-12T10:23:02Z</time>
      </trkpt>
      <trkpt lat="47.58894" lon="-3.03116">
        <ele>18.88</ele>
        <time>2020-08-12T10:23:04Z</time>
      </trkpt>
      <trkpt lat="47.58894" lon="-3.0313">
        <ele>19.36</ele>
        <time>2020-08-12T10:23:16Z</time>
      </trkpt>
      <trkpt lat="47.58894" lon="-3.03144">
        <ele>20.32</ele>
        <time>2020-08-12T10:23:27Z</time>
      </trkpt>
      <trkpt lat="47.58895" lon="-3.03153">
        <ele>20.81</ele>
        <time>2020-08-12T10:23:35Z</time>
      </trkpt>
      <trkpt lat="47.58893" lon="-3.03167">
        <ele>21.77</ele>
        <time>2020-08-12T10:23:49Z</time>
      </trkpt>
      <trkpt lat="47.58888" lon="-3.03168">
        <ele>22.25</ele>
        <time>2020-08-12T10:24:08Z</time>
      </trkpt>
      <trkpt lat="47.58887" lon="-3.03167">
        <ele>21.77</ele>
        <time>2020-08-12T10:24:25Z</time>
      </trkpt>
      <trkpt lat="47.58887" lon="-3.03168">
        <ele>21.77</ele>
        <time>2020-08-12T10:24:42Z</time>
      </trkpt>
      <trkpt lat="47.58887" lon="-3.03168">
        <ele>21.77</ele>
        <time>2020-08-12T10:25:03Z</time>
      </trkpt>
      <trkpt lat="47.58887" lon="-3.03169">
        <ele>21.77</ele>
        <time>2020-08-12T10:25:34Z</time>
      </trkpt>
      <trkpt lat="47.58887" lon="-3.03169">
        <ele>22.73</ele>
        <time>2020-08-12T10:25:58Z</time>
      </trkpt>
      <trkpt lat="47.58888" lon="-3.03167">
        <ele>19.36</ele>
        <time>2020-08-12T10:26:06Z</time>
      </trkpt>
      <trkpt lat="47.58888" lon="-3.03167">
        <ele>14.08</ele>
        <time>2020-08-12T10:26:13Z</time>
      </trkpt>
      <trkpt lat="47.58888" lon="-3.03168">
        <ele>22.73</ele>
        <time>2020-08-12T10:26:14Z</time>
      </trkpt>
      <trkpt lat="47.58887" lon="-3.03168">
        <ele>21.77</ele>
        <time>2020-08-12T10:26:18Z</time>
      </trkpt>
      <trkpt lat="47.58887" lon="-3.03165">
        <ele>18.88</ele>
        <time>2020-08-12T10:26:20Z</time>
      </trkpt>
      <trkpt lat="47.58888" lon="-3.03162">
        <ele>20.32</ele>
        <time>2020-08-12T10:26:21Z</time>
      </trkpt>
    </trkseg>
  </trk>
</gpx>